
Distance (Route):
Temperature : 10.3°C
Humidity : 58%
Pressure : 0hPa| Receiver | Frames | First received | Last received |
|---|---|---|---|
| IW2NTF | 691 | 2026-09-05 11:45:35 | 2026-09-05 13:48:23 |
| DO3MHA-11 | 406 | 2026-09-05 11:30:12 | 2026-09-05 13:31:26 |
| DB0UT-7 | 222 | 2026-09-05 11:13:16 | 2026-09-05 13:37:16 |
| BIOWL1-15 | 187 | 2026-09-05 12:20:25 | 2026-09-05 12:57:43 |
| DO3MHA-12 | 160 | 2026-09-05 11:30:48 | 2026-09-05 13:31:21 |
| DM0DOS-11 | 155 | 2026-09-05 12:23:52 | 2026-09-05 12:58:27 |
| HASLITAL | 135 | 2026-09-05 12:02:09 | 2026-09-05 13:26:52 |
| DK5PH-5 | 127 | 2026-09-05 11:38:40 | 2026-09-05 13:17:22 |
| DB0ND-19 | 123 | 2026-09-05 11:15:20 | 2026-09-05 13:36:32 |
| DL1ZP-14 | 82 | 2026-09-05 11:45:30 | 2026-09-05 13:05:15 |
| DF7PN | 78 | 2026-09-05 11:57:23 | 2026-09-05 13:05:13 |
| DF1GD-15 | 53 | 2026-09-05 13:13:27 | 2026-09-05 13:37:10 |
| DL6DJ-15 | 40 | 2026-09-05 12:14:26 | 2026-09-05 13:00:00 |
| DH7VM-15 | 25 | 2026-09-05 11:31:15 | 2026-09-05 13:33:32 |
| BIOWL9-15 | 25 | 2026-09-05 12:23:44 | 2026-09-05 12:56:52 |
| IN3HCDX | 25 | 2026-09-05 12:26:55 | 2026-09-05 13:24:29 |
| HARRO8 | 23 | 2026-09-05 11:49:29 | 2026-09-05 12:55:14 |
| OE5DXL-15 | 11 | 2026-09-05 12:29:43 | 2026-09-05 12:56:50 |
| DL9SK-14 | 6 | 2026-09-05 13:29:57 | 2026-09-05 13:32:32 |
| DB0NH | 3 | 2026-09-05 12:34:58 | 2026-09-05 12:37:29 |
| Receiver | Date | Latitude | Longitude | Direction | Speed | Altitude | Climb | Temperature | Humidity | Pressure | Voltage | Killtimer | Uptime | BKT | XDATA |
|---|---|---|---|---|---|---|---|---|---|---|---|---|---|---|---|
| IW2NTF | 2026-09-05 13:48:23 | 46.28989 | 8.39901 | 151° | 16km/h | 2782m | -4.9m/s | 10.3°C | 58% | 0hPa | 2.7V | 07:35:14 | 03:14:38 | 00:00:00 | |
| IW2NTF | 2026-09-05 13:48:18 | 46.29011 | 8.39885 | 153° | 16km/h | 2811m | -5.4m/s | 9.9°C | 60.9% | 0hPa | 2.7V | 07:35:20 | 03:14:32 | 00:00:00 | |
| IW2NTF | 2026-09-05 13:48:11 | 46.29033 | 8.39868 | 149° | 15km/h | 2844m | -5.5m/s | 9.7°C | 62.2% | 0hPa | 2.6V | 07:35:26 | 03:14:26 | 00:00:00 | |
| IW2NTF | 2026-09-05 13:48:05 | 46.29047 | 8.39858 | 137° | 9km/h | 2875m | -4.2m/s | 9.3°C | 63.2% | 0hPa | 2.7V | 07:35:32 | 03:14:20 | 00:00:00 | |
| IW2NTF | 2026-09-05 13:47:59 | 46.29064 | 8.39841 | 147° | 16km/h | 2908m | -6.6m/s | 8.9°C | 64.3% | 0hPa | 2.7V | 07:35:38 | 03:14:14 | 00:00:00 | |
| IW2NTF | 2026-09-05 13:47:53 | 46.29082 | 8.39823 | 136° | 11km/h | 2943m | -6.2m/s | 8.7°C | 65.2% | 0hPa | 2.6V | 07:35:44 | 03:14:08 | 00:00:00 | |
| IW2NTF | 2026-09-05 13:47:48 | 46.29099 | 8.39793 | 126° | 24km/h | 2980m | -7m/s | 8.5°C | 62.4% | 0hPa | 2.7V | 07:35:50 | 03:14:02 | 00:00:00 | |
| IW2NTF | 2026-09-05 13:47:42 | 46.29116 | 8.39747 | 119° | 26km/h | 3024m | -6.4m/s | 8.2°C | 62.4% | 0hPa | 2.7V | 07:35:56 | 03:13:56 | 00:00:00 | |
| IW2NTF | 2026-09-05 13:47:36 | 46.29136 | 8.39696 | 118° | 29km/h | 3060m | -6.1m/s | 7.9°C | 62.1% | 0hPa | 2.6V | 07:36:02 | 03:13:50 | 00:00:00 | |
| IW2NTF | 2026-09-05 13:47:30 | 46.29149 | 8.39630 | 98° | 31km/h | 3095m | -5.2m/s | 7.8°C | 61.1% | 0hPa | 2.7V | 07:36:08 | 03:13:44 | 00:00:00 | |
| IW2NTF | 2026-09-05 13:47:23 | 46.29158 | 8.39567 | 105° | 27km/h | 3127m | -5.4m/s | 7.4°C | 64.1% | 0hPa | 2.7V | 07:36:14 | 03:13:38 | 00:00:00 | |
| IW2NTF | 2026-09-05 13:47:15 | 46.29174 | 8.39481 | 103° | 33km/h | 3168m | -5.8m/s | 7.1°C | 63.3% | 0hPa | 2.7V | 07:36:22 | 03:13:30 | 00:00:00 | |
| IW2NTF | 2026-09-05 13:47:09 | 46.29186 | 8.39413 | 103° | 31km/h | 3201m | -5.1m/s | 6.8°C | 64.2% | 0hPa | 2.7V | 07:36:28 | 03:13:24 | 00:00:00 | |
| IW2NTF | 2026-09-05 13:47:03 | 46.29198 | 8.39346 | 104° | 33km/h | 3232m | -6m/s | 6.4°C | 66% | 0hPa | 2.7V | 07:36:34 | 03:13:18 | 00:00:00 | |
| IW2NTF | 2026-09-05 13:46:57 | 46.29214 | 8.39273 | 109° | 37km/h | 3268m | -6.1m/s | 6°C | 68.5% | 0hPa | 2.7V | 07:36:40 | 03:13:12 | 00:00:00 | |
| IW2NTF | 2026-09-05 13:46:51 | 46.29230 | 8.39197 | 104° | 37km/h | 3306m | -6m/s | 5.7°C | 69.6% | 0hPa | 2.7V | 07:36:46 | 03:13:06 | 00:00:00 | |
| IW2NTF | 2026-09-05 13:46:45 | 46.29245 | 8.39116 | 107° | 40km/h | 3342m | -5.8m/s | 5.4°C | 68.8% | 0hPa | 2.7V | 07:36:52 | 03:13:00 | 00:00:00 | |
| IW2NTF | 2026-09-05 13:46:39 | 46.29266 | 8.39038 | 113° | 37km/h | 3377m | -6.1m/s | 5°C | 71.4% | 0hPa | 2.6V | 07:36:58 | 03:12:54 | 00:00:00 | |
| IW2NTF | 2026-09-05 13:46:33 | 46.29288 | 8.38962 | 114° | 38km/h | 3412m | -5.7m/s | 5°C | 68.2% | 0hPa | 2.7V | 07:37:04 | 03:12:48 | 00:00:00 | |
| IW2NTF | 2026-09-05 13:46:27 | 46.29312 | 8.38888 | 115° | 35km/h | 3444m | -5.1m/s | 5.1°C | 63.8% | 0hPa | 2.7V | 07:37:10 | 03:12:42 | 00:00:00 | |
| IW2NTF | 2026-09-05 13:46:21 | 46.29335 | 8.38819 | 116° | 38km/h | 3474m | -4.7m/s | 5.2°C | 59.3% | 0hPa | 2.7V | 07:37:16 | 03:12:36 | 00:00:00 | |
| IW2NTF | 2026-09-05 13:46:15 | 46.29362 | 8.38745 | 118° | 37km/h | 3509m | -6.4m/s | 4.7°C | 62.1% | 0hPa | 2.6V | 07:37:22 | 03:12:30 | 00:00:00 | |
| IW2NTF | 2026-09-05 13:46:09 | 46.29386 | 8.38677 | 117° | 35km/h | 3545m | -5.7m/s | 4.6°C | 59.5% | 0hPa | 2.6V | 07:37:28 | 03:12:24 | 00:00:00 | |
| IW2NTF | 2026-09-05 13:46:03 | 46.29412 | 8.38604 | 116° | 38km/h | 3580m | -6.1m/s | 4.2°C | 61.1% | 0hPa | 2.7V | 07:37:34 | 03:12:18 | 00:00:00 | |
| IW2NTF | 2026-09-05 13:45:57 | 46.29436 | 8.38533 | 117° | 35km/h | 3618m | -6.6m/s | 3.9°C | 61.5% | 0hPa | 2.7V | 07:37:40 | 03:12:12 | 00:00:00 | |
| IW2NTF | 2026-09-05 13:45:52 | 46.29460 | 8.38461 | 115° | 38km/h | 3658m | -6.3m/s | 3.5°C | 63.3% | 0hPa | 2.7V | 07:37:46 | 03:12:06 | 00:00:00 | |
| IW2NTF | 2026-09-05 13:45:46 | 46.29487 | 8.38383 | 116° | 40km/h | 3696m | -6.9m/s | 3.3°C | 61.7% | 0hPa | 2.7V | 07:37:52 | 03:12:00 | 00:00:00 | |
| IW2NTF | 2026-09-05 13:45:40 | 46.29513 | 8.38310 | 116° | 37km/h | 3734m | -6.2m/s | 3°C | 62.9% | 0hPa | 2.6V | 07:37:58 | 03:11:54 | 00:00:00 | |
| IW2NTF | 2026-09-05 13:45:34 | 46.29540 | 8.38241 | 120° | 37km/h | 3773m | -6.5m/s | 2.6°C | 64% | 0hPa | 2.7V | 07:38:04 | 03:11:48 | 00:00:00 | |
| IW2NTF | 2026-09-05 13:45:27 | 46.29568 | 8.38171 | 118° | 38km/h | 3812m | -6.3m/s | 2.2°C | 65.6% | 0hPa | 2.7V | 07:38:10 | 03:11:42 | 00:00:00 | |
| IW2NTF | 2026-09-05 13:45:22 | 46.29598 | 8.38100 | 122° | 38km/h | 3851m | -6.3m/s | 1.9°C | 65.4% | 0hPa | 2.7V | 07:38:16 | 03:11:36 | 00:00:00 | |
| IW2NTF | 2026-09-05 13:45:16 | 46.29630 | 8.38027 | 122° | 42km/h | 3887m | -6.2m/s | 1.7°C | 64% | 0hPa | 2.7V | 07:38:22 | 03:11:30 | 00:00:00 | |
| IW2NTF | 2026-09-05 13:45:10 | 46.29666 | 8.37951 | 125° | 44km/h | 3924m | -6.7m/s | 1.3°C | 66.7% | 0hPa | 2.6V | 07:38:28 | 03:11:24 | 00:00:00 | |
| IW2NTF | 2026-09-05 13:45:04 | 46.29704 | 8.37871 | 125° | 46km/h | 3963m | -6.7m/s | 1.1°C | 64% | 0hPa | 2.7V | 07:38:34 | 03:11:18 | 00:00:00 | |
| IW2NTF | 2026-09-05 13:44:57 | 46.29742 | 8.37790 | 123° | 46km/h | 4004m | -6.6m/s | 0.6°C | 66.8% | 0hPa | 2.7V | 07:38:40 | 03:11:12 | 00:00:00 | |
| IW2NTF | 2026-09-05 13:44:51 | 46.29782 | 8.37706 | 123° | 47km/h | 4044m | -6.5m/s | 0.5°C | 64.2% | 0hPa | 2.7V | 07:38:46 | 03:11:06 | 00:00:00 | |
| IW2NTF | 2026-09-05 13:44:45 | 46.29822 | 8.37619 | 124° | 49km/h | 4084m | -6.5m/s | 0.1°C | 63.9% | 0hPa | 2.7V | 07:38:52 | 03:11:00 | 00:00:00 | |
| IW2NTF | 2026-09-05 13:44:40 | 46.29867 | 8.37532 | 127° | 49km/h | 4123m | -6.4m/s | -0.1°C | 62.8% | 0hPa | 2.6V | 07:38:58 | 03:10:54 | 00:00:00 | |
| IW2NTF | 2026-09-05 13:44:33 | 46.29914 | 8.37443 | 126° | 53km/h | 4162m | -6.6m/s | -0.3°C | 61.1% | 0hPa | 2.6V | 07:39:04 | 03:10:48 | 00:00:00 | |
| IW2NTF | 2026-09-05 13:44:27 | 46.29961 | 8.37350 | 126° | 53km/h | 4202m | -6.7m/s | -0.4°C | 57.4% | 0hPa | 2.7V | 07:39:10 | 03:10:42 | 00:00:00 | |
| IW2NTF | 2026-09-05 13:44:22 | 46.30011 | 8.37254 | 128° | 58km/h | 4241m | -6.4m/s | -0.5°C | 52.8% | 0hPa | 2.7V | 07:39:16 | 03:10:36 | 00:00:00 | |
| IW2NTF | 2026-09-05 13:44:15 | 46.30063 | 8.37154 | 125° | 57km/h | 4279m | -6.4m/s | -0.8°C | 50.6% | 0hPa | 2.7V | 07:39:22 | 03:10:30 | 00:00:00 | |
| IW2NTF | 2026-09-05 13:44:10 | 46.30114 | 8.37055 | 127° | 58km/h | 4317m | -6.6m/s | -0.6°C | 39.3% | 0hPa | 2.7V | 07:39:28 | 03:10:24 | 00:00:00 | |
| IW2NTF | 2026-09-05 13:44:04 | 46.30173 | 8.36947 | 127° | 64km/h | 4357m | -6.8m/s | -0.7°C | 35.4% | 0hPa | 2.7V | 07:39:34 | 03:10:18 | 00:00:00 | |
| IW2NTF | 2026-09-05 13:43:57 | 46.30234 | 8.36836 | 129° | 64km/h | 4398m | -7.2m/s | -0.8°C | 31.6% | 0hPa | 2.6V | 07:39:40 | 03:10:12 | 00:00:00 | |
| IW2NTF | 2026-09-05 13:43:51 | 46.30296 | 8.36728 | 129° | 66km/h | 4437m | -6.8m/s | -0.5°C | 19.9% | 0hPa | 2.6V | 07:39:46 | 03:10:06 | 00:00:00 | |
| IW2NTF | 2026-09-05 13:43:45 | 46.30362 | 8.36616 | 129° | 68km/h | 4477m | -6.5m/s | 0.4°C | 1.3% | 0hPa | 2.7V | 07:39:52 | 03:10:00 | 00:00:00 | |
| IW2NTF | 2026-09-05 13:43:39 | 46.30426 | 8.36505 | 128° | 68km/h | 4515m | -6.3m/s | 0.1°C | 1.2% | 0hPa | 2.7V | 07:39:58 | 03:09:54 | 00:00:00 | |
| IW2NTF | 2026-09-05 13:43:34 | 46.30490 | 8.36388 | 128° | 69km/h | 4552m | -6.2m/s | -0.2°C | 1.2% | 0hPa | 2.7V | 07:40:04 | 03:09:48 | 00:00:00 | |
| IW2NTF | 2026-09-05 13:43:27 | 46.30558 | 8.36268 | 128° | 71km/h | 4588m | -6.5m/s | -0.5°C | 1.2% | 0hPa | 2.7V | 07:40:10 | 03:09:42 | 00:00:00 | |
| IW2NTF | 2026-09-05 13:43:21 | 46.30624 | 8.36144 | 126° | 71km/h | 4627m | -6.3m/s | -0.6°C | 1.1% | 0hPa | 2.7V | 07:40:16 | 03:09:36 | 00:00:00 | |
| IW2NTF | 2026-09-05 13:43:15 | 46.30688 | 8.36015 | 125° | 73km/h | 4665m | -6.5m/s | -0.8°C | 1.1% | 0hPa | 2.7V | 07:40:22 | 03:09:30 | 00:00:00 | |
| IW2NTF | 2026-09-05 13:43:10 | 46.30752 | 8.35884 | 124° | 73km/h | 4703m | -6.4m/s | -1°C | 1.1% | 0hPa | 2.7V | 07:40:28 | 03:09:24 | 00:00:00 | |
| IW2NTF | 2026-09-05 13:43:04 | 46.30816 | 8.35749 | 123° | 75km/h | 4741m | -6.2m/s | -1.2°C | 1.1% | 0hPa | 2.6V | 07:40:34 | 03:09:18 | 00:00:00 | |
| IW2NTF | 2026-09-05 13:42:58 | 46.30880 | 8.35611 | 124° | 77km/h | 4779m | -6.3m/s | -1.4°C | 1.2% | 0hPa | 2.6V | 07:40:40 | 03:09:12 | 00:00:00 | |
| IW2NTF | 2026-09-05 13:42:51 | 46.30947 | 8.35468 | 124° | 78km/h | 4816m | -6m/s | -1.7°C | 1.2% | 0hPa | 2.6V | 07:40:46 | 03:09:06 | 00:00:00 | |
| IW2NTF | 2026-09-05 13:42:45 | 46.31016 | 8.35325 | 123° | 78km/h | 4850m | -5.8m/s | -1.9°C | 1.3% | 0hPa | 2.6V | 07:40:52 | 03:09:00 | 00:00:00 | |
| IW2NTF | 2026-09-05 13:42:39 | 46.31083 | 8.35184 | 124° | 77km/h | 4886m | -5.8m/s | -2.1°C | 1.3% | 0hPa | 2.6V | 07:40:58 | 03:08:54 | 00:00:00 | |
| IW2NTF | 2026-09-05 13:42:33 | 46.31148 | 8.35045 | 123° | 77km/h | 4921m | -6.1m/s | -2.2°C | 1.3% | 0hPa | 2.7V | 07:41:04 | 03:08:48 | 00:00:00 | |
| IW2NTF | 2026-09-05 13:42:28 | 46.31213 | 8.34906 | 124° | 77km/h | 4956m | -5.8m/s | -2.5°C | 1.3% | 0hPa | 2.7V | 07:41:10 | 03:08:42 | 00:00:00 | |
| IW2NTF | 2026-09-05 13:42:21 | 46.31277 | 8.34765 | 122° | 78km/h | 4990m | -5.8m/s | -2.6°C | 1.3% | 0hPa | 2.7V | 07:41:16 | 03:08:36 | 00:00:00 | |
| IW2NTF | 2026-09-05 13:42:15 | 46.31342 | 8.34618 | 121° | 80km/h | 5025m | -5.8m/s | -3°C | 1.4% | 0hPa | 2.7V | 07:41:22 | 03:08:30 | 00:00:00 | |
| IW2NTF | 2026-09-05 13:42:06 | 46.31446 | 8.34375 | 121° | 77km/h | 5082m | -5.8m/s | -3.5°C | 1.5% | 0hPa | 2.7V | 07:41:32 | 03:08:20 | 00:00:00 | |
| IW2NTF | 2026-09-05 13:41:55 | 46.31549 | 8.34138 | 122° | 75km/h | 5139m | -5.2m/s | -3.8°C | 1.4% | 0hPa | 2.6V | 07:41:42 | 03:08:10 | 00:00:00 | |
| IW2NTF | 2026-09-05 13:41:43 | 46.31672 | 8.33871 | 123° | 71km/h | 5207m | -5.6m/s | -4.2°C | 1.4% | 0hPa | 2.6V | 07:41:54 | 03:07:58 | 00:00:00 | |
| IW2NTF | 2026-09-05 13:41:34 | 46.31773 | 8.33659 | 123° | 69km/h | 5264m | -5.2m/s | -4.5°C | 1.3% | 0hPa | 2.7V | 07:42:04 | 03:07:48 | 00:00:00 | |
| IW2NTF | 2026-09-05 13:41:24 | 46.31874 | 8.33438 | 123° | 75km/h | 5320m | -5.5m/s | -4.9°C | 1.4% | 0hPa | 2.7V | 07:42:14 | 03:07:38 | 00:00:00 | |
| IW2NTF | 2026-09-05 13:41:13 | 46.31979 | 8.33205 | 122° | 78km/h | 5376m | -5.8m/s | -4.9°C | 1.7% | 0hPa | 2.6V | 07:42:24 | 03:07:28 | 00:00:00 | |
| IW2NTF | 2026-09-05 13:41:03 | 46.32084 | 8.32955 | 120° | 82km/h | 5432m | -6.2m/s | -5.2°C | 5.6% | 0hPa | 2.7V | 07:42:34 | 03:07:18 | 00:00:00 | |
| IW2NTF | 2026-09-05 13:40:54 | 46.32188 | 8.32696 | 118° | 82km/h | 5488m | -6m/s | -5.4°C | 7.3% | 0hPa | 2.7V | 07:42:44 | 03:07:08 | 00:00:00 | |
| IW2NTF | 2026-09-05 13:40:44 | 46.32288 | 8.32434 | 118° | 82km/h | 5548m | -6.1m/s | -5.8°C | 19% | 0hPa | 2.6V | 07:42:54 | 03:06:58 | 00:00:00 | |
| IW2NTF | 2026-09-05 13:40:34 | 46.32386 | 8.32174 | 119° | 80km/h | 5606m | -5.5m/s | -6.2°C | 16.1% | 0hPa | 2.6V | 07:43:04 | 03:06:48 | 00:00:00 | |
| IW2NTF | 2026-09-05 13:40:23 | 46.32491 | 8.31917 | 121° | 80km/h | 5662m | -5.3m/s | -6.2°C | 21.9% | 0hPa | 2.7V | 07:43:14 | 03:06:38 | 00:00:00 | |
| IW2NTF | 2026-09-05 13:40:13 | 46.32600 | 8.31667 | 122° | 80km/h | 5717m | -5.9m/s | -6.5°C | 25% | 0hPa | 2.7V | 07:43:24 | 03:06:28 | 00:00:00 | |
| IW2NTF | 2026-09-05 13:40:03 | 46.32710 | 8.31426 | 123° | 77km/h | 5773m | -5.6m/s | -7°C | 20.8% | 0hPa | 2.7V | 07:43:34 | 03:06:18 | 00:00:00 | |
| IW2NTF | 2026-09-05 13:39:54 | 46.32822 | 8.31199 | 125° | 77km/h | 5829m | -6m/s | -7.1°C | 16.2% | 0hPa | 2.6V | 07:43:44 | 03:06:08 | 00:00:00 | |
| IW2NTF | 2026-09-05 13:39:44 | 46.32941 | 8.30972 | 126° | 80km/h | 5884m | -5.7m/s | -7.2°C | 19.8% | 0hPa | 2.5V | 07:43:54 | 03:05:58 | 00:00:00 | |
| IW2NTF | 2026-09-05 13:39:34 | 46.33059 | 8.30734 | 123° | 80km/h | 5940m | -5.7m/s | -7.4°C | 37.9% | 0hPa | 2.6V | 07:44:04 | 03:05:48 | 00:00:00 | |
| IW2NTF | 2026-09-05 13:39:24 | 46.33173 | 8.30486 | 122° | 80km/h | 5995m | -5.5m/s | -7.9°C | 51.3% | 0hPa | 2.6V | 07:44:14 | 03:05:38 | 00:00:00 | |
| IW2NTF | 2026-09-05 13:39:14 | 46.33284 | 8.30244 | 123° | 78km/h | 6049m | -5.6m/s | -8.4°C | 59.5% | 0hPa | 2.6V | 07:44:24 | 03:05:28 | 00:00:00 | |
| IW2NTF | 2026-09-05 13:39:05 | 46.33396 | 8.29999 | 124° | 80km/h | 6105m | -5.5m/s | -8.8°C | 55.8% | 0hPa | 2.6V | 07:44:34 | 03:05:18 | 00:00:00 | |
| IW2NTF | 2026-09-05 13:38:52 | 46.33525 | 8.29729 | 125° | 80km/h | 6167m | -5.5m/s | -9.3°C | 65.1% | 0hPa | 2.6V | 07:44:45 | 03:05:07 | 00:00:00 | |
| IW2NTF | 2026-09-05 13:38:42 | 46.33644 | 8.29493 | 125° | 78km/h | 6223m | -5.7m/s | -9.7°C | 66% | 0hPa | 2.6V | 07:44:55 | 03:04:57 | 00:00:00 | |
| IW2NTF | 2026-09-05 13:38:32 | 46.33768 | 8.29266 | 129° | 78km/h | 6280m | -5.6m/s | -9.7°C | 54.8% | 0hPa | 2.6V | 07:45:05 | 03:04:47 | 00:00:00 | |
| IW2NTF | 2026-09-05 13:38:22 | 46.33897 | 8.29034 | 127° | 82km/h | 6339m | -6.2m/s | -9.9°C | 49.4% | 0hPa | 2.6V | 07:45:15 | 03:04:37 | 00:00:00 | |
| IW2NTF | 2026-09-05 13:38:12 | 46.34024 | 8.28792 | 126° | 80km/h | 6399m | -6m/s | -10.2°C | 51.3% | 0hPa | 2.6V | 07:45:25 | 03:04:27 | 00:00:00 | |
| IW2NTF | 2026-09-05 13:38:03 | 46.34152 | 8.28551 | 126° | 86km/h | 6460m | -6m/s | -10.4°C | 50.5% | 0hPa | 2.6V | 07:45:35 | 03:04:17 | 00:00:00 | |
| IW2NTF | 2026-09-05 13:37:53 | 46.34285 | 8.28302 | 126° | 88km/h | 6522m | -6.2m/s | -10.6°C | 46.8% | 0hPa | 2.5V | 07:45:45 | 03:04:07 | 00:00:00 | |
| IW2NTF | 2026-09-05 13:37:42 | 46.34420 | 8.28049 | 127° | 86km/h | 6584m | -6.4m/s | -10.7°C | 42.7% | 0hPa | 2.6V | 07:45:55 | 03:03:57 | 00:00:00 | |
| IW2NTF | 2026-09-05 13:37:34 | 46.34554 | 8.27801 | 127° | 86km/h | 6648m | -6.7m/s | -11.2°C | 40.4% | 0hPa | 2.5V | 07:46:05 | 03:03:47 | 00:00:00 | |
| IW2NTF | 2026-09-05 13:37:23 | 46.34688 | 8.27558 | 128° | 84km/h | 6711m | -7.1m/s | -11.7°C | 39% | 0hPa | 2.6V | 07:46:15 | 03:03:37 | 00:00:00 | |
| DB0UT-7 | 2026-09-05 13:37:16 | 46.34701 | 8.27534 | 130° | 86km/h | 6718m | -6.5m/s | -11.7°C | 39.3% | 0hPa | 2.6V | 07:46:00 | 03:03:36 | 00:00:00 | |
| IW2NTF | 2026-09-05 13:37:12 | 46.34820 | 8.27315 | 127° | 86km/h | 6776m | -6.6m/s | -12.2°C | 40.4% | 0hPa | 2.6V | 07:46:25 | 03:03:27 | 00:00:00 | |
| DF1GD-15 | 2026-09-05 13:37:10 | 46.34768 | 8.27413 | 130° | 86km/h | 6750m | -6.6m/s | -12.0°C | 38.1% | 0hPa | 2.5V | 07:47:00 | 00:00:00 | 00:00:00 | |
| IW2NTF | 2026-09-05 13:37:02 | 46.34954 | 8.27067 | 127° | 88km/h | 6842m | -6.9m/s | -12.7°C | 41.9% | 0hPa | 2.5V | 07:46:35 | 03:03:17 | 00:00:00 | |
| IW2NTF | 2026-09-05 13:36:53 | 46.35089 | 8.26815 | 128° | 88km/h | 6909m | -7m/s | -13.3°C | 44.1% | 0hPa | 2.6V | 07:46:45 | 03:03:07 | 00:00:00 | |
| DB0UT-7 | 2026-09-05 13:36:46 | 46.35102 | 8.26790 | 128° | 88km/h | 6916m | -7.0m/s | -13.4°C | 44.4% | 0hPa | 2.6V | 00:00:00 | 00:00:00 | 00:00:00 | |
| IW2NTF | 2026-09-05 13:36:42 | 46.35222 | 8.26558 | 124° | 88km/h | 6976m | -6.8m/s | -13.9°C | 45.5% | 0hPa | 2.6V | 07:46:55 | 03:02:57 | 00:00:00 | |
| DF1GD-15 | 2026-09-05 13:36:37 | 46.35209 | 8.26585 | 127° | 88km/h | 6970m | -7.0m/s | -13.9°C | 44.0% | 0hPa | 2.5V | 07:47:00 | 00:00:00 | 00:00:00 | |
| IW2NTF | 2026-09-05 13:36:32 | 46.35349 | 8.26299 | 125° | 88km/h | 7044m | -7m/s | -14.5°C | 50% | 0hPa | 2.5V | 07:47:05 | 03:02:47 | 00:00:00 | |
| DB0ND-19 | 2026-09-05 13:36:32 | 46.35311 | 8.26376 | 125° | 84km/h | 7023m | -7.1m/s | -14.3°C | 46.6% | -1.0hPa | 2.5V | 00:00:00 | 00:00:00 | 00:00:00 | |
| IW2NTF | 2026-09-05 13:36:23 | 46.35475 | 8.26040 | 126° | 86km/h | 7112m | -6.8m/s | -15°C | 49% | 0hPa | 2.5V | 07:47:15 | 03:02:37 | 00:00:00 | |
| DB0UT-7 | 2026-09-05 13:36:16 | 46.35488 | 8.26014 | 125° | 80km/h | 7119m | -7.2m/s | -15.0°C | 49.2% | 0hPa | 2.5V | 00:00:00 | 03:02:36 | 00:00:00 | |
| DF1GD-15 | 2026-09-05 13:36:14 | 46.35500 | 8.25989 | 126° | 84km/h | 7126m | -7.0m/s | -15.1°C | 47.6% | 0hPa | 2.5V | 07:47:00 | 00:00:00 | 00:00:00 | |
| IW2NTF | 2026-09-05 13:36:13 | 46.35598 | 8.25789 | 126° | 84km/h | 7182m | -7.1m/s | -15.6°C | 50.5% | 0hPa | 2.5V | 07:47:25 | 03:02:27 | 00:00:00 | |
| IW2NTF | 2026-09-05 13:36:03 | 46.35721 | 8.25546 | 126° | 80km/h | 7253m | -7.1m/s | -16.1°C | 51.7% | 0hPa | 2.5V | 07:47:35 | 03:02:17 | 00:00:00 | |
| DB0ND-19 | 2026-09-05 13:36:01 | 46.35673 | 8.25642 | 126° | 80km/h | 7225m | -7.5m/s | -15.9°C | 49.1% | -1.0hPa | 2.6V | 00:00:00 | 00:00:00 | 00:00:00 | |
| DF1GD-15 | 2026-09-05 13:35:53 | 46.35756 | 8.25477 | 128° | 77km/h | 7273m | -6.8m/s | -16.3°C | 50.2% | 0hPa | 2.6V | 07:47:00 | 00:00:00 | 00:00:00 | |
| IW2NTF | 2026-09-05 13:35:52 | 46.35841 | 8.25319 | 128° | 78km/h | 7324m | -7m/s | -16.7°C | 53% | 0hPa | 2.6V | 07:47:45 | 03:02:07 | 00:00:00 | |
| DB0UT-7 | 2026-09-05 13:35:46 | 46.35853 | 8.25296 | 129° | 78km/h | 7331m | -6.8m/s | -16.7°C | 52.8% | 0hPa | 2.5V | 00:00:00 | 00:00:00 | 00:00:00 | |
| IW2NTF | 2026-09-05 13:35:43 | 46.35967 | 8.25091 | 128° | 78km/h | 7392m | -7.1m/s | -15.9°C | 32.7% | 0hPa | 2.5V | 07:47:55 | 03:01:57 | 00:00:00 | |
| IW2NTF | 2026-09-05 13:35:33 | 46.36092 | 8.24870 | 129° | 78km/h | 7462m | -7.3m/s | -16.3°C | 32.3% | 0hPa | 2.6V | 07:48:05 | 03:01:47 | 00:00:00 | |
| DB0ND-19 | 2026-09-05 13:35:30 | 46.36054 | 8.24936 | 129° | 77km/h | 7442m | -7.1m/s | -16.2°C | 30.5% | -1.0hPa | 2.6V | 00:00:00 | 00:00:00 | 00:00:00 | |
| IW2NTF | 2026-09-05 13:35:23 | 46.36220 | 8.24651 | 128° | 78km/h | 7534m | -6.8m/s | -16.9°C | 32.5% | 0hPa | 2.6V | 07:48:15 | 03:01:37 | 00:00:00 | |
| DB0UT-7 | 2026-09-05 13:35:16 | 46.36232 | 8.24629 | 131° | 78km/h | 7541m | -6.8m/s | -16.9°C | 32.6% | 0hPa | 2.6V | 00:00:00 | 03:01:36 | 00:00:00 | |
| IW2NTF | 2026-09-05 13:35:12 | 46.36345 | 8.24433 | 128° | 78km/h | 7600m | -6.5m/s | -17.3°C | 32.6% | 0hPa | 2.6V | 07:48:25 | 03:01:27 | 00:00:00 | |
| IW2NTF | 2026-09-05 13:35:02 | 46.36469 | 8.24211 | 129° | 80km/h | 7668m | -6.9m/s | -17.8°C | 32.3% | 0hPa | 2.5V | 07:48:35 | 03:01:17 | 00:00:00 | |
| DB0ND-19 | 2026-09-05 13:34:59 | 46.36444 | 8.24256 | 129° | 78km/h | 7654m | -6.9m/s | -17.7°C | 31.0% | -1.0hPa | 2.6V | 00:00:00 | 00:00:00 | 00:00:00 | |
| IW2NTF | 2026-09-05 13:34:51 | 46.36604 | 8.23964 | 129° | 78km/h | 7742m | -7.1m/s | -18.4°C | 32.3% | 0hPa | 2.6V | 07:48:46 | 03:01:06 | 00:00:00 | |
| DB0UT-7 | 2026-09-05 13:34:46 | 46.36604 | 8.23964 | 130° | 77km/h | 7742m | -7.1m/s | -18.4°C | 32.3% | 0hPa | 2.6V | 00:00:00 | 00:00:00 | 00:00:00 | |
| IW2NTF | 2026-09-05 13:34:41 | 46.36726 | 8.23744 | 129° | 75km/h | 7811m | -7.1m/s | -19.1°C | 34% | 0hPa | 2.6V | 07:48:56 | 03:00:56 | 00:00:00 | |
| IW2NTF | 2026-09-05 13:34:31 | 46.36848 | 8.23527 | 128° | 77km/h | 7881m | -7.2m/s | -19.7°C | 35.3% | 0hPa | 2.5V | 07:49:06 | 03:00:46 | 00:00:00 | |
| DF1GD-15 | 2026-09-05 13:34:31 | 46.36774 | 8.23658 | 130° | 77km/h | 7839m | -7.5m/s | -19.3°C | 32.8% | 0hPa | 2.5V | 07:49:00 | 00:00:00 | 00:00:00 | |
| DB0ND-19 | 2026-09-05 13:34:28 | 46.36837 | 8.23549 | 129° | 75km/h | 7874m | -7.5m/s | -19.7°C | 33.3% | -1.0hPa | 2.5V | 00:00:00 | 00:00:00 | 00:00:00 | |
| IW2NTF | 2026-09-05 13:34:21 | 46.36972 | 8.23315 | 130° | 77km/h | 7952m | -7.1m/s | -20.2°C | 33.6% | 0hPa | 2.5V | 07:49:16 | 03:00:36 | 00:00:00 | |
| DB0UT-7 | 2026-09-05 13:34:16 | 46.36971 | 8.23315 | 131° | 77km/h | 7952m | -7.1m/s | -20.1°C | 33.6% | 0hPa | 2.5V | 00:00:00 | 03:00:36 | 00:00:00 | |
| IW2NTF | 2026-09-05 13:34:11 | 46.37097 | 8.23103 | 130° | 77km/h | 8023m | -7m/s | -20.8°C | 33.9% | 0hPa | 2.6V | 07:49:26 | 03:00:26 | 00:00:00 | |
| IW2NTF | 2026-09-05 13:34:01 | 46.37225 | 8.22894 | 132° | 77km/h | 8093m | -7.3m/s | -21.3°C | 32.4% | 0hPa | 2.5V | 07:49:36 | 03:00:16 | 00:00:00 | |
| DB0ND-19 | 2026-09-05 13:33:57 | 46.37225 | 8.22894 | 132° | 75km/h | 8093m | -7.3m/s | -21.3°C | 30.4% | -1.0hPa | 2.5V | 00:00:00 | 00:00:00 | 00:00:00 | |
| IW2NTF | 2026-09-05 13:33:51 | 46.37356 | 8.22690 | 133° | 73km/h | 8164m | -7.2m/s | -21.9°C | 31.9% | 0hPa | 2.5V | 07:49:46 | 03:00:06 | 00:00:00 | |
| DF1GD-15 | 2026-09-05 13:33:50 | 46.37290 | 8.22792 | 134° | 77km/h | 8128m | -7.2m/s | -21.6°C | 29.6% | 0hPa | 2.6V | 07:50:00 | 00:00:00 | 00:00:00 | |
| DB0UT-7 | 2026-09-05 13:33:46 | 46.37356 | 8.22690 | 134° | 78km/h | 8164m | -7.1m/s | -21.8°C | 31.9% | 0hPa | 2.6V | 00:00:00 | 00:00:00 | 00:00:00 | |
| IW2NTF | 2026-09-05 13:33:41 | 46.37489 | 8.22489 | 135° | 77km/h | 8233m | -7.1m/s | -22.5°C | 32.9% | 0hPa | 2.6V | 07:49:56 | 02:59:56 | 00:00:00 | |
| DH7VM-15 | 2026-09-05 13:33:32 | 46.37530 | 8.22429 | 136° | 78km/h | 8254m | -7.0m/s | -22.7°C | 31.1% | 0hPa | 2.6V | 00:00:00 | 00:00:00 | 00:00:00 | |
| IW2NTF | 2026-09-05 13:33:30 | 46.37647 | 8.22267 | 136° | 80km/h | 8309m | -7.1m/s | -22.9°C | 29.2% | 0hPa | 2.6V | 07:50:07 | 02:59:45 | 00:00:00 | |
| DB0ND-19 | 2026-09-05 13:33:26 | 46.37647 | 8.22267 | 136° | 78km/h | 8309m | -7.1m/s | -22.9°C | 27.3% | -1.0hPa | 2.6V | 00:00:00 | 00:00:00 | 00:00:00 | |
| IW2NTF | 2026-09-05 13:33:19 | 46.37811 | 8.22043 | 138° | 80km/h | 8386m | -7m/s | -23.5°C | 29.5% | 0hPa | 2.6V | 07:50:18 | 02:59:34 | 00:00:00 | |
| DB0UT-7 | 2026-09-05 13:33:16 | 46.37781 | 8.22083 | 138° | 82km/h | 8372m | -7.6m/s | -23.4°C | 29.1% | 0hPa | 2.6V | 07:50:00 | 02:59:36 | 00:00:00 | |
| IW2NTF | 2026-09-05 13:33:09 | 46.37964 | 8.21846 | 137° | 82km/h | 8456m | -6.5m/s | -24.1°C | 31.2% | 0hPa | 2.6V | 07:50:28 | 02:59:24 | 00:00:00 | |
| IW2NTF | 2026-09-05 13:32:59 | 46.38125 | 8.21649 | 139° | 84km/h | 8526m | -7.3m/s | -24.7°C | 28.5% | 0hPa | 2.5V | 07:50:38 | 02:59:14 | 00:00:00 | |
| DB0ND-19 | 2026-09-05 13:32:55 | 46.38109 | 8.21669 | 140° | 82km/h | 8519m | -7.1m/s | -24.7°C | 26.6% | -1.0hPa | 2.5V | 00:00:00 | 00:00:00 | 00:00:00 | |
| IW2NTF | 2026-09-05 13:32:50 | 46.38285 | 8.21445 | 137° | 84km/h | 8597m | -7.4m/s | -25.2°C | 26.5% | 0hPa | 2.5V | 07:50:48 | 02:59:04 | 00:00:00 | |
| DF1GD-15 | 2026-09-05 13:32:48 | 46.38206 | 8.21548 | 140° | 86km/h | 8562m | -6.7m/s | -24.9°C | 24.7% | 0hPa | 2.6V | 07:51:00 | 00:00:00 | 00:00:00 | |
| DB0UT-7 | 2026-09-05 13:32:46 | 46.38253 | 8.21486 | 139° | 84km/h | 8583m | -6.7m/s | -25.0°C | 26.7% | 0hPa | 2.6V | 00:00:00 | 00:00:00 | 00:00:00 | |
| IW2NTF | 2026-09-05 13:32:38 | 46.38456 | 8.21214 | 136° | 82km/h | 8673m | -7.1m/s | -25.7°C | 24.8% | 0hPa | 2.5V | 07:50:59 | 02:58:53 | 00:00:00 | |
| DL9SK-14 | 2026-09-05 13:32:32 | 46.38577 | 8.21039 | 135° | 82km/h | 8728m | -7.0m/s | -26.2°C | 22.3% | -1.0hPa | 2.6V | 00:00:00 | 00:00:00 | 00:00:00 | |
| IW2NTF | 2026-09-05 13:32:28 | 46.38606 | 8.20994 | 134° | 82km/h | 8742m | -6.9m/s | -26.3°C | 24.2% | 0hPa | 2.6V | 07:51:09 | 02:58:43 | 00:00:00 | |
| DF1GD-15 | 2026-09-05 13:32:27 | 46.38531 | 8.21105 | 135° | 86km/h | 8708m | -6.7m/s | -26.0°C | 22.7% | 0hPa | 2.6V | 07:51:00 | 00:00:00 | 00:00:00 | |
| DB0ND-19 | 2026-09-05 13:32:24 | 46.38606 | 8.20994 | 134° | 82km/h | 8742m | -6.9m/s | -26.3°C | 22.2% | -1.0hPa | 2.6V | 00:00:00 | 00:00:00 | 00:00:00 | |
| IW2NTF | 2026-09-05 13:32:18 | 46.38751 | 8.20772 | 133° | 82km/h | 8813m | -7.5m/s | -26.8°C | 22.6% | 0hPa | 2.6V | 07:51:19 | 02:58:33 | 00:00:00 | |
| DB0UT-7 | 2026-09-05 13:32:16 | 46.38708 | 8.20838 | 134° | 82km/h | 8791m | -7.4m/s | -26.6°C | 23.2% | 0hPa | 2.5V | 00:00:00 | 02:58:36 | 00:00:00 | |
| IW2NTF | 2026-09-05 13:32:08 | 46.38896 | 8.20549 | 131° | 84km/h | 8882m | -7m/s | -27.4°C | 23.6% | 0hPa | 2.5V | 07:51:29 | 02:58:23 | 00:00:00 | |
| DF1GD-15 | 2026-09-05 13:32:06 | 46.38838 | 8.20639 | 133° | 84km/h | 8855m | -6.7m/s | -27.2°C | 21.1% | 0hPa | 2.5V | 07:52:00 | 00:00:00 | 00:00:00 | |
| DL9SK-14 | 2026-09-05 13:32:01 | 46.38924 | 8.20504 | 132° | 82km/h | 8896m | -7.3m/s | -27.6°C | 21.9% | -1.0hPa | 2.5V | 00:00:00 | 00:00:00 | 00:00:00 | |
| IW2NTF | 2026-09-05 13:31:58 | 46.39035 | 8.20322 | 130° | 82km/h | 8952m | -6.5m/s | -28°C | 23.9% | 0hPa | 2.5V | 07:51:39 | 02:58:13 | 00:00:00 | |
| DB0ND-19 | 2026-09-05 13:31:53 | 46.39048 | 8.20298 | 128° | 82km/h | 8959m | -7.2m/s | -28.0°C | 21.7% | -1.0hPa | 2.5V | 00:00:00 | 00:00:00 | 00:00:00 | |
| IW2NTF | 2026-09-05 13:31:48 | 46.39167 | 8.20091 | 129° | 80km/h | 9022m | -7.5m/s | -28.4°C | 22.9% | 0hPa | 2.5V | 07:51:49 | 02:58:03 | 00:00:00 | |
| DB0UT-7 | 2026-09-05 13:31:46 | 46.39128 | 8.20159 | 130° | 82km/h | 9001m | -6.7m/s | -28.3°C | 22.9% | 0hPa | 2.6V | 00:00:00 | 00:00:00 | 00:00:00 | |
| DF1GD-15 | 2026-09-05 13:31:45 | 46.39128 | 8.20159 | 131° | 82km/h | 9001m | -6.7m/s | -28.3°C | 20.9% | 0hPa | 2.6V | 07:52:00 | 00:00:00 | 00:00:00 | |
| IW2NTF | 2026-09-05 13:31:38 | 46.39296 | 8.19854 | 128° | 82km/h | 9092m | -7.3m/s | -29.1°C | 24.1% | 0hPa | 2.6V | 07:51:59 | 02:57:53 | 00:00:00 | |
| DL9SK-14 | 2026-09-05 13:31:30 | 46.39349 | 8.19761 | 129° | 80km/h | 9120m | -7.3m/s | -29.4°C | 22.3% | -1.0hPa | 2.6V | 00:00:00 | 00:00:00 | 00:00:00 | |
| DO3MHA-11 | 2026-09-05 13:31:26 | 46.39389 | 8.19692 | 129° | 82km/h | 9142m | -7.0m/s | -29.5°C | 25.0% | 0hPa | 2.6V | 00:00:00 | 02:57:46 | 00:00:00 | |
| IW2NTF | 2026-09-05 13:31:25 | 46.39469 | 8.19552 | 129° | 80km/h | 9184m | -7.1m/s | -30°C | 25.7% | 0hPa | 2.5V | 07:52:12 | 02:57:40 | 00:00:00 | |
| DB0ND-19 | 2026-09-05 13:31:22 | 46.39455 | 8.19575 | 130° | 82km/h | 9177m | -7.3m/s | -29.9°C | 23.3% | -1.0hPa | 2.5V | 00:00:00 | 00:00:00 | 00:00:00 | |
| DO3MHA-12 | 2026-09-05 13:31:21 | 46.39455 | 8.19575 | 131° | 82km/h | 9177m | -7.2m/s | -29.9°C | 25.7% | 0hPa | 2.5V | 00:00:00 | 02:57:41 | 00:00:00 | |
| DO3MHA-11 | 2026-09-05 13:31:16 | 46.39522 | 8.19458 | 131° | 82km/h | 9212m | -6.7m/s | -30.2°C | 25.7% | 0hPa | 2.5V | 00:00:00 | 02:57:36 | 00:00:00 | |
| IW2NTF | 2026-09-05 13:31:15 | 46.39601 | 8.19317 | 128° | 84km/h | 9253m | -6.8m/s | -30.6°C | 26% | 0hPa | 2.5V | 07:52:22 | 02:57:30 | 00:00:00 | |
| DO3MHA-12 | 2026-09-05 13:31:11 | 46.39588 | 8.19341 | 128° | 84km/h | 9247m | -6.6m/s | -30.5°C | 26.1% | 0hPa | 2.5V | 07:52:00 | 02:57:31 | 00:00:00 | |
| DO3MHA-11 | 2026-09-05 13:31:06 | 46.39655 | 8.19222 | 130° | 82km/h | 9280m | -7.3m/s | -30.8°C | 26.3% | 0hPa | 2.5V | 00:00:00 | 02:57:26 | 00:00:00 | |
| IW2NTF | 2026-09-05 13:31:05 | 46.39734 | 8.19080 | 129° | 84km/h | 9321m | -6.5m/s | -31.2°C | 27.1% | 0hPa | 2.5V | 07:52:32 | 02:57:20 | 00:00:00 | |
| DF1GD-15 | 2026-09-05 13:31:04 | 46.39668 | 8.19199 | 131° | 80km/h | 9287m | -7.4m/s | -30.9°C | 23.9% | 0hPa | 2.5V | 07:53:00 | 00:00:00 | 00:00:00 | |
| DL9SK-14 | 2026-09-05 13:30:59 | 46.39761 | 8.19033 | 128° | 80km/h | 9334m | -7.0m/s | -31.3°C | 24.6% | -1.0hPa | 2.5V | 00:00:00 | 00:00:00 | 00:00:00 | |
| IW2NTF | 2026-09-05 13:30:56 | 46.39864 | 8.18844 | 127° | 82km/h | 9389m | -7m/s | -31.8°C | 27.7% | 0hPa | 2.5V | 07:52:42 | 02:57:10 | 00:00:00 | |
| DB0ND-19 | 2026-09-05 13:30:51 | 46.39864 | 8.18844 | 127° | 82km/h | 9389m | -7.0m/s | -31.8°C | 25.0% | -1.0hPa | 2.6V | 00:00:00 | 00:00:00 | 00:00:00 | |
| DO3MHA-11 | 2026-09-05 13:30:46 | 46.39916 | 8.18750 | 128° | 82km/h | 9416m | -6.6m/s | -32.0°C | 27.3% | 0hPa | 2.6V | 00:00:00 | 02:57:06 | 00:00:00 | |
| IW2NTF | 2026-09-05 13:30:45 | 46.39993 | 8.18610 | 129° | 80km/h | 9455m | -7.1m/s | -32.4°C | 27.6% | 0hPa | 2.6V | 07:52:52 | 02:57:00 | 00:00:00 | |
| DF1GD-15 | 2026-09-05 13:30:44 | 46.39928 | 8.18726 | 130° | 82km/h | 9423m | -6.3m/s | -32.1°C | 24.8% | 0hPa | 2.5V | 07:53:00 | 00:00:00 | 00:00:00 | |
| DO3MHA-12 | 2026-09-05 13:30:41 | 46.39980 | 8.18633 | 130° | 80km/h | 9448m | -6.7m/s | -32.3°C | 27.5% | 0hPa | 2.5V | 00:00:00 | 02:57:01 | 00:00:00 | |
| DO3MHA-11 | 2026-09-05 13:30:36 | 46.40045 | 8.18518 | 130° | 80km/h | 9481m | -6.9m/s | -32.6°C | 28.3% | 0hPa | 2.5V | 00:00:00 | 02:56:56 | 00:00:00 | |
| IW2NTF | 2026-09-05 13:30:35 | 46.40123 | 8.18378 | 129° | 80km/h | 9519m | -6.9m/s | -33°C | 29% | 0hPa | 2.5V | 07:53:02 | 02:56:50 | 00:00:00 | |
| DO3MHA-12 | 2026-09-05 13:30:31 | 46.40110 | 8.18401 | 131° | 80km/h | 9512m | -6.5m/s | -32.9°C | 28.7% | 0hPa | 2.6V | 00:00:00 | 02:56:51 | 00:00:00 | |
| DL9SK-14 | 2026-09-05 13:30:28 | 46.40161 | 8.18311 | 128° | 77km/h | 9539m | -7.7m/s | -33.2°C | 26.4% | -1.0hPa | 2.6V | 00:00:00 | 00:00:00 | 00:00:00 | |
| IW2NTF | 2026-09-05 13:30:26 | 46.40249 | 8.18150 | 129° | 80km/h | 9589m | -6.9m/s | -33.7°C | 30.4% | 0hPa | 2.6V | 07:53:12 | 02:56:40 | 00:00:00 | |
| DO3MHA-11 | 2026-09-05 13:30:26 | 46.40173 | 8.18288 | 129° | 80km/h | 9547m | -7.7m/s | -33.2°C | 29.5% | 0hPa | 2.6V | 00:00:00 | 02:56:46 | 00:00:00 | |
| DF1GD-15 | 2026-09-05 13:30:23 | 46.40198 | 8.18243 | 129° | 80km/h | 9562m | -6.9m/s | -33.4°C | 26.9% | 0hPa | 2.6V | 07:53:00 | 00:00:00 | 00:00:00 | |
| DO3MHA-12 | 2026-09-05 13:30:21 | 46.40236 | 8.18173 | 130° | 80km/h | 9582m | -6.7m/s | -33.6°C | 30.3% | 0hPa | 2.6V | 00:00:00 | 02:56:41 | 00:00:00 | |
| DB0ND-19 | 2026-09-05 13:30:20 | 46.40262 | 8.18127 | 129° | 77km/h | 9596m | -7.3m/s | -33.7°C | 27.5% | -1.0hPa | 2.6V | 00:00:00 | 00:00:00 | 00:00:00 | |
| DO3MHA-11 | 2026-09-05 13:30:17 | 46.40299 | 8.18059 | 129° | 78km/h | 9617m | -6.6m/s | -33.9°C | 31.1% | 0hPa | 2.6V | 07:53:00 | 02:56:36 | 00:00:00 | |
| DB0UT-7 | 2026-09-05 13:30:16 | 46.40299 | 8.18059 | 129° | 78km/h | 9617m | -6.6m/s | -33.9°C | 31.1% | 0hPa | 2.6V | 00:00:00 | 02:56:36 | 00:00:00 | |
| IW2NTF | 2026-09-05 13:30:16 | 46.40375 | 8.17923 | 128° | 78km/h | 9657m | -7.3m/s | -34.3°C | 32.1% | 0hPa | 2.6V | 07:53:22 | 02:56:30 | 00:00:00 | |
| DO3MHA-12 | 2026-09-05 13:30:11 | 46.40362 | 8.17945 | 130° | 78km/h | 9651m | -6.7m/s | -34.2°C | 31.9% | 0hPa | 2.6V | 00:00:00 | 02:56:31 | 00:00:00 | |
| DO3MHA-11 | 2026-09-05 13:30:06 | 46.40424 | 8.17831 | 129° | 78km/h | 9685m | -7.0m/s | -34.5°C | 33.0% | 0hPa | 2.6V | 00:00:00 | 02:56:26 | 00:00:00 | |
| IW2NTF | 2026-09-05 13:30:05 | 46.40498 | 8.17693 | 128° | 80km/h | 9724m | -6.1m/s | -34.9°C | 34.1% | 0hPa | 2.6V | 07:53:32 | 02:56:20 | 00:00:00 | |
| DL9SK-14 | 2026-09-05 13:29:57 | 46.40548 | 8.17602 | 126° | 78km/h | 9750m | -6.4m/s | -35.2°C | -1.0% | -1.0hPa | 2.5V | 00:00:00 | 00:00:00 | 00:00:00 | |
| DO3MHA-11 | 2026-09-05 13:29:56 | 46.40547 | 8.17602 | 127° | 80km/h | 9750m | -6.4m/s | -35.1°C | 34.9% | 0hPa | 2.5V | 00:00:00 | 02:56:16 | 00:00:00 | |
| IW2NTF | 2026-09-05 13:29:55 | 46.40623 | 8.17461 | 128° | 80km/h | 9787m | -6.8m/s | -35.6°C | 35.9% | 0hPa | 2.5V | 07:53:42 | 02:56:10 | 00:00:00 | |
| DB0ND-19 | 2026-09-05 13:29:49 | 46.40648 | 8.17414 | 128° | 78km/h | 9800m | -7.0m/s | -35.7°C | 32.7% | -1.0hPa | 2.6V | 00:00:00 | 00:00:00 | 00:00:00 | |
| DB0UT-7 | 2026-09-05 13:29:46 | 46.40672 | 8.17369 | 128° | 78km/h | 9813m | -6.8m/s | -35.8°C | 36.8% | 0hPa | 2.6V | 00:00:00 | 00:00:00 | 00:00:00 | |
| IW2NTF | 2026-09-05 13:29:45 | 46.40745 | 8.17233 | 127° | 77km/h | 9852m | -6.8m/s | -36.2°C | 37.9% | 0hPa | 2.5V | 07:53:52 | 02:56:00 | 00:00:00 | |
| DF1GD-15 | 2026-09-05 13:29:42 | 46.40708 | 8.17301 | 129° | 77km/h | 9832m | -7.3m/s | -36.0°C | 33.9% | 0hPa | 2.6V | 07:53:00 | 00:00:00 | 00:00:00 | |
| DO3MHA-12 | 2026-09-05 13:29:41 | 46.40732 | 8.17256 | 128° | 77km/h | 9846m | -6.8m/s | -36.1°C | 37.8% | 0hPa | 2.6V | 00:00:00 | 02:56:01 | 00:00:00 | |
| IW2NTF | 2026-09-05 13:29:36 | 46.40865 | 8.17010 | 128° | 77km/h | 9921m | -7.8m/s | -36.9°C | 38.5% | 0hPa | 2.6V | 07:54:02 | 02:55:50 | 00:00:00 | |
| DO3MHA-11 | 2026-09-05 13:29:36 | 46.40793 | 8.17143 | 128° | 77km/h | 9879m | -6.9m/s | -36.4°C | 38.6% | 0hPa | 2.5V | 00:00:00 | 02:55:56 | 00:00:00 | |
| DO3MHA-12 | 2026-09-05 13:29:31 | 46.40853 | 8.17032 | 129° | 78km/h | 9913m | -7.6m/s | -36.7°C | 38.6% | 0hPa | 2.5V | 00:00:00 | 02:55:51 | 00:00:00 | |
| IW2NTF | 2026-09-05 13:29:26 | 46.40989 | 8.16782 | 127° | 78km/h | 9989m | -7.6m/s | -37.5°C | 36.4% | 0hPa | 2.6V | 07:54:12 | 02:55:40 | 00:00:00 | |
| DO3MHA-11 | 2026-09-05 13:29:26 | 46.40914 | 8.16917 | 128° | 80km/h | 9948m | -7.1m/s | -37.1°C | 38.2% | 0hPa | 2.5V | 00:00:00 | 02:55:46 | 00:00:00 | |
| DF1GD-15 | 2026-09-05 13:29:22 | 46.40952 | 8.16849 | 130° | 78km/h | 9968m | -7.1m/s | -37.3°C | 33.9% | 0hPa | 2.6V | 07:54:00 | 00:00:00 | 00:00:00 | |
| DO3MHA-12 | 2026-09-05 13:29:21 | 46.40977 | 8.16804 | 129° | 78km/h | 9982m | -7.9m/s | -37.4°C | 37.0% | 0hPa | 2.6V | 00:00:00 | 02:55:41 | 00:00:00 | |
| IW2NTF | 2026-09-05 13:29:15 | 46.41112 | 8.16552 | 126° | 78km/h | 10058m | -7m/s | -38.1°C | 36.2% | 0hPa | 2.6V | 07:54:22 | 02:55:30 | 00:00:00 | |
| DO3MHA-12 | 2026-09-05 13:29:11 | 46.41100 | 8.16575 | 128° | 80km/h | 10051m | -7.7m/s | -38.0°C | 36.2% | 0hPa | 2.6V | 00:00:00 | 02:55:31 | 00:00:00 | |
| DO3MHA-11 | 2026-09-05 13:29:06 | 46.41160 | 8.16457 | 127° | 80km/h | 10084m | -7.0m/s | -38.2°C | 35.4% | 0hPa | 2.6V | 00:00:00 | 02:55:26 | 00:00:00 | |
| IW2NTF | 2026-09-05 13:29:05 | 46.41233 | 8.16312 | 125° | 80km/h | 10124m | -7.3m/s | -38.6°C | 34% | 0hPa | 2.6V | 07:54:32 | 02:55:20 | 00:00:00 | |
| DO3MHA-12 | 2026-09-05 13:29:01 | 46.41221 | 8.16336 | 126° | 80km/h | 10117m | -7.1m/s | -38.5°C | 34.3% | 0hPa | 2.5V | 00:00:00 | 02:55:21 | 00:00:00 | |
| DO3MHA-11 | 2026-09-05 13:28:56 | 46.41282 | 8.16216 | 127° | 78km/h | 10150m | -7.5m/s | -38.8°C | 34.4% | 0hPa | 2.5V | 07:54:00 | 02:55:16 | 00:00:00 | |
| IW2NTF | 2026-09-05 13:28:55 | 46.41356 | 8.16076 | 128° | 78km/h | 10194m | -7.5m/s | -39.2°C | 35.5% | 0hPa | 2.6V | 07:54:42 | 02:55:10 | 00:00:00 | |
| DO3MHA-12 | 2026-09-05 13:28:51 | 46.41343 | 8.16099 | 128° | 78km/h | 10187m | -7.8m/s | -39.1°C | 35.2% | 0hPa | 2.6V | 00:00:00 | 02:55:11 | 00:00:00 | |
| DO3MHA-11 | 2026-09-05 13:28:46 | 46.41405 | 8.15985 | 129° | 80km/h | 10223m | -7.1m/s | -39.4°C | 36.3% | 0hPa | 2.6V | 00:00:00 | 02:55:06 | 00:00:00 | |
| IW2NTF | 2026-09-05 13:28:45 | 46.41479 | 8.15848 | 127° | 80km/h | 10267m | -7.5m/s | -39.8°C | 37.5% | 0hPa | 2.6V | 07:54:52 | 02:55:00 | 00:00:00 | |
| DO3MHA-12 | 2026-09-05 13:28:41 | 46.41467 | 8.15871 | 128° | 82km/h | 10260m | -7.6m/s | -39.7°C | 37.2% | 0hPa | 2.6V | 00:00:00 | 02:55:01 | 00:00:00 | |
| DF1GD-15 | 2026-09-05 13:28:40 | 46.41467 | 8.15871 | 129° | 78km/h | 10260m | -7.6m/s | -39.8°C | 33.1% | 0hPa | 2.6V | 07:55:00 | 00:00:00 | 00:00:00 | |
| IW2NTF | 2026-09-05 13:28:36 | 46.41605 | 8.15609 | 127° | 82km/h | 10335m | -6.7m/s | -40.4°C | 37.5% | 0hPa | 2.6V | 07:55:02 | 02:54:50 | 00:00:00 | |
| DO3MHA-11 | 2026-09-05 13:28:36 | 46.41528 | 8.15753 | 127° | 82km/h | 10296m | -6.9m/s | -40.0°C | 38.8% | 0hPa | 2.5V | 00:00:00 | 02:54:56 | 00:00:00 | |
| DO3MHA-12 | 2026-09-05 13:28:31 | 46.41592 | 8.15632 | 129° | 80km/h | 10328m | -6.6m/s | -40.3°C | 37.5% | 0hPa | 2.5V | 07:55:00 | 02:54:51 | 00:00:00 | |
| DO3MHA-11 | 2026-09-05 13:28:26 | 46.41654 | 8.15516 | 128° | 80km/h | 10364m | -7.0m/s | -40.6°C | 38.0% | 0hPa | 2.5V | 00:00:00 | 02:54:46 | 00:00:00 | |
| IW2NTF | 2026-09-05 13:28:25 | 46.41729 | 8.15372 | 127° | 78km/h | 10403m | -6.9m/s | -41°C | 36.9% | 0hPa | 2.6V | 07:55:12 | 02:54:40 | 00:00:00 | |
| DO3MHA-12 | 2026-09-05 13:28:21 | 46.41717 | 8.15396 | 128° | 80km/h | 10397m | -6.5m/s | -40.9°C | 37.2% | 0hPa | 2.5V | 00:00:00 | 02:54:41 | 00:00:00 | |
| DF1GD-15 | 2026-09-05 13:28:20 | 46.41717 | 8.15396 | 129° | 82km/h | 10397m | -6.6m/s | -40.9°C | 32.9% | 0hPa | 2.5V | 07:55:00 | 00:00:00 | 00:00:00 | |
| DB0UT-7 | 2026-09-05 13:28:16 | 46.41777 | 8.15277 | 127° | 77km/h | 10431m | -7.0m/s | -41.1°C | 35.3% | 0hPa | 2.5V | 00:00:00 | 02:54:36 | 00:00:00 | |
| IW2NTF | 2026-09-05 13:28:15 | 46.41849 | 8.15138 | 127° | 77km/h | 10472m | -6.9m/s | -41.6°C | 34.8% | 0hPa | 2.6V | 07:55:22 | 02:54:30 | 00:00:00 | |
| DO3MHA-12 | 2026-09-05 13:28:11 | 46.41837 | 8.15161 | 128° | 75km/h | 10465m | -6.9m/s | -41.5°C | 34.8% | 0hPa | 2.6V | 00:00:00 | 02:54:31 | 00:00:00 | |
| IW2NTF | 2026-09-05 13:28:06 | 46.41961 | 8.14916 | 125° | 75km/h | 10547m | -7.9m/s | -42.1°C | 34% | 0hPa | 2.6V | 07:55:32 | 02:54:20 | 00:00:00 | |
| DO3MHA-12 | 2026-09-05 13:28:01 | 46.41950 | 8.14938 | 126° | 77km/h | 10539m | -7.7m/s | -42.0°C | 34.0% | 0hPa | 2.5V | 00:00:00 | 02:54:21 | 00:00:00 | |
| DF1GD-15 | 2026-09-05 13:27:59 | 46.41961 | 8.14916 | 127° | 75km/h | 10547m | -7.9m/s | -42.1°C | 29.7% | 0hPa | 2.6V | 07:55:00 | 00:00:00 | 00:00:00 | |
| IW2NTF | 2026-09-05 13:27:56 | 46.42078 | 8.14690 | 127° | 78km/h | 10619m | -6.8m/s | -42.6°C | 32.7% | 0hPa | 2.6V | 07:55:42 | 02:54:10 | 00:00:00 | |
| DO3MHA-12 | 2026-09-05 13:27:51 | 46.42066 | 8.14712 | 128° | 78km/h | 10612m | -7.5m/s | -42.5°C | 32.4% | 0hPa | 2.5V | 00:00:00 | 02:54:11 | 00:00:00 | |
| IW2NTF | 2026-09-05 13:27:46 | 46.42203 | 8.14466 | 130° | 77km/h | 10687m | -7.8m/s | -43.2°C | 34.3% | 0hPa | 2.5V | 07:55:52 | 02:54:00 | 00:00:00 | |
| DB0ND-19 | 2026-09-05 13:27:44 | 46.42154 | 8.14555 | 129° | 78km/h | 10659m | -6.9m/s | -43.0°C | 29.5% | -1.0hPa | 2.5V | 00:00:00 | 00:00:00 | 00:00:00 | |
| DO3MHA-12 | 2026-09-05 13:27:41 | 46.42191 | 8.14487 | 129° | 77km/h | 10680m | -7.7m/s | -43.1°C | 34.4% | 0hPa | 2.5V | 00:00:00 | 02:54:01 | 00:00:00 | |
| DF1GD-15 | 2026-09-05 13:27:38 | 46.42216 | 8.14445 | 131° | 77km/h | 10695m | -7.3m/s | -43.3°C | 30.0% | 0hPa | 2.5V | 07:56:00 | 00:00:00 | 00:00:00 | |
| DO3MHA-11 | 2026-09-05 13:27:36 | 46.42254 | 8.14379 | 130° | 78km/h | 10716m | -7.2m/s | -43.4°C | 34.5% | 0hPa | 2.5V | 07:55:00 | 02:53:56 | 00:00:00 | |
| IW2NTF | 2026-09-05 13:27:35 | 46.42332 | 8.14248 | 129° | 80km/h | 10759m | -7.3m/s | -43.8°C | 32.8% | 0hPa | 2.5V | 07:56:02 | 02:53:50 | 00:00:00 | |
| DO3MHA-12 | 2026-09-05 13:27:31 | 46.42318 | 8.14271 | 132° | 80km/h | 10752m | -6.7m/s | -43.7°C | 33.2% | 0hPa | 2.6V | 00:00:00 | 02:53:51 | 00:00:00 | |
| IW2NTF | 2026-09-05 13:27:26 | 46.42461 | 8.14025 | 130° | 78km/h | 10832m | -7.4m/s | -44.4°C | 32.4% | 0hPa | 2.5V | 07:56:12 | 02:53:40 | 00:00:00 | |
| DO3MHA-11 | 2026-09-05 13:27:26 | 46.42382 | 8.14161 | 131° | 80km/h | 10789m | -6.9m/s | -44.0°C | 32.1% | 0hPa | 2.6V | 00:00:00 | 02:53:46 | 00:00:00 | |
| DO3MHA-12 | 2026-09-05 13:27:21 | 46.42448 | 8.14047 | 130° | 80km/h | 10825m | -7.9m/s | -44.3°C | 32.4% | 0hPa | 2.5V | 00:00:00 | 02:53:41 | 00:00:00 | |
| DF1GD-15 | 2026-09-05 13:27:17 | 46.42487 | 8.13981 | 132° | 82km/h | 10847m | -7.0m/s | -44.5°C | 28.1% | 0hPa | 2.5V | 07:56:00 | 00:00:00 | 00:00:00 | |
| IW2NTF | 2026-09-05 13:27:16 | 46.42593 | 8.13800 | 130° | 78km/h | 10906m | -7.2m/s | -44.9°C | 33% | 0hPa | 2.5V | 07:56:22 | 02:53:30 | 00:00:00 | |
| DO3MHA-11 | 2026-09-05 13:27:16 | 46.42514 | 8.13935 | 129° | 80km/h | 10862m | -7.8m/s | -44.5°C | 32.4% | 0hPa | 2.6V | 00:00:00 | 02:53:36 | 00:00:00 | |
| DB0ND-19 | 2026-09-05 13:27:13 | 46.42553 | 8.13868 | 130° | 82km/h | 10883m | -6.9m/s | -44.7°C | 27.9% | -1.0hPa | 2.6V | 00:00:00 | 00:00:00 | 00:00:00 | |
| DO3MHA-12 | 2026-09-05 13:27:11 | 46.42580 | 8.13822 | 131° | 80km/h | 10898m | -8.1m/s | -44.8°C | 33.0% | 0hPa | 2.6V | 07:56:00 | 02:53:31 | 00:00:00 | |
| IW2NTF | 2026-09-05 13:27:06 | 46.42725 | 8.13570 | 130° | 82km/h | 10979m | -7.5m/s | -45.5°C | 32.8% | 0hPa | 2.6V | 07:56:32 | 02:53:20 | 00:00:00 | |
| DO3MHA-11 | 2026-09-05 13:27:06 | 46.42645 | 8.13708 | 131° | 84km/h | 10936m | -7.5m/s | -45.1°C | 33.1% | 0hPa | 2.6V | 00:00:00 | 02:53:26 | 00:00:00 | |
| DO3MHA-12 | 2026-09-05 13:27:01 | 46.42712 | 8.13592 | 131° | 84km/h | 10972m | -7.8m/s | -45.4°C | 32.7% | 0hPa | 2.6V | 00:00:00 | 02:53:21 | 00:00:00 | |
| DO3MHA-11 | 2026-09-05 13:26:56 | 46.42780 | 8.13474 | 129° | 86km/h | 11008m | -7.8m/s | -45.7°C | 33.0% | 0hPa | 2.6V | 00:00:00 | 02:53:16 | 00:00:00 | |
| IW2NTF | 2026-09-05 13:26:55 | 46.42862 | 8.13332 | 130° | 84km/h | 11052m | -7.9m/s | -46.1°C | 33.2% | 0hPa | 2.6V | 07:56:42 | 02:53:10 | 00:00:00 | |
| HASLITAL | 2026-09-05 13:26:52 | 46.42820 | 8.13404 | 131° | 86km/h | 11031m | -6.8m/s | -46.0°C | 28.3% | 0hPa | 2.6V | 07:57:00 | 00:00:00 | 00:00:00 | |
| IW2NTF | 2026-09-05 13:26:46 | 46.43002 | 8.13089 | 128° | 88km/h | 11126m | -7.8m/s | -46.8°C | 34.8% | 0hPa | 2.6V | 07:56:52 | 02:53:00 | 00:00:00 | |
| DO3MHA-11 | 2026-09-05 13:26:46 | 46.42918 | 8.13235 | 131° | 88km/h | 11082m | -7.7m/s | -46.3°C | 33.7% | 0hPa | 2.5V | 00:00:00 | 02:53:06 | 00:00:00 | |
| DB0ND-19 | 2026-09-05 13:26:42 | 46.42974 | 8.13139 | 130° | 84km/h | 11112m | -7.7m/s | -46.7°C | 29.1% | -1.0hPa | 2.5V | 00:00:00 | 00:00:00 | 00:00:00 | |
| DO3MHA-11 | 2026-09-05 13:26:36 | 46.43059 | 8.12990 | 129° | 88km/h | 11158m | -8.0m/s | -47.0°C | 35.6% | 0hPa | 2.5V | 00:00:00 | 02:52:56 | 00:00:00 | |
| IW2NTF | 2026-09-05 13:26:36 | 46.43144 | 8.12842 | 129° | 88km/h | 11204m | -7.7m/s | -47.5°C | 37.7% | 0hPa | 2.5V | 07:57:02 | 02:52:50 | 00:00:00 | |
| DF1GD-15 | 2026-09-05 13:26:35 | 46.43059 | 8.12990 | 129° | 88km/h | 11158m | -8.0m/s | -47.1°C | 30.5% | 0hPa | 2.5V | 07:57:00 | 00:00:00 | 00:00:00 | |
| IW2NTF | 2026-09-05 13:26:26 | 46.43285 | 8.12595 | 128° | 88km/h | 11279m | -7.5m/s | -48.2°C | 41.4% | 0hPa | 2.5V | 07:57:12 | 02:52:40 | 00:00:00 | |
| HASLITAL | 2026-09-05 13:26:23 | 46.43229 | 8.12694 | 131° | 86km/h | 11249m | -7.9m/s | -47.9°C | 34.3% | 0hPa | 2.5V | 07:57:00 | 00:00:00 | 00:00:00 | |
| IW2NTF | 2026-09-05 13:26:16 | 46.43423 | 8.12341 | 127° | 89km/h | 11345m | -4.5m/s | -48.6°C | 46.8% | 0hPa | 2.5V | 07:57:22 | 02:52:30 | 00:00:00 | |
| DF1GD-15 | 2026-09-05 13:26:14 | 46.43354 | 8.12468 | 129° | 88km/h | 11317m | -7.5m/s | -48.5°C | 37.3% | 0hPa | 2.5V | 07:57:00 | 00:00:00 | 00:00:00 | |
| DB0ND-19 | 2026-09-05 13:26:11 | 46.43410 | 8.12366 | 127° | 88km/h | 11340m | -4.0m/s | -48.6°C | 40.0% | -1.0hPa | 2.5V | 00:00:00 | 00:00:00 | 00:00:00 | |
| IW2NTF | 2026-09-05 13:26:06 | 46.43560 | 8.12082 | 126° | 89km/h | 11384m | -4.2m/s | -49°C | 47.9% | 0hPa | 2.5V | 07:57:32 | 02:52:20 | 00:00:00 | |
| DO3MHA-11 | 2026-09-05 13:26:06 | 46.43479 | 8.12237 | 128° | 89km/h | 11361m | -4.3m/s | -48.7°C | 47.7% | 0hPa | 2.5V | 00:00:00 | 02:52:26 | 00:00:00 | |
| HASLITAL | 2026-09-05 13:26:01 | 46.43533 | 8.12134 | 128° | 89km/h | 11376m | -3.6m/s | -48.9°C | 41.4% | 0hPa | 2.5V | 07:58:00 | 00:00:00 | 00:00:00 | |
| IW2NTF | 2026-09-05 13:25:56 | 46.43696 | 8.11821 | 126° | 88km/h | 11425m | -3.7m/s | -49.3°C | 48% | 0hPa | 2.5V | 07:57:42 | 02:52:10 | 00:00:00 | |
| DO3MHA-11 | 2026-09-05 13:25:56 | 46.43615 | 8.11977 | 128° | 89km/h | 11400m | -3.9m/s | -49.0°C | 47.8% | 0hPa | 2.6V | 00:00:00 | 02:52:16 | 00:00:00 | |
| DF1GD-15 | 2026-09-05 13:25:54 | 46.43628 | 8.11951 | 128° | 89km/h | 11404m | -4.2m/s | -49.1°C | 40.9% | 0hPa | 2.6V | 07:58:00 | 00:00:00 | 00:00:00 | |
| IW2NTF | 2026-09-05 13:25:46 | 46.43829 | 8.11557 | 126° | 89km/h | 11466m | -3.8m/s | -49.6°C | 48.4% | 0hPa | 2.6V | 07:57:52 | 02:52:00 | 00:00:00 | |
| HASLITAL | 2026-09-05 13:25:42 | 46.43802 | 8.11610 | 127° | 89km/h | 11458m | -4.5m/s | -49.6°C | 41.5% | 0hPa | 2.6V | 07:58:00 | 00:00:00 | 00:00:00 | |
| DB0ND-19 | 2026-09-05 13:25:40 | 46.43829 | 8.11557 | 126° | 89km/h | 11466m | -3.8m/s | -49.6°C | 41.4% | -1.0hPa | 2.6V | 00:00:00 | 00:00:00 | 00:00:00 | |
| IW2NTF | 2026-09-05 13:25:36 | 46.43958 | 8.11290 | 124° | 89km/h | 11508m | -4m/s | -50°C | 49.2% | 0hPa | 2.6V | 07:58:02 | 02:51:50 | 00:00:00 | |
| DO3MHA-11 | 2026-09-05 13:25:36 | 46.43881 | 8.11451 | 126° | 89km/h | 11483m | -4.2m/s | -49.8°C | 48.8% | 0hPa | 2.5V | 00:00:00 | 02:51:56 | 00:00:00 | |
| DF1GD-15 | 2026-09-05 13:25:34 | 46.43894 | 8.11424 | 125° | 89km/h | 11487m | -4.6m/s | -49.9°C | 41.8% | 0hPa | 2.5V | 07:58:00 | 00:00:00 | 00:00:00 | |
| DO3MHA-12 | 2026-09-05 13:25:30 | 46.43958 | 8.11290 | 125° | 89km/h | 11508m | -4.0m/s | -50.0°C | 49.2% | 0hPa | 2.5V | 00:00:00 | 02:51:50 | 00:00:00 | |
| DO3MHA-11 | 2026-09-05 13:25:26 | 46.44009 | 8.11182 | 125° | 89km/h | 11525m | -4.5m/s | -50.2°C | 49.7% | 0hPa | 2.5V | 00:00:00 | 02:51:46 | 00:00:00 | |
| IW2NTF | 2026-09-05 13:25:25 | 46.44084 | 8.11019 | 123° | 88km/h | 11550m | -4.4m/s | -50.4°C | 49.9% | 0hPa | 2.5V | 07:58:12 | 02:51:40 | 00:00:00 | |
| HASLITAL | 2026-09-05 13:25:20 | 46.44071 | 8.11046 | 125° | 88km/h | 11546m | -3.9m/s | -50.3°C | 43.0% | 0hPa | 2.5V | 07:59:00 | 00:00:00 | 00:00:00 | |
| DO3MHA-12 | 2026-09-05 13:25:19 | 46.44096 | 8.10992 | 124° | 88km/h | 11555m | -4.7m/s | -50.3°C | 50.2% | 0hPa | 2.5V | 00:00:00 | 02:51:39 | 00:00:00 | |
| DO3MHA-11 | 2026-09-05 13:25:16 | 46.44133 | 8.10912 | 124° | 88km/h | 11567m | -4.6m/s | -50.5°C | 50.5% | 0hPa | 2.5V | 00:00:00 | 02:51:36 | 00:00:00 | |
| IW2NTF | 2026-09-05 13:25:15 | 46.44206 | 8.10750 | 122° | 89km/h | 11593m | -4.6m/s | -50.8°C | 51.1% | 0hPa | 2.5V | 07:58:22 | 02:51:30 | 00:00:00 | |
| DF1GD-15 | 2026-09-05 13:25:13 | 46.44157 | 8.10858 | 124° | 88km/h | 11576m | -4.2m/s | -50.6°C | 43.7% | 0hPa | 2.5V | 07:59:00 | 00:00:00 | 00:00:00 | |
| DO3MHA-12 | 2026-09-05 13:25:09 | 46.44218 | 8.10722 | 123° | 89km/h | 11598m | -4.3m/s | -50.7°C | 50.9% | 0hPa | 2.5V | 00:00:00 | 02:51:29 | 00:00:00 | |
| IW2NTF | 2026-09-05 13:25:06 | 46.44328 | 8.10474 | 122° | 89km/h | 11638m | -4.7m/s | -51.1°C | 50.9% | 0hPa | 2.5V | 07:58:32 | 02:51:20 | 00:00:00 | |
| DO3MHA-11 | 2026-09-05 13:25:06 | 46.44254 | 8.10640 | 123° | 89km/h | 11611m | -4.7m/s | -50.9°C | 51.1% | 0hPa | 2.5V | 00:00:00 | 02:51:26 | 00:00:00 | |
| DO3MHA-12 | 2026-09-05 13:24:59 | 46.44340 | 8.10447 | 123° | 89km/h | 11642m | -4.1m/s | -51.1°C | 50.7% | 0hPa | 2.5V | 00:00:00 | 02:51:19 | 00:00:00 | |
| IW2NTF | 2026-09-05 13:24:56 | 46.44447 | 8.10195 | 121° | 89km/h | 11681m | -4.6m/s | -51.4°C | 51% | 0hPa | 2.5V | 07:58:42 | 02:51:10 | 00:00:00 | |
| DF1GD-15 | 2026-09-05 13:24:53 | 46.44399 | 8.10308 | 123° | 89km/h | 11664m | -4.6m/s | -51.3°C | 43.5% | 0hPa | 2.6V | 07:59:00 | 00:00:00 | 00:00:00 | |
| DO3MHA-12 | 2026-09-05 13:24:49 | 46.44458 | 8.10167 | 122° | 89km/h | 11686m | -4.3m/s | -51.4°C | 50.8% | 0hPa | 2.6V | 00:00:00 | 02:51:09 | 00:00:00 | |
| DO3MHA-11 | 2026-09-05 13:24:46 | 46.44495 | 8.10083 | 122° | 89km/h | 11699m | -4.5m/s | -51.5°C | 51.6% | 0hPa | 2.6V | 00:00:00 | 02:51:06 | 00:00:00 | |
| IW2NTF | 2026-09-05 13:24:45 | 46.44567 | 8.09915 | 121° | 89km/h | 11726m | -4.6m/s | -51.8°C | 52% | 0hPa | 2.6V | 07:58:52 | 02:51:00 | 00:00:00 | |
| DO3MHA-12 | 2026-09-05 13:24:39 | 46.44579 | 8.09886 | 122° | 55km/h | 11730m | -4.6m/s | -51.8°C | 51.7% | 0hPa | 2.5V | 00:00:00 | 02:50:59 | 00:00:00 | |
| DB0ND-19 | 2026-09-05 13:24:38 | 46.44590 | 8.09859 | 121° | 89km/h | 11734m | -4.1m/s | -51.9°C | 44.2% | -1.0hPa | 2.5V | 00:00:00 | 00:00:00 | 00:00:00 | |
| DO3MHA-11 | 2026-09-05 13:24:36 | 46.44614 | 8.09803 | 122° | 89km/h | 11744m | -4.8m/s | -52.0°C | 52.3% | 0hPa | 2.5V | 00:00:00 | 02:50:56 | 00:00:00 | |
| IW2NTF | 2026-09-05 13:24:36 | 46.44686 | 8.09634 | 121° | 91km/h | 11770m | -4.7m/s | -52.2°C | 52.2% | 0hPa | 2.6V | 07:59:02 | 02:50:50 | 00:00:00 | |
| DF1GD-15 | 2026-09-05 13:24:33 | 46.44638 | 8.09747 | 123° | 89km/h | 11752m | -4.5m/s | -52.1°C | 44.8% | 0hPa | 2.5V | 07:59:00 | 00:00:00 | 00:00:00 | |
| IN3HCDX | 2026-09-05 13:24:29 | 46.44686 | 8.09634 | 122° | 91km/h | 11770m | -4.7m/s | -52.2°C | 44.5% | 0hPa | 2.5V | 00:00:00 | 00:00:00 | 00:00:00 | |
| IW2NTF | 2026-09-05 13:24:26 | 46.44804 | 8.09350 | 121° | 91km/h | 11816m | -4.9m/s | -52.6°C | 53.1% | 0hPa | 2.5V | 07:59:12 | 02:50:40 | 00:00:00 | |
| HASLITAL | 2026-09-05 13:24:19 | 46.44803 | 8.09350 | 122° | 91km/h | 11816m | -4.9m/s | -52.6°C | 45.2% | 0hPa | 2.5V | 07:59:00 | 00:00:00 | 00:00:00 | |
| IW2NTF | 2026-09-05 13:24:16 | 46.44923 | 8.09069 | 121° | 89km/h | 11860m | -5.1m/s | -52.9°C | 55.3% | 0hPa | 2.5V | 07:59:22 | 02:50:30 | 00:00:00 | |
| DF1GD-15 | 2026-09-05 13:24:12 | 46.44887 | 8.09153 | 122° | 89km/h | 11847m | -4.6m/s | -52.8°C | 46.5% | 0hPa | 2.5V | 07:59:00 | 00:00:00 | 00:00:00 | |
| IW2NTF | 2026-09-05 13:24:05 | 46.45042 | 8.08793 | 122° | 89km/h | 11904m | -5m/s | -53.3°C | 57.4% | 0hPa | 2.5V | 07:59:32 | 02:50:20 | 00:00:00 | |
| IN3HCDX | 2026-09-05 13:24:00 | 46.45030 | 8.08820 | 123° | 89km/h | 11899m | -4.4m/s | -53.3°C | 48.8% | 0hPa | 2.6V | 00:00:00 | 00:00:00 | 00:00:00 | |
| HASLITAL | 2026-09-05 13:23:58 | 46.45054 | 8.08766 | 123° | 89km/h | 11908m | -4.6m/s | -53.3°C | 48.9% | 0hPa | 2.6V | 07:59:00 | 00:00:00 | 00:00:00 | |
| IW2NTF | 2026-09-05 13:23:55 | 46.45163 | 8.08519 | 122° | 88km/h | 11954m | -4.9m/s | -53.7°C | 58.7% | 0hPa | 2.6V | 07:59:42 | 02:50:10 | 00:00:00 | |
| DF1GD-15 | 2026-09-05 13:23:51 | 46.45139 | 8.08573 | 124° | 88km/h | 11946m | -4.3m/s | -53.6°C | 49.9% | 0hPa | 2.5V | 07:59:00 | 00:00:00 | 00:00:00 | |
| IW2NTF | 2026-09-05 13:23:46 | 46.45283 | 8.08252 | 123° | 86km/h | 12000m | -4.9m/s | -54.1°C | 59.1% | 0hPa | 2.5V | 07:59:52 | 02:50:00 | 00:00:00 | |
| DB0UT-7 | 2026-09-05 13:23:46 | 46.45210 | 8.08411 | 124° | 86km/h | 11973m | -4.8m/s | -53.8°C | 58.8% | 0hPa | 2.5V | 00:00:00 | 00:00:00 | 00:00:00 | |
| HASLITAL | 2026-09-05 13:23:38 | 46.45295 | 8.08225 | 125° | 86km/h | 12005m | -4.7m/s | -54.1°C | 50.4% | 0hPa | 2.5V | 08:00:00 | 00:00:00 | 00:00:00 | |
| IW2NTF | 2026-09-05 13:23:36 | 46.45402 | 8.07992 | 123° | 86km/h | 12047m | -4.8m/s | -54.5°C | 58.8% | 0hPa | 2.5V | 08:00:02 | 02:49:50 | 00:00:00 | |
| IN3HCDX | 2026-09-05 13:23:33 | 46.45354 | 8.08095 | 125° | 84km/h | 12028m | -4.4m/s | -54.4°C | 50.3% | 0hPa | 2.5V | 00:00:00 | 00:00:00 | 00:00:00 | |
| DF1GD-15 | 2026-09-05 13:23:32 | 46.45378 | 8.08043 | 125° | 84km/h | 12038m | -4.8m/s | -54.5°C | 50.3% | 0hPa | 2.5V | 08:00:00 | 00:00:00 | 00:00:00 | |
| IW2NTF | 2026-09-05 13:23:25 | 46.45523 | 8.07732 | 123° | 84km/h | 12093m | -4.9m/s | -55°C | 57.9% | 0hPa | 2.5V | 08:00:12 | 02:49:40 | 00:00:00 | |
| HASLITAL | 2026-09-05 13:23:17 | 46.45546 | 8.07680 | 124° | 84km/h | 12103m | -4.4m/s | -55.1°C | 49.1% | 0hPa | 2.6V | 08:00:00 | 00:00:00 | 00:00:00 | |
| DB0UT-7 | 2026-09-05 13:23:16 | 46.45569 | 8.07629 | 124° | 86km/h | 12112m | -5.0m/s | -55.1°C | 57.9% | 0hPa | 2.6V | 00:00:00 | 02:49:36 | 00:00:00 | |
| IW2NTF | 2026-09-05 13:23:15 | 46.45641 | 8.07471 | 123° | 86km/h | 12139m | -4.8m/s | -55.4°C | 57.7% | 0hPa | 2.6V | 08:00:22 | 02:49:30 | 00:00:00 | |
| DF1GD-15 | 2026-09-05 13:23:10 | 46.45629 | 8.07497 | 125° | 86km/h | 12135m | -4.2m/s | -55.3°C | 49.0% | 0hPa | 2.5V | 08:00:00 | 00:00:00 | 00:00:00 | |
| IW2NTF | 2026-09-05 13:23:05 | 46.45757 | 8.07208 | 121° | 86km/h | 12185m | -4.5m/s | -55.7°C | 57.8% | 0hPa | 2.5V | 08:00:32 | 02:49:20 | 00:00:00 | |
| DB0ND-19 | 2026-09-05 13:23:05 | 46.45699 | 8.07340 | 122° | 84km/h | 12162m | -4.8m/s | -55.6°C | 48.1% | -1.0hPa | 2.5V | 00:00:00 | 00:00:00 | 00:00:00 | |
| IN3HCDX | 2026-09-05 13:23:04 | 46.45699 | 8.07340 | 123° | 86km/h | 12162m | -4.8m/s | -55.6°C | 48.5% | 0hPa | 2.5V | 00:00:00 | 00:00:00 | 00:00:00 | |
| HASLITAL | 2026-09-05 13:22:56 | 46.45791 | 8.07127 | 123° | 86km/h | 12199m | -4.5m/s | -55.8°C | 48.8% | 0hPa | 2.5V | 08:00:00 | 00:00:00 | 00:00:00 | |
| IW2NTF | 2026-09-05 13:22:55 | 46.45871 | 8.06939 | 121° | 86km/h | 12231m | -4.5m/s | -56°C | 57.5% | 0hPa | 2.5V | 08:00:42 | 02:49:10 | 00:00:00 | |
| DF1GD-15 | 2026-09-05 13:22:50 | 46.45860 | 8.06966 | 123° | 86km/h | 12227m | -4.2m/s | -56.0°C | 48.7% | 0hPa | 2.5V | 08:00:00 | 00:00:00 | 00:00:00 | |
| DO3MHA-11 | 2026-09-05 13:22:49 | 46.45882 | 8.06912 | 122° | 86km/h | 12236m | -5.0m/s | -56.0°C | 57.7% | 0hPa | 2.5V | 00:00:00 | 02:49:09 | 00:00:00 | |
| DB0UT-7 | 2026-09-05 13:22:46 | 46.45915 | 8.06832 | 121° | 82km/h | 12250m | -4.9m/s | -56.1°C | 57.8% | 0hPa | 2.5V | 00:00:00 | 00:00:00 | 00:00:00 | |
| IW2NTF | 2026-09-05 13:22:45 | 46.45982 | 8.06673 | 122° | 84km/h | 12277m | -4.4m/s | -56.4°C | 57.7% | 0hPa | 2.5V | 08:00:52 | 02:49:00 | 00:00:00 | |
| IN3HCDX | 2026-09-05 13:22:43 | 46.45937 | 8.06779 | 122° | 84km/h | 12259m | -4.3m/s | -56.2°C | 48.6% | 0hPa | 2.5V | 08:01:00 | 00:00:00 | 00:00:00 | |
| DO3MHA-11 | 2026-09-05 13:22:39 | 46.45994 | 8.06647 | 123° | 82km/h | 12282m | -4.8m/s | -56.4°C | 57.8% | 0hPa | 2.5V | 00:00:00 | 02:48:59 | 00:00:00 | |
| HASLITAL | 2026-09-05 13:22:36 | 46.46017 | 8.06596 | 124° | 84km/h | 12291m | -4.5m/s | -56.5°C | 48.4% | 0hPa | 2.5V | 00:00:00 | 00:00:00 | 00:00:00 | |
| IW2NTF | 2026-09-05 13:22:35 | 46.46105 | 8.06392 | 121° | 80km/h | 12327m | -4.9m/s | -56.7°C | 57.9% | 0hPa | 2.5V | 08:01:03 | 02:48:49 | 00:00:00 | |
| DB0ND-19 | 2026-09-05 13:22:34 | 46.46083 | 8.06442 | 121° | 80km/h | 12318m | -4.2m/s | -56.7°C | 48.2% | -1.0hPa | 2.6V | 00:00:00 | 00:00:00 | 00:00:00 | |
| DF1GD-15 | 2026-09-05 13:22:29 | 46.46094 | 8.06417 | 123° | 80km/h | 12323m | -4.9m/s | -56.7°C | 48.7% | 0hPa | 2.6V | 08:01:00 | 00:00:00 | 00:00:00 | |
| IW2NTF | 2026-09-05 13:22:25 | 46.46215 | 8.06141 | 121° | 80km/h | 12373m | -4.9m/s | -57.1°C | 58% | 0hPa | 2.6V | 08:01:13 | 02:48:39 | 00:00:00 | |
| DO3MHA-11 | 2026-09-05 13:22:24 | 46.46160 | 8.06267 | 124° | 80km/h | 12350m | -4.3m/s | -56.8°C | 58.1% | 0hPa | 2.5V | 00:00:00 | 02:48:44 | 00:00:00 | |
| IN3HCDX | 2026-09-05 13:22:18 | 46.46215 | 8.06141 | 123° | 80km/h | 12374m | -4.9m/s | -57.1°C | 48.5% | 0hPa | 2.5V | 08:01:00 | 00:00:00 | 00:00:00 | |
| DB0UT-7 | 2026-09-05 13:22:16 | 46.46247 | 8.06067 | 123° | 80km/h | 12387m | -4.9m/s | -57.1°C | 58.2% | 0hPa | 2.5V | 00:00:00 | 02:48:36 | 00:00:00 | |
| IW2NTF | 2026-09-05 13:22:15 | 46.46325 | 8.05894 | 123° | 78km/h | 12419m | -4.8m/s | -57.5°C | 58.8% | 0hPa | 2.5V | 08:01:23 | 02:48:29 | 00:00:00 | |
| DF1GD-15 | 2026-09-05 13:22:08 | 46.46325 | 8.05894 | 124° | 78km/h | 12419m | -4.8m/s | -57.5°C | 49.1% | 0hPa | 2.5V | 08:01:00 | 00:00:00 | 00:00:00 | |
| IW2NTF | 2026-09-05 13:22:05 | 46.46433 | 8.05650 | 123° | 80km/h | 12465m | -5.3m/s | -57.9°C | 59.2% | 0hPa | 2.5V | 08:01:33 | 02:48:19 | 00:00:00 | |
| DO3MHA-11 | 2026-09-05 13:22:05 | 46.46368 | 8.05797 | 123° | 80km/h | 12437m | -4.7m/s | -57.6°C | 58.8% | 0hPa | 2.6V | 00:00:00 | 02:48:25 | 00:00:00 | |
| DB0ND-19 | 2026-09-05 13:22:03 | 46.46389 | 8.05748 | 122° | 77km/h | 12446m | -5.0m/s | -57.7°C | 48.9% | -1.0hPa | 2.6V | 00:00:00 | 00:00:00 | 00:00:00 | |
| IN3HCDX | 2026-09-05 13:21:58 | 46.46444 | 8.05625 | 125° | 82km/h | 12470m | -4.4m/s | -57.9°C | 49.1% | 0hPa | 2.6V | 08:01:00 | 00:00:00 | 00:00:00 | |
| IW2NTF | 2026-09-05 13:21:55 | 46.46550 | 8.05407 | 125° | 82km/h | 12511m | -4.8m/s | -58.1°C | 59.5% | 0hPa | 2.6V | 08:01:43 | 02:48:09 | 00:00:00 | |
| HASLITAL | 2026-09-05 13:21:54 | 46.46479 | 8.05552 | 126° | 80km/h | 12483m | -4.8m/s | -58.0°C | 49.6% | 0hPa | 2.6V | 00:00:00 | 00:00:00 | 00:00:00 | |
| DF1GD-15 | 2026-09-05 13:21:47 | 46.46562 | 8.05382 | 127° | 80km/h | 12516m | -4.6m/s | -58.2°C | 49.7% | 0hPa | 2.6V | 08:02:00 | 00:00:00 | 00:00:00 | |
| DB0UT-7 | 2026-09-05 13:21:46 | 46.46586 | 8.05334 | 127° | 82km/h | 12525m | -4.5m/s | -58.1°C | 59.2% | 0hPa | 2.6V | 00:00:00 | 00:00:00 | 00:00:00 | |
| IW2NTF | 2026-09-05 13:21:45 | 46.46673 | 8.05163 | 126° | 82km/h | 12557m | -4.9m/s | -58.3°C | 59.6% | 0hPa | 2.6V | 08:01:53 | 02:47:59 | 00:00:00 | |
| IN3HCDX | 2026-09-05 13:21:36 | 46.46698 | 8.05115 | 129° | 82km/h | 12567m | -4.5m/s | -58.4°C | 49.9% | 0hPa | 2.5V | 00:00:00 | 00:00:00 | 00:00:00 | |
| DO3MHA-11 | 2026-09-05 13:21:35 | 46.46724 | 8.05068 | 129° | 82km/h | 12576m | -4.8m/s | -58.4°C | 59.9% | 0hPa | 2.5V | 00:00:00 | 02:47:55 | 00:00:00 | |
| DB0ND-19 | 2026-09-05 13:21:32 | 46.46763 | 8.04998 | 128° | 80km/h | 12589m | -4.4m/s | -58.6°C | 49.7% | -1.0hPa | 2.5V | 00:00:00 | 00:00:00 | 00:00:00 | |
| DF1GD-15 | 2026-09-05 13:21:27 | 46.46814 | 8.04904 | 130° | 82km/h | 12607m | -5.1m/s | -58.8°C | 50.3% | 0hPa | 2.5V | 08:02:00 | 00:00:00 | 00:00:00 | |
| DO3MHA-11 | 2026-09-05 13:21:25 | 46.46853 | 8.04834 | 129° | 82km/h | 12621m | -4.9m/s | -58.8°C | 60.8% | 0hPa | 2.5V | 00:00:00 | 02:47:45 | 00:00:00 | |
| DB0UT-7 | 2026-09-05 13:21:16 | 46.46971 | 8.04625 | 130° | 84km/h | 12664m | -4.5m/s | -59.1°C | 60.7% | 0hPa | 2.5V | 00:00:00 | 02:47:36 | 00:00:00 | |
| DO3MHA-11 | 2026-09-05 13:21:15 | 46.46984 | 8.04603 | 130° | 84km/h | 12669m | -4.4m/s | -59.2°C | 60.9% | 0hPa | 2.5V | 00:00:00 | 02:47:35 | 00:00:00 | |
| HASLITAL | 2026-09-05 13:21:14 | 46.46984 | 8.04603 | 131° | 82km/h | 12669m | -4.5m/s | -59.2°C | 50.5% | 0hPa | 2.5V | 00:00:00 | 00:00:00 | 00:00:00 | |
| IW2NTF | 2026-09-05 13:21:12 | 46.47093 | 8.04417 | 129° | 84km/h | 12707m | -4.8m/s | -59.6°C | 61.2% | 0hPa | 2.5V | 08:02:25 | 02:47:27 | 00:00:00 | |
| IN3HCDX | 2026-09-05 13:21:11 | 46.47024 | 8.04533 | 132° | 82km/h | 12683m | -4.3m/s | -59.3°C | 50.3% | 0hPa | 2.6V | 00:00:00 | 00:00:00 | 00:00:00 | |
| DF1GD-15 | 2026-09-05 13:21:06 | 46.47093 | 8.04417 | 131° | 84km/h | 12707m | -4.8m/s | -59.6°C | 50.6% | 0hPa | 2.6V | 08:02:00 | 00:00:00 | 00:00:00 | |
| DO3MHA-11 | 2026-09-05 13:21:05 | 46.47120 | 8.04370 | 131° | 84km/h | 12716m | -4.4m/s | -59.6°C | 61.3% | 0hPa | 2.6V | 00:00:00 | 02:47:25 | 00:00:00 | |
| IW2NTF | 2026-09-05 13:21:03 | 46.47230 | 8.04182 | 130° | 84km/h | 12754m | -4.8m/s | -59.9°C | 62.2% | 0hPa | 2.6V | 08:02:35 | 02:47:17 | 00:00:00 | |
| DB0ND-19 | 2026-09-05 13:21:01 | 46.47301 | 8.04064 | 131° | 84km/h | 12778m | -4.4m/s | -60.0°C | 51.3% | -1.0hPa | 2.5V | 00:00:00 | 00:00:00 | 00:00:00 | |
| HASLITAL | 2026-09-05 13:20:54 | 46.47259 | 8.04135 | 132° | 86km/h | 12764m | -4.8m/s | -60.0°C | 51.9% | 0hPa | 2.5V | 00:00:00 | 00:00:00 | 00:00:00 | |
| IW2NTF | 2026-09-05 13:20:52 | 46.47372 | 8.03947 | 131° | 84km/h | 12802m | -4.8m/s | -60.3°C | 63.2% | 0hPa | 2.5V | 08:02:45 | 02:47:07 | 00:00:00 | |
| IN3HCDX | 2026-09-05 13:20:50 | 46.47316 | 8.04041 | 132° | 84km/h | 12783m | -5.1m/s | -60.1°C | 51.9% | 0hPa | 2.6V | 00:00:00 | 00:00:00 | 00:00:00 | |
| DB0UT-7 | 2026-09-05 13:20:46 | 46.47386 | 8.03924 | 131° | 88km/h | 12807m | -4.5m/s | -60.2°C | 62.8% | 0hPa | 2.6V | 00:00:00 | 00:00:00 | 00:00:00 | |
| DF1GD-15 | 2026-09-05 13:20:45 | 46.47386 | 8.03924 | 132° | 84km/h | 12807m | -4.5m/s | -60.3°C | 51.9% | 0hPa | 2.5V | 08:03:00 | 00:00:00 | 00:00:00 | |
| IW2NTF | 2026-09-05 13:20:42 | 46.47517 | 8.03712 | 132° | 88km/h | 12849m | -4.8m/s | -60.6°C | 63% | 0hPa | 2.5V | 08:02:55 | 02:46:57 | 00:00:00 | |
| IW2NTF | 2026-09-05 13:20:32 | 46.47666 | 8.03478 | 132° | 86km/h | 12896m | -5.2m/s | -60.9°C | 63% | 0hPa | 2.6V | 08:03:05 | 02:46:47 | 00:00:00 | |
| IN3HCDX | 2026-09-05 13:20:29 | 46.47621 | 8.03548 | 134° | 86km/h | 12882m | -4.6m/s | -60.8°C | 51.9% | 0hPa | 2.5V | 00:00:00 | 00:00:00 | 00:00:00 | |
| HASLITAL | 2026-09-05 13:20:26 | 46.47666 | 8.03478 | 134° | 86km/h | 12896m | -5.2m/s | -60.9°C | 51.8% | 0hPa | 2.5V | 00:00:00 | 00:00:00 | 00:00:00 | |
| DF1GD-15 | 2026-09-05 13:20:24 | 46.47696 | 8.03432 | 134° | 88km/h | 12906m | -4.7m/s | -61.0°C | 51.9% | 0hPa | 2.5V | 08:03:00 | 00:00:00 | 00:00:00 | |
| IW2NTF | 2026-09-05 13:20:23 | 46.47818 | 8.03244 | 133° | 88km/h | 12944m | -5.2m/s | -61.3°C | 63% | 0hPa | 2.5V | 08:03:15 | 02:46:37 | 00:00:00 | |
| DB0UT-7 | 2026-09-05 13:20:16 | 46.47833 | 8.03221 | 134° | 88km/h | 12949m | -4.7m/s | -61.3°C | 63.3% | 0hPa | 2.5V | 00:00:00 | 02:46:36 | 00:00:00 | |
| DO3MHA-11 | 2026-09-05 13:20:11 | 46.47910 | 8.03105 | 135° | 88km/h | 12973m | -4.8m/s | -61.6°C | 63.5% | 0hPa | 2.5V | 00:00:00 | 02:46:31 | 00:00:00 | |
| IN3HCDX | 2026-09-05 13:20:07 | 46.47957 | 8.03036 | 135° | 88km/h | 12987m | -4.6m/s | -61.7°C | 51.8% | 0hPa | 2.5V | 00:00:00 | 00:00:00 | 00:00:00 | |
| DF1GD-15 | 2026-09-05 13:20:04 | 46.48003 | 8.02966 | 135° | 88km/h | 13002m | -4.5m/s | -61.8°C | 51.6% | 0hPa | 2.5V | 08:04:00 | 00:00:00 | 00:00:00 | |
| DB0ND-19 | 2026-09-05 13:19:59 | 46.48096 | 8.02827 | 134° | 88km/h | 13030m | -4.5m/s | -62.1°C | 51.1% | -1.0hPa | 2.5V | 00:00:00 | 00:00:00 | 00:00:00 | |
| DO3MHA-11 | 2026-09-05 13:19:48 | 46.48268 | 8.02573 | 135° | 89km/h | 13081m | -4.7m/s | -62.5°C | 62.8% | 0hPa | 2.5V | 08:03:00 | 02:46:08 | 00:00:00 | |
| DB0UT-7 | 2026-09-05 13:19:46 | 46.48300 | 8.02527 | 136° | 88km/h | 13091m | -4.8m/s | -62.6°C | 63.2% | 0hPa | 2.6V | 00:00:00 | 00:00:00 | 00:00:00 | |
| IN3HCDX | 2026-09-05 13:19:43 | 46.48332 | 8.02482 | 136° | 89km/h | 13100m | -4.9m/s | -62.7°C | 50.9% | 0hPa | 2.6V | 00:00:00 | 00:00:00 | 00:00:00 | |
| DO3MHA-11 | 2026-09-05 13:19:35 | 46.48477 | 8.02278 | 136° | 89km/h | 13142m | -4.8m/s | -62.9°C | 62.4% | 0hPa | 2.6V | 00:00:00 | 02:45:55 | 00:00:00 | |
| HASLITAL | 2026-09-05 13:19:33 | 46.48493 | 8.02255 | 137° | 89km/h | 13146m | -4.6m/s | -63.0°C | 50.7% | 0hPa | 2.6V | 08:04:00 | 00:00:00 | 00:00:00 | |
| DB0ND-19 | 2026-09-05 13:19:28 | 46.48590 | 8.02119 | 135° | 88km/h | 13174m | -4.7m/s | -63.3°C | 49.9% | -1.0hPa | 2.6V | 00:00:00 | 00:00:00 | 00:00:00 | |
| DO3MHA-11 | 2026-09-05 13:19:25 | 46.48638 | 8.02052 | 137° | 88km/h | 13189m | -5.0m/s | -63.3°C | 62.3% | 0hPa | 2.6V | 00:00:00 | 02:45:45 | 00:00:00 | |
| DF1GD-15 | 2026-09-05 13:19:23 | 46.48654 | 8.02030 | 137° | 88km/h | 13194m | -4.5m/s | -63.4°C | 50.4% | 0hPa | 2.6V | 08:04:00 | 00:00:00 | 00:00:00 | |
| DB0UT-7 | 2026-09-05 13:19:16 | 46.48781 | 8.01849 | 136° | 86km/h | 13231m | -4.9m/s | -63.7°C | 62.2% | 0hPa | 2.6V | 08:04:00 | 02:45:36 | 00:00:00 | |
| DO3MHA-11 | 2026-09-05 13:19:15 | 46.48797 | 8.01827 | 136° | 88km/h | 13236m | -4.5m/s | -63.7°C | 62.1% | 0hPa | 2.5V | 00:00:00 | 02:45:35 | 00:00:00 | |
| HASLITAL | 2026-09-05 13:19:12 | 46.48829 | 8.01782 | 136° | 88km/h | 13245m | -5.1m/s | -63.9°C | 50.4% | 0hPa | 2.5V | 00:00:00 | 00:00:00 | 00:00:00 | |
| IW2NTF | 2026-09-05 13:19:07 | 46.49012 | 8.01512 | 134° | 84km/h | 13300m | -4.6m/s | -64.3°C | 61.9% | 0hPa | 2.5V | 08:04:31 | 02:45:21 | 00:00:00 | |
| DO3MHA-11 | 2026-09-05 13:19:05 | 46.48952 | 8.01601 | 135° | 84km/h | 13282m | -4.4m/s | -64.1°C | 61.9% | 0hPa | 2.5V | 00:00:00 | 02:45:25 | 00:00:00 | |
| DF1GD-15 | 2026-09-05 13:19:02 | 46.48982 | 8.01556 | 135° | 84km/h | 13291m | -5.2m/s | -64.3°C | 49.9% | 0hPa | 2.5V | 08:04:00 | 00:00:00 | 00:00:00 | |
| DB0ND-19 | 2026-09-05 13:18:57 | 46.49072 | 8.01424 | 134° | 84km/h | 13319m | -5.4m/s | -64.5°C | 49.1% | -1.0hPa | 2.5V | 00:00:00 | 00:00:00 | 00:00:00 | |
| IW2NTF | 2026-09-05 13:18:56 | 46.49160 | 8.01289 | 133° | 84km/h | 13348m | -4.9m/s | -64.7°C | 61% | 0hPa | 2.5V | 08:04:41 | 02:45:11 | 00:00:00 | |
| DO3MHA-11 | 2026-09-05 13:18:55 | 46.49101 | 8.01379 | 135° | 84km/h | 13329m | -4.6m/s | -64.4°C | 61.4% | 0hPa | 2.5V | 00:00:00 | 02:45:15 | 00:00:00 | |
| HASLITAL | 2026-09-05 13:18:51 | 46.49145 | 8.01312 | 134° | 84km/h | 13344m | -4.4m/s | -64.6°C | 49.0% | 0hPa | 2.5V | 00:00:00 | 00:00:00 | 00:00:00 | |
| DB0UT-7 | 2026-09-05 13:18:46 | 46.49231 | 8.01179 | 134° | 84km/h | 13372m | -4.7m/s | -64.8°C | 61.3% | 0hPa | 2.5V | 00:00:00 | 00:00:00 | 00:00:00 | |
| DO3MHA-11 | 2026-09-05 13:18:45 | 46.49245 | 8.01158 | 134° | 84km/h | 13376m | -4.3m/s | -64.9°C | 60.9% | 0hPa | 2.5V | 00:00:00 | 02:45:05 | 00:00:00 | |
| DF1GD-15 | 2026-09-05 13:18:41 | 46.49288 | 8.01091 | 134° | 82km/h | 13390m | -4.8m/s | -65.0°C | 48.3% | 0hPa | 2.5V | 08:04:00 | 00:00:00 | 00:00:00 | |
| DO3MHA-11 | 2026-09-05 13:18:35 | 46.49388 | 8.00933 | 132° | 84km/h | 13423m | -4.6m/s | -65.3°C | 60.0% | 0hPa | 2.5V | 00:00:00 | 02:44:55 | 00:00:00 | |
| HASLITAL | 2026-09-05 13:18:30 | 46.49445 | 8.00842 | 133° | 82km/h | 13441m | -4.5m/s | -65.5°C | 47.6% | 0hPa | 2.5V | 00:00:00 | 00:00:00 | 00:00:00 | |
| IN3HCDX | 2026-09-05 13:18:28 | 46.49473 | 8.00796 | 133° | 82km/h | 13450m | -5.4m/s | -65.5°C | 0% | 0hPa | 2.5V | 08:05:00 | 00:00:00 | 00:00:00 | |
| IW2NTF | 2026-09-05 13:18:27 | 46.49570 | 8.00637 | 130° | 84km/h | 13486m | -4.9m/s | -65.8°C | 58.9% | 0hPa | 2.5V | 08:05:10 | 02:44:42 | 00:00:00 | |
| DB0ND-19 | 2026-09-05 13:18:26 | 46.49515 | 8.00728 | 131° | 82km/h | 13465m | -5.2m/s | -65.7°C | 46.6% | -1.0hPa | 2.5V | 00:00:00 | 00:00:00 | 00:00:00 | |
| DO3MHA-11 | 2026-09-05 13:18:25 | 46.49529 | 8.00705 | 132° | 82km/h | 13470m | -4.9m/s | -65.6°C | 59.1% | 0hPa | 2.5V | 00:00:00 | 02:44:45 | 00:00:00 | |
| DF1GD-15 | 2026-09-05 13:18:20 | 46.49584 | 8.00613 | 132° | 84km/h | 13491m | -4.7m/s | -65.8°C | 46.4% | 0hPa | 2.5V | 08:05:00 | 00:00:00 | 00:00:00 | |
| DB0UT-7 | 2026-09-05 13:18:16 | 46.49652 | 8.00499 | 131° | 84km/h | 13515m | -4.6m/s | -66.0°C | 58.0% | 0hPa | 2.5V | 00:00:00 | 02:44:36 | 00:00:00 | |
| IW2NTF | 2026-09-05 13:18:15 | 46.49733 | 8.00361 | 130° | 82km/h | 13542m | -4.6m/s | -66.3°C | 57.9% | 0hPa | 2.5V | 08:05:22 | 02:44:30 | 00:00:00 | |
| DO3MHA-11 | 2026-09-05 13:18:15 | 46.49666 | 8.00476 | 131° | 89km/h | 13519m | -4.6m/s | -66.0°C | 58.5% | 0hPa | 2.5V | 08:05:00 | 02:44:35 | 00:00:00 | |
| IW2NTF | 2026-09-05 13:18:05 | 46.49867 | 8.00128 | 129° | 84km/h | 13591m | -4.6m/s | -66.7°C | 56.7% | 0hPa | 2.6V | 08:05:32 | 02:44:20 | 00:00:00 | |
| DF1GD-15 | 2026-09-05 13:17:59 | 46.49867 | 8.00128 | 131° | 84km/h | 13591m | -4.6m/s | -66.7°C | 44.2% | 0hPa | 2.6V | 08:05:00 | 00:00:00 | 00:00:00 | |
| IW2NTF | 2026-09-05 13:17:55 | 46.50002 | 7.99893 | 130° | 84km/h | 13639m | -4.7m/s | -67°C | 55.4% | 0hPa | 2.6V | 08:05:42 | 02:44:10 | 00:00:00 | |
| DB0ND-19 | 2026-09-05 13:17:55 | 46.49934 | 8.00010 | 129° | 82km/h | 13615m | -5.1m/s | -66.9°C | 43.1% | -1.0hPa | 2.5V | 00:00:00 | 00:00:00 | 00:00:00 | |
| IW2NTF | 2026-09-05 13:17:46 | 46.50144 | 7.99656 | 130° | 86km/h | 13687m | -4.8m/s | -67.4°C | 53.7% | 0hPa | 2.5V | 08:05:52 | 02:44:00 | 00:00:00 | |
| HASLITAL | 2026-09-05 13:17:45 | 46.50059 | 7.99799 | 132° | 86km/h | 13658m | -5.0m/s | -67.2°C | 41.9% | 0hPa | 2.5V | 00:00:00 | 00:00:00 | 00:00:00 | |
| DF1GD-15 | 2026-09-05 13:17:38 | 46.50158 | 7.99632 | 132° | 86km/h | 13693m | -5.1m/s | -67.5°C | 42.1% | 0hPa | 2.5V | 08:06:00 | 00:00:00 | 00:00:00 | |
| IN3HCDX | 2026-09-05 13:17:36 | 46.50187 | 7.99584 | 132° | 86km/h | 13702m | -4.7m/s | -67.5°C | 0% | 0hPa | 2.5V | 00:00:00 | 00:00:00 | 00:00:00 | |
| IW2NTF | 2026-09-05 13:17:35 | 46.50287 | 7.99414 | 129° | 88km/h | 13737m | -5.2m/s | -67.7°C | 53.5% | 0hPa | 2.5V | 08:06:02 | 02:43:50 | 00:00:00 | |
| IW2NTF | 2026-09-05 13:17:25 | 46.50426 | 7.99172 | 129° | 86km/h | 13786m | -5.5m/s | -67.9°C | 52% | 0hPa | 2.5V | 08:06:12 | 02:43:40 | 00:00:00 | |
| DB0ND-19 | 2026-09-05 13:17:24 | 46.50371 | 7.99268 | 129° | 84km/h | 13766m | -4.7m/s | -67.7°C | 39.7% | -1.0hPa | 2.6V | 00:00:00 | 00:00:00 | 00:00:00 | |
| DK5PH-5 | 2026-09-05 13:17:22 | 46.50398 | 7.99220 | 130° | 89km/h | 13776m | -4.7m/s | -67.8°C | 52.7% | 0hPa | 2.6V | 00:00:00 | 02:43:42 | 00:00:00 | |
| HASLITAL | 2026-09-05 13:17:21 | 46.50399 | 7.99221 | 131° | 86km/h | 13776m | -4.8m/s | -67.8°C | 40.3% | 0hPa | 2.6V | 08:06:00 | 00:00:00 | 00:00:00 | |
| DF1GD-15 | 2026-09-05 13:17:17 | 46.50454 | 7.99123 | 130° | 88km/h | 13796m | -4.7m/s | -67.9°C | 38.9% | 0hPa | 2.6V | 08:06:00 | 00:00:00 | 00:00:00 | |
| IW2NTF | 2026-09-05 13:17:16 | 46.50567 | 7.98918 | 128° | 88km/h | 13834m | -4.8m/s | -68.2°C | 49.1% | 0hPa | 2.6V | 08:06:22 | 02:43:30 | 00:00:00 | |
| IW2NTF | 2026-09-05 13:17:05 | 46.50704 | 7.98668 | 127° | 91km/h | 13882m | -4.6m/s | -68.5°C | 47.6% | 0hPa | 2.5V | 08:06:32 | 02:43:20 | 00:00:00 | |
| HASLITAL | 2026-09-05 13:16:57 | 46.50732 | 7.98615 | 128° | 91km/h | 13892m | -5.1m/s | -68.7°C | 35.2% | 0hPa | 2.5V | 08:06:00 | 00:00:00 | 00:00:00 | |
| DF1GD-15 | 2026-09-05 13:16:56 | 46.50746 | 7.98588 | 128° | 91km/h | 13896m | -4.5m/s | -68.6°C | 34.6% | 0hPa | 2.5V | 08:06:00 | 00:00:00 | 00:00:00 | |
| IW2NTF | 2026-09-05 13:16:55 | 46.50840 | 7.98401 | 126° | 91km/h | 13929m | -4.6m/s | -68.9°C | 46.3% | 0hPa | 2.5V | 08:06:42 | 02:43:10 | 00:00:00 | |
| DB0ND-19 | 2026-09-05 13:16:53 | 46.50814 | 7.98455 | 126° | 89km/h | 13920m | -4.7m/s | -68.9°C | 33.2% | -1.0hPa | 2.6V | 00:00:00 | 00:00:00 | 00:00:00 | |
| DK5PH-5 | 2026-09-05 13:16:48 | 46.50868 | 7.98347 | 127° | 102km/h | 13939m | -4.6m/s | -68.8°C | 44.5% | 0hPa | 2.6V | 08:06:00 | 02:43:08 | 00:00:00 | |
| DB0UT-7 | 2026-09-05 13:16:46 | 46.50896 | 7.98291 | 127° | 102km/h | 13948m | -4.8m/s | -69.0°C | 45.0% | 0hPa | 2.5V | 00:00:00 | 00:00:00 | 00:00:00 | |
| IW2NTF | 2026-09-05 13:16:45 | 46.50983 | 7.98118 | 125° | 99km/h | 13974m | -5m/s | -69.2°C | 42.4% | 0hPa | 2.5V | 08:06:52 | 02:43:00 | 00:00:00 | |
| HASLITAL | 2026-09-05 13:16:37 | 46.51013 | 7.98059 | 127° | 100km/h | 13984m | -4.4m/s | -69.3°C | 30.2% | 0hPa | 2.6V | 08:07:00 | 00:00:00 | 00:00:00 | |
| IW2NTF | 2026-09-05 13:16:35 | 46.51138 | 7.97815 | 127° | 104km/h | 14020m | -5.1m/s | -69.2°C | 39.4% | 0hPa | 2.6V | 08:07:02 | 02:42:50 | 00:00:00 | |
| IN3HCDX | 2026-09-05 13:16:34 | 46.51058 | 7.97969 | 127° | 104km/h | 13997m | -4.2m/s | -69.3°C | 0% | 0hPa | 2.6V | 08:07:00 | 00:00:00 | 00:00:00 | |
| IW2NTF | 2026-09-05 13:16:25 | 46.51297 | 7.97510 | 128° | 104km/h | 14067m | -4.8m/s | -69.6°C | 38.1% | 0hPa | 2.6V | 08:07:12 | 02:42:40 | 00:00:00 | |
| DB0ND-19 | 2026-09-05 13:16:22 | 46.51281 | 7.97540 | 128° | 104km/h | 14063m | -4.4m/s | -69.6°C | 26.9% | -1.0hPa | 2.5V | 00:00:00 | 00:00:00 | 00:00:00 | |
| DK5PH-5 | 2026-09-05 13:16:18 | 46.51330 | 7.97451 | 130° | 100km/h | 14076m | -4.4m/s | -69.4°C | 36.9% | 0hPa | 2.5V | 00:00:00 | 02:42:38 | 00:00:00 | |
| IW2NTF | 2026-09-05 13:16:16 | 46.51468 | 7.97223 | 131° | 106km/h | 14111m | -4.6m/s | -69.7°C | 36.3% | 0hPa | 2.5V | 08:07:22 | 02:42:30 | 00:00:00 | |
| DB0UT-7 | 2026-09-05 13:16:16 | 46.51364 | 7.97394 | 131° | 99km/h | 14085m | -4.5m/s | -69.5°C | 36.9% | 0hPa | 2.5V | 00:00:00 | 02:42:36 | 00:00:00 | |
| DF1GD-15 | 2026-09-05 13:16:14 | 46.51381 | 7.97366 | 132° | 102km/h | 14089m | -4.6m/s | -69.6°C | 26.1% | 0hPa | 2.5V | 08:07:00 | 00:00:00 | 00:00:00 | |
| IN3HCDX | 2026-09-05 13:16:13 | 46.51398 | 7.97337 | 132° | 104km/h | 14094m | -4.7m/s | -69.6°C | 0% | 0hPa | 2.5V | 08:07:00 | 00:00:00 | 00:00:00 | |
| IW2NTF | 2026-09-05 13:16:06 | 46.51653 | 7.96955 | 138° | 99km/h | 14156m | -4.4m/s | -69.3°C | 34.8% | 0hPa | 2.5V | 08:07:32 | 02:42:20 | 00:00:00 | |
| IW2NTF | 2026-09-05 13:15:56 | 46.51834 | 7.96729 | 141° | 89km/h | 14200m | -4.1m/s | -68.6°C | 31.1% | 0hPa | 2.5V | 08:07:42 | 02:42:10 | 00:00:00 | |
| DB0ND-19 | 2026-09-05 13:15:51 | 46.51869 | 7.96690 | 142° | 86km/h | 14208m | -4.1m/s | -68.3°C | 19.5% | -1.0hPa | 2.5V | 00:00:00 | 00:00:00 | 00:00:00 | |
| DK5PH-5 | 2026-09-05 13:15:48 | 46.51869 | 7.96690 | 143° | 75km/h | 14208m | -4.1m/s | -68.2°C | 29.5% | 0hPa | 2.5V | 00:00:00 | 02:42:08 | 00:00:00 | |
| IW2NTF | 2026-09-05 13:15:46 | 46.52006 | 7.96541 | 142° | 78km/h | 14242m | -4.5m/s | -67.5°C | 25.7% | 0hPa | 2.5V | 08:07:52 | 02:42:00 | 00:00:00 | |
| DB0UT-7 | 2026-09-05 13:15:46 | 46.51903 | 7.96652 | 144° | 71km/h | 14216m | -4.4m/s | -68.0°C | 27.9% | 0hPa | 2.6V | 00:00:00 | 00:00:00 | 00:00:00 | |
| HASLITAL | 2026-09-05 13:15:35 | 46.52065 | 7.96471 | 140° | 71km/h | 14259m | -3.5m/s | -66.9°C | 15.4% | 0hPa | 2.6V | 08:08:00 | 00:00:00 | 00:00:00 | |
| IW2NTF | 2026-09-05 13:15:34 | 46.52146 | 7.96367 | 138° | 69km/h | 14284m | -4.9m/s | -66.4°C | 19.9% | 0hPa | 2.6V | 08:08:02 | 02:41:50 | 00:00:00 | |
| DF1GD-15 | 2026-09-05 13:15:33 | 46.52092 | 7.96436 | 139° | 73km/h | 14267m | -4.3m/s | -66.6°C | 14.3% | 0hPa | 2.6V | 08:08:00 | 00:00:00 | 00:00:00 | |
| IN3HCDX | 2026-09-05 13:15:32 | 46.52119 | 7.96401 | 139° | 71km/h | 14275m | -4.4m/s | -66.6°C | 0% | 0hPa | 2.6V | 00:00:00 | 00:00:00 | 00:00:00 | |
| IW2NTF | 2026-09-05 13:15:22 | 46.52268 | 7.96202 | 129° | 62km/h | 14329m | -4.4m/s | -65.6°C | 17% | 0hPa | 2.6V | 08:08:12 | 02:41:40 | 00:00:00 | |
| DB0ND-19 | 2026-09-05 13:15:20 | 46.52278 | 7.96185 | 129° | 60km/h | 14334m | -5.4m/s | -65.6°C | 9.8% | -1.0hPa | 2.5V | 00:00:00 | 00:00:00 | 00:00:00 | |
| DK5PH-5 | 2026-09-05 13:15:18 | 46.52287 | 7.96168 | 128° | 58km/h | 14339m | -5.0m/s | -65.5°C | 16.6% | 0hPa | 2.5V | 00:00:00 | 02:41:38 | 00:00:00 | |
| DB0UT-7 | 2026-09-05 13:15:16 | 46.52305 | 7.96134 | 128° | 60km/h | 14349m | -4.6m/s | -65.6°C | 16.3% | 0hPa | 2.5V | 00:00:00 | 02:41:36 | 00:00:00 | |
| IW2NTF | 2026-09-05 13:15:15 | 46.52358 | 7.96034 | 125° | 55km/h | 14377m | -5m/s | -65.9°C | 15.2% | 0hPa | 2.5V | 08:08:22 | 02:41:30 | 00:00:00 | |
| HASLITAL | 2026-09-05 13:15:14 | 46.52314 | 7.96117 | 128° | 58km/h | 14354m | -5.2m/s | -65.7°C | 9.7% | 0hPa | 2.5V | 08:08:00 | 00:00:00 | 00:00:00 | |
| DO3MHA-11 | 2026-09-05 13:15:12 | 46.52341 | 7.96067 | 129° | 58km/h | 14367m | -4.0m/s | -65.7°C | 15.2% | 0hPa | 2.5V | 00:00:00 | 02:41:32 | 00:00:00 | |
| IN3HCDX | 2026-09-05 13:15:10 | 46.52349 | 7.96050 | 128° | 57km/h | 14372m | -5.4m/s | 0°C | 0% | 0hPa | 2.5V | 00:00:00 | 00:00:00 | 00:00:00 | |
| IW2NTF | 2026-09-05 13:15:02 | 46.52419 | 7.95841 | 108° | 58km/h | 14425m | -5.4m/s | -64.6°C | 12.2% | 0hPa | 2.5V | 08:08:32 | 02:41:20 | 00:00:00 | |
| IW2NTF | 2026-09-05 13:14:56 | 46.52458 | 7.95628 | 102° | 64km/h | 14475m | -5.1m/s | -63.8°C | 10.7% | 0hPa | 2.5V | 08:08:42 | 02:41:10 | 00:00:00 | |
| DB0ND-19 | 2026-09-05 13:14:49 | 46.52464 | 7.95582 | 101° | 64km/h | 14485m | -4.5m/s | -63.8°C | 5.3% | -1.0hPa | 2.6V | 00:00:00 | 00:00:00 | 00:00:00 | |
| DK5PH-5 | 2026-09-05 13:14:47 | 46.52467 | 7.95559 | 101° | 69km/h | 14490m | -5.0m/s | -63.6°C | 10.4% | 0hPa | 2.6V | 00:00:00 | 02:41:07 | 00:00:00 | |
| DB0UT-7 | 2026-09-05 13:14:46 | 46.52470 | 7.95535 | 101° | 69km/h | 14494m | -5.1m/s | -63.5°C | 10.2% | 0hPa | 2.6V | 08:08:00 | 00:00:00 | 00:00:00 | |
| IW2NTF | 2026-09-05 13:14:43 | 46.52488 | 7.95395 | 99° | 66km/h | 14524m | -5m/s | -63.5°C | 10% | 0hPa | 2.5V | 08:08:52 | 02:41:00 | 00:00:00 | |
| DO3MHA-11 | 2026-09-05 13:14:42 | 46.52482 | 7.95442 | 101° | 68km/h | 14514m | -5.4m/s | -63.5°C | 10.1% | 0hPa | 2.6V | 00:00:00 | 02:41:02 | 00:00:00 | |
| HASLITAL | 2026-09-05 13:14:33 | 46.52505 | 7.95250 | 100° | 68km/h | 14554m | -4.9m/s | -63.7°C | 5.3% | 0hPa | 2.6V | 08:09:00 | 00:00:00 | 00:00:00 | |
| DO3MHA-11 | 2026-09-05 13:14:32 | 46.52510 | 7.95200 | 100° | 71km/h | 14565m | -5.1m/s | -63.8°C | 9.9% | 0hPa | 2.6V | 00:00:00 | 02:40:52 | 00:00:00 | |
| IW2NTF | 2026-09-05 13:14:31 | 46.52517 | 7.95150 | 100° | 71km/h | 14574m | -4.9m/s | -63.9°C | 10% | 0hPa | 2.6V | 08:09:02 | 02:40:50 | 00:00:00 | |
| DF1GD-15 | 2026-09-05 13:14:31 | 46.52510 | 7.95200 | 101° | 69km/h | 14565m | -5.2m/s | -63.8°C | 0% | 0hPa | 2.6V | 08:09:00 | 00:00:00 | 00:00:00 | |
| IN3HCDX | 2026-09-05 13:14:29 | 46.52517 | 7.95150 | 101° | 71km/h | 14575m | -4.9m/s | 0°C | 0% | 0hPa | 2.6V | 00:00:00 | 00:00:00 | 00:00:00 | |
| IW2NTF | 2026-09-05 13:14:25 | 46.52551 | 7.94893 | 102° | 71km/h | 14624m | -4.9m/s | -64.3°C | 10.1% | 0hPa | 2.6V | 08:09:12 | 02:40:40 | 00:00:00 | |
| DO3MHA-11 | 2026-09-05 13:14:22 | 46.52543 | 7.94944 | 102° | 71km/h | 14615m | -4.8m/s | -64.2°C | 10.1% | 0hPa | 2.5V | 00:00:00 | 02:40:42 | 00:00:00 | |
| DB0ND-19 | 2026-09-05 13:14:18 | 46.52563 | 7.94817 | 102° | 69km/h | 14639m | -4.9m/s | -64.3°C | 5.0% | -1.0hPa | 2.6V | 00:00:00 | 00:00:00 | 00:00:00 | |
| DK5PH-5 | 2026-09-05 13:14:17 | 46.52562 | 7.94817 | 103° | 73km/h | 14639m | -4.8m/s | -64.3°C | 10.0% | 0hPa | 2.6V | 00:00:00 | 02:40:37 | 00:00:00 | |
| DB0UT-7 | 2026-09-05 13:14:16 | 46.52567 | 7.94791 | 104° | 73km/h | 14644m | -4.8m/s | -64.3°C | 10.0% | 0hPa | 2.6V | 00:00:00 | 02:40:36 | 00:00:00 | |
| IW2NTF | 2026-09-05 13:14:13 | 46.52594 | 7.94638 | 105° | 71km/h | 14674m | -5.2m/s | -64.6°C | 10% | 0hPa | 2.6V | 08:09:22 | 02:40:30 | 00:00:00 | |
| DO3MHA-11 | 2026-09-05 13:14:12 | 46.52584 | 7.94689 | 105° | 71km/h | 14664m | -5.1m/s | -64.5°C | 9.9% | 0hPa | 2.5V | 00:00:00 | 02:40:32 | 00:00:00 | |
| DF1GD-15 | 2026-09-05 13:14:10 | 46.52588 | 7.94664 | 106° | 71km/h | 14669m | -5.3m/s | -64.5°C | 0% | 0hPa | 2.5V | 08:10:00 | 00:00:00 | 00:00:00 | |
| IN3HCDX | 2026-09-05 13:14:08 | 46.52599 | 7.94613 | 108° | 71km/h | 14679m | -4.9m/s | 0°C | 0% | 0hPa | 2.5V | 00:00:00 | 00:00:00 | 00:00:00 | |
| DO3MHA-11 | 2026-09-05 13:14:02 | 46.52635 | 7.94436 | 108° | 75km/h | 14715m | -5.1m/s | -64.7°C | 10.4% | 0hPa | 2.5V | 00:00:00 | 02:40:22 | 00:00:00 | |
| IW2NTF | 2026-09-05 13:14:01 | 46.52647 | 7.94385 | 108° | 73km/h | 14726m | -5m/s | -64.8°C | 10.3% | 0hPa | 2.5V | 08:09:32 | 02:40:20 | 00:00:00 | |
| DB0ND-19 | 2026-09-05 13:13:47 | 46.52748 | 7.94036 | 114° | 71km/h | 14798m | -5.0m/s | -65.0°C | 4.9% | -1.0hPa | 2.6V | 00:00:00 | 00:00:00 | 00:00:00 | |
| IW2NTF | 2026-09-05 13:13:46 | 46.52771 | 7.93965 | 115° | 71km/h | 14814m | -5.5m/s | -64.9°C | 10.4% | 0hPa | 2.6V | 08:09:49 | 02:40:03 | 00:00:00 | |
| DB0UT-7 | 2026-09-05 13:13:46 | 46.52748 | 7.94036 | 115° | 69km/h | 14798m | -5.0m/s | -64.9°C | 10.3% | 0hPa | 2.6V | 00:00:00 | 00:00:00 | 00:00:00 | |
| DO3MHA-11 | 2026-09-05 13:13:42 | 46.52778 | 7.93941 | 117° | 71km/h | 14819m | -5.4m/s | -64.8°C | 10.4% | 0hPa | 2.6V | 00:00:00 | 02:40:02 | 00:00:00 | |
| IW2NTF | 2026-09-05 13:13:39 | 46.52873 | 7.93689 | 121° | 69km/h | 14879m | -5.9m/s | -64.5°C | 10.1% | 0hPa | 2.6V | 08:10:01 | 02:39:51 | 00:00:00 | |
| DO3MHA-11 | 2026-09-05 13:13:32 | 46.52864 | 7.93711 | 121° | 68km/h | 14873m | -5.6m/s | -64.5°C | 10.1% | 0hPa | 2.6V | 00:00:00 | 02:39:52 | 00:00:00 | |
| DF1GD-15 | 2026-09-05 13:13:27 | 46.52901 | 7.93624 | 124° | 69km/h | 14895m | -5.7m/s | 0°C | 0% | 0hPa | 2.6V | 08:10:00 | 00:00:00 | 00:00:00 | |
| IW2NTF | 2026-09-05 13:13:25 | 46.52961 | 7.93476 | 117° | 66km/h | 14934m | -5.2m/s | -63.9°C | 9.6% | 0hPa | 2.6V | 08:10:11 | 02:39:41 | 00:00:00 | |
| DO3MHA-11 | 2026-09-05 13:13:22 | 46.52953 | 7.93497 | 119° | 66km/h | 14929m | -5.5m/s | -63.8°C | 9.6% | 0hPa | 2.6V | 00:00:00 | 02:39:42 | 00:00:00 | |
| DB0ND-19 | 2026-09-05 13:13:16 | 46.53008 | 7.93347 | 117° | 66km/h | 14967m | -5.8m/s | -63.9°C | 4.6% | -1.0hPa | 2.6V | 00:00:00 | 00:00:00 | 00:00:00 | |
| IW2NTF | 2026-09-05 13:13:13 | 46.53038 | 7.93261 | 118° | 66km/h | 14990m | -5.9m/s | -63.9°C | 9.8% | 0hPa | 2.6V | 08:10:21 | 02:39:31 | 00:00:00 | |
| DO3MHA-11 | 2026-09-05 13:13:12 | 46.53031 | 7.93282 | 118° | 64km/h | 14984m | -5.7m/s | -63.9°C | 9.8% | 0hPa | 2.5V | 00:00:00 | 02:39:32 | 00:00:00 | |
| DK5PH-5 | 2026-09-05 13:13:10 | 46.53047 | 7.93240 | 120° | 64km/h | 14996m | -5.6m/s | -63.9°C | 9.8% | 0hPa | 2.5V | 00:00:00 | 02:39:30 | 00:00:00 | |
| IW2NTF | 2026-09-05 13:13:02 | 46.53116 | 7.93059 | 116° | 64km/h | 15046m | -5.5m/s | -63.5°C | 9.4% | 0hPa | 2.5V | 08:10:31 | 02:39:21 | 00:00:00 | |
| IW2NTF | 2026-09-05 13:12:55 | 46.53185 | 7.92824 | 110° | 64km/h | 15111m | -5.6m/s | -63.1°C | 8.8% | 0hPa | 2.5V | 08:10:42 | 02:39:10 | 00:00:00 | |
| IW2NTF | 2026-09-05 13:12:46 | 46.53239 | 7.92589 | 110° | 69km/h | 15170m | -5.8m/s | -63.3°C | 8.7% | 0hPa | 2.5V | 08:10:52 | 02:39:00 | 00:00:00 | |
| DB0ND-19 | 2026-09-05 13:12:45 | 46.53217 | 7.92685 | 107° | 68km/h | 15147m | -6.4m/s | -63.2°C | 4.0% | -1.0hPa | 2.5V | 00:00:00 | 00:00:00 | 00:00:00 | |
| DK5PH-5 | 2026-09-05 13:12:40 | 46.53239 | 7.92589 | 111° | 68km/h | 15171m | -5.8m/s | -63.2°C | 8.7% | 0hPa | 2.5V | 00:00:00 | 02:39:00 | 00:00:00 | |
| IW2NTF | 2026-09-05 13:12:32 | 46.53299 | 7.92353 | 111° | 68km/h | 15230m | -5.9m/s | -63.5°C | 8.5% | 0hPa | 2.5V | 08:11:02 | 02:38:50 | 00:00:00 | |
| IW2NTF | 2026-09-05 13:12:27 | 46.53368 | 7.92124 | 115° | 69km/h | 15291m | -6.6m/s | -63.7°C | 8.5% | 0hPa | 2.6V | 08:11:12 | 02:38:40 | 00:00:00 | |
| DB0UT-7 | 2026-09-05 13:12:16 | 46.53398 | 7.92033 | 116° | 71km/h | 15316m | -6.4m/s | -63.7°C | 8.5% | 0hPa | 2.5V | 00:00:00 | 02:38:36 | 00:00:00 | |
| IW2NTF | 2026-09-05 13:12:15 | 46.53444 | 7.91898 | 115° | 68km/h | 15353m | -5.6m/s | -63.8°C | 8.5% | 0hPa | 2.5V | 08:11:22 | 02:38:30 | 00:00:00 | |
| DB0ND-19 | 2026-09-05 13:12:14 | 46.53421 | 7.91965 | 116° | 68km/h | 15335m | -6.1m/s | -63.7°C | 3.7% | -1.0hPa | 2.5V | 00:00:00 | 00:00:00 | 00:00:00 | |
| DK5PH-5 | 2026-09-05 13:12:10 | 46.53444 | 7.91898 | 116° | 71km/h | 15353m | -5.6m/s | -63.7°C | 8.5% | 0hPa | 2.5V | 08:11:00 | 02:38:30 | 00:00:00 | |
| IW2NTF | 2026-09-05 13:12:05 | 46.53513 | 7.91656 | 112° | 73km/h | 15415m | -6.6m/s | -63.7°C | 8.3% | 0hPa | 2.5V | 08:11:32 | 02:38:20 | 00:00:00 | |
| HASLITAL | 2026-09-05 13:12:02 | 46.53493 | 7.91731 | 112° | 75km/h | 15396m | -6.7m/s | -63.6°C | 3.8% | 0hPa | 2.5V | 08:11:00 | 00:00:00 | 00:00:00 | |
| IW2NTF | 2026-09-05 13:11:52 | 46.53587 | 7.91416 | 112° | 69km/h | 15477m | -6.5m/s | -63.8°C | 8.3% | 0hPa | 2.5V | 08:11:42 | 02:38:10 | 00:00:00 | |
| DB0UT-7 | 2026-09-05 13:11:46 | 46.53615 | 7.91320 | 113° | 80km/h | 15503m | -6.8m/s | -63.6°C | 8.1% | 0hPa | 2.7V | 00:00:00 | 00:00:00 | 00:00:00 | |
| IW2NTF | 2026-09-05 13:11:45 | 46.53654 | 7.91170 | 108° | 73km/h | 15540m | -6m/s | -63.5°C | 7.8% | 0hPa | 2.6V | 08:11:52 | 02:38:00 | 00:00:00 | |
| DB0ND-19 | 2026-09-05 13:11:42 | 46.53648 | 7.91196 | 109° | 73km/h | 15534m | -6.5m/s | -63.5°C | 3.2% | -1.0hPa | 2.6V | 00:00:00 | 00:00:00 | 00:00:00 | |
| DK5PH-5 | 2026-09-05 13:11:40 | 46.53654 | 7.91170 | 109° | 64km/h | 15541m | -6.0m/s | -63.4°C | 7.8% | 0hPa | 2.6V | 00:00:00 | 02:38:00 | 00:00:00 | |
| IW2NTF | 2026-09-05 13:11:33 | 46.53708 | 7.90906 | 106° | 80km/h | 15604m | -6.5m/s | -63.5°C | 8% | 0hPa | 2.6V | 08:12:02 | 02:37:50 | 00:00:00 | |
| IW2NTF | 2026-09-05 13:11:22 | 46.53772 | 7.90607 | 107° | 88km/h | 15668m | -6.4m/s | -63.4°C | 7.9% | 0hPa | 2.6V | 08:12:12 | 02:37:40 | 00:00:00 | |
| HASLITAL | 2026-09-05 13:11:19 | 46.53772 | 7.90607 | 109° | 88km/h | 15668m | -6.4m/s | -63.4°C | 3.4% | 0hPa | 2.6V | 08:12:00 | 00:00:00 | 00:00:00 | |
| DB0UT-7 | 2026-09-05 13:11:16 | 46.53800 | 7.90486 | 109° | 88km/h | 15693m | -6.3m/s | -62.5°C | 7.4% | 0hPa | 2.6V | 00:00:00 | 02:37:36 | 00:00:00 | |
| IW2NTF | 2026-09-05 13:11:15 | 46.53844 | 7.90306 | 111° | 89km/h | 15731m | -6.3m/s | -62.5°C | 7.2% | 0hPa | 2.6V | 08:12:22 | 02:37:30 | 00:00:00 | |
| DB0ND-19 | 2026-09-05 13:11:11 | 46.53853 | 7.90275 | 111° | 89km/h | 15738m | -6.3m/s | -62.5°C | 2.8% | -1.0hPa | 2.6V | 00:00:00 | 00:00:00 | 00:00:00 | |
| IW2NTF | 2026-09-05 13:11:03 | 46.53931 | 7.90003 | 113° | 89km/h | 15795m | -6.8m/s | -62.7°C | 7.3% | 0hPa | 2.6V | 08:12:32 | 02:37:20 | 00:00:00 | |
| HASLITAL | 2026-09-05 13:10:59 | 46.53931 | 7.90003 | 115° | 89km/h | 15795m | -6.8m/s | -62.7°C | 3.1% | 0hPa | 2.6V | 08:12:00 | 00:00:00 | 00:00:00 | |
| IW2NTF | 2026-09-05 13:10:51 | 46.54031 | 7.89711 | 119° | 86km/h | 15859m | -5.9m/s | -62.7°C | 7.2% | 0hPa | 2.6V | 08:12:42 | 02:37:10 | 00:00:00 | |
| DB0UT-7 | 2026-09-05 13:10:46 | 46.54075 | 7.89603 | 122° | 73km/h | 15885m | -6.0m/s | -62.5°C | 7.1% | 0hPa | 2.6V | 00:00:00 | 00:00:00 | 00:00:00 | |
| IW2NTF | 2026-09-05 13:10:45 | 46.54136 | 7.89446 | 117° | 78km/h | 15923m | -6.5m/s | -62.1°C | 6.8% | 0hPa | 2.6V | 08:12:52 | 02:37:00 | 00:00:00 | |
| DB0ND-19 | 2026-09-05 13:10:40 | 46.54135 | 7.89446 | 117° | 77km/h | 15923m | -6.5m/s | -62.1°C | 2.5% | -1.0hPa | 2.6V | 00:00:00 | 00:00:00 | 00:00:00 | |
| DO3MHA-11 | 2026-09-05 13:10:39 | 46.54145 | 7.89421 | 118° | 73km/h | 15930m | -6.7m/s | -62.1°C | 6.9% | 0hPa | 2.6V | 00:00:00 | 02:36:59 | 00:00:00 | |
| IW2NTF | 2026-09-05 13:10:33 | 46.54238 | 7.89206 | 123° | 73km/h | 15986m | -6.1m/s | -61.9°C | 6.9% | 0hPa | 2.6V | 08:13:02 | 02:36:50 | 00:00:00 | |
| IW2NTF | 2026-09-05 13:10:21 | 46.54325 | 7.88988 | 118° | 66km/h | 16050m | -6m/s | -61.1°C | 6.4% | 0hPa | 2.6V | 08:13:12 | 02:36:40 | 00:00:00 | |
| DB0UT-7 | 2026-09-05 13:10:16 | 46.54354 | 7.88903 | 114° | 64km/h | 16076m | -6.1m/s | -61.0°C | 6.5% | 0hPa | 2.7V | 08:13:00 | 02:36:36 | 00:00:00 | |
| IW2NTF | 2026-09-05 13:10:15 | 46.54393 | 7.88772 | 115° | 66km/h | 16113m | -6.3m/s | -60.6°C | 6.2% | 0hPa | 2.7V | 08:13:22 | 02:36:30 | 00:00:00 | |
| DB0ND-19 | 2026-09-05 13:10:09 | 46.54400 | 7.88750 | 117° | 66km/h | 16120m | -6.7m/s | -60.6°C | 2.2% | -1.0hPa | 2.7V | 00:00:00 | 00:00:00 | 00:00:00 | |
| IW2NTF | 2026-09-05 13:10:04 | 46.54478 | 7.88561 | 120° | 64km/h | 16175m | -5.7m/s | -60.2°C | 5.9% | 0hPa | 2.7V | 08:13:32 | 02:36:20 | 00:00:00 | |
| DH7VM-15 | 2026-09-05 13:10:03 | 46.54443 | 7.88643 | 123° | 68km/h | 16151m | -6.1m/s | -60.4°C | 2.2% | 0hPa | 2.7V | 08:13:00 | 00:00:00 | 00:00:00 | |
| HASLITAL | 2026-09-05 13:09:58 | 46.54486 | 7.88541 | 120° | 64km/h | 16182m | -5.8m/s | -60.1°C | 2.2% | 0hPa | 2.7V | 08:14:00 | 00:00:00 | 00:00:00 | |
| IW2NTF | 2026-09-05 13:09:56 | 46.54552 | 7.88356 | 118° | 60km/h | 16238m | -6.3m/s | -59.7°C | 5.7% | 0hPa | 2.7V | 08:13:42 | 02:36:10 | 00:00:00 | |
| DO3MHA-11 | 2026-09-05 13:09:52 | 46.54538 | 7.88396 | 118° | 62km/h | 16225m | -6.5m/s | -59.8°C | 5.7% | 0hPa | 2.6V | 00:00:00 | 02:36:12 | 00:00:00 | |
| DB0UT-7 | 2026-09-05 13:09:46 | 46.54581 | 7.88279 | 117° | 58km/h | 16262m | -5.6m/s | -59.7°C | 5.6% | 0hPa | 2.7V | 00:00:00 | 00:00:00 | 00:00:00 | |
| IW2NTF | 2026-09-05 13:09:43 | 46.54613 | 7.88166 | 108° | 55km/h | 16298m | -6.4m/s | -59.9°C | 5.5% | 0hPa | 2.7V | 08:13:52 | 02:36:00 | 00:00:00 | |
| DB0ND-19 | 2026-09-05 13:09:39 | 46.54621 | 7.88128 | 106° | 53km/h | 16311m | -6.1m/s | -59.9°C | 1.8% | -1.0hPa | 2.6V | 00:00:00 | 00:00:00 | 00:00:00 | |
| HASLITAL | 2026-09-05 13:09:37 | 46.54621 | 7.88128 | 107° | 55km/h | 16311m | -6.1m/s | -59.9°C | 2.0% | 0hPa | 2.6V | 08:14:00 | 00:00:00 | 00:00:00 | |
| IW2NTF | 2026-09-05 13:09:31 | 46.54659 | 7.87953 | 106° | 58km/h | 16367m | -6m/s | -59.8°C | 5.4% | 0hPa | 2.6V | 08:14:03 | 02:35:49 | 00:00:00 | |
| HASLITAL | 2026-09-05 13:09:18 | 46.54702 | 7.87713 | 109° | 66km/h | 16436m | -6.4m/s | -60.1°C | 1.9% | 0hPa | 2.6V | 08:14:00 | 00:00:00 | 00:00:00 | |
| DB0UT-7 | 2026-09-05 13:09:16 | 46.54713 | 7.87667 | 109° | 62km/h | 16449m | -5.9m/s | -60.1°C | 5.6% | 0hPa | 2.6V | 00:00:00 | 02:35:36 | 00:00:00 | |
| IW2NTF | 2026-09-05 13:09:14 | 46.54749 | 7.87512 | 109° | 62km/h | 16492m | -6.4m/s | -60.2°C | 5.6% | 0hPa | 2.6V | 08:14:23 | 02:35:29 | 00:00:00 | |
| DK5PH-5 | 2026-09-05 13:09:07 | 46.54760 | 7.87469 | 113° | 55km/h | 16505m | -5.6m/s | -60.1°C | 5.7% | 0hPa | 2.6V | 00:00:00 | 02:35:27 | 00:00:00 | |
| IW2NTF | 2026-09-05 13:09:04 | 46.54819 | 7.87299 | 119° | 64km/h | 16554m | -6.6m/s | -59.6°C | 5.4% | 0hPa | 2.6V | 08:14:33 | 02:35:19 | 00:00:00 | |
| DH7VM-15 | 2026-09-05 13:09:02 | 46.54787 | 7.87382 | 119° | 66km/h | 16529m | -5.9m/s | -59.9°C | 1.8% | 0hPa | 2.6V | 00:00:00 | 00:00:00 | 00:00:00 | |
| HASLITAL | 2026-09-05 13:08:57 | 46.54827 | 7.87279 | 122° | 64km/h | 16561m | -6.3m/s | -59.6°C | 1.8% | 0hPa | 2.6V | 08:15:00 | 00:00:00 | 00:00:00 | |
| IW2NTF | 2026-09-05 13:08:53 | 46.54914 | 7.87082 | 122° | 55km/h | 16630m | -6.6m/s | -58.9°C | 5.1% | 0hPa | 2.6V | 08:14:45 | 02:35:07 | 00:00:00 | |
| DB0UT-7 | 2026-09-05 13:08:46 | 46.54921 | 7.87066 | 124° | 46km/h | 16637m | -6.4m/s | -58.8°C | 5.0% | 0hPa | 2.7V | 00:00:00 | 00:00:00 | 00:00:00 | |
| IW2NTF | 2026-09-05 13:08:38 | 46.55003 | 7.86882 | 118° | 44km/h | 16715m | -6.8m/s | -58.6°C | 4.8% | 0hPa | 2.7V | 08:14:58 | 02:34:54 | 00:00:00 | |
| DK5PH-5 | 2026-09-05 13:08:36 | 46.54991 | 7.86911 | 122° | 42km/h | 16702m | -6.3m/s | -58.5°C | 4.8% | 0hPa | 2.6V | 00:00:00 | 02:34:56 | 00:00:00 | |
| IW2NTF | 2026-09-05 13:08:28 | 46.55054 | 7.86739 | 117° | 42km/h | 16781m | -6.8m/s | -58.7°C | 4.9% | 0hPa | 2.7V | 08:15:08 | 02:34:44 | 00:00:00 | |
| IW2NTF | 2026-09-05 13:08:17 | 46.55099 | 7.86587 | 111° | 42km/h | 16855m | -6.3m/s | -59°C | 4.9% | 0hPa | 2.7V | 08:15:19 | 02:34:33 | 00:00:00 | |
| HASLITAL | 2026-09-05 13:08:17 | 46.55083 | 7.86645 | 112° | 42km/h | 16828m | -6.6m/s | -58.9°C | 1.6% | 0hPa | 2.6V | 08:16:00 | 00:00:00 | 00:00:00 | |
| DB0UT-7 | 2026-09-05 13:08:16 | 46.55087 | 7.86630 | 112° | 38km/h | 16835m | -6.8m/s | -58.9°C | 4.9% | 0hPa | 2.6V | 00:00:00 | 02:34:36 | 00:00:00 | |
| IW2NTF | 2026-09-05 13:08:08 | 46.55135 | 7.86448 | 107° | 38km/h | 16923m | -6.8m/s | -59.2°C | 5% | 0hPa | 2.6V | 08:15:29 | 02:34:23 | 00:00:00 | |
| DK5PH-5 | 2026-09-05 13:08:06 | 46.55125 | 7.86488 | 111° | 40km/h | 16903m | -7.1m/s | -59.1°C | 5.0% | 0hPa | 2.6V | 00:00:00 | 02:34:26 | 00:00:00 | |
| DB0ND-19 | 2026-09-05 13:08:05 | 46.55129 | 7.86475 | 110° | 38km/h | 16910m | -6.7m/s | -59.1°C | 1.4% | -1.0hPa | 2.6V | 00:00:00 | 00:00:00 | 00:00:00 | |
| DH7VM-15 | 2026-09-05 13:08:01 | 46.55138 | 7.86435 | 108° | 38km/h | 16930m | -6.8m/s | -59.1°C | 1.6% | 0hPa | 2.6V | 00:00:00 | 00:00:00 | 00:00:00 | |
| IW2NTF | 2026-09-05 13:07:58 | 46.55161 | 7.86316 | 107° | 38km/h | 16991m | -7.1m/s | -59.4°C | 5% | 0hPa | 2.6V | 08:15:39 | 02:34:13 | 00:00:00 | |
| HASLITAL | 2026-09-05 13:07:55 | 46.55153 | 7.86356 | 104° | 37km/h | 16971m | -6.4m/s | -59.3°C | 1.6% | 0hPa | 2.6V | 08:16:00 | 00:00:00 | 00:00:00 | |
| IW2NTF | 2026-09-05 13:07:47 | 46.55177 | 7.86184 | 91° | 37km/h | 17060m | -7.1m/s | -59.8°C | 5.1% | 0hPa | 2.6V | 08:15:49 | 02:34:03 | 00:00:00 | |
| DB0UT-7 | 2026-09-05 13:07:46 | 46.55175 | 7.86223 | 97° | 38km/h | 17040m | -6.6m/s | -59.5°C | 5.0% | 0hPa | 2.7V | 00:00:00 | 00:00:00 | 00:00:00 | |
| DH7VM-15 | 2026-09-05 13:07:41 | 46.55178 | 7.86171 | 93° | 35km/h | 17068m | -6.8m/s | -59.8°C | 1.6% | 0hPa | 2.7V | 00:00:00 | 00:00:00 | 00:00:00 | |
| IW2NTF | 2026-09-05 13:07:37 | 46.55177 | 7.86054 | 86° | 38km/h | 17129m | -7m/s | -59.7°C | 5.1% | 0hPa | 2.7V | 08:15:59 | 02:33:53 | 00:00:00 | |
| HASLITAL | 2026-09-05 13:07:35 | 46.55178 | 7.86081 | 89° | 37km/h | 17115m | -7.3m/s | -59.8°C | 1.7% | 0hPa | 2.6V | 08:16:00 | 00:00:00 | 00:00:00 | |
| DB0ND-19 | 2026-09-05 13:07:34 | 46.55178 | 7.86068 | 86° | 37km/h | 17123m | -7.2m/s | -59.8°C | 1.5% | -1.0hPa | 2.6V | 00:00:00 | 00:00:00 | 00:00:00 | |
| IW2NTF | 2026-09-05 13:07:26 | 46.55173 | 7.85889 | 91° | 42km/h | 17205m | -7.2m/s | -60.2°C | 5.3% | 0hPa | 2.6V | 08:16:10 | 02:33:42 | 00:00:00 | |
| IW2NTF | 2026-09-05 13:07:16 | 46.55173 | 7.85729 | 90° | 44km/h | 17275m | -7.2m/s | -60.2°C | 5.3% | 0hPa | 2.6V | 08:16:20 | 02:33:32 | 00:00:00 | |
| DB0UT-7 | 2026-09-05 13:07:16 | 46.55173 | 7.85793 | 89° | 46km/h | 17247m | -6.8m/s | -60.3°C | 5.3% | 0hPa | 2.6V | 00:00:00 | 02:33:36 | 00:00:00 | |
| HASLITAL | 2026-09-05 13:07:14 | 46.55173 | 7.85777 | 90° | 44km/h | 17254m | -6.6m/s | -60.4°C | 1.7% | 0hPa | 2.7V | 08:16:00 | 00:00:00 | 00:00:00 | |
| IW2NTF | 2026-09-05 13:07:06 | 46.55180 | 7.85555 | 95° | 49km/h | 17344m | -6.6m/s | -60°C | 5.2% | 0hPa | 2.7V | 08:16:30 | 02:33:22 | 00:00:00 | |
| DB0ND-19 | 2026-09-05 13:07:03 | 46.55180 | 7.85555 | 95° | 49km/h | 17344m | -6.6m/s | -60.0°C | 1.4% | -1.0hPa | 2.6V | 00:00:00 | 00:00:00 | 00:00:00 | |
| IW2NTF | 2026-09-05 13:06:57 | 46.55195 | 7.85390 | 100° | 42km/h | 17413m | -7m/s | -59.6°C | 5% | 0hPa | 2.6V | 08:16:40 | 02:33:12 | 00:00:00 | |
| HASLITAL | 2026-09-05 13:06:53 | 46.55191 | 7.85421 | 99° | 42km/h | 17399m | -7.6m/s | -59.7°C | 1.6% | 0hPa | 2.6V | 08:16:00 | 00:00:00 | 00:00:00 | |
| DO3MHA-11 | 2026-09-05 13:06:50 | 46.55199 | 7.85360 | 102° | 46km/h | 17427m | -7.0m/s | -59.4°C | 4.9% | 0hPa | 2.6V | 00:00:00 | 02:33:10 | 00:00:00 | |
| IW2NTF | 2026-09-05 13:06:47 | 46.55221 | 7.85228 | 102° | 47km/h | 17483m | -6.9m/s | -59.3°C | 4.9% | 0hPa | 2.6V | 08:16:50 | 02:33:02 | 00:00:00 | |
| DB0UT-7 | 2026-09-05 13:06:46 | 46.55210 | 7.85295 | 105° | 53km/h | 17455m | -6.8m/s | -59.4°C | 4.9% | 0hPa | 2.7V | 00:00:00 | 00:00:00 | 00:00:00 | |
| DO3MHA-11 | 2026-09-05 13:06:40 | 46.55226 | 7.85194 | 102° | 51km/h | 17497m | -7.1m/s | -59.0°C | 4.7% | 0hPa | 2.7V | 00:00:00 | 02:33:00 | 00:00:00 | |
| HASLITAL | 2026-09-05 13:06:33 | 46.55242 | 7.85086 | 106° | 51km/h | 17541m | -7.3m/s | -59.1°C | 1.4% | 0hPa | 2.7V | 08:17:00 | 00:00:00 | 00:00:00 | |
| IW2NTF | 2026-09-05 13:06:33 | 46.55267 | 7.84979 | 108° | 55km/h | 17584m | -7.4m/s | -59.4°C | 4.9% | 0hPa | 2.6V | 08:17:04 | 02:32:48 | 00:00:00 | |
| DO3MHA-11 | 2026-09-05 13:06:30 | 46.55258 | 7.85015 | 110° | 55km/h | 17569m | -7.3m/s | -59.3°C | 4.9% | 0hPa | 2.7V | 08:17:00 | 02:32:50 | 00:00:00 | |
| IW2NTF | 2026-09-05 13:06:23 | 46.55302 | 7.84779 | 102° | 57km/h | 17658m | -7.2m/s | -59.7°C | 5.2% | 0hPa | 2.7V | 08:17:14 | 02:32:38 | 00:00:00 | |
| DB0UT-7 | 2026-09-05 13:06:16 | 46.55308 | 7.84739 | 101° | 47km/h | 17673m | -7.5m/s | -59.5°C | 5.1% | 0hPa | 2.6V | 00:00:00 | 02:32:36 | 00:00:00 | |
| IW2NTF | 2026-09-05 13:06:14 | 46.55328 | 7.84592 | 104° | 49km/h | 17732m | -7.5m/s | -58.6°C | 4.7% | 0hPa | 2.6V | 08:17:24 | 02:32:28 | 00:00:00 | |
| HASLITAL | 2026-09-05 13:06:12 | 46.55315 | 7.84682 | 102° | 51km/h | 17695m | -7.3m/s | -58.7°C | 1.3% | 0hPa | 2.6V | 08:17:00 | 00:00:00 | 00:00:00 | |
| IW2NTF | 2026-09-05 13:06:03 | 46.55365 | 7.84416 | 106° | 47km/h | 17809m | -7.5m/s | -58.2°C | 4.6% | 0hPa | 2.6V | 08:17:34 | 02:32:18 | 00:00:00 | |
| DB0ND-19 | 2026-09-05 13:06:01 | 46.55354 | 7.84468 | 107° | 49km/h | 17786m | -7.7m/s | -58.2°C | 1.1% | -1.0hPa | 2.7V | 00:00:00 | 00:00:00 | 00:00:00 | |
| IW2NTF | 2026-09-05 13:05:53 | 46.55395 | 7.84268 | 103° | 38km/h | 17886m | -7.9m/s | -58.4°C | 4.8% | 0hPa | 2.7V | 08:17:44 | 02:32:08 | 00:00:00 | |
| HASLITAL | 2026-09-05 13:05:52 | 46.55380 | 7.84338 | 109° | 40km/h | 17847m | -7.7m/s | -58.4°C | 1.3% | 0hPa | 2.6V | 08:17:00 | 00:00:00 | 00:00:00 | |
| DB0UT-7 | 2026-09-05 13:05:46 | 46.55399 | 7.84241 | 100° | 37km/h | 17902m | -8.1m/s | -58.2°C | 4.8% | 0hPa | 2.6V | 08:17:00 | 00:00:00 | 00:00:00 | |
| IW2NTF | 2026-09-05 13:05:44 | 46.55407 | 7.84140 | 94° | 37km/h | 17964m | -7.8m/s | -57°C | 4.3% | 0hPa | 2.6V | 08:17:54 | 02:31:58 | 00:00:00 | |
| DH7VM-15 | 2026-09-05 13:05:39 | 46.55405 | 7.84166 | 98° | 35km/h | 17949m | -7.7m/s | -57.2°C | 1.2% | 0hPa | 2.7V | 00:00:00 | 00:00:00 | 00:00:00 | |
| IW2NTF | 2026-09-05 13:05:34 | 46.55411 | 7.84001 | 95° | 38km/h | 18043m | -8.1m/s | -56.5°C | 4% | 0hPa | 2.7V | 08:18:04 | 02:31:48 | 00:00:00 | |
| HASLITAL | 2026-09-05 13:05:31 | 46.55408 | 7.84058 | 93° | 38km/h | 18012m | -7.7m/s | -56.3°C | 1.1% | 0hPa | 2.6V | 08:18:00 | 00:00:00 | 00:00:00 | |
| DB0ND-19 | 2026-09-05 13:05:30 | 46.55410 | 7.84030 | 93° | 38km/h | 18027m | -7.8m/s | -56.4°C | 0.9% | -1.0hPa | 2.6V | 00:00:00 | 00:00:00 | 00:00:00 | |
| IW2NTF | 2026-09-05 13:05:23 | 46.55415 | 7.83862 | 91° | 42km/h | 18121m | -8m/s | -57.2°C | 4.2% | 0hPa | 2.6V | 08:18:14 | 02:31:38 | 00:00:00 | |
| DB0UT-7 | 2026-09-05 13:05:16 | 46.55416 | 7.83830 | 95° | 44km/h | 18137m | -7.7m/s | -57.2°C | 4.1% | 0hPa | 2.7V | 00:00:00 | 02:31:36 | 00:00:00 | |
| DL1ZP-14 | 2026-09-05 13:05:15 | 46.55417 | 7.83815 | 96° | 42km/h | 18145m | -7.9m/s | -57.3°C | 1.0% | -1.0hPa | 2.7V | 00:00:00 | 00:00:00 | 00:00:00 | |
| IW2NTF | 2026-09-05 13:05:14 | 46.55427 | 7.83708 | 98° | 42km/h | 18200m | -7.7m/s | -57.6°C | 4.3% | 0hPa | 2.7V | 08:18:24 | 02:31:28 | 00:00:00 | |
| DF7PN | 2026-09-05 13:05:13 | 46.55420 | 7.83784 | 97° | 42km/h | 18161m | -8.0m/s | -57.4°C | 0% | -1.0hPa | 2.6V | 00:00:00 | 00:00:00 | 00:00:00 | |
| HASLITAL | 2026-09-05 13:05:11 | 46.55421 | 7.83768 | 99° | 42km/h | 18169m | -7.7m/s | -57.4°C | 1.2% | 0hPa | 2.6V | 08:18:00 | 00:00:00 | 00:00:00 | |
| IW2NTF | 2026-09-05 13:05:03 | 46.55452 | 7.83554 | 104° | 44km/h | 18279m | -8.2m/s | -57.8°C | 4.3% | 0hPa | 2.6V | 08:18:34 | 02:31:18 | 00:00:00 | |
| DB0ND-19 | 2026-09-05 13:04:59 | 46.55450 | 7.83569 | 104° | 42km/h | 18272m | -8.1m/s | -57.9°C | 1.0% | -1.0hPa | 2.6V | 00:00:00 | 00:00:00 | 00:00:00 | |
| DO3MHA-11 | 2026-09-05 13:04:55 | 46.55461 | 7.83506 | 108° | 46km/h | 18304m | -8.1m/s | -58.0°C | 4.4% | 0hPa | 2.6V | 00:00:00 | 02:31:15 | 00:00:00 | |
| IW2NTF | 2026-09-05 13:04:53 | 46.55499 | 7.83393 | 120° | 47km/h | 18361m | -8m/s | -58°C | 4.5% | 0hPa | 2.6V | 08:18:44 | 02:31:08 | 00:00:00 | |
| HASLITAL | 2026-09-05 13:04:50 | 46.55480 | 7.83439 | 118° | 49km/h | 18337m | -8.4m/s | -58.1°C | 1.2% | 0hPa | 2.6V | 08:19:00 | 00:00:00 | 00:00:00 | |
| DB0UT-7 | 2026-09-05 13:04:46 | 46.55510 | 7.83363 | 117° | 40km/h | 18378m | -8.2m/s | -58.0°C | 4.6% | 0hPa | 2.6V | 00:00:00 | 00:00:00 | 00:00:00 | |
| IW2NTF | 2026-09-05 13:04:44 | 46.55550 | 7.83240 | 119° | 46km/h | 18442m | -8.1m/s | -57.7°C | 4.4% | 0hPa | 2.6V | 08:18:54 | 02:30:58 | 00:00:00 | |
| DF7PN | 2026-09-05 13:04:42 | 46.55529 | 7.83302 | 114° | 47km/h | 18410m | -8.0m/s | -58.0°C | 1.0% | -1.0hPa | 2.6V | 00:00:00 | 00:00:00 | 00:00:00 | |
| DH7VM-15 | 2026-09-05 13:04:38 | 46.55545 | 7.83255 | 119° | 47km/h | 18434m | -8.2m/s | -57.7°C | 1.2% | 0hPa | 2.6V | 00:00:00 | 00:00:00 | 00:00:00 | |
| IW2NTF | 2026-09-05 13:04:33 | 46.55589 | 7.83103 | 103° | 38km/h | 18523m | -8.2m/s | -58°C | 4.5% | 0hPa | 2.6V | 08:19:04 | 02:30:48 | 00:00:00 | |
| HASLITAL | 2026-09-05 13:04:30 | 46.55582 | 7.83144 | 108° | 38km/h | 18499m | -7.9m/s | -57.9°C | 1.2% | 0hPa | 2.6V | 08:19:00 | 00:00:00 | 00:00:00 | |
| DB0ND-19 | 2026-09-05 13:04:28 | 46.55589 | 7.83103 | 103° | 38km/h | 18523m | -8.2m/s | -58.0°C | 1.0% | -1.0hPa | 2.6V | 00:00:00 | 00:00:00 | 00:00:00 | |
| IW2NTF | 2026-09-05 13:04:23 | 46.55611 | 7.82973 | 102° | 33km/h | 18605m | -8.4m/s | -57.4°C | 4.3% | 0hPa | 2.6V | 08:19:14 | 02:30:38 | 00:00:00 | |
| DB0UT-7 | 2026-09-05 13:04:16 | 46.55615 | 7.82949 | 105° | 35km/h | 18621m | -7.9m/s | -57.3°C | 4.3% | 0hPa | 2.6V | 00:00:00 | 02:30:36 | 00:00:00 | |
| DK5PH-5 | 2026-09-05 13:04:14 | 46.55619 | 7.82926 | 105° | 35km/h | 18637m | -8.1m/s | -57.2°C | 4.2% | 0hPa | 2.7V | 00:00:00 | 02:30:34 | 00:00:00 | |
| IW2NTF | 2026-09-05 13:04:13 | 46.55636 | 7.82852 | 113° | 37km/h | 18685m | -8.2m/s | -57.5°C | 4.3% | 0hPa | 2.7V | 08:19:24 | 02:30:28 | 00:00:00 | |
| DF7PN | 2026-09-05 13:04:11 | 46.55627 | 7.82889 | 107° | 35km/h | 18661m | -7.8m/s | -57.4°C | 0.9% | -1.0hPa | 2.6V | 00:00:00 | 00:00:00 | 00:00:00 | |
| HASLITAL | 2026-09-05 13:04:09 | 46.55629 | 7.82877 | 111° | 37km/h | 18669m | -7.7m/s | -57.4°C | 1.2% | 0hPa | 2.6V | 08:19:00 | 00:00:00 | 00:00:00 | |
| DO3MHA-11 | 2026-09-05 13:04:07 | 46.55640 | 7.82839 | 117° | 37km/h | 18693m | -8.2m/s | -57.5°C | 4.3% | 0hPa | 2.6V | 00:00:00 | 02:30:27 | 00:00:00 | |
| IW2NTF | 2026-09-05 13:04:03 | 46.55679 | 7.82736 | 116° | 35km/h | 18769m | -8.5m/s | -57.6°C | 4.4% | 0hPa | 2.6V | 08:19:34 | 02:30:18 | 00:00:00 | |
| DO3MHA-11 | 2026-09-05 13:03:57 | 46.55683 | 7.82725 | 118° | 33km/h | 18778m | -8.0m/s | -57.6°C | 4.4% | 0hPa | 2.6V | 00:00:00 | 02:30:17 | 00:00:00 | |
| IW2NTF | 2026-09-05 13:03:53 | 46.55722 | 7.82626 | 119° | 29km/h | 18853m | -8.1m/s | -57.3°C | 4.3% | 0hPa | 2.7V | 08:19:44 | 02:30:08 | 00:00:00 | |
| HASLITAL | 2026-09-05 13:03:49 | 46.55714 | 7.82645 | 122° | 31km/h | 18837m | -8.4m/s | -57.3°C | 1.1% | 0hPa | 2.6V | 08:20:00 | 00:00:00 | 00:00:00 | |
| DB0UT-7 | 2026-09-05 13:03:46 | 46.55728 | 7.82608 | 114° | 22km/h | 18870m | -8.2m/s | -57.2°C | 4.4% | 0hPa | 2.6V | 00:00:00 | 00:00:00 | 00:00:00 | |
| DO3MHA-11 | 2026-09-05 13:03:45 | 46.55730 | 7.82599 | 110° | 22km/h | 18878m | -8.5m/s | -57.3°C | 4.3% | 0hPa | 2.6V | 00:00:00 | 02:30:05 | 00:00:00 | |
| DK5PH-5 | 2026-09-05 13:03:44 | 46.55732 | 7.82591 | 109° | 24km/h | 18887m | -8.0m/s | -57.2°C | 4.4% | 0hPa | 2.6V | 00:00:00 | 02:30:04 | 00:00:00 | |
| IW2NTF | 2026-09-05 13:03:43 | 46.55738 | 7.82544 | 93° | 20km/h | 18937m | -8.7m/s | -56.7°C | 4% | 0hPa | 2.6V | 08:19:54 | 02:29:58 | 00:00:00 | |
| DF7PN | 2026-09-05 13:03:40 | 46.55737 | 7.82559 | 96° | 20km/h | 18920m | -8.7m/s | -56.9°C | 1.0% | -1.0hPa | 2.6V | 00:00:00 | 00:00:00 | 00:00:00 | |
| DO3MHA-11 | 2026-09-05 13:03:35 | 46.55739 | 7.82524 | 92° | 20km/h | 18963m | -8.7m/s | -56.6°C | 4.0% | 0hPa | 2.6V | 00:00:00 | 02:29:55 | 00:00:00 | |
| IW2NTF | 2026-09-05 13:03:34 | 46.55737 | 7.82476 | 78° | 20km/h | 19024m | -8.6m/s | -56.8°C | 4% | 0hPa | 2.6V | 08:20:04 | 02:29:48 | 00:00:00 | |
| DH7VM-15 | 2026-09-05 13:03:32 | 46.55740 | 7.82511 | 92° | 18km/h | 18981m | -8.8m/s | -56.6°C | 1.0% | 0hPa | 2.7V | 08:20:00 | 00:00:00 | 00:00:00 | |
| HASLITAL | 2026-09-05 13:03:29 | 46.55738 | 7.82490 | 82° | 20km/h | 19006m | -8.6m/s | -56.6°C | 1.0% | 0hPa | 2.7V | 08:20:00 | 00:00:00 | 00:00:00 | |
| DB0ND-19 | 2026-09-05 13:03:26 | 46.55734 | 7.82461 | 76° | 20km/h | 19041m | -8.8m/s | -56.9°C | 0.9% | -1.0hPa | 2.7V | 00:00:00 | 00:00:00 | 00:00:00 | |
| DO3MHA-11 | 2026-09-05 13:03:24 | 46.55731 | 7.82447 | 77° | 24km/h | 19059m | -8.3m/s | -57.0°C | 4.0% | 0hPa | 2.7V | 00:00:00 | 02:29:44 | 00:00:00 | |
| IW2NTF | 2026-09-05 13:03:23 | 46.55721 | 7.82396 | 71° | 26km/h | 19109m | -8.9m/s | 0°C | 0% | 0hPa | 2.7V | 08:20:14 | 02:29:38 | 00:00:00 | |
| DB0UT-7 | 2026-09-05 13:03:16 | 46.55716 | 7.82378 | 70° | 31km/h | 19127m | -8.9m/s | -57.3°C | 4.1% | 0hPa | 2.7V | 00:00:00 | 02:29:36 | 00:00:00 | |
| IW2NTF | 2026-09-05 13:03:11 | 46.55693 | 7.82290 | 74° | 31km/h | 19214m | -8.3m/s | -58.1°C | 4.4% | 0hPa | 2.7V | 08:20:26 | 02:29:26 | 00:00:00 | |
| DL1ZP-14 | 2026-09-05 13:03:11 | 46.55705 | 7.82335 | 66° | 22km/h | 19171m | -8.6m/s | -57.7°C | 0.9% | -1.0hPa | 2.6V | 00:00:00 | 00:00:00 | 00:00:00 | |
| HASLITAL | 2026-09-05 13:03:08 | 46.55699 | 7.82319 | 65° | 24km/h | 19188m | -8.8m/s | -57.9°C | 1.1% | 0hPa | 2.7V | 08:21:00 | 00:00:00 | 00:00:00 | |
| IW2NTF | 2026-09-05 13:03:02 | 46.55676 | 7.82159 | 84° | 35km/h | 19301m | -9m/s | -58.5°C | 4.6% | 0hPa | 2.7V | 08:20:36 | 02:29:16 | 00:00:00 | |
| DB0ND-19 | 2026-09-05 13:02:55 | 46.55676 | 7.82147 | 89° | 31km/h | 19310m | -8.7m/s | -58.3°C | 1.0% | -1.0hPa | 2.6V | 00:00:00 | 00:00:00 | 00:00:00 | |
| DK5PH-5 | 2026-09-05 13:02:52 | 46.55676 | 7.82112 | 98° | 35km/h | 19336m | -8.6m/s | -58.0°C | 4.4% | 0hPa | 2.6V | 08:20:00 | 02:29:12 | 00:00:00 | |
| IW2NTF | 2026-09-05 13:02:51 | 46.55683 | 7.82042 | 97° | 33km/h | 19389m | -9.3m/s | -57.9°C | 4.4% | 0hPa | 2.6V | 08:20:46 | 02:29:06 | 00:00:00 | |
| DO3MHA-11 | 2026-09-05 13:02:49 | 46.55680 | 7.82077 | 98° | 31km/h | 19362m | -8.8m/s | -57.9°C | 4.4% | 0hPa | 2.6V | 00:00:00 | 02:29:09 | 00:00:00 | |
| HASLITAL | 2026-09-05 13:02:47 | 46.55681 | 7.82065 | 101° | 33km/h | 19371m | -8.8m/s | -58.0°C | 1.1% | 0hPa | 2.6V | 08:21:00 | 00:00:00 | 00:00:00 | |
| DB0UT-7 | 2026-09-05 13:02:46 | 46.55683 | 7.82042 | 98° | 35km/h | 19389m | -9.2m/s | -57.8°C | 4.4% | 0hPa | 2.6V | 00:00:00 | 00:00:00 | 00:00:00 | |
| IW2NTF | 2026-09-05 13:02:42 | 46.55688 | 7.81922 | 90° | 40km/h | 19478m | -9.6m/s | -57.8°C | 4.4% | 0hPa | 2.6V | 08:20:56 | 02:28:56 | 00:00:00 | |
| DO3MHA-11 | 2026-09-05 13:02:38 | 46.55687 | 7.81950 | 90° | 40km/h | 19460m | -9.3m/s | -57.7°C | 4.4% | 0hPa | 2.6V | 00:00:00 | 02:28:58 | 00:00:00 | |
| IW2NTF | 2026-09-05 13:02:31 | 46.55700 | 7.81776 | 100° | 35km/h | 19571m | -9.4m/s | -57.9°C | 4.6% | 0hPa | 2.6V | 08:21:06 | 02:28:46 | 00:00:00 | |
| DO3MHA-11 | 2026-09-05 13:02:28 | 46.55697 | 7.81802 | 101° | 35km/h | 19552m | -9.2m/s | -57.9°C | 4.6% | 0hPa | 2.7V | 08:21:00 | 02:28:48 | 00:00:00 | |
| HASLITAL | 2026-09-05 13:02:27 | 46.55697 | 7.81802 | 101° | 37km/h | 19552m | -9.3m/s | -57.9°C | 1.1% | 0hPa | 2.7V | 08:21:00 | 00:00:00 | 00:00:00 | |
| DB0ND-19 | 2026-09-05 13:02:24 | 46.55703 | 7.81751 | 100° | 35km/h | 19589m | -9.5m/s | -57.5°C | 0.9% | -1.0hPa | 2.7V | 00:00:00 | 00:00:00 | 00:00:00 | |
| IW2NTF | 2026-09-05 13:02:23 | 46.55714 | 7.81656 | 93° | 27km/h | 19665m | -9.6m/s | -56.5°C | 4.1% | 0hPa | 2.7V | 08:21:16 | 02:28:36 | 00:00:00 | |
| DK5PH-5 | 2026-09-05 13:02:18 | 46.55712 | 7.81677 | 100° | 24km/h | 19646m | -9.5m/s | -56.4°C | 4.1% | 0hPa | 2.7V | 00:00:00 | 02:28:38 | 00:00:00 | |
| DB0UT-7 | 2026-09-05 13:02:16 | 46.55714 | 7.81656 | 94° | 27km/h | 19665m | -9.6m/s | -56.4°C | 4.1% | 0hPa | 2.7V | 00:00:00 | 02:28:36 | 00:00:00 | |
| IW2NTF | 2026-09-05 13:02:12 | 46.55716 | 7.81570 | 93° | 24km/h | 19763m | -9.6m/s | -56.3°C | 4.2% | 0hPa | 2.7V | 08:21:26 | 02:28:26 | 00:00:00 | |
| DF7PN | 2026-09-05 13:02:07 | 46.55716 | 7.81570 | 93° | 24km/h | 19763m | -9.6m/s | -56.3°C | 0.8% | -1.0hPa | 2.6V | 00:00:00 | 00:00:00 | 00:00:00 | |
| DO3MHA-11 | 2026-09-05 13:02:06 | 46.55716 | 7.81570 | 94° | 26km/h | 19764m | -9.5m/s | -56.3°C | 4.2% | 0hPa | 2.6V | 00:00:00 | 02:28:26 | 00:00:00 | |
| IW2NTF | 2026-09-05 13:02:01 | 46.55722 | 7.81473 | 100° | 38km/h | 19905m | -20m/s | -56°C | 4% | 0hPa | 2.6V | 08:21:36 | 02:28:16 | 00:00:00 | |
| DB0ND-19 | 2026-09-05 13:01:53 | 46.55730 | 7.81422 | 100° | 35km/h | 19982m | -19.2m/s | -56.1°C | 0.8% | -1.0hPa | 2.7V | 00:00:00 | 00:00:00 | 00:00:00 | |
| IW2NTF | 2026-09-05 13:01:51 | 46.55745 | 7.81358 | 116° | 29km/h | 20095m | -18.8m/s | -56°C | 3.9% | 0hPa | 2.7V | 08:21:46 | 02:28:06 | 00:00:00 | |
| DO3MHA-11 | 2026-09-05 13:01:46 | 46.55744 | 7.81358 | 117° | 33km/h | 20095m | -18.8m/s | -55.9°C | 3.9% | 0hPa | 2.7V | 00:00:00 | 02:28:06 | 00:00:00 | |
| IW2NTF | 2026-09-05 13:01:41 | 46.55804 | 7.81280 | 152° | 29km/h | 20281m | -18.6m/s | -55.9°C | 4% | 0hPa | 2.7V | 08:21:56 | 02:27:56 | 00:00:00 | |
| DL1ZP-14 | 2026-09-05 13:01:38 | 46.55791 | 7.81292 | 144° | 33km/h | 20244m | -19.0m/s | -56.0°C | 0.8% | -1.0hPa | 2.6V | 00:00:00 | 00:00:00 | 00:00:00 | |
| DF7PN | 2026-09-05 13:01:36 | 46.55811 | 7.81276 | 152° | 26km/h | 20300m | -18.8m/s | -55.9°C | 0.8% | -1.0hPa | 2.6V | 00:00:00 | 00:00:00 | 00:00:00 | |
| IW2NTF | 2026-09-05 13:01:31 | 46.55850 | 7.81242 | 148° | 15km/h | 20470m | -18.8m/s | -55°C | 3.8% | 0hPa | 2.6V | 08:22:06 | 02:27:46 | 00:00:00 | |
| DO3MHA-11 | 2026-09-05 13:01:26 | 46.55850 | 7.81242 | 149° | 11km/h | 20470m | -18.8m/s | -55.0°C | 3.8% | 0hPa | 2.6V | 00:00:00 | 02:27:46 | 00:00:00 | |
| HASLITAL | 2026-09-05 13:01:25 | 46.55850 | 7.81242 | 149° | 15km/h | 20470m | -18.8m/s | -55.0°C | 0.9% | 0hPa | 2.7V | 08:22:00 | 00:00:00 | 00:00:00 | |
| DB0ND-19 | 2026-09-05 13:01:22 | 46.55857 | 7.81225 | 46° | 5km/h | 20603m | -18.8m/s | -55.8°C | 0.8% | -1.0hPa | 2.7V | 00:00:00 | 00:00:00 | 00:00:00 | |
| IW2NTF | 2026-09-05 13:01:21 | 46.55849 | 7.81220 | 35° | 15km/h | 20659m | -18.8m/s | -56°C | 4.2% | 0hPa | 2.7V | 08:22:16 | 02:27:36 | 00:00:00 | |
| DO3MHA-11 | 2026-09-05 13:01:16 | 46.55849 | 7.81219 | 36° | 24km/h | 20660m | -18.7m/s | -56.0°C | 4.2% | 0hPa | 2.7V | 00:00:00 | 02:27:36 | 00:00:00 | |
| IW2NTF | 2026-09-05 13:01:12 | 46.55807 | 7.81157 | 58° | 26km/h | 20850m | -19.4m/s | -55.4°C | 4.1% | 0hPa | 2.7V | 08:22:26 | 02:27:26 | 00:00:00 | |
| DL1ZP-14 | 2026-09-05 13:01:07 | 46.55808 | 7.81157 | 58° | 26km/h | 20850m | -19.4m/s | -55.4°C | 0.8% | -1.0hPa | 2.7V | 00:00:00 | 00:00:00 | 00:00:00 | |
| DO3MHA-11 | 2026-09-05 13:01:06 | 46.55808 | 7.81157 | 59° | 29km/h | 20851m | -19.4m/s | -55.4°C | 4.1% | 0hPa | 2.6V | 00:00:00 | 02:27:26 | 00:00:00 | |
| DF7PN | 2026-09-05 13:01:05 | 46.55801 | 7.81139 | 68° | 29km/h | 20889m | -19.7m/s | -55.1°C | 0.7% | -1.0hPa | 2.6V | 00:00:00 | 00:00:00 | 00:00:00 | |
| DK5PH-5 | 2026-09-05 13:01:04 | 46.55801 | 7.81138 | 69° | 18km/h | 20890m | -19.6m/s | -55.1°C | 4.0% | 0hPa | 2.6V | 00:00:00 | 02:27:24 | 00:00:00 | |
| IW2NTF | 2026-09-05 13:01:02 | 46.55799 | 7.81057 | 109° | 26km/h | 21043m | -19.3m/s | -54.2°C | 3.6% | 0hPa | 2.6V | 08:22:36 | 02:27:16 | 00:00:00 | |
| DO3MHA-12 | 2026-09-05 13:00:56 | 46.55799 | 7.81057 | 110° | 20km/h | 21044m | -19.2m/s | -54.1°C | 3.6% | 0hPa | 2.7V | 00:00:00 | 02:27:16 | 00:00:00 | |
| IW2NTF | 2026-09-05 13:00:52 | 46.55833 | 7.81014 | 163° | 11km/h | 21239m | -19.6m/s | -53.9°C | 3.6% | 0hPa | 2.7V | 08:22:46 | 02:27:06 | 00:00:00 | |
| DB0ND-19 | 2026-09-05 13:00:51 | 46.55835 | 7.81013 | 166° | 5km/h | 21259m | -19.4m/s | -53.8°C | 0.6% | -1.0hPa | 2.6V | 00:00:00 | 00:00:00 | 00:00:00 | |
| DO3MHA-11 | 2026-09-05 13:00:46 | 46.55833 | 7.81014 | 164° | 9km/h | 21239m | -19.6m/s | -53.9°C | 3.6% | 0hPa | 2.6V | 00:00:00 | 02:27:06 | 00:00:00 | |
| DO3MHA-12 | 2026-09-05 13:00:45 | 46.55835 | 7.81013 | 167° | 11km/h | 21259m | -19.3m/s | -53.8°C | 3.6% | 0hPa | 2.6V | 00:00:00 | 02:27:05 | 00:00:00 | |
| HASLITAL | 2026-09-05 13:00:44 | 46.55835 | 7.81013 | 167° | 7km/h | 21259m | -19.4m/s | -53.8°C | 0.8% | 0hPa | 2.6V | 08:22:00 | 00:00:00 | 00:00:00 | |
| IW2NTF | 2026-09-05 13:00:42 | 46.55829 | 7.80984 | 99° | 13km/h | 21440m | -19.5m/s | -53.7°C | 3.5% | 0hPa | 2.6V | 08:22:56 | 02:26:56 | 00:00:00 | |
| DO3MHA-11 | 2026-09-05 13:00:36 | 46.55829 | 7.80984 | 100° | 13km/h | 21440m | -19.5m/s | -53.6°C | 3.5% | 0hPa | 2.6V | 00:00:00 | 02:26:56 | 00:00:00 | |
| DF7PN | 2026-09-05 13:00:34 | 46.55831 | 7.80970 | 115° | 13km/h | 21500m | -20.1m/s | -54.0°C | 0.7% | -1.0hPa | 2.6V | 00:00:00 | 00:00:00 | 00:00:00 | |
| IW2NTF | 2026-09-05 13:00:28 | 46.55835 | 7.80940 | 77° | 7km/h | 21642m | -20.6m/s | -53.5°C | 3.5% | 0hPa | 2.6V | 08:23:06 | 02:26:46 | 00:00:00 | |
| DO3MHA-11 | 2026-09-05 13:00:26 | 46.55834 | 7.80940 | 78° | 5km/h | 21642m | -20.6m/s | -53.4°C | 3.5% | 0hPa | 2.6V | 00:00:00 | 02:26:46 | 00:00:00 | |
| DO3MHA-12 | 2026-09-05 13:00:24 | 46.55834 | 7.80935 | 56° | 4km/h | 21683m | -20.7m/s | -53.1°C | 3.4% | 0hPa | 2.6V | 00:00:00 | 02:26:44 | 00:00:00 | |
| IW2NTF | 2026-09-05 13:00:22 | 46.55828 | 7.80929 | 10° | 2km/h | 21847m | -20.3m/s | -53.1°C | 3.4% | 0hPa | 2.6V | 08:23:16 | 02:26:36 | 00:00:00 | |
| DB0UT-7 | 2026-09-05 13:00:16 | 46.55828 | 7.80929 | 11° | 13km/h | 21847m | -20.3m/s | -53.1°C | 3.4% | 0hPa | 2.6V | 00:00:00 | 02:26:36 | 00:00:00 | |
| DO3MHA-12 | 2026-09-05 13:00:14 | 46.55826 | 7.80927 | 44° | 15km/h | 21889m | -21.0m/s | -52.9°C | 3.3% | 0hPa | 2.6V | 00:00:00 | 02:26:34 | 00:00:00 | |
| IW2NTF | 2026-09-05 13:00:11 | 46.55811 | 7.80900 | 70° | 20km/h | 22056m | -21.6m/s | -53.6°C | 3.6% | 0hPa | 2.6V | 08:23:26 | 02:26:26 | 00:00:00 | |
| DO3MHA-11 | 2026-09-05 13:00:06 | 46.55810 | 7.80900 | 71° | 22km/h | 22056m | -21.6m/s | -53.5°C | 3.6% | 0hPa | 2.7V | 00:00:00 | 02:26:26 | 00:00:00 | |
| DL1ZP-14 | 2026-09-05 13:00:05 | 46.55809 | 7.80885 | 89° | 20km/h | 22099m | -20.3m/s | -53.8°C | 0.6% | -1.0hPa | 2.7V | 00:00:00 | 00:00:00 | 00:00:00 | |
| DK5PH-5 | 2026-09-05 13:00:04 | 46.55808 | 7.80885 | 90° | 11km/h | 22099m | -20.2m/s | -53.8°C | 3.6% | 0hPa | 2.6V | 00:00:00 | 02:26:24 | 00:00:00 | |
| IW2NTF | 2026-09-05 13:00:02 | 46.55831 | 7.80833 | 166° | 18km/h | 22267m | -21.2m/s | -53.5°C | 3.7% | 0hPa | 2.6V | 08:23:36 | 02:26:16 | 00:00:00 | |
| DL6DJ-15 | 2026-09-05 13:00:00 | 46.55844 | 7.80827 | 69° | 9km/h | 22503m | -21.8m/s | -52.2°C | 0.5% | -1.0hPa | 2.6V | 00:00:00 | 00:00:00 | 00:00:00 | |
| DO3MHA-11 | 2026-09-05 12:59:56 | 46.55831 | 7.80833 | 167° | 7km/h | 22267m | -21.1m/s | -53.5°C | 3.7% | 0hPa | 2.6V | 00:00:00 | 02:26:16 | 00:00:00 | |
| DO3MHA-12 | 2026-09-05 12:59:53 | 46.55841 | 7.80833 | 204° | 5km/h | 22331m | -21.1m/s | -52.8°C | 3.4% | 0hPa | 2.7V | 00:00:00 | 02:26:13 | 00:00:00 | |
| IW2NTF | 2026-09-05 12:59:51 | 46.55844 | 7.80830 | 77° | 7km/h | 22482m | -21.1m/s | -52.2°C | 3.2% | 0hPa | 2.7V | 08:23:46 | 02:26:06 | 00:00:00 | |
| DB0ND-19 | 2026-09-05 12:59:49 | 46.55845 | 7.80835 | 65° | 5km/h | 22439m | -21.7m/s | -52.2°C | 0.5% | -1.0hPa | 2.7V | 00:00:00 | 00:00:00 | 00:00:00 | |
| DB0UT-7 | 2026-09-05 12:59:46 | 46.55844 | 7.80830 | 78° | 11km/h | 22482m | -21.0m/s | -52.2°C | 3.2% | 0hPa | 2.7V | 00:00:00 | 00:00:00 | 00:00:00 | |
| DO3MHA-12 | 2026-09-05 12:59:43 | 46.55843 | 7.80820 | 95° | 5km/h | 22548m | -21.4m/s | -52.4°C | 3.2% | 0hPa | 2.6V | 00:00:00 | 02:26:03 | 00:00:00 | |
| IW2NTF | 2026-09-05 12:59:41 | 46.55843 | 7.80816 | 267° | 7km/h | 22699m | -22.1m/s | -52.9°C | 3.4% | 0hPa | 2.6V | 08:23:56 | 02:25:56 | 00:00:00 | |
| DO3MHA-11 | 2026-09-05 12:59:36 | 46.55843 | 7.80816 | 268° | 9km/h | 22699m | -22.0m/s | -52.9°C | 3.4% | 0hPa | 2.7V | 00:00:00 | 02:25:56 | 00:00:00 | |
| DL1ZP-14 | 2026-09-05 12:59:34 | 46.55843 | 7.80824 | 276° | 7km/h | 22765m | -22.2m/s | -53.0°C | 0.6% | -1.0hPa | 2.7V | 00:00:00 | 00:00:00 | 00:00:00 | |
| DO3MHA-12 | 2026-09-05 12:59:33 | 46.55842 | 7.80824 | 277° | 9km/h | 22766m | -22.2m/s | -52.9°C | 3.5% | 0hPa | 2.7V | 00:00:00 | 02:25:53 | 00:00:00 | |
| IW2NTF | 2026-09-05 12:59:31 | 46.55833 | 7.80840 | 1° | 11km/h | 22919m | -21.8m/s | -52.4°C | 3.3% | 0hPa | 2.7V | 08:24:06 | 02:25:46 | 00:00:00 | |
| DO3MHA-11 | 2026-09-05 12:59:26 | 46.55833 | 7.80840 | 2° | 18km/h | 22919m | -21.8m/s | -52.3°C | 3.3% | 0hPa | 2.7V | 08:24:00 | 02:25:46 | 00:00:00 | |
| DO3MHA-12 | 2026-09-05 12:59:23 | 46.55824 | 7.80834 | 44° | 18km/h | 22985m | -21.9m/s | -52.3°C | 3.3% | 0hPa | 2.6V | 00:00:00 | 02:25:43 | 00:00:00 | |
| IW2NTF | 2026-09-05 12:59:22 | 46.55821 | 7.80784 | 112° | 22km/h | 23138m | -22.4m/s | -52.4°C | 3.3% | 0hPa | 2.6V | 08:24:16 | 02:25:36 | 00:00:00 | |
| DB0ND-19 | 2026-09-05 12:59:18 | 46.55819 | 7.80791 | 108° | 20km/h | 23117m | -21.5m/s | -52.4°C | 0.5% | -1.0hPa | 2.6V | 00:00:00 | 00:00:00 | 00:00:00 | |
| DO3MHA-11 | 2026-09-05 12:59:16 | 46.55821 | 7.80784 | 113° | 13km/h | 23139m | -22.4m/s | -52.4°C | 3.3% | 0hPa | 2.6V | 00:00:00 | 02:25:36 | 00:00:00 | |
| IW2NTF | 2026-09-05 12:59:12 | 46.55843 | 7.80768 | 260° | 9km/h | 23360m | -22m/s | -52.4°C | 3.4% | 0hPa | 2.6V | 08:24:26 | 02:25:26 | 00:00:00 | |
| DO3MHA-12 | 2026-09-05 12:59:11 | 46.55835 | 7.80763 | 152° | 7km/h | 23249m | -22.0m/s | -52.3°C | 3.3% | 0hPa | 2.6V | 00:00:00 | 02:25:31 | 00:00:00 | |
| DO3MHA-11 | 2026-09-05 12:59:06 | 46.55843 | 7.80768 | 261° | 7km/h | 23361m | -22.0m/s | -52.4°C | 3.4% | 0hPa | 2.6V | 00:00:00 | 02:25:26 | 00:00:00 | |
| DK5PH-5 | 2026-09-05 12:59:04 | 46.55844 | 7.80773 | 259° | 7km/h | 23405m | -21.9m/s | -52.3°C | 3.3% | 0hPa | 2.6V | 00:00:00 | 02:25:24 | 00:00:00 | |
| DL1ZP-14 | 2026-09-05 12:59:03 | 46.55844 | 7.80780 | 281° | 11km/h | 23449m | -22.0m/s | -52.4°C | 0.5% | -1.0hPa | 2.7V | 00:00:00 | 00:00:00 | 00:00:00 | |
| IW2NTF | 2026-09-05 12:59:01 | 46.55838 | 7.80787 | 41° | 5km/h | 23583m | -23.4m/s | -51.8°C | 3.1% | 0hPa | 2.7V | 08:24:36 | 02:25:16 | 00:00:00 | |
| DF7PN | 2026-09-05 12:59:00 | 46.55842 | 7.80785 | 313° | 5km/h | 23492m | -22.4m/s | -52.3°C | 0.5% | -1.0hPa | 2.7V | 00:00:00 | 00:00:00 | 00:00:00 | |
| DO3MHA-11 | 2026-09-05 12:58:56 | 46.55837 | 7.80787 | 42° | 7km/h | 23583m | -23.3m/s | -51.8°C | 3.1% | 0hPa | 2.7V | 00:00:00 | 02:25:16 | 00:00:00 | |
| DO3MHA-12 | 2026-09-05 12:58:51 | 46.55831 | 7.80776 | 68° | 7km/h | 23698m | -21.9m/s | -51.6°C | 3.0% | 0hPa | 2.6V | 00:00:00 | 02:25:11 | 00:00:00 | |
| IW2NTF | 2026-09-05 12:58:50 | 46.55829 | 7.80762 | 82° | 7km/h | 23810m | -23.1m/s | -51.7°C | 3.1% | 0hPa | 2.6V | 08:24:46 | 02:25:06 | 00:00:00 | |
| DB0ND-19 | 2026-09-05 12:58:47 | 46.55829 | 7.80759 | 88° | 7km/h | 23834m | -22.8m/s | -51.7°C | 0.5% | -1.0hPa | 2.6V | 00:00:00 | 00:00:00 | 00:00:00 | |
| DO3MHA-11 | 2026-09-05 12:58:46 | 46.55829 | 7.80762 | 83° | 7km/h | 23811m | -23.1m/s | -51.7°C | 3.1% | 0hPa | 2.6V | 00:00:00 | 02:25:06 | 00:00:00 | |
| DO3MHA-12 | 2026-09-05 12:58:41 | 46.55828 | 7.80751 | 63° | 11km/h | 23925m | -22.7m/s | -51.9°C | 3.2% | 0hPa | 2.6V | 00:00:00 | 02:25:01 | 00:00:00 | |
| IW2NTF | 2026-09-05 12:58:40 | 46.55820 | 7.80748 | 359° | 11km/h | 24037m | -22.5m/s | -52.2°C | 3.3% | 0hPa | 2.6V | 08:24:56 | 02:24:56 | 00:00:00 | |
| DO3MHA-11 | 2026-09-05 12:58:36 | 46.55820 | 7.80748 | 360° | 16km/h | 24038m | -22.4m/s | -52.2°C | 3.3% | 0hPa | 2.7V | 00:00:00 | 02:24:56 | 00:00:00 | |
| DK5PH-5 | 2026-09-05 12:58:34 | 46.55814 | 7.80749 | 348° | 11km/h | 24083m | -21.8m/s | -52.2°C | 3.2% | 0hPa | 2.7V | 00:00:00 | 02:24:54 | 00:00:00 | |
| IW2NTF | 2026-09-05 12:58:31 | 46.55777 | 7.80757 | 16° | 18km/h | 24251m | -20.8m/s | -52.4°C | 3.3% | 0hPa | 2.7V | 08:25:06 | 02:24:46 | 00:00:00 | |
| DO3MHA-12 | 2026-09-05 12:58:31 | 46.55801 | 7.80756 | 350° | 18km/h | 24147m | -21.0m/s | -52.2°C | 3.3% | 0hPa | 2.7V | 00:00:00 | 02:24:51 | 08:30:00 | |
| DF7PN | 2026-09-05 12:58:29 | 46.55791 | 7.80758 | 357° | 18km/h | 24189m | -20.9m/s | -52.4°C | 0.5% | -1.0hPa | 2.6V | 00:00:00 | 00:00:00 | 00:00:00 | |
| DM0DOS-11 | 2026-09-05 12:58:27 | 46.55761 | 7.80746 | 29° | 18km/h | 24338m | -23.8m/s | -52.5°C | 3.3% | 0hPa | 2.6V | 08:25:10 | 02:24:42 | 00:00:00 | |
| DO3MHA-11 | 2026-09-05 12:58:26 | 46.55777 | 7.80757 | 17° | 18km/h | 24251m | -20.7m/s | -52.4°C | 3.3% | 0hPa | 2.7V | 00:00:00 | 02:24:46 | 00:00:00 | |
| IW2NTF | 2026-09-05 12:58:21 | 46.55733 | 7.80733 | 13° | 20km/h | 24458m | -13.8m/s | -52.2°C | 3.3% | 0hPa | 2.6V | 08:25:16 | 02:24:36 | 00:00:00 | |
| DM0DOS-11 | 2026-09-05 12:58:17 | 46.55713 | 7.80727 | 357° | 20km/h | 24526m | -18.7m/s | -52.2°C | 3.4% | 0hPa | 2.6V | 08:25:20 | 02:24:32 | 00:00:00 | |
| DB0ND-19 | 2026-09-05 12:58:16 | 46.55728 | 7.80731 | 17° | 20km/h | 24473m | -15.4m/s | -52.3°C | 0.5% | -1.0hPa | 2.6V | 00:00:00 | 00:00:00 | 00:00:00 | |
| DO3MHA-12 | 2026-09-05 12:58:11 | 46.55709 | 7.80727 | 360° | 15km/h | 24545m | -19.8m/s | -52.2°C | 3.4% | 0hPa | 2.6V | 00:00:00 | 02:24:31 | 00:00:00 | |
| IW2NTF | 2026-09-05 12:58:10 | 46.55690 | 7.80724 | 8° | 13km/h | 24625m | -15.5m/s | -52.1°C | 3.4% | 0hPa | 2.6V | 08:25:26 | 02:24:26 | 00:00:00 | |
| DO3MHA-11 | 2026-09-05 12:58:06 | 46.55690 | 7.80724 | 9° | 7km/h | 24625m | -15.5m/s | -52.1°C | 3.4% | 0hPa | 2.7V | 00:00:00 | 02:24:26 | 00:00:00 | |
| IW2NTF | 2026-09-05 12:58:01 | 46.55673 | 7.80714 | 69° | 5km/h | 24849m | -19.3m/s | -51.4°C | 3.2% | 0hPa | 2.7V | 08:25:36 | 02:24:16 | 00:00:00 | |
| DL1ZP-14 | 2026-09-05 12:58:00 | 46.55674 | 7.80717 | 6° | 2km/h | 24758m | -26.5m/s | -51.7°C | 0.4% | -1.0hPa | 2.6V | 00:00:00 | 00:00:00 | 00:00:00 | |
| DF7PN | 2026-09-05 12:57:58 | 46.55673 | 7.80716 | 62° | 2km/h | 24809m | -24.3m/s | -51.5°C | 0.5% | -1.0hPa | 2.6V | 00:00:00 | 00:00:00 | 00:00:00 | |
| DL6DJ-15 | 2026-09-05 12:57:55 | 46.55673 | 7.80711 | 68° | 9km/h | 24870m | -21.7m/s | -51.4°C | 0.4% | -1.0hPa | 2.6V | 00:00:00 | 00:00:00 | 00:00:00 | |
| DO3MHA-12 | 2026-09-05 12:57:51 | 46.55667 | 7.80697 | 52° | 13km/h | 24962m | -23.8m/s | -50.7°C | 3.0% | 0hPa | 2.6V | 00:00:00 | 02:24:11 | 00:00:00 | |
| IW2NTF | 2026-09-05 12:57:50 | 46.55656 | 7.80700 | 335° | 15km/h | 25067m | -21.5m/s | -50.4°C | 3% | 0hPa | 2.6V | 08:25:46 | 02:24:06 | 00:00:00 | |
| DK5PH-5 | 2026-09-05 12:57:48 | 46.55662 | 7.80696 | 339° | 13km/h | 25027m | -20.7m/s | -50.4°C | 3.0% | 0hPa | 2.7V | 00:00:00 | 02:24:08 | 00:00:00 | |
| DM0DOS-11 | 2026-09-05 12:57:46 | 46.55653 | 7.80702 | 339° | 13km/h | 25088m | -20.2m/s | -50.4°C | 2.9% | 0hPa | 2.7V | 08:25:47 | 02:24:05 | 00:00:00 | |
| DB0ND-19 | 2026-09-05 12:57:45 | 46.55650 | 7.80704 | 341° | 13km/h | 25109m | -20.5m/s | -50.4°C | 0.4% | -1.0hPa | 2.7V | 00:00:00 | 00:00:00 | 00:00:00 | |
| BIOWL1-15 | 2026-09-05 12:57:43 | 46.55647 | 7.80705 | 3° | 13km/h | 25127m | -17.1m/s | -50.4°C | 0% | 0hPa | 2.7V | 08:26:13 | 02:24:03 | 00:00:00 | |
| HASLITAL | 2026-09-05 12:57:40 | 46.55642 | 7.80703 | 23° | 7km/h | 25165m | -22.4m/s | -50.5°C | 0.5% | 0hPa | 2.6V | 08:26:00 | 00:00:00 | 00:00:00 | |
| IW2NTF | 2026-09-05 12:57:40 | 46.55632 | 7.80701 | 341° | 11km/h | 25282m | -33.1m/s | -50.3°C | 2.9% | 0hPa | 2.6V | 08:25:56 | 02:23:56 | 00:00:00 | |
| DM0DOS-11 | 2026-09-05 12:57:36 | 46.55630 | 7.80703 | 322° | 13km/h | 25315m | -32.3m/s | -50.4°C | 3% | 0hPa | 2.6V | 08:25:57 | 02:23:55 | 00:00:00 | |
| DO3MHA-11 | 2026-09-05 12:57:36 | 46.55632 | 7.80701 | 342° | 18km/h | 25282m | -33.1m/s | -50.3°C | 2.9% | 0hPa | 2.7V | 00:00:00 | 02:23:56 | 00:00:00 | |
| IW2NTF | 2026-09-05 12:57:32 | 46.55588 | 7.80718 | 6° | 22km/h | 25598m | -31m/s | -50.7°C | 3.1% | 0hPa | 2.7V | 08:26:06 | 02:23:46 | 00:00:00 | |
| DL1ZP-14 | 2026-09-05 12:57:29 | 46.55605 | 7.80716 | 356° | 24km/h | 25504m | -31.7m/s | -50.5°C | 0.4% | -1.0hPa | 2.6V | 00:00:00 | 00:00:00 | 00:00:00 | |
| DF7PN | 2026-09-05 12:57:27 | 46.55593 | 7.80718 | 355° | 22km/h | 25567m | -31.1m/s | -50.6°C | 0.4% | -1.0hPa | 2.7V | 00:00:00 | 00:00:00 | 00:00:00 | |
| DM0DOS-11 | 2026-09-05 12:57:26 | 46.55571 | 7.80711 | 32° | 7km/h | 25753m | -31.5m/s | -50.9°C | 3.2% | 0hPa | 2.7V | 08:26:11 | 02:23:41 | 00:00:00 | |
| BIOWL1-15 | 2026-09-05 12:57:23 | 46.55572 | 7.80712 | 27° | 9km/h | 25722m | -31m/s | -50.9°C | 0% | 0hPa | 2.6V | 08:26:13 | 02:23:42 | 00:00:00 | |
| IW2NTF | 2026-09-05 12:57:22 | 46.55560 | 7.80708 | 5° | 16km/h | 25912m | -31.9m/s | -50.2°C | 3.2% | 0hPa | 2.7V | 08:26:16 | 02:23:36 | 00:00:00 | |
| HASLITAL | 2026-09-05 12:57:19 | 46.55569 | 7.80710 | 21° | 7km/h | 25785m | -31.5m/s | -50.7°C | 0.5% | 0hPa | 2.6V | 08:26:00 | 00:00:00 | 00:00:00 | |
| DK5PH-5 | 2026-09-05 12:57:18 | 46.55565 | 7.80709 | 356° | 18km/h | 25848m | -31.6m/s | -50.3°C | 3.2% | 0hPa | 2.6V | 08:26:00 | 02:23:38 | 00:00:00 | |
| DM0DOS-11 | 2026-09-05 12:57:16 | 46.55534 | 7.80693 | 36° | 27km/h | 26073m | -31.8m/s | -49.9°C | 3.1% | 0hPa | 2.7V | 08:26:21 | 02:23:31 | 00:00:00 | |
| BIOWL1-15 | 2026-09-05 12:57:13 | 46.55546 | 7.80703 | 25° | 27km/h | 26008m | -32.5m/s | -50°C | 0% | 0hPa | 2.6V | 08:27:04 | 02:23:33 | 00:00:00 | |
| IW2NTF | 2026-09-05 12:57:11 | 46.55515 | 7.80651 | 78° | 26km/h | 26235m | -32.7m/s | -48.8°C | 2.9% | 0hPa | 2.6V | 08:26:26 | 02:23:26 | 00:00:00 | |
| BIOWL1-15 | 2026-09-05 12:57:03 | 46.55517 | 7.80629 | 120° | 20km/h | 26333m | -32.8m/s | -48.1°C | 0% | 0hPa | 2.7V | 08:27:04 | 02:23:23 | 00:00:00 | |
| IW2NTF | 2026-09-05 12:57:02 | 46.55527 | 7.80601 | 87° | 11km/h | 26565m | -33.1m/s | -48.1°C | 2.8% | 0hPa | 2.7V | 08:26:36 | 02:23:16 | 00:00:00 | |
| DL1ZP-14 | 2026-09-05 12:56:58 | 46.55527 | 7.80609 | 115° | 11km/h | 26498m | -32.9m/s | -48.2°C | 0.3% | -1.0hPa | 2.7V | 00:00:00 | 00:00:00 | 00:00:00 | |
| DM0DOS-11 | 2026-09-05 12:56:56 | 46.55527 | 7.80596 | 91° | 15km/h | 26598m | -32.7m/s | -48°C | 2.8% | 0hPa | 2.6V | 08:26:37 | 02:23:15 | 00:00:00 | |
| BIOWL1-15 | 2026-09-05 12:56:54 | 46.55528 | 7.80575 | 97° | 18km/h | 26697m | -33.3m/s | -47.8°C | 0% | 0hPa | 2.7V | 08:27:04 | 02:23:12 | 00:00:00 | |
| DL6DJ-15 | 2026-09-05 12:56:53 | 46.55527 | 7.80582 | 89° | 18km/h | 26664m | -34.1m/s | -47.8°C | 0.3% | -1.0hPa | 2.7V | 00:00:00 | 00:00:00 | 00:00:00 | |
| BIOWL9-15 | 2026-09-05 12:56:52 | 46.55533 | 7.80550 | 126° | 15km/h | 26833m | -33.7m/s | -46.7°C | 0.3% | -1.0hPa | 2.7V | 00:00:00 | 00:00:00 | 00:00:00 | |
| IW2NTF | 2026-09-05 12:56:50 | 46.55538 | 7.80542 | 129° | 13km/h | 26901m | -34.9m/s | -46.5°C | 2.4% | 0hPa | 2.7V | 08:26:46 | 02:23:06 | 00:00:00 | |
| OE5DXL-15 | 2026-09-05 12:56:50 | 46.55530 | 7.80562 | 108° | 18km/h | 26765m | -34.3m/s | -47.4°C | 2.6% | 0hPa | 2.7V | 00:00:00 | 00:00:00 | 00:00:00 | |
| DK5PH-5 | 2026-09-05 12:56:48 | 46.55533 | 7.80550 | 127° | 13km/h | 26833m | -33.7m/s | -46.6°C | 2.5% | 0hPa | 2.7V | 00:00:00 | 02:23:08 | 00:00:00 | |
| DM0DOS-11 | 2026-09-05 12:56:46 | 46.55540 | 7.80539 | 136° | 9km/h | 26936m | -34.6m/s | -46.4°C | 2.4% | 0hPa | 2.7V | 08:26:47 | 02:23:05 | 00:00:00 | |
| BIOWL1-15 | 2026-09-05 12:56:42 | 46.55544 | 7.80533 | 124° | 5km/h | 27041m | -34.7m/s | -46.1°C | 0% | 0hPa | 2.6V | 08:27:04 | 02:23:02 | 00:00:00 | |
| IW2NTF | 2026-09-05 12:56:41 | 46.55552 | 7.80528 | 170° | 9km/h | 27252m | -35.7m/s | -45.7°C | 2.2% | 0hPa | 2.7V | 08:26:56 | 02:22:56 | 00:00:00 | |
| HASLITAL | 2026-09-05 12:56:39 | 46.55546 | 7.80531 | 139° | 7km/h | 27111m | -35.1m/s | -45.9°C | 0.3% | 0hPa | 2.6V | 08:27:00 | 00:00:00 | 00:00:00 | |
| DM0DOS-11 | 2026-09-05 12:56:36 | 46.55555 | 7.80528 | 194° | 7km/h | 27287m | -35.2m/s | -45.9°C | 2.2% | 0hPa | 2.6V | 08:26:57 | 02:22:55 | 00:00:00 | |
| BIOWL1-15 | 2026-09-05 12:56:33 | 46.55557 | 7.80542 | 295° | 15km/h | 27430m | -35.5m/s | -46.8°C | 0% | 0hPa | 2.7V | 08:27:04 | 02:22:51 | 00:00:00 | |
| IW2NTF | 2026-09-05 12:56:31 | 46.55539 | 7.80565 | 353° | 20km/h | 27609m | -36.2m/s | -47.5°C | 2.5% | 0hPa | 2.7V | 08:27:06 | 02:22:46 | 00:00:00 | |
| DL1ZP-14 | 2026-09-05 12:56:27 | 46.55544 | 7.80563 | 338° | 20km/h | 27573m | -36.3m/s | -47.4°C | 0.3% | -1.0hPa | 2.7V | 00:00:00 | 00:00:00 | 00:00:00 | |
| DM0DOS-11 | 2026-09-05 12:56:26 | 46.55535 | 7.80565 | 7° | 18km/h | 27646m | -36.1m/s | -47.6°C | 2.6% | 0hPa | 2.7V | 08:27:07 | 02:22:45 | 00:00:00 | |
| BIOWL1-15 | 2026-09-05 12:56:25 | 46.55522 | 7.80552 | 64° | 16km/h | 27791m | -36.9m/s | -47.5°C | 0% | 0hPa | 2.7V | 08:27:55 | 02:22:41 | 00:00:00 | |
| DL6DJ-15 | 2026-09-05 12:56:22 | 46.55524 | 7.80557 | 56° | 15km/h | 27754m | -36.1m/s | -47.6°C | 0.3% | -1.0hPa | 2.7V | 00:00:00 | 00:00:00 | 00:00:00 | |
| IW2NTF | 2026-09-05 12:56:21 | 46.55511 | 7.80525 | 48° | 20km/h | 27975m | -37.3m/s | -47.6°C | 2.6% | 0hPa | 2.7V | 08:27:16 | 02:22:36 | 00:00:00 | |
| BIOWL9-15 | 2026-09-05 12:56:21 | 46.55520 | 7.80547 | 61° | 15km/h | 27828m | -36.7m/s | -47.6°C | -1.0% | -1.0hPa | 2.7V | 00:00:00 | 00:00:00 | 00:00:00 | |
| DK5PH-5 | 2026-09-05 12:56:18 | 46.55517 | 7.80536 | 62° | 22km/h | 27901m | -37.0m/s | -47.6°C | 2.6% | 0hPa | 2.7V | 00:00:00 | 02:22:38 | 00:00:00 | |
| DM0DOS-11 | 2026-09-05 12:56:15 | 46.55508 | 7.80520 | 47° | 20km/h | 28013m | -37.4m/s | -47.6°C | 2.6% | 0hPa | 2.7V | 08:27:17 | 02:22:35 | 00:00:00 | |
| BIOWL1-15 | 2026-09-05 12:56:11 | 46.55495 | 7.80490 | 66° | 24km/h | 28163m | -37.4m/s | -47.9°C | 0% | 0hPa | 2.7V | 08:27:55 | 02:22:31 | 00:00:00 | |
| DM0DOS-11 | 2026-09-05 12:56:03 | 46.55474 | 7.80383 | 80° | 27km/h | 28666m | -39.9m/s | -47.3°C | 2.7% | 0hPa | 2.7V | 08:27:34 | 02:22:18 | 00:00:00 | |
| BIOWL1-15 | 2026-09-05 12:55:50 | 46.55488 | 7.80319 | 133° | 13km/h | 28984m | -40.3m/s | -46.5°C | 0% | 0hPa | 2.7V | 08:27:55 | 02:22:10 | 00:00:00 | |
| IW2NTF | 2026-09-05 12:55:49 | 46.55491 | 7.80305 | 79° | 13km/h | 29148m | -41.9m/s | -45.9°C | 2.5% | 0hPa | 2.6V | 08:27:46 | 02:22:06 | 00:00:00 | |
| DM0DOS-11 | 2026-09-05 12:55:48 | 46.55491 | 7.80313 | 118° | 9km/h | 29065m | -40.6m/s | -46.1°C | 2.6% | 0hPa | 2.6V | 08:27:44 | 02:22:08 | 00:00:00 | |
| BIOWL1-15 | 2026-09-05 12:55:44 | 46.55494 | 7.80270 | 106° | 16km/h | 29396m | -41.7m/s | -45.6°C | 0% | 0hPa | 2.6V | 08:27:55 | 02:22:00 | 00:00:00 | |
| OE5DXL-15 | 2026-09-05 12:55:43 | 46.55492 | 7.80283 | 97° | 15km/h | 29313m | -41.4m/s | -45.8°C | 2.5% | 0hPa | 2.6V | 08:27:00 | 00:00:00 | 00:00:00 | |
| IW2NTF | 2026-09-05 12:55:38 | 46.55498 | 7.80250 | 99° | 16km/h | 29563m | -42.9m/s | -45.3°C | 2.5% | 0hPa | 2.6V | 08:27:56 | 02:21:56 | 00:00:00 | |
| DM0DOS-11 | 2026-09-05 12:55:38 | 46.55496 | 7.80260 | 112° | 13km/h | 29479m | -42.3m/s | -45.6°C | 2.6% | 0hPa | 2.7V | 08:27:54 | 02:21:58 | 00:00:00 | |
| IW2NTF | 2026-09-05 12:55:31 | 46.55540 | 7.80191 | 182° | 24km/h | 29996m | -43.5m/s | -43.2°C | 2.2% | 0hPa | 2.6V | 08:28:06 | 02:21:46 | 00:00:00 | |
| BIOWL1-15 | 2026-09-05 12:55:31 | 46.55522 | 7.80198 | 153° | 29km/h | 29865m | -42.6m/s | -43.9°C | 0% | 0hPa | 2.7V | 08:28:46 | 02:21:49 | 00:00:00 | |
| DM0DOS-11 | 2026-09-05 12:55:28 | 46.55528 | 7.80194 | 159° | 27km/h | 29908m | -44.2m/s | -43.6°C | 2.3% | 0hPa | 2.7V | 08:28:04 | 02:21:48 | 00:00:00 | |
| DL1ZP-14 | 2026-09-05 12:55:25 | 46.55545 | 7.80192 | 198° | 18km/h | 30040m | -44.0m/s | -43.0°C | 0.1% | -1.0hPa | 2.6V | 00:00:00 | 00:00:00 | 00:00:00 | |
| DM0DOS-11 | 2026-09-05 12:55:23 | 46.55556 | 7.80196 | 121° | 11km/h | 30351m | -45.1m/s | -42°C | 2% | 0hPa | 2.7V | 08:28:14 | 02:21:38 | 00:00:00 | |
| DF7PN | 2026-09-05 12:55:23 | 46.55551 | 7.80197 | 208° | 9km/h | 30128m | -44.8m/s | -42.9°C | 0.2% | -1.0hPa | 2.7V | 00:00:00 | 00:00:00 | 00:00:00 | |
| IW2NTF | 2026-09-05 12:55:21 | 46.55560 | 7.80189 | 135° | 13km/h | 30441m | -45m/s | -41.8°C | 2% | 0hPa | 2.7V | 08:28:16 | 02:21:36 | 00:00:00 | |
| BIOWL1-15 | 2026-09-05 12:55:18 | 46.55556 | 7.80196 | 121° | 11km/h | 30351m | -45.1m/s | -42°C | 0% | 0hPa | 2.7V | 08:28:46 | 02:21:38 | 00:00:00 | |
| DK5PH-5 | 2026-09-05 12:55:18 | 46.55556 | 7.80195 | 122° | 16km/h | 30351m | -45.1m/s | -41.9°C | 2.0% | 0hPa | 2.7V | 00:00:00 | 02:21:38 | 00:00:00 | |
| HASLITAL | 2026-09-05 12:55:17 | 46.55556 | 7.80195 | 122° | 11km/h | 30351m | -45.1m/s | -42.0°C | 0.2% | 0hPa | 2.7V | 08:28:00 | 00:00:00 | 00:00:00 | |
| DB0UT-7 | 2026-09-05 12:55:16 | 46.55560 | 7.80189 | 136° | 16km/h | 30441m | -45.0m/s | -41.7°C | 2.0% | 0hPa | 2.7V | 00:00:00 | 02:21:36 | 00:00:00 | |
| HARRO8 | 2026-09-05 12:55:14 | 46.55569 | 7.80184 | 193° | 11km/h | 30576m | -46.2m/s | 0°C | -1.0% | -1.0hPa | 2.7V | 00:00:00 | 00:00:00 | 00:00:00 | |
| DM0DOS-11 | 2026-09-05 12:55:13 | 46.55571 | 7.80194 | 342° | 5km/h | 30806m | -46.9m/s | -41.3°C | 2% | 0hPa | 2.7V | 08:28:24 | 02:21:28 | 00:00:00 | |
| IW2NTF | 2026-09-05 12:55:11 | 46.55569 | 7.80193 | 77° | 5km/h | 30899m | -47.5m/s | -41.1°C | 1.9% | 0hPa | 2.6V | 08:28:26 | 02:21:26 | 00:00:00 | |
| BIOWL1-15 | 2026-09-05 12:55:08 | 46.55571 | 7.80194 | 343° | 5km/h | 30806m | -46.9m/s | -41.3°C | 0% | 0hPa | 2.7V | 08:28:46 | 02:21:28 | 00:00:00 | |
| DO3MHA-11 | 2026-09-05 12:55:07 | 46.55570 | 7.80194 | 28° | 26km/h | 30853m | -45.4m/s | -41.2°C | 2.0% | 0hPa | 2.7V | 00:00:00 | 02:21:27 | 00:00:00 | |
| IW2NTF | 2026-09-05 12:54:59 | 46.55627 | 7.80178 | 216° | 27km/h | 31372m | -47.9m/s | -39.9°C | 1.8% | 0hPa | 2.7V | 08:28:36 | 02:21:16 | 00:00:00 | |
| BIOWL1-15 | 2026-09-05 12:54:59 | 46.55620 | 7.80173 | 204° | 31km/h | 31324m | -48.7m/s | -39.9°C | 0% | 0hPa | 2.7V | 08:28:46 | 02:21:17 | 00:00:00 | |
| DM0DOS-11 | 2026-09-05 12:54:58 | 46.55638 | 7.80194 | 227° | 11km/h | 31517m | -48.1m/s | -40°C | 1.9% | 0hPa | 2.6V | 08:28:39 | 02:21:13 | 00:00:00 | |
| DL1ZP-14 | 2026-09-05 12:54:54 | 46.55638 | 7.80194 | 227° | 9km/h | 31517m | -48.1m/s | -40.0°C | 0.1% | -1.0hPa | 2.6V | 00:00:00 | 00:00:00 | 00:00:00 | |
| DO3MHA-11 | 2026-09-05 12:54:52 | 46.55639 | 7.80197 | 241° | 18km/h | 31566m | -49.7m/s | -39.9°C | 1.9% | 0hPa | 2.7V | 08:28:00 | 02:21:12 | 00:00:00 | |
| IW2NTF | 2026-09-05 12:54:49 | 46.55655 | 7.80177 | 145° | 26km/h | 31857m | -48.4m/s | -38.6°C | 1.6% | 0hPa | 2.7V | 08:28:46 | 02:21:06 | 00:00:00 | |
| DL6DJ-15 | 2026-09-05 12:54:49 | 46.55646 | 7.80187 | 128° | 18km/h | 31761m | -48.2m/s | -38.8°C | 0.1% | -1.0hPa | 2.6V | 00:00:00 | 00:00:00 | 00:00:00 | |
| DM0DOS-11 | 2026-09-05 12:54:48 | 46.55672 | 7.80170 | 184° | 26km/h | 31997m | -45.9m/s | -38.5°C | 1.7% | 0hPa | 2.6V | 08:28:49 | 02:21:03 | 00:00:00 | |
| BIOWL1-15 | 2026-09-05 12:54:46 | 46.55666 | 7.80170 | 170° | 26km/h | 31951m | -46.1m/s | -38.7°C | 0% | 0hPa | 2.6V | 08:29:37 | 02:21:04 | 00:00:00 | |
| DB0UT-7 | 2026-09-05 12:54:46 | 46.55654 | 7.80177 | 146° | 15km/h | 31857m | -48.4m/s | -38.5°C | 1.6% | 0hPa | 2.7V | 00:00:00 | 00:00:00 | 00:00:00 | |
| IW2NTF | 2026-09-05 12:54:40 | 46.55698 | 7.80174 | 87° | 13km/h | 32300m | -41.4m/s | -38.1°C | 1.6% | 0hPa | 2.7V | 08:28:56 | 02:20:56 | 00:00:00 | |
| DO3MHA-11 | 2026-09-05 12:54:38 | 46.55695 | 7.80179 | 191° | 13km/h | 32216m | -42.8m/s | -38.4°C | 1.7% | 0hPa | 2.6V | 00:00:00 | 02:20:58 | 00:00:00 | |
| DM0DOS-11 | 2026-09-05 12:54:37 | 46.55694 | 7.80144 | 85° | 24km/h | 32463m | -40.5m/s | -37.7°C | 1.6% | 0hPa | 2.6V | 08:29:00 | 02:20:52 | 00:00:00 | |
| BIOWL1-15 | 2026-09-05 12:54:28 | 46.55692 | 7.80112 | 68° | 9km/h | 32727m | -36.2m/s | -37.4°C | 0% | 0hPa | 2.7V | 08:29:37 | 02:20:46 | 00:00:00 | |
| DM0DOS-11 | 2026-09-05 12:54:27 | 46.55691 | 7.80108 | 108° | 2km/h | 32850m | -27.2m/s | -36.5°C | 1.5% | 0hPa | 2.6V | 08:29:10 | 02:20:42 | 00:00:00 | |
| IW2NTF | 2026-09-05 12:54:27 | 46.55691 | 7.80110 | 55° | 4km/h | 32761m | -31.4m/s | -37.2°C | 1.6% | 0hPa | 2.7V | 08:29:07 | 02:20:45 | 00:00:00 | |
| DO3MHA-11 | 2026-09-05 12:54:27 | 46.55693 | 7.80115 | 74° | 7km/h | 32689m | -40.6m/s | -37.5°C | 1.6% | 0hPa | 2.6V | 00:00:00 | 02:20:47 | 00:00:00 | |
| DL1ZP-14 | 2026-09-05 12:54:23 | 46.55691 | 7.80108 | 108° | 2km/h | 32850m | -27.2m/s | -36.5°C | 0.0% | -1.0hPa | 2.6V | 00:00:00 | 00:00:00 | 00:00:00 | |
| DF7PN | 2026-09-05 12:54:21 | 46.55692 | 7.80104 | 107° | 7km/h | 32902m | -24.4m/s | -36.0°C | 0.0% | -1.0hPa | 2.6V | 00:00:00 | 00:00:00 | 00:00:00 | |
| DK5PH-5 | 2026-09-05 12:54:18 | 46.55693 | 7.80096 | 82° | 13km/h | 32950m | -24.7m/s | -35.9°C | 1.4% | 0hPa | 2.6V | 00:00:00 | 02:20:38 | 00:00:00 | |
| DM0DOS-11 | 2026-09-05 12:54:17 | 46.55684 | 7.80076 | 24° | 7km/h | 33116m | -38.3m/s | -36°C | 1.4% | 0hPa | 2.6V | 08:29:20 | 02:20:32 | 00:00:00 | |
| BIOWL1-15 | 2026-09-05 12:54:17 | 46.55689 | 7.80082 | 56° | 13km/h | 33023m | -25.6m/s | -36.1°C | 0% | 0hPa | 2.7V | 08:29:37 | 02:20:35 | 00:00:00 | |
| DO3MHA-11 | 2026-09-05 12:54:17 | 46.55692 | 7.80091 | 72° | 11km/h | 32974m | -24.5m/s | -36.0°C | 1.4% | 0hPa | 2.6V | 00:00:00 | 02:20:37 | 00:00:00 | |
| IW2NTF | 2026-09-05 12:54:16 | 46.55689 | 7.80082 | 56° | 13km/h | 33023m | -25.6m/s | -36.1°C | 1.5% | 0hPa | 2.7V | 08:29:17 | 02:20:35 | 00:00:00 | |
| DB0UT-7 | 2026-09-05 12:54:16 | 46.55691 | 7.80086 | 71° | 13km/h | 32999m | -24.6m/s | -36.0°C | 1.4% | 0hPa | 2.7V | 00:00:00 | 02:20:36 | 00:00:00 | |
| HASLITAL | 2026-09-05 12:54:15 | 46.55691 | 7.80086 | 71° | 15km/h | 32999m | -24.6m/s | -36.1°C | 0.1% | 0hPa | 2.7V | 08:29:00 | 00:00:00 | 00:00:00 | |
| OE5DXL-15 | 2026-09-05 12:54:14 | 46.55686 | 7.80077 | 33° | 13km/h | 33080m | -33.1m/s | -36.0°C | 1.4% | 0hPa | 2.7V | 00:00:00 | 00:00:00 | 00:00:00 | |
| IW2NTF | 2026-09-05 12:54:10 | 46.55672 | 7.80054 | 51° | 18km/h | 33438m | -50.6m/s | -36.2°C | 1.5% | 0hPa | 2.7V | 08:29:27 | 02:20:25 | 00:00:00 | |
| BIOWL1-15 | 2026-09-05 12:54:05 | 46.55672 | 7.80054 | 52° | 18km/h | 33438m | -50.6m/s | -36.2°C | 0% | 0hPa | 2.7V | 08:29:37 | 02:20:25 | 00:00:00 | |
| IW2NTF | 2026-09-05 12:53:59 | 46.55640 | 7.80017 | 12° | 7km/h | 33883m | -43.3m/s | -36.1°C | 1.5% | 0hPa | 2.6V | 08:29:37 | 02:20:15 | 00:00:00 | |
| DO3MHA-12 | 2026-09-05 12:53:59 | 46.55651 | 7.80028 | 33° | 13km/h | 33706m | -39.9m/s | -36.4°C | 1.5% | 0hPa | 2.7V | 00:00:00 | 02:20:19 | 00:00:00 | |
| DM0DOS-11 | 2026-09-05 12:53:58 | 46.55637 | 7.80017 | 352° | 9km/h | 33925m | -41.3m/s | -35.9°C | 1.5% | 0hPa | 2.7V | 08:30:00 | 02:20:14 | 00:00:00 | |
| BIOWL1-15 | 2026-09-05 12:53:54 | 46.55637 | 7.80017 | 352° | 9km/h | 33925m | -41.3m/s | -35.9°C | 0% | 0hPa | 2.7V | 18:12:15 | 02:20:14 | 00:00:00 | |
| DL1ZP-14 | 2026-09-05 12:53:52 | 46.55631 | 7.80019 | 338° | 11km/h | 34033m | -32.9m/s | -35.2°C | 0.0% | -1.0hPa | 2.6V | 00:00:00 | 00:00:00 | 00:00:00 | |
| IW2NTF | 2026-09-05 12:53:50 | 46.55608 | 7.80013 | 54° | 22km/h | 34231m | -33.5m/s | -35.1°C | 1.4% | 0hPa | 2.7V | 08:30:00 | 02:20:05 | 00:00:00 | |
| DF7PN | 2026-09-05 12:53:50 | 46.55624 | 7.80022 | 350° | 13km/h | 34098m | -33.1m/s | -34.9°C | 0.0% | -1.0hPa | 2.7V | 00:00:00 | 00:00:00 | 00:00:00 | |
| DL6DJ-15 | 2026-09-05 12:53:47 | 46.55612 | 7.80018 | 30° | 18km/h | 34198m | -33.5m/s | -35.0°C | 0.0% | -1.0hPa | 2.7V | 00:00:00 | 00:00:00 | 00:00:00 | |
| BIOWL9-15 | 2026-09-05 12:53:45 | 46.55608 | 7.80013 | 54° | 22km/h | 34231m | -33.5m/s | -35.1°C | 0.0% | -1.0hPa | 2.7V | 00:00:00 | 00:00:00 | 00:00:00 | |
| DM0DOS-11 | 2026-09-05 12:53:44 | 46.55605 | 7.80006 | 61° | 27km/h | 34264m | -34.2m/s | -35.1°C | 1.4% | 0hPa | 2.7V | 08:30:00 | 02:20:04 | 00:00:00 | |
| BIOWL1-15 | 2026-09-05 12:53:44 | 46.55605 | 7.80006 | 62° | 27km/h | 34264m | -34.2m/s | -35.1°C | 0% | 0hPa | 2.7V | 18:12:15 | 02:20:04 | 00:00:00 | |
| IW2NTF | 2026-09-05 12:53:40 | 46.55570 | 7.79978 | 340° | 31km/h | 34579m | -35.8m/s | -35°C | 1.4% | 0hPa | 2.6V | 08:30:00 | 02:19:55 | 00:00:00 | |
| DB0ND-19 | 2026-09-05 12:53:37 | 46.55577 | 7.79975 | 341° | 27km/h | 34543m | -36.9m/s | -35.1°C | 0.0% | -1.0hPa | 2.6V | 00:00:00 | 00:00:00 | 00:00:00 | |
| DM0DOS-11 | 2026-09-05 12:53:34 | 46.55563 | 7.79982 | 345° | 31km/h | 34615m | -36.1m/s | -34.8°C | 1.4% | 0hPa | 2.6V | 08:30:00 | 02:19:54 | 00:00:00 | |
| HASLITAL | 2026-09-05 12:53:33 | 46.55563 | 7.79982 | 346° | 31km/h | 34615m | -36.1m/s | -34.8°C | 0.1% | 0hPa | 2.6V | 00:00:00 | 00:00:00 | 00:00:00 | |
| IW2NTF | 2026-09-05 12:53:30 | 46.55533 | 7.79973 | 284° | 18km/h | 34936m | -35.5m/s | -34°C | 1.3% | 0hPa | 2.6V | 08:30:00 | 02:19:45 | 00:00:00 | |
| BIOWL1-15 | 2026-09-05 12:53:19 | 46.55460 | 7.80090 | 326° | 55km/h | 35207m | -37.7m/s | -33.9°C | 0% | 0hPa | 2.6V | 18:12:15 | 02:19:37 | 00:00:00 | |
| DF7PN | 2026-09-05 12:53:19 | 46.55472 | 7.80078 | 325° | 64km/h | 35170m | -38.3m/s | -34.0°C | 0.0% | -1.0hPa | 2.6V | 00:00:00 | 00:00:00 | 00:00:00 | |
| DK5PH-5 | 2026-09-05 12:53:18 | 46.55472 | 7.80078 | 326° | 40km/h | 35170m | -38.3m/s | -33.9°C | 1.3% | 0hPa | 2.6V | 00:00:00 | 02:19:38 | 00:00:00 | |
| DO3MHA-12 | 2026-09-05 12:53:17 | 46.55460 | 7.80090 | 326° | 38km/h | 35208m | -37.7m/s | -33.8°C | 1.3% | 0hPa | 2.6V | 00:00:00 | 02:19:37 | 08:30:00 | |
| IW2NTF | 2026-09-05 12:53:16 | 46.55441 | 7.80103 | 354° | 26km/h | 35290m | -47.4m/s | -33.6°C | 1.3% | 0hPa | 2.6V | 08:30:00 | 02:19:35 | 00:00:00 | |
| BIOWL1-15 | 2026-09-05 12:53:08 | 46.55395 | 7.80049 | 41° | 40km/h | 35707m | -49.3m/s | -33.3°C | 0% | 0hPa | 2.7V | 18:12:15 | 02:19:28 | 00:00:00 | |
| DO3MHA-11 | 2026-09-05 12:53:07 | 46.55388 | 7.80040 | 37° | 46km/h | 35753m | -42.8m/s | -32.9°C | 1.3% | 0hPa | 2.6V | 00:00:00 | 02:19:27 | 00:00:00 | |
| IW2NTF | 2026-09-05 12:53:06 | 46.55370 | 7.80025 | 23° | 42km/h | 35823m | -28.3m/s | -32.6°C | 1.2% | 0hPa | 2.6V | 08:30:00 | 02:19:25 | 00:00:00 | |
| DB0ND-19 | 2026-09-05 12:53:06 | 46.55291 | 7.80011 | 338° | 60km/h | 35847m | 5.8m/s | -32.7°C | 0.0% | -1.0hPa | 2.6V | 00:00:00 | 00:00:00 | 00:00:00 | |
| DO3MHA-11 | 2026-09-05 12:52:57 | 46.55278 | 7.80020 | 335° | 37km/h | 35842m | 4.3m/s | -32.7°C | 1.3% | 0hPa | 2.6V | 00:00:00 | 02:19:17 | 00:00:00 | |
| DM0DOS-11 | 2026-09-05 12:52:56 | 46.55245 | 7.80038 | 352° | 33km/h | 35826m | 6m/s | -32.9°C | 1.3% | 0hPa | 2.6V | 08:30:00 | 02:19:14 | 00:00:00 | |
| BIOWL1-15 | 2026-09-05 12:52:55 | 46.55231 | 7.80035 | 27° | 26km/h | 35814m | 5.9m/s | -33°C | 0% | 0hPa | 2.7V | 18:12:15 | 02:19:12 | 00:00:00 | |
| DL1ZP-14 | 2026-09-05 12:52:50 | 46.55212 | 7.80022 | 11° | 29km/h | 35798m | 5.4m/s | -33.1°C | 0.0% | -1.0hPa | 2.6V | 00:00:00 | 00:00:00 | 00:00:00 | |
| DF7PN | 2026-09-05 12:52:48 | 46.55195 | 7.80023 | 347° | 40km/h | 35787m | 5.9m/s | -33.4°C | 0.0% | -1.0hPa | 2.7V | 00:00:00 | 00:00:00 | 00:00:00 | |
| DO3MHA-11 | 2026-09-05 12:52:47 | 46.55195 | 7.80023 | 348° | 42km/h | 35787m | 5.8m/s | -33.3°C | 1.3% | 0hPa | 2.7V | 00:00:00 | 02:19:07 | 00:00:00 | |
| IW2NTF | 2026-09-05 12:52:46 | 46.55162 | 7.80040 | 339° | 47km/h | 35770m | 4.8m/s | -33.5°C | 1.3% | 0hPa | 2.6V | 08:30:00 | 02:19:04 | 00:00:00 | |
| BIOWL1-15 | 2026-09-05 12:52:43 | 46.55151 | 7.80046 | 344° | 44km/h | 35765m | 5.2m/s | -33.6°C | 0% | 0hPa | 2.6V | 18:12:15 | 02:19:03 | 00:00:00 | |
| DO3MHA-12 | 2026-09-05 12:52:38 | 46.55102 | 7.80043 | 6° | 44km/h | 35740m | 3.8m/s | -34.1°C | 1.4% | 0hPa | 2.7V | 00:00:00 | 02:18:58 | 00:00:00 | |
| DO3MHA-11 | 2026-09-05 12:52:37 | 46.55092 | 7.80043 | 357° | 40km/h | 35736m | 4.9m/s | -34.1°C | 1.4% | 0hPa | 2.7V | 00:00:00 | 02:18:57 | 00:00:00 | |
| IW2NTF | 2026-09-05 12:52:36 | 46.55060 | 7.80061 | 326° | 53km/h | 35716m | 5.9m/s | -34.4°C | 1.4% | 0hPa | 2.7V | 08:30:00 | 02:18:54 | 00:00:00 | |
| BIOWL1-15 | 2026-09-05 12:52:31 | 46.55024 | 7.80097 | 340° | 27km/h | 35699m | 6.4m/s | -34.5°C | 0% | 0hPa | 2.6V | 18:12:15 | 02:18:50 | 00:00:00 | |
| HASLITAL | 2026-09-05 12:52:31 | 46.55040 | 7.80083 | 323° | 46km/h | 35708m | 3.1m/s | -34.5°C | 0.0% | 0hPa | 2.6V | 00:00:00 | 00:00:00 | 00:00:00 | |
| DO3MHA-11 | 2026-09-05 12:52:27 | 46.55004 | 7.80087 | 36° | 47km/h | 35680m | 4.6m/s | -34.5°C | 1.4% | 0hPa | 2.6V | 00:00:00 | 02:18:47 | 00:00:00 | |
| IW2NTF | 2026-09-05 12:52:26 | 46.54970 | 7.80067 | 7° | 58km/h | 35665m | 6.2m/s | -34.8°C | 1.5% | 0hPa | 2.6V | 08:30:00 | 02:18:44 | 00:00:00 | |
| BIOWL1-15 | 2026-09-05 12:52:20 | 46.54908 | 7.80097 | 318° | 35km/h | 35638m | 6.1m/s | -34.8°C | 0% | 0hPa | 2.6V | 18:12:15 | 02:18:39 | 00:00:00 | |
| DL1ZP-14 | 2026-09-05 12:52:19 | 46.54903 | 7.80104 | 315° | 20km/h | 35633m | 6.3m/s | -34.7°C | 0.0% | -1.0hPa | 2.6V | 00:00:00 | 00:00:00 | 00:00:00 | |
| DK5PH-5 | 2026-09-05 12:52:18 | 46.54903 | 7.80103 | 316° | 31km/h | 35633m | 6.2m/s | 0°C | 0% | 0hPa | 2.6V | 00:00:00 | 02:18:38 | 00:00:00 | |
| DF7PN | 2026-09-05 12:52:17 | 46.54898 | 7.80106 | 36° | 9km/h | 35622m | 4.3m/s | -34.7°C | 0.0% | -1.0hPa | 2.6V | 00:00:00 | 00:00:00 | 00:00:00 | |
| IW2NTF | 2026-09-05 12:52:16 | 46.54890 | 7.80098 | 29° | 29km/h | 35613m | 4.9m/s | -34.5°C | 1.4% | 0hPa | 2.6V | 08:30:00 | 02:18:34 | 00:00:00 | |
| BIOWL1-15 | 2026-09-05 12:52:07 | 46.54810 | 7.80100 | 342° | 35km/h | 35576m | 5.3m/s | -34.5°C | 0% | 0hPa | 2.7V | 18:12:15 | 02:18:27 | 00:00:00 | |
| DO3MHA-11 | 2026-09-05 12:52:07 | 46.54810 | 7.80100 | 342° | 26km/h | 35576m | 5.3m/s | -34.5°C | 1.5% | 0hPa | 2.6V | 00:00:00 | 02:18:27 | 00:00:00 | |
| IW2NTF | 2026-09-05 12:52:06 | 46.54795 | 7.80105 | 2° | 11km/h | 35558m | 5.5m/s | -34.4°C | 1.5% | 0hPa | 2.6V | 08:30:00 | 02:18:24 | 00:00:00 | |
| DM0DOS-11 | 2026-09-05 12:52:06 | 46.54784 | 7.80107 | 345° | 24km/h | 35543m | 5.5m/s | -34.5°C | 1.5% | 0hPa | 2.7V | 08:30:00 | 02:18:21 | 00:00:00 | |
| DB0ND-19 | 2026-09-05 12:52:04 | 46.54792 | 7.80105 | 4° | 11km/h | 35553m | 4.4m/s | -34.5°C | 0.0% | -1.0hPa | 2.7V | 00:00:00 | 00:00:00 | 00:00:00 | |
| DO3MHA-12 | 2026-09-05 12:52:03 | 46.54792 | 7.80105 | 5° | 35km/h | 35553m | 4.4m/s | -34.4°C | 1.5% | 0hPa | 2.7V | 00:00:00 | 02:18:23 | 00:00:00 | |
| OE5DXL-15 | 2026-09-05 12:52:02 | 46.54777 | 7.80110 | 340° | 47km/h | 35538m | 6.3m/s | -34.3°C | 1.5% | 0hPa | 2.6V | 00:00:00 | 00:00:00 | 00:00:00 | |
| DO3MHA-11 | 2026-09-05 12:51:57 | 46.54746 | 7.80128 | 338° | 33km/h | 35520m | 4.6m/s | -34.4°C | 1.4% | 0hPa | 2.6V | 00:00:00 | 02:18:17 | 00:00:00 | |
| IW2NTF | 2026-09-05 12:51:56 | 46.54715 | 7.80140 | 0° | 35km/h | 35505m | 5.9m/s | -34.4°C | 1.4% | 0hPa | 2.6V | 08:30:00 | 02:18:14 | 00:00:00 | |
| DM0DOS-11 | 2026-09-05 12:51:56 | 46.54694 | 7.80132 | 21° | 24km/h | 35488m | 4m/s | -34.2°C | 1.4% | 0hPa | 2.7V | 08:30:00 | 02:18:11 | 00:00:00 | |
| BIOWL1-15 | 2026-09-05 12:51:54 | 46.54715 | 7.80140 | 0° | 35km/h | 35505m | 5.9m/s | -34.4°C | 0% | 0hPa | 2.6V | 18:12:15 | 02:18:14 | 00:00:00 | |
| DO3MHA-12 | 2026-09-05 12:51:53 | 46.54707 | 7.80138 | 14° | 37km/h | 35500m | 6.3m/s | -34.4°C | 1.5% | 0hPa | 2.6V | 00:00:00 | 02:18:13 | 00:00:00 | |
| HASLITAL | 2026-09-05 12:51:50 | 46.54694 | 7.80132 | 22° | 24km/h | 35489m | 4.0m/s | -34.2°C | 0.0% | 0hPa | 2.6V | 00:00:00 | 00:00:00 | 00:00:00 | |
| DK5PH-5 | 2026-09-05 12:51:48 | 46.54675 | 7.80137 | 326° | 35km/h | 35475m | 6.8m/s | -34.3°C | 1.4% | 0hPa | 2.6V | 00:00:00 | 02:18:08 | 00:00:00 | |
| DO3MHA-11 | 2026-09-05 12:51:47 | 46.54668 | 7.80146 | 318° | 37km/h | 35468m | 7.5m/s | -34.4°C | 1.4% | 0hPa | 2.6V | 00:00:00 | 02:18:07 | 08:30:00 | |
| IW2NTF | 2026-09-05 12:51:46 | 46.54640 | 7.80186 | 318° | 49km/h | 35453m | 2.4m/s | -34.2°C | 1.4% | 0hPa | 2.6V | 08:30:00 | 02:18:04 | 00:00:00 | |
| DF7PN | 2026-09-05 12:51:46 | 46.54649 | 7.80173 | 314° | 55km/h | 35457m | 3.4m/s | -34.3°C | 0.0% | -1.0hPa | 2.6V | 00:00:00 | 00:00:00 | 00:00:00 | |
| BIOWL1-15 | 2026-09-05 12:51:43 | 46.54631 | 7.80196 | 326° | 40km/h | 35450m | 4.1m/s | -34.4°C | 0% | 0hPa | 2.6V | 18:12:15 | 02:18:03 | 00:00:00 | |
| DM0DOS-11 | 2026-09-05 12:51:41 | 46.54617 | 7.80204 | 4° | 22km/h | 35438m | 8m/s | -34.4°C | 1.4% | 0hPa | 2.7V | 08:30:00 | 02:18:01 | 00:00:00 | |
| IW2NTF | 2026-09-05 12:51:37 | 46.54577 | 7.80207 | 312° | 51km/h | 35399m | 7m/s | -34.2°C | 1.4% | 0hPa | 2.6V | 08:30:00 | 02:17:54 | 00:00:00 | |
| DM0DOS-11 | 2026-09-05 12:51:36 | 46.54554 | 7.80256 | 299° | 49km/h | 35382m | 4.9m/s | -34.1°C | 1.4% | 0hPa | 2.7V | 08:30:00 | 02:17:51 | 00:00:00 | |
| BIOWL1-15 | 2026-09-05 12:51:35 | 46.54568 | 7.80223 | 306° | 57km/h | 35393m | 5.7m/s | -34.2°C | 0% | 0hPa | 2.6V | 18:12:15 | 02:17:53 | 00:00:00 | |
| DO3MHA-12 | 2026-09-05 12:51:33 | 46.54568 | 7.80223 | 306° | 35km/h | 35393m | 5.7m/s | -34.1°C | 1.4% | 0hPa | 2.6V | 00:00:00 | 02:17:53 | 08:30:00 | |
| DB0ND-19 | 2026-09-05 12:51:32 | 46.54548 | 7.80270 | 299° | 38km/h | 35378m | 5.1m/s | -34.2°C | 0.0% | -1.0hPa | 2.7V | 00:00:00 | 00:00:00 | 00:00:00 | |
| OE5DXL-15 | 2026-09-05 12:51:31 | 46.54548 | 7.80270 | 300° | 33km/h | 35378m | 5.0m/s | -34.1°C | 1.4% | 0hPa | 2.7V | 00:00:00 | 00:00:00 | 00:00:00 | |
| HASLITAL | 2026-09-05 12:51:29 | 46.54548 | 7.80270 | 300° | 38km/h | 35378m | 5.1m/s | -34.2°C | 0.1% | 0hPa | 2.7V | 00:00:00 | 00:00:00 | 00:00:00 | |
| DO3MHA-11 | 2026-09-05 12:51:27 | 46.54536 | 7.80291 | 335° | 29km/h | 35361m | 5.7m/s | -34.2°C | 1.4% | 0hPa | 2.7V | 00:00:00 | 02:17:47 | 00:00:00 | |
| IW2NTF | 2026-09-05 12:51:26 | 46.54522 | 7.80297 | 340° | 27km/h | 35343m | 5.7m/s | -34.4°C | 1.5% | 0hPa | 2.7V | 08:30:00 | 02:17:44 | 00:00:00 | |
| BIOWL1-15 | 2026-09-05 12:51:24 | 46.54508 | 7.80308 | 323° | 37km/h | 35333m | 5m/s | -34.3°C | 0% | 0hPa | 2.6V | 18:12:15 | 02:17:42 | 00:00:00 | |
| DO3MHA-12 | 2026-09-05 12:51:23 | 46.54515 | 7.80301 | 332° | 33km/h | 35338m | 5.2m/s | -34.4°C | 1.5% | 0hPa | 2.6V | 00:00:00 | 02:17:43 | 00:00:00 | |
| DM0DOS-11 | 2026-09-05 12:51:21 | 46.54501 | 7.80317 | 314° | 37km/h | 35327m | 5.1m/s | -34.3°C | 1.4% | 0hPa | 2.6V | 08:30:00 | 02:17:41 | 00:00:00 | |
| DK5PH-5 | 2026-09-05 12:51:18 | 46.54485 | 7.80349 | 297° | 31km/h | 35310m | 6.0m/s | -34.4°C | 1.4% | 0hPa | 2.7V | 00:00:00 | 02:17:38 | 00:00:00 | |
| DO3MHA-11 | 2026-09-05 12:51:17 | 46.54482 | 7.80360 | 296° | 31km/h | 35305m | 5.2m/s | -34.2°C | 1.4% | 0hPa | 2.6V | 00:00:00 | 02:17:37 | 00:00:00 | |
| IW2NTF | 2026-09-05 12:51:16 | 46.54469 | 7.80388 | 314° | 33km/h | 35289m | 5.6m/s | -34.3°C | 1.4% | 0hPa | 2.7V | 08:30:00 | 02:17:34 | 00:00:00 | |
| DM0DOS-11 | 2026-09-05 12:51:16 | 46.54448 | 7.80413 | 323° | 38km/h | 35271m | 4.8m/s | -34.3°C | 1.4% | 0hPa | 2.7V | 08:30:00 | 02:17:31 | 00:00:00 | |
| BIOWL1-15 | 2026-09-05 12:51:11 | 46.54448 | 7.80413 | 324° | 38km/h | 35271m | 4.8m/s | -34.3°C | 0% | 0hPa | 2.7V | 18:12:15 | 02:17:31 | 00:00:00 | |
| BIOWL9-15 | 2026-09-05 12:51:10 | 46.54441 | 7.80421 | 319° | 33km/h | 35267m | 4.1m/s | -34.3°C | 0.0% | -1.0hPa | 2.6V | 00:00:00 | 00:00:00 | 00:00:00 | |
| DO3MHA-11 | 2026-09-05 12:51:07 | 46.54430 | 7.80443 | 274° | 37km/h | 35249m | 7.0m/s | -34.4°C | 1.4% | 0hPa | 2.6V | 00:00:00 | 02:17:27 | 00:00:00 | |
| IW2NTF | 2026-09-05 12:51:06 | 46.54432 | 7.80471 | 273° | 31km/h | 35233m | 4.3m/s | -34.4°C | 1.4% | 0hPa | 2.6V | 08:30:00 | 02:17:24 | 00:00:00 | |
| DM0DOS-11 | 2026-09-05 12:51:01 | 46.54420 | 7.80509 | 308° | 47km/h | 35215m | 6.5m/s | -34.6°C | 1.4% | 0hPa | 2.7V | 08:30:00 | 02:17:21 | 00:00:00 | |
| BIOWL1-15 | 2026-09-05 12:51:00 | 46.54412 | 7.80522 | 316° | 49km/h | 35209m | 4.9m/s | -34.6°C | 0% | 0hPa | 2.6V | 18:12:15 | 02:17:20 | 00:00:00 | |
| IW2NTF | 2026-09-05 12:50:57 | 46.54383 | 7.80554 | 211° | 7km/h | 35176m | 4.4m/s | -34.4°C | 1.4% | 0hPa | 2.6V | 08:30:00 | 02:17:14 | 00:00:00 | |
| DM0DOS-11 | 2026-09-05 12:50:56 | 46.54385 | 7.80570 | 283° | 27km/h | 35163m | 6.3m/s | -34.5°C | 1.5% | 0hPa | 2.7V | 08:30:00 | 02:17:11 | 00:00:00 | |
| BIOWL1-15 | 2026-09-05 12:50:53 | 46.54376 | 7.80595 | 305° | 49km/h | 35149m | 7m/s | -34.5°C | 0% | 0hPa | 2.7V | 18:12:15 | 02:17:09 | 00:00:00 | |
| DO3MHA-12 | 2026-09-05 12:50:52 | 46.54386 | 7.80562 | 265° | 35km/h | 35169m | 4.3m/s | -34.4°C | 1.5% | 0hPa | 2.7V | 00:00:00 | 02:17:12 | 00:00:00 | |
| HASLITAL | 2026-09-05 12:50:49 | 46.54382 | 7.80582 | 298° | 38km/h | 35157m | 7.4m/s | -34.5°C | 0.0% | 0hPa | 2.7V | 00:00:00 | 00:00:00 | 00:00:00 | |
| DK5PH-5 | 2026-09-05 12:50:48 | 46.54368 | 7.80610 | 313° | 20km/h | 35143m | 5.2m/s | -34.4°C | 1.4% | 0hPa | 2.7V | 00:00:00 | 02:17:08 | 00:00:00 | |
| IW2NTF | 2026-09-05 12:50:47 | 46.54335 | 7.80647 | 341° | 20km/h | 35122m | 6.1m/s | -34.2°C | 1.4% | 0hPa | 2.7V | 08:30:00 | 02:17:04 | 00:00:00 | |
| DL1ZP-14 | 2026-09-05 12:50:45 | 46.54341 | 7.80642 | 329° | 31km/h | 35129m | 5.7m/s | -34.2°C | 0.0% | -1.0hPa | 2.7V | 00:00:00 | 00:00:00 | 00:00:00 | |
| DF7PN | 2026-09-05 12:50:43 | 46.54332 | 7.80648 | 358° | 9km/h | 35117m | 6.0m/s | -34.3°C | 0.0% | -1.0hPa | 2.6V | 00:00:00 | 00:00:00 | 00:00:00 | |
| DM0DOS-11 | 2026-09-05 12:50:41 | 46.54329 | 7.80647 | 30° | 2km/h | 35105m | 5.5m/s | -34.4°C | 1.5% | 0hPa | 2.6V | 08:30:00 | 02:17:01 | 00:00:00 | |
| BIOWL1-15 | 2026-09-05 12:50:39 | 46.54328 | 7.80651 | 296° | 15km/h | 35094m | 5.9m/s | -34.2°C | 0% | 0hPa | 2.7V | 18:12:15 | 02:16:59 | 00:00:00 | |
| DO3MHA-11 | 2026-09-05 12:50:37 | 46.54322 | 7.80665 | 304° | 22km/h | 35082m | 6.1m/s | -34.2°C | 1.5% | 0hPa | 2.7V | 00:00:00 | 02:16:57 | 00:00:00 | |
| DM0DOS-11 | 2026-09-05 12:50:36 | 46.54293 | 7.80709 | 357° | 11km/h | 35047m | 6.4m/s | -34°C | 1.4% | 0hPa | 2.7V | 08:30:00 | 02:16:51 | 00:00:00 | |
| BIOWL1-15 | 2026-09-05 12:50:31 | 46.54288 | 7.80706 | 24° | 11km/h | 35036m | 4.8m/s | -34.1°C | 0% | 0hPa | 2.6V | 18:12:15 | 02:16:49 | 00:00:00 | |
| HASLITAL | 2026-09-05 12:50:29 | 46.54288 | 7.80706 | 25° | 11km/h | 35036m | 4.8m/s | -34.1°C | 0.0% | 0hPa | 2.7V | 00:00:00 | 00:00:00 | 00:00:00 | |
| DM0DOS-11 | 2026-09-05 12:50:27 | 46.54259 | 7.80735 | 285° | 7km/h | 34990m | 7m/s | -34.1°C | 1.4% | 0hPa | 2.7V | 08:30:00 | 02:16:41 | 00:00:00 | |
| DO3MHA-11 | 2026-09-05 12:50:27 | 46.54281 | 7.80706 | 347° | 15km/h | 35025m | 6.6m/s | -34.2°C | 1.4% | 0hPa | 2.6V | 00:00:00 | 02:16:47 | 00:00:00 | |
| IW2NTF | 2026-09-05 12:50:26 | 46.54267 | 7.80719 | 315° | 26km/h | 35007m | 5m/s | -34.3°C | 1.4% | 0hPa | 2.6V | 08:30:00 | 02:16:44 | 00:00:00 | |
| DO3MHA-12 | 2026-09-05 12:50:22 | 46.54260 | 7.80731 | 302° | 13km/h | 34997m | 6.1m/s | -34.1°C | 1.4% | 0hPa | 2.7V | 00:00:00 | 02:16:42 | 00:00:00 | |
| IW2NTF | 2026-09-05 12:50:20 | 46.54248 | 7.80734 | 343° | 26km/h | 34948m | 6.2m/s | -34.6°C | 1.4% | 0hPa | 2.7V | 08:30:00 | 02:16:34 | 00:00:00 | |
| DK5PH-5 | 2026-09-05 12:50:18 | 46.54260 | 7.80734 | 94° | 15km/h | 34973m | 4.6m/s | -34.1°C | 1.4% | 0hPa | 2.6V | 00:00:00 | 02:16:38 | 00:00:00 | |
| BIOWL1-15 | 2026-09-05 12:50:18 | 46.54261 | 7.80734 | 94° | 5km/h | 34972m | 4.7m/s | -34.2°C | 0% | 0hPa | 2.6V | 18:12:15 | 02:16:38 | 00:00:00 | |
| DO3MHA-11 | 2026-09-05 12:50:17 | 46.54260 | 7.80732 | 41° | 16km/h | 34968m | 5.2m/s | -34.2°C | 1.4% | 0hPa | 2.6V | 00:00:00 | 02:16:37 | 08:30:00 | |
| DM0DOS-11 | 2026-09-05 12:50:16 | 46.54230 | 7.80742 | 344° | 20km/h | 34932m | 6.2m/s | -34.7°C | 1.4% | 0hPa | 2.6V | 08:30:00 | 02:16:31 | 00:00:00 | |
| DB0UT-7 | 2026-09-05 12:50:16 | 46.54258 | 7.80732 | 5° | 16km/h | 34962m | 6.7m/s | -34.3°C | 1.3% | 0hPa | 2.7V | 00:00:00 | 02:16:36 | 00:00:00 | |
| DL1ZP-14 | 2026-09-05 12:50:14 | 46.54248 | 7.80734 | 343° | 26km/h | 34948m | 6.2m/s | -34.6°C | 0.0% | -1.0hPa | 2.7V | 00:00:00 | 00:00:00 | 00:00:00 | |
| DO3MHA-12 | 2026-09-05 12:50:12 | 46.54236 | 7.80740 | 343° | 13km/h | 34938m | 5.0m/s | -34.6°C | 1.4% | 0hPa | 2.7V | 00:00:00 | 02:16:32 | 00:00:00 | |
| DH7VM-15 | 2026-09-05 12:50:10 | 46.54230 | 7.80742 | 346° | 20km/h | 34933m | 6.2m/s | -34.7°C | 0.0% | 0hPa | 2.7V | 00:00:00 | 00:00:00 | 00:00:00 | |
| DL6DJ-15 | 2026-09-05 12:50:09 | 46.54224 | 7.80744 | 354° | 5km/h | 34920m | 6.0m/s | -34.6°C | 0.0% | -1.0hPa | 2.7V | 00:00:00 | 00:00:00 | 00:00:00 | |
| DO3MHA-11 | 2026-09-05 12:50:07 | 46.54222 | 7.80745 | 311° | 15km/h | 34909m | 5.5m/s | -34.5°C | 1.4% | 0hPa | 2.7V | 00:00:00 | 02:16:27 | 00:00:00 | |
| IW2NTF | 2026-09-05 12:50:05 | 46.54217 | 7.80752 | 327° | 16km/h | 34890m | 5.9m/s | -34.6°C | 1.4% | 0hPa | 2.7V | 08:30:00 | 02:16:24 | 00:00:00 | |
| DO3MHA-12 | 2026-09-05 12:50:02 | 46.54208 | 7.80756 | 355° | 20km/h | 34879m | 5.4m/s | -34.5°C | 1.4% | 0hPa | 2.7V | 00:00:00 | 02:16:22 | 08:30:00 | |
| DM0DOS-11 | 2026-09-05 12:50:00 | 46.54187 | 7.80744 | 19° | 20km/h | 34849m | 5.5m/s | -34.2°C | 1.4% | 0hPa | 2.6V | 08:30:00 | 02:16:17 | 00:00:00 | |
| IW2NTF | 2026-09-05 12:50:00 | 46.54171 | 7.80746 | 331° | 24km/h | 34830m | 5.7m/s | -34.4°C | 1.4% | 0hPa | 2.7V | 08:30:00 | 02:16:14 | 00:00:00 | |
| DB0ND-19 | 2026-09-05 12:49:59 | 46.54154 | 7.80754 | 40° | 16km/h | 34791m | 5.0m/s | -34.5°C | 0.0% | -1.0hPa | 2.7V | 00:00:00 | 00:00:00 | 00:00:00 | |
| DO3MHA-11 | 2026-09-05 12:49:57 | 46.54187 | 7.80744 | 20° | 16km/h | 34849m | 5.4m/s | -34.2°C | 1.4% | 0hPa | 2.7V | 00:00:00 | 02:16:17 | 00:00:00 | |
| OE5DXL-15 | 2026-09-05 12:49:56 | 46.54177 | 7.80743 | 347° | 20km/h | 34837m | 6.7m/s | -34.3°C | 1.5% | 0hPa | 2.7V | 00:00:00 | 00:00:00 | 00:00:00 | |
| DO3MHA-12 | 2026-09-05 12:49:52 | 46.54162 | 7.80756 | 317° | 20km/h | 34820m | 5.2m/s | -34.2°C | 1.4% | 0hPa | 2.7V | 00:00:00 | 02:16:12 | 00:00:00 | |
| DM0DOS-11 | 2026-09-05 12:49:50 | 46.54154 | 7.80754 | 40° | 16km/h | 34791m | 5m/s | -34.5°C | 1.4% | 0hPa | 2.7V | 08:30:00 | 02:16:07 | 00:00:00 | |
| DK5PH-5 | 2026-09-05 12:49:48 | 46.54156 | 7.80758 | 58° | 24km/h | 34796m | 4.6m/s | -34.3°C | 1.4% | 0hPa | 2.6V | 00:00:00 | 02:16:08 | 00:00:00 | |
| DO3MHA-11 | 2026-09-05 12:49:47 | 46.54154 | 7.80754 | 41° | 26km/h | 34791m | 4.9m/s | -34.4°C | 1.4% | 0hPa | 2.7V | 00:00:00 | 02:16:07 | 00:00:00 | |
| DB0UT-7 | 2026-09-05 12:49:46 | 46.54150 | 7.80750 | 27° | 24km/h | 34786m | 6.5m/s | -34.5°C | 1.4% | 0hPa | 2.6V | 00:00:00 | 00:00:00 | 00:00:00 | |
| IW2NTF | 2026-09-05 12:49:44 | 46.54116 | 7.80741 | 3° | 37km/h | 34761m | 4.6m/s | -34.5°C | 1.4% | 0hPa | 2.6V | 08:30:00 | 02:16:02 | 00:00:00 | |
| DL1ZP-14 | 2026-09-05 12:49:43 | 46.54126 | 7.80742 | 4° | 37km/h | 34766m | 5.2m/s | -34.4°C | 0.0% | -1.0hPa | 2.6V | 00:00:00 | 00:00:00 | 00:00:00 | |
| DO3MHA-12 | 2026-09-05 12:49:42 | 46.54116 | 7.80741 | 4° | 20km/h | 34761m | 4.6m/s | -34.4°C | 1.4% | 0hPa | 2.6V | 00:00:00 | 02:16:02 | 00:00:00 | |
| DF7PN | 2026-09-05 12:49:41 | 46.54108 | 7.80740 | 6° | 29km/h | 34756m | 5.7m/s | -34.6°C | 0.0% | -1.0hPa | 2.6V | 00:00:00 | 00:00:00 | 00:00:00 | |
| DM0DOS-11 | 2026-09-05 12:49:40 | 46.54092 | 7.80733 | 27° | 7km/h | 34731m | 5.1m/s | -34.8°C | 1.5% | 0hPa | 2.6V | 08:30:00 | 02:15:57 | 00:00:00 | |
| BIOWL1-15 | 2026-09-05 12:49:35 | 46.54088 | 7.80733 | 343° | 15km/h | 34720m | 6.5m/s | -34.9°C | 0% | 0hPa | 2.7V | 18:12:15 | 02:15:55 | 00:00:00 | |
| IW2NTF | 2026-09-05 12:49:34 | 46.54069 | 7.80739 | 354° | 33km/h | 34702m | 5.2m/s | -35.1°C | 1.5% | 0hPa | 2.6V | 08:30:00 | 02:15:52 | 00:00:00 | |
| DO3MHA-12 | 2026-09-05 12:49:32 | 46.54069 | 7.80739 | 355° | 26km/h | 34702m | 5.2m/s | -35.0°C | 1.5% | 0hPa | 2.6V | 00:00:00 | 02:15:52 | 00:00:00 | |
| DM0DOS-11 | 2026-09-05 12:49:28 | 46.54030 | 7.80716 | 40° | 20km/h | 34667m | 4.3m/s | -34.7°C | 1.5% | 0hPa | 2.6V | 08:30:00 | 02:15:46 | 00:00:00 | |
| BIOWL1-15 | 2026-09-05 12:49:25 | 46.54019 | 7.80714 | 332° | 20km/h | 34649m | 7.1m/s | -35.1°C | 0% | 0hPa | 2.7V | 18:12:15 | 02:15:43 | 00:00:00 | |
| HASLITAL | 2026-09-05 12:49:24 | 46.54027 | 7.80712 | 23° | 16km/h | 34663m | 5.4m/s | -34.8°C | 0.1% | 0hPa | 2.7V | 00:00:00 | 00:00:00 | 00:00:00 | |
| IW2NTF | 2026-09-05 12:49:23 | 46.54014 | 7.80718 | 324° | 24km/h | 34642m | 5.6m/s | -35.1°C | 1.5% | 0hPa | 2.7V | 08:30:00 | 02:15:42 | 00:00:00 | |
| DO3MHA-12 | 2026-09-05 12:49:22 | 46.54014 | 7.80718 | 325° | 24km/h | 34643m | 5.5m/s | -35.0°C | 1.5% | 0hPa | 2.7V | 00:00:00 | 02:15:42 | 00:00:00 | |
| DK5PH-5 | 2026-09-05 12:49:18 | 46.53998 | 7.80725 | 49° | 22km/h | 34622m | 7.3m/s | -35.1°C | 1.5% | 0hPa | 2.7V | 00:00:00 | 02:15:38 | 00:00:00 | |
| IW2NTF | 2026-09-05 12:49:17 | 46.53977 | 7.80672 | 23° | 26km/h | 34585m | 6.5m/s | -35.2°C | 1.6% | 0hPa | 2.7V | 08:30:00 | 02:15:32 | 00:00:00 | |
| DO3MHA-11 | 2026-09-05 12:49:17 | 46.53995 | 7.80718 | 69° | 24km/h | 34615m | 7.2m/s | -35.2°C | 1.5% | 0hPa | 2.7V | 00:00:00 | 02:15:37 | 00:00:00 | |
| DB0UT-7 | 2026-09-05 12:49:16 | 46.53993 | 7.80708 | 74° | 22km/h | 34608m | 5.9m/s | -35.2°C | 1.6% | 0hPa | 2.7V | 00:00:00 | 02:15:36 | 00:00:00 | |
| DM0DOS-11 | 2026-09-05 12:49:15 | 46.53987 | 7.80686 | 59° | 31km/h | 34597m | 5.1m/s | -35.4°C | 1.6% | 0hPa | 2.6V | 08:30:00 | 02:15:34 | 00:00:00 | |
| DO3MHA-12 | 2026-09-05 12:49:12 | 46.53977 | 7.80672 | 24° | 15km/h | 34585m | 6.5m/s | -35.1°C | 1.6% | 0hPa | 2.7V | 00:00:00 | 02:15:32 | 00:00:00 | |
| DF7PN | 2026-09-05 12:49:10 | 46.53966 | 7.80671 | 343° | 18km/h | 34574m | 5.2m/s | -35.1°C | 0.0% | -1.0hPa | 2.7V | 00:00:00 | 00:00:00 | 00:00:00 | |
| DO3MHA-11 | 2026-09-05 12:49:07 | 46.53960 | 7.80676 | 156° | 20km/h | 34555m | 6.0m/s | -35.0°C | 1.6% | 0hPa | 2.7V | 00:00:00 | 02:15:27 | 00:00:00 | |
| DM0DOS-11 | 2026-09-05 12:49:05 | 46.53963 | 7.80663 | 88° | 18km/h | 34540m | 5m/s | -35°C | 1.5% | 0hPa | 2.7V | 08:30:00 | 02:15:24 | 00:00:00 | |
| BIOWL1-15 | 2026-09-05 12:49:05 | 46.53963 | 7.80670 | 108° | 16km/h | 34545m | 4.5m/s | -35°C | 0% | 0hPa | 2.6V | 18:12:15 | 02:15:25 | 00:00:00 | |
| HASLITAL | 2026-09-05 12:49:04 | 46.53963 | 7.80669 | 108° | 16km/h | 34545m | 4.5m/s | -35.0°C | 0.0% | 0hPa | 2.6V | 00:00:00 | 00:00:00 | 00:00:00 | |
| IW2NTF | 2026-09-05 12:49:03 | 46.53959 | 7.80649 | 50° | 24km/h | 34528m | 6.8m/s | -35°C | 1.5% | 0hPa | 2.6V | 08:30:00 | 02:15:22 | 00:00:00 | |
| DO3MHA-12 | 2026-09-05 12:49:02 | 46.53959 | 7.80649 | 51° | 26km/h | 34528m | 6.8m/s | -34.9°C | 1.5% | 0hPa | 2.6V | 00:00:00 | 02:15:22 | 00:00:00 | |
| IW2NTF | 2026-09-05 12:48:57 | 46.53931 | 7.80589 | 83° | 22km/h | 34472m | 4.4m/s | -34.7°C | 1.5% | 0hPa | 2.7V | 08:30:00 | 02:15:12 | 00:00:00 | |
| DO3MHA-11 | 2026-09-05 12:48:57 | 46.53931 | 7.80625 | 44° | 24km/h | 34501m | 5.3m/s | -34.8°C | 1.5% | 0hPa | 2.6V | 00:00:00 | 02:15:17 | 00:00:00 | |
| DM0DOS-11 | 2026-09-05 12:48:55 | 46.53930 | 7.80605 | 105° | 24km/h | 34481m | 5.6m/s | -34.8°C | 1.5% | 0hPa | 2.6V | 08:30:00 | 02:15:14 | 00:00:00 | |
| BIOWL1-15 | 2026-09-05 12:48:53 | 46.53931 | 7.80597 | 100° | 24km/h | 34476m | 4.2m/s | -34.7°C | 0% | 0hPa | 2.6V | 18:12:15 | 02:15:13 | 00:00:00 | |
| DO3MHA-12 | 2026-09-05 12:48:50 | 46.53925 | 7.80576 | 32° | 15km/h | 34460m | 7.5m/s | -34.7°C | 1.5% | 0hPa | 2.6V | 00:00:00 | 02:15:10 | 00:00:00 | |
| DK5PH-5 | 2026-09-05 12:48:48 | 46.53912 | 7.80571 | 360° | 16km/h | 34447m | 5.6m/s | -34.6°C | 1.5% | 0hPa | 2.6V | 00:00:00 | 02:15:08 | 00:00:00 | |
| DO3MHA-11 | 2026-09-05 12:48:47 | 46.53904 | 7.80572 | 354° | 18km/h | 34441m | 4.5m/s | -34.5°C | 1.5% | 0hPa | 2.6V | 00:00:00 | 02:15:07 | 08:30:00 | |
| DB0UT-7 | 2026-09-05 12:48:46 | 46.53898 | 7.80573 | 352° | 15km/h | 34437m | 5.3m/s | -34.5°C | 1.5% | 0hPa | 2.6V | 00:00:00 | 00:00:00 | 00:00:00 | |
| DM0DOS-11 | 2026-09-05 12:48:44 | 46.53893 | 7.80572 | 123° | 9km/h | 34417m | 5.8m/s | -34.6°C | 1.4% | 0hPa | 2.6V | 08:30:00 | 02:15:03 | 00:00:00 | |
| BIOWL1-15 | 2026-09-05 12:48:44 | 46.53894 | 7.80569 | 118° | 15km/h | 34412m | 4.5m/s | -34.6°C | 0% | 0hPa | 2.6V | 18:12:15 | 02:15:02 | 00:00:00 | |
| IW2NTF | 2026-09-05 12:48:44 | 46.53894 | 7.80569 | 117° | 15km/h | 34412m | 4.5m/s | -34.6°C | 1.4% | 0hPa | 2.6V | 08:30:00 | 02:15:02 | 00:00:00 | |
| DL1ZP-14 | 2026-09-05 12:48:41 | 46.53895 | 7.80563 | 100° | 16km/h | 34407m | 5.3m/s | -34.7°C | 0.0% | -1.0hPa | 2.6V | 00:00:00 | 00:00:00 | 00:00:00 | |
| DO3MHA-12 | 2026-09-05 12:48:40 | 46.53895 | 7.80557 | 79° | 18km/h | 34402m | 6.5m/s | -34.7°C | 1.5% | 0hPa | 2.6V | 00:00:00 | 02:15:00 | 00:00:00 | |
| DF7PN | 2026-09-05 12:48:39 | 46.53893 | 7.80550 | 56° | 22km/h | 34395m | 6.8m/s | -34.8°C | 0.0% | -1.0hPa | 2.6V | 00:00:00 | 00:00:00 | 00:00:00 | |
| DO3MHA-11 | 2026-09-05 12:48:37 | 46.53882 | 7.80536 | 32° | 16km/h | 34383m | 5.3m/s | -34.6°C | 1.4% | 0hPa | 2.6V | 00:00:00 | 02:14:57 | 00:00:00 | |
| DL6DJ-15 | 2026-09-05 12:48:36 | 46.53870 | 7.80527 | 25° | 24km/h | 34372m | 5.7m/s | -34.8°C | 0.0% | -1.0hPa | 2.6V | 00:00:00 | 00:00:00 | 00:00:00 | |
| BIOWL9-15 | 2026-09-05 12:48:35 | 46.53870 | 7.80527 | 25° | 24km/h | 34372m | 5.7m/s | -34.8°C | 0.0% | -1.0hPa | 2.6V | 00:00:00 | 00:00:00 | 00:00:00 | |
| DM0DOS-11 | 2026-09-05 12:48:34 | 46.53859 | 7.80512 | 48° | 9km/h | 34337m | 6m/s | -34.6°C | 1.5% | 0hPa | 2.6V | 08:30:00 | 02:14:49 | 00:00:00 | |
| IW2NTF | 2026-09-05 12:48:34 | 46.53861 | 7.80518 | 68° | 5km/h | 34353m | 5.9m/s | -34.5°C | 1.5% | 0hPa | 2.7V | 08:30:00 | 02:14:52 | 00:00:00 | |
| BIOWL1-15 | 2026-09-05 12:48:32 | 46.53861 | 7.80518 | 68° | 5km/h | 34353m | 5.9m/s | -34.5°C | 0% | 0hPa | 2.7V | 18:12:15 | 02:14:52 | 00:00:00 | |
| DO3MHA-12 | 2026-09-05 12:48:30 | 46.53860 | 7.80514 | 74° | 13km/h | 34343m | 4.9m/s | -34.5°C | 1.5% | 0hPa | 2.6V | 00:00:00 | 02:14:50 | 08:30:00 | |
| DO3MHA-11 | 2026-09-05 12:48:27 | 46.53853 | 7.80505 | 29° | 13km/h | 34324m | 6.4m/s | -34.7°C | 1.5% | 0hPa | 2.7V | 00:00:00 | 02:14:47 | 00:00:00 | |
| DB0ND-19 | 2026-09-05 12:48:26 | 46.53842 | 7.80497 | 29° | 24km/h | 34313m | 5.0m/s | -34.8°C | 0.0% | -1.0hPa | 2.7V | 00:00:00 | 00:00:00 | 00:00:00 | |
| IW2NTF | 2026-09-05 12:48:23 | 46.53832 | 7.80485 | 65° | 9km/h | 34295m | 7m/s | -34.7°C | 1.5% | 0hPa | 2.7V | 08:30:00 | 02:14:42 | 00:00:00 | |
| BIOWL1-15 | 2026-09-05 12:48:23 | 46.53832 | 7.80483 | 109° | 5km/h | 34288m | 6.1m/s | -34.7°C | 0% | 0hPa | 2.7V | 18:12:15 | 02:14:41 | 00:00:00 | |
| HASLITAL | 2026-09-05 12:48:20 | 46.53832 | 7.80483 | 110° | 5km/h | 34288m | 6.1m/s | -34.7°C | 0.1% | 0hPa | 2.6V | 00:00:00 | 00:00:00 | 00:00:00 | |
| DO3MHA-12 | 2026-09-05 12:48:19 | 46.53832 | 7.80482 | 335° | 18km/h | 34278m | 5.3m/s | -34.8°C | 1.5% | 0hPa | 2.6V | 00:00:00 | 02:14:39 | 00:00:00 | |
| DM0DOS-11 | 2026-09-05 12:48:18 | 46.53829 | 7.80482 | 359° | 15km/h | 34264m | 6.8m/s | -34.8°C | 1.5% | 0hPa | 2.6V | 08:30:00 | 02:14:37 | 00:00:00 | |
| DK5PH-5 | 2026-09-05 12:48:18 | 46.53831 | 7.80482 | 349° | 16km/h | 34272m | 6.7m/s | -34.8°C | 1.5% | 0hPa | 2.6V | 00:00:00 | 02:14:38 | 08:30:00 | |
| DO3MHA-11 | 2026-09-05 12:48:17 | 46.53829 | 7.80482 | 360° | 18km/h | 34265m | 6.7m/s | -34.8°C | 1.5% | 0hPa | 2.6V | 00:00:00 | 02:14:37 | 00:00:00 | |
| DB0UT-7 | 2026-09-05 12:48:16 | 46.53824 | 7.80482 | 9° | 16km/h | 34259m | 5.9m/s | -34.7°C | 1.5% | 0hPa | 2.6V | 00:00:00 | 02:14:36 | 00:00:00 | |
| IW2NTF | 2026-09-05 12:48:13 | 46.53808 | 7.80466 | 66° | 20km/h | 34234m | 6.3m/s | -34.5°C | 1.5% | 0hPa | 2.6V | 08:30:00 | 02:14:32 | 00:00:00 | |
| BIOWL1-15 | 2026-09-05 12:48:12 | 46.53805 | 7.80452 | 75° | 18km/h | 34223m | 4.8m/s | -34.6°C | 0% | 0hPa | 2.7V | 18:12:15 | 02:14:30 | 00:00:00 | |
| DL1ZP-14 | 2026-09-05 12:48:10 | 46.53805 | 7.80452 | 74° | 18km/h | 34223m | 4.8m/s | -34.6°C | 0.0% | -1.0hPa | 2.7V | 00:00:00 | 00:00:00 | 00:00:00 | |
| DO3MHA-12 | 2026-09-05 12:48:09 | 46.53804 | 7.80445 | 62° | 16km/h | 34218m | 5.2m/s | -34.6°C | 1.4% | 0hPa | 2.7V | 00:00:00 | 02:14:29 | 00:00:00 | |
| DF7PN | 2026-09-05 12:48:08 | 46.53801 | 7.80440 | 40° | 18km/h | 34212m | 6.5m/s | -34.6°C | 0.0% | -1.0hPa | 2.7V | 00:00:00 | 00:00:00 | 00:00:00 | |
| DO3MHA-11 | 2026-09-05 12:48:07 | 46.53797 | 7.80437 | 20° | 15km/h | 34206m | 6.9m/s | -34.6°C | 1.4% | 0hPa | 2.7V | 00:00:00 | 02:14:27 | 00:00:00 | |
| DL6DJ-15 | 2026-09-05 12:48:05 | 46.53785 | 7.80435 | 356° | 24km/h | 34194m | 4.8m/s | -34.6°C | 0.0% | -1.0hPa | 2.7V | 00:00:00 | 00:00:00 | 00:00:00 | |
| IW2NTF | 2026-09-05 12:48:04 | 46.53773 | 7.80437 | 354° | 7km/h | 34176m | 7.1m/s | -34.3°C | 1.4% | 0hPa | 2.7V | 08:30:00 | 02:14:22 | 00:00:00 | |
| BIOWL1-15 | 2026-09-05 12:48:00 | 46.53772 | 7.80435 | 109° | 7km/h | 34164m | 5.6m/s | -34.3°C | 0% | 0hPa | 2.6V | 18:12:15 | 02:14:20 | 00:00:00 | |
| DB0ND-19 | 2026-09-05 12:47:55 | 46.53759 | 7.80417 | 14° | 24km/h | 34134m | 5.5m/s | -34.3°C | 0.0% | -1.0hPa | 2.7V | 00:00:00 | 00:00:00 | 00:00:00 | |
| IW2NTF | 2026-09-05 12:47:54 | 46.53745 | 7.80415 | 350° | 11km/h | 34116m | 6.8m/s | -34.5°C | 1.4% | 0hPa | 2.7V | 08:30:00 | 02:14:12 | 00:00:00 | |
| BIOWL1-15 | 2026-09-05 12:47:50 | 46.53742 | 7.80418 | 265° | 5km/h | 34104m | 5.6m/s | -34.4°C | 0% | 0hPa | 2.7V | 18:12:15 | 02:14:10 | 00:00:00 | |
| DO3MHA-12 | 2026-09-05 12:47:49 | 46.53742 | 7.80420 | 258° | 7km/h | 34099m | 5.8m/s | -34.3°C | 1.4% | 0hPa | 2.6V | 00:00:00 | 02:14:09 | 00:00:00 | |
| DK5PH-5 | 2026-09-05 12:47:48 | 46.53742 | 7.80423 | 277° | 15km/h | 34092m | 6.6m/s | -34.2°C | 1.4% | 0hPa | 2.6V | 00:00:00 | 02:14:08 | 00:00:00 | |
| DO3MHA-11 | 2026-09-05 12:47:47 | 46.53742 | 7.80424 | 326° | 9km/h | 34086m | 6.3m/s | -34.2°C | 1.4% | 0hPa | 2.6V | 00:00:00 | 02:14:07 | 00:00:00 | |
| DM0DOS-11 | 2026-09-05 12:47:46 | 46.53739 | 7.80423 | 40° | 7km/h | 34074m | 5.6m/s | -34.4°C | 1.4% | 0hPa | 2.7V | 08:30:00 | 02:14:05 | 00:00:00 | |
| DB0UT-7 | 2026-09-05 12:47:46 | 46.53741 | 7.80424 | 13° | 15km/h | 34080m | 5.7m/s | -34.3°C | 1.4% | 0hPa | 2.7V | 00:00:00 | 00:00:00 | 08:30:00 | |
| IW2NTF | 2026-09-05 12:47:44 | 46.53737 | 7.80410 | 84° | 5km/h | 34050m | 4.8m/s | -34.5°C | 1.4% | 0hPa | 2.6V | 08:30:00 | 02:14:01 | 00:00:00 | |
| BIOWL1-15 | 2026-09-05 12:47:39 | 46.53735 | 7.80409 | 337° | 9km/h | 34039m | 6.2m/s | -34.6°C | 0% | 0hPa | 2.7V | 18:12:15 | 02:13:59 | 00:00:00 | |
| DO3MHA-11 | 2026-09-05 12:47:37 | 46.53727 | 7.80416 | 324° | 16km/h | 34025m | 6.5m/s | -34.6°C | 1.4% | 0hPa | 2.6V | 00:00:00 | 02:13:57 | 00:00:00 | |
| DM0DOS-11 | 2026-09-05 12:47:36 | 46.53719 | 7.80427 | 315° | 20km/h | 34015m | 4.1m/s | -34.9°C | 1.4% | 0hPa | 2.6V | 08:30:00 | 02:13:55 | 00:00:00 | |
| IW2NTF | 2026-09-05 12:47:34 | 46.53717 | 7.80432 | 134° | 15km/h | 33991m | 5.8m/s | -35.1°C | 1.5% | 0hPa | 2.6V | 08:30:00 | 02:13:51 | 00:00:00 | |
| BIOWL1-15 | 2026-09-05 12:47:30 | 46.53719 | 7.80415 | 58° | 18km/h | 33976m | 5.6m/s | -35.5°C | 0% | 0hPa | 2.7V | 18:12:15 | 02:13:48 | 00:00:00 | |
| DO3MHA-12 | 2026-09-05 12:47:29 | 46.53721 | 7.80421 | 89° | 18km/h | 33982m | 4.0m/s | -35.3°C | 1.5% | 0hPa | 2.6V | 00:00:00 | 02:13:49 | 00:00:00 | |
| DO3MHA-11 | 2026-09-05 12:47:27 | 46.53715 | 7.80409 | 34° | 22km/h | 33970m | 7.6m/s | -35.5°C | 1.6% | 0hPa | 2.6V | 00:00:00 | 02:13:47 | 00:00:00 | |
| DM0DOS-11 | 2026-09-05 12:47:26 | 46.53701 | 7.80404 | 1° | 37km/h | 33955m | 5.7m/s | -35.5°C | 1.6% | 0hPa | 2.6V | 08:30:00 | 02:13:45 | 00:00:00 | |
| DB0ND-19 | 2026-09-05 12:47:25 | 46.53684 | 7.80407 | 343° | 26km/h | 33946m | 4.3m/s | -35.4°C | 0.1% | -1.0hPa | 2.7V | 00:00:00 | 00:00:00 | 00:00:00 | |
| IW2NTF | 2026-09-05 12:47:24 | 46.53677 | 7.80413 | 188° | 7km/h | 33927m | 6.7m/s | -35.4°C | 1.5% | 0hPa | 2.7V | 08:30:00 | 02:13:40 | 00:00:00 | |
| BIOWL1-15 | 2026-09-05 12:47:17 | 46.53684 | 7.80407 | 98° | 11km/h | 33912m | 4.4m/s | -35.6°C | 0% | 0hPa | 2.6V | 18:12:15 | 02:13:37 | 00:00:00 | |
| DO3MHA-11 | 2026-09-05 12:47:17 | 46.53684 | 7.80407 | 99° | 24km/h | 33913m | 4.4m/s | -35.5°C | 1.5% | 0hPa | 2.6V | 00:00:00 | 02:13:37 | 08:30:00 | |
| DM0DOS-11 | 2026-09-05 12:47:16 | 46.53679 | 7.80399 | 21° | 26km/h | 33900m | 7.5m/s | -35.7°C | 1.5% | 0hPa | 2.7V | 08:30:00 | 02:13:35 | 00:00:00 | |
| DO3MHA-12 | 2026-09-05 12:47:16 | 46.53683 | 7.80403 | 47° | 22km/h | 33907m | 6.3m/s | -35.6°C | 1.5% | 0hPa | 2.7V | 00:00:00 | 02:13:36 | 00:00:00 | |
| IW2NTF | 2026-09-05 12:47:13 | 46.53635 | 7.80398 | 352° | 24km/h | 33871m | 6m/s | -35.7°C | 1.5% | 0hPa | 2.7V | 08:30:00 | 02:13:30 | 00:00:00 | |
| OE5DXL-15 | 2026-09-05 12:47:09 | 46.53629 | 7.80398 | 28° | 20km/h | 33858m | 6.4m/s | -35.8°C | 1.5% | 0hPa | 2.7V | 00:00:00 | 00:00:00 | 00:00:00 | |
| DL1ZP-14 | 2026-09-05 12:47:08 | 46.53628 | 7.80397 | 100° | 4km/h | 33852m | 6.1m/s | -35.8°C | 0.0% | -1.0hPa | 2.6V | 00:00:00 | 00:00:00 | 00:00:00 | |
| DM0DOS-11 | 2026-09-05 12:47:07 | 46.53625 | 7.80386 | 28° | 16km/h | 33828m | 5.9m/s | -36°C | 1.5% | 0hPa | 2.7V | 08:30:00 | 02:13:23 | 00:00:00 | |
| BIOWL1-15 | 2026-09-05 12:47:06 | 46.53629 | 7.80395 | 103° | 7km/h | 33846m | 5.8m/s | -35.8°C | 0% | 0hPa | 2.6V | 18:12:15 | 02:13:26 | 00:00:00 | |
| DO3MHA-12 | 2026-09-05 12:47:06 | 46.53629 | 7.80395 | 104° | 16km/h | 33846m | 5.8m/s | -35.8°C | 1.5% | 0hPa | 2.6V | 00:00:00 | 02:13:26 | 00:00:00 | |
| IW2NTF | 2026-09-05 12:47:04 | 46.53610 | 7.80382 | 357° | 22km/h | 33810m | 7m/s | -36.3°C | 1.6% | 0hPa | 2.6V | 08:30:00 | 02:13:20 | 00:00:00 | |
| BIOWL1-15 | 2026-09-05 12:46:58 | 46.53587 | 7.80380 | 21° | 26km/h | 33786m | 6.4m/s | -36°C | 0% | 0hPa | 2.7V | 18:12:15 | 02:13:16 | 00:00:00 | |
| DO3MHA-11 | 2026-09-05 12:46:57 | 46.53593 | 7.80382 | 10° | 18km/h | 33792m | 5.3m/s | -36.0°C | 1.5% | 0hPa | 2.6V | 00:00:00 | 02:13:17 | 00:00:00 | |
| DM0DOS-11 | 2026-09-05 12:46:56 | 46.53571 | 7.80362 | 51° | 27km/h | 33767m | 4.5m/s | -36.2°C | 1.6% | 0hPa | 2.6V | 08:30:00 | 02:13:13 | 00:00:00 | |
| DB0ND-19 | 2026-09-05 12:46:53 | 46.53567 | 7.80354 | 61° | 20km/h | 33763m | 4.5m/s | -36.1°C | 0.0% | -1.0hPa | 2.6V | 00:00:00 | 00:00:00 | 00:00:00 | |
| DK5PH-5 | 2026-09-05 12:46:48 | 46.53566 | 7.80343 | 269° | 18km/h | 33739m | 4.7m/s | -36.2°C | 1.6% | 0hPa | 2.6V | 00:00:00 | 02:13:08 | 00:00:00 | |
| DO3MHA-11 | 2026-09-05 12:46:47 | 46.53565 | 7.80346 | 315° | 26km/h | 33734m | 4.2m/s | -36.3°C | 1.6% | 0hPa | 2.6V | 00:00:00 | 02:13:07 | 00:00:00 | |
| DM0DOS-11 | 2026-09-05 12:46:46 | 46.53539 | 7.80348 | 16° | 42km/h | 33708m | 5.7m/s | -36.3°C | 1.6% | 0hPa | 2.6V | 08:30:00 | 02:13:03 | 00:00:00 | |
| BIOWL1-15 | 2026-09-05 12:46:45 | 46.53556 | 7.80351 | 354° | 26km/h | 33722m | 7.6m/s | -36.4°C | 0% | 0hPa | 2.7V | 18:12:15 | 02:13:05 | 00:00:00 | |
| IW2NTF | 2026-09-05 12:46:44 | 46.53517 | 7.80329 | 51° | 22km/h | 33694m | 6.3m/s | -36.3°C | 1.5% | 0hPa | 2.7V | 08:30:00 | 02:13:00 | 00:00:00 | |
| OE5DXL-15 | 2026-09-05 12:46:39 | 46.53520 | 7.80318 | 179° | 13km/h | 33673m | 5.8m/s | -36.2°C | 1.6% | 0hPa | 2.7V | 00:00:00 | 00:00:00 | 00:00:00 | |
| DO3MHA-11 | 2026-09-05 12:46:37 | 46.53520 | 7.80318 | 179° | 20km/h | 33673m | 5.8m/s | -36.2°C | 1.6% | 0hPa | 2.7V | 00:00:00 | 02:12:57 | 00:00:00 | |
| DM0DOS-11 | 2026-09-05 12:46:36 | 46.53526 | 7.80325 | 341° | 15km/h | 33650m | 5.8m/s | -36.4°C | 1.6% | 0hPa | 2.7V | 08:30:00 | 02:12:53 | 00:00:00 | |
| DO3MHA-12 | 2026-09-05 12:46:36 | 46.53524 | 7.80319 | 196° | 16km/h | 33668m | 5.2m/s | -36.2°C | 1.6% | 0hPa | 2.6V | 00:00:00 | 02:12:56 | 00:00:00 | |
| IW2NTF | 2026-09-05 12:46:35 | 46.53508 | 7.80324 | 15° | 29km/h | 33632m | 6.2m/s | -36.2°C | 1.6% | 0hPa | 2.6V | 08:30:00 | 02:12:50 | 00:00:00 | |
| BIOWL1-15 | 2026-09-05 12:46:34 | 46.53528 | 7.80323 | 294° | 7km/h | 33656m | 5.8m/s | -36.3°C | 0% | 0hPa | 2.7V | 18:12:15 | 02:12:54 | 00:00:00 | |
| DL6DJ-15 | 2026-09-05 12:46:32 | 46.53521 | 7.80326 | 356° | 22km/h | 33644m | 5.8m/s | -36.4°C | 0.0% | -1.0hPa | 2.7V | 00:00:00 | 00:00:00 | 00:00:00 | |
| BIOWL9-15 | 2026-09-05 12:46:31 | 46.53501 | 7.80321 | 28° | 26km/h | 33627m | 5.8m/s | -36.2°C | 0.1% | -1.0hPa | 2.7V | 00:00:00 | 00:00:00 | 00:00:00 | |
| DO3MHA-11 | 2026-09-05 12:46:27 | 46.53493 | 7.80309 | 66° | 9km/h | 33615m | 6.0m/s | -36.2°C | 1.6% | 0hPa | 2.7V | 00:00:00 | 02:12:47 | 00:00:00 | |
| DO3MHA-12 | 2026-09-05 12:46:26 | 46.53492 | 7.80302 | 83° | 7km/h | 33609m | 5.5m/s | -36.1°C | 1.5% | 0hPa | 2.7V | 00:00:00 | 02:12:46 | 00:00:00 | |
| DM0DOS-11 | 2026-09-05 12:46:25 | 46.53492 | 7.80285 | 83° | 4km/h | 33584m | 6m/s | -36.3°C | 1.6% | 0hPa | 2.7V | 08:30:00 | 02:12:42 | 00:00:00 | |
| IW2NTF | 2026-09-05 12:46:24 | 46.53492 | 7.80285 | 282° | 2km/h | 33573m | 6.1m/s | -36.2°C | 1.6% | 0hPa | 2.7V | 08:30:00 | 02:12:40 | 00:00:00 | |
| BIOWL1-15 | 2026-09-05 12:46:21 | 46.53492 | 7.80284 | 332° | 0km/h | 33579m | 5.7m/s | -36.2°C | 0% | 0hPa | 2.7V | 18:12:15 | 02:12:41 | 00:00:00 | |
| DK5PH-5 | 2026-09-05 12:46:18 | 46.53492 | 7.80284 | 66° | 22km/h | 33560m | 5.7m/s | -36.1°C | 1.6% | 0hPa | 2.6V | 00:00:00 | 02:12:38 | 00:00:00 | |
| DO3MHA-11 | 2026-09-05 12:46:17 | 46.53490 | 7.80282 | 52° | 24km/h | 33555m | 4.6m/s | -36.1°C | 1.5% | 0hPa | 2.6V | 00:00:00 | 02:12:37 | 00:00:00 | |
| DO3MHA-12 | 2026-09-05 12:46:16 | 46.53488 | 7.80278 | 44° | 20km/h | 33550m | 4.8m/s | -36.3°C | 1.5% | 0hPa | 2.7V | 00:00:00 | 02:12:36 | 00:00:00 | |
| IW2NTF | 2026-09-05 12:46:15 | 46.53458 | 7.80238 | 77° | 18km/h | 33517m | 6.2m/s | -36.5°C | 1.6% | 0hPa | 2.7V | 08:30:00 | 02:12:30 | 00:00:00 | |
| BIOWL1-15 | 2026-09-05 12:46:11 | 46.53458 | 7.80232 | 119° | 16km/h | 33510m | 8m/s | -36.4°C | 0% | 0hPa | 2.7V | 18:12:15 | 02:12:29 | 00:00:00 | |
| DH7VM-15 | 2026-09-05 12:46:11 | 46.53460 | 7.80245 | 56° | 26km/h | 33523m | 3.6m/s | -36.5°C | 0.1% | 0hPa | 2.6V | 00:00:00 | 00:00:00 | 00:00:00 | |
| DO3MHA-11 | 2026-09-05 12:46:07 | 46.53467 | 7.80226 | 179° | 26km/h | 33497m | 5.5m/s | -36.3°C | 1.6% | 0hPa | 2.6V | 00:00:00 | 02:12:27 | 00:00:00 | |
| DL1ZP-14 | 2026-09-05 12:46:06 | 46.53477 | 7.80230 | 215° | 15km/h | 33487m | 5.0m/s | -36.4°C | 0.1% | -1.0hPa | 2.6V | 00:00:00 | 00:00:00 | 00:00:00 | |
| IW2NTF | 2026-09-05 12:46:05 | 46.53458 | 7.80228 | 38° | 35km/h | 33458m | 5.7m/s | -36.6°C | 1.6% | 0hPa | 2.6V | 08:30:00 | 02:12:20 | 00:00:00 | |
| BIOWL1-15 | 2026-09-05 12:45:57 | 46.53448 | 7.80195 | 98° | 31km/h | 33440m | 6m/s | -36.4°C | 0% | 0hPa | 2.7V | 18:12:15 | 02:12:17 | 00:00:00 | |
| DO3MHA-11 | 2026-09-05 12:45:57 | 46.53448 | 7.80195 | 99° | 20km/h | 33441m | 5.9m/s | -36.3°C | 1.6% | 0hPa | 2.6V | 00:00:00 | 02:12:17 | 00:00:00 | |
| DM0DOS-11 | 2026-09-05 12:45:56 | 46.53455 | 7.80179 | 141° | 22km/h | 33430m | 4.6m/s | -36.4°C | 1.6% | 0hPa | 2.6V | 08:30:00 | 02:12:15 | 00:00:00 | |
| IW2NTF | 2026-09-05 12:45:55 | 46.53457 | 7.80185 | 330° | 22km/h | 33400m | 5.7m/s | -36.3°C | 1.6% | 0hPa | 2.7V | 08:30:00 | 02:12:10 | 00:00:00 | |
| BIOWL1-15 | 2026-09-05 12:45:48 | 46.53440 | 7.80186 | 45° | 13km/h | 33377m | 5.7m/s | -36.4°C | 0% | 0hPa | 2.7V | 18:12:15 | 02:12:06 | 00:00:00 | |
| DK5PH-5 | 2026-09-05 12:45:48 | 46.53447 | 7.80189 | 357° | 15km/h | 33389m | 5.8m/s | -36.4°C | 1.6% | 0hPa | 2.6V | 00:00:00 | 02:12:08 | 00:00:00 | |
| DO3MHA-11 | 2026-09-05 12:45:47 | 46.53443 | 7.80188 | 17° | 15km/h | 33383m | 6.0m/s | -36.4°C | 1.6% | 0hPa | 2.6V | 00:00:00 | 02:12:07 | 08:30:00 | |
| DM0DOS-11 | 2026-09-05 12:45:46 | 46.53437 | 7.80170 | 82° | 16km/h | 33361m | 5.6m/s | -36.5°C | 1.6% | 0hPa | 2.6V | 08:30:00 | 02:12:03 | 00:00:00 | |
| DB0UT-7 | 2026-09-05 12:45:46 | 46.53440 | 7.80186 | 46° | 15km/h | 33377m | 5.6m/s | -36.3°C | 1.6% | 0hPa | 2.7V | 00:00:00 | 00:00:00 | 00:00:00 | |
| IW2NTF | 2026-09-05 12:45:45 | 46.53432 | 7.80155 | 43° | 15km/h | 33343m | 5.8m/s | -36.3°C | 1.6% | 0hPa | 2.7V | 08:30:00 | 02:12:00 | 00:00:00 | |
| DO3MHA-11 | 2026-09-05 12:45:37 | 46.53426 | 7.80151 | 334° | 11km/h | 33326m | 6.3m/s | -36.4°C | 1.6% | 0hPa | 2.7V | 00:00:00 | 02:11:57 | 00:00:00 | |
| DM0DOS-11 | 2026-09-05 12:45:36 | 46.53420 | 7.80158 | 351° | 15km/h | 33298m | 6.2m/s | -36.3°C | 1.6% | 0hPa | 2.7V | 08:30:00 | 02:11:52 | 00:00:00 | |
| BIOWL1-15 | 2026-09-05 12:45:35 | 46.53423 | 7.80157 | 336° | 9km/h | 33304m | 4.6m/s | -36.3°C | 0% | 0hPa | 2.7V | 18:12:15 | 02:11:53 | 00:00:00 | |
| DL1ZP-14 | 2026-09-05 12:45:35 | 46.53424 | 7.80156 | 298° | 4km/h | 33309m | 4.4m/s | -36.3°C | 0.1% | -1.0hPa | 2.7V | 00:00:00 | 00:00:00 | 00:00:00 | |
| DF7PN | 2026-09-05 12:45:33 | 46.53420 | 7.80158 | 351° | 15km/h | 33299m | 6.3m/s | -36.3°C | 0.1% | -1.0hPa | 2.6V | 00:00:00 | 00:00:00 | 00:00:00 | |
| IW2NTF | 2026-09-05 12:45:30 | 46.53410 | 7.80158 | 6° | 27km/h | 33285m | 6.1m/s | -36.4°C | 1.6% | 0hPa | 2.6V | 08:30:00 | 02:11:50 | 00:00:00 | |
| DL6DJ-15 | 2026-09-05 12:45:30 | 46.53403 | 7.80157 | 14° | 26km/h | 33280m | 4.5m/s | -36.5°C | 0.1% | -1.0hPa | 2.7V | 00:00:00 | 00:00:00 | 00:00:00 | |
| BIOWL9-15 | 2026-09-05 12:45:29 | 46.53397 | 7.80154 | 25° | 22km/h | 33276m | 4.3m/s | -36.5°C | 0.1% | -1.0hPa | 2.7V | 00:00:00 | 00:00:00 | 00:00:00 | |
| DO3MHA-11 | 2026-09-05 12:45:27 | 46.53393 | 7.80150 | 43° | 15km/h | 33271m | 6.0m/s | -36.3°C | 1.6% | 0hPa | 2.7V | 00:00:00 | 02:11:47 | 00:00:00 | |
| DM0DOS-11 | 2026-09-05 12:45:26 | 46.53399 | 7.80139 | 231° | 7km/h | 33241m | 5.9m/s | -36.2°C | 1.6% | 0hPa | 2.7V | 08:30:00 | 02:11:42 | 00:00:00 | |
| BIOWL1-15 | 2026-09-05 12:45:21 | 46.53399 | 7.80142 | 289° | 11km/h | 33235m | 6.7m/s | -36.2°C | 0% | 0hPa | 2.7V | 18:12:15 | 02:11:41 | 00:00:00 | |
| DB0ND-19 | 2026-09-05 12:45:20 | 46.53393 | 7.80151 | 325° | 20km/h | 33222m | 5.7m/s | -36.3°C | 0.1% | -1.0hPa | 2.6V | 00:00:00 | 00:00:00 | 00:00:00 | |
| DO3MHA-11 | 2026-09-05 12:45:18 | 46.53384 | 7.80157 | 342° | 7km/h | 33212m | 5.4m/s | -36.1°C | 1.6% | 0hPa | 2.6V | 00:00:00 | 02:11:37 | 00:00:00 | |
| DM0DOS-11 | 2026-09-05 12:45:17 | 46.53380 | 7.80153 | 114° | 5km/h | 33184m | 5.7m/s | -36.2°C | 1.6% | 0hPa | 2.6V | 08:30:00 | 02:11:32 | 00:00:00 | |
| DB0UT-7 | 2026-09-05 12:45:16 | 46.53380 | 7.80159 | 352° | 7km/h | 33206m | 5.8m/s | -36.1°C | 1.6% | 0hPa | 2.7V | 00:00:00 | 02:11:36 | 00:00:00 | |
| IW2NTF | 2026-09-05 12:45:15 | 46.53380 | 7.80150 | 22° | 5km/h | 33172m | 6.1m/s | -36.2°C | 1.6% | 0hPa | 2.7V | 08:30:00 | 02:11:30 | 00:00:00 | |
| BIOWL1-15 | 2026-09-05 12:45:10 | 46.53374 | 7.80150 | 169° | 7km/h | 33138m | 6m/s | -36.2°C | 0% | 0hPa | 2.7V | 18:12:15 | 02:11:24 | 00:00:00 | |
| DO3MHA-11 | 2026-09-05 12:45:07 | 46.53374 | 7.80150 | 355° | 7km/h | 33156m | 4.9m/s | -36.2°C | 1.6% | 0hPa | 2.7V | 00:00:00 | 02:11:27 | 00:00:00 | |
| DM0DOS-11 | 2026-09-05 12:45:06 | 46.53377 | 7.80149 | 134° | 4km/h | 33128m | 4.2m/s | -36.2°C | 1.6% | 0hPa | 2.7V | 08:30:00 | 02:11:22 | 00:00:00 | |
| IW2NTF | 2026-09-05 12:45:05 | 46.53375 | 7.80147 | 8° | 11km/h | 33117m | 7m/s | -36.3°C | 1.6% | 0hPa | 2.6V | 08:30:00 | 02:11:20 | 00:00:00 | |
| BIOWL1-15 | 2026-09-05 12:45:00 | 46.53375 | 7.80147 | 8° | 11km/h | 33117m | 7m/s | -36.3°C | 0% | 0hPa | 2.6V | 18:12:15 | 02:11:20 | 00:00:00 | |
| DL6DJ-15 | 2026-09-05 12:44:59 | 46.53367 | 7.80145 | 14° | 18km/h | 33104m | 5.0m/s | -36.2°C | 0.1% | -1.0hPa | 2.7V | 00:00:00 | 00:00:00 | 00:00:00 | |
| DO3MHA-11 | 2026-09-05 12:44:57 | 46.53362 | 7.80143 | 27° | 9km/h | 33099m | 4.8m/s | -36.2°C | 1.6% | 0hPa | 2.7V | 00:00:00 | 02:11:17 | 00:00:00 | |
| DM0DOS-11 | 2026-09-05 12:44:55 | 46.53359 | 7.80125 | 134° | 7km/h | 33071m | 6m/s | -36.2°C | 1.6% | 0hPa | 2.7V | 08:30:00 | 02:11:12 | 00:00:00 | |
| IW2NTF | 2026-09-05 12:44:54 | 46.53360 | 7.80125 | 311° | 4km/h | 33059m | 5.9m/s | -36.2°C | 1.6% | 0hPa | 2.7V | 08:30:00 | 02:11:10 | 00:00:00 | |
| BIOWL1-15 | 2026-09-05 12:44:50 | 46.53359 | 7.80126 | 327° | 7km/h | 33053m | 5.2m/s | -36.1°C | 0% | 0hPa | 2.6V | 18:12:15 | 02:11:09 | 00:00:00 | |
| DB0ND-19 | 2026-09-05 12:44:50 | 46.53357 | 7.80128 | 344° | 7km/h | 33048m | 5.2m/s | -36.1°C | 0.1% | -1.0hPa | 2.6V | 00:00:00 | 00:00:00 | 00:00:00 | |
| DK5PH-5 | 2026-09-05 12:44:48 | 46.53357 | 7.80127 | 345° | 16km/h | 33048m | 5.2m/s | -36.1°C | 1.5% | 0hPa | 2.6V | 00:00:00 | 02:11:08 | 00:00:00 | |
| DO3MHA-11 | 2026-09-05 12:44:47 | 46.53355 | 7.80127 | 13° | 16km/h | 33042m | 6.0m/s | -36.2°C | 1.5% | 0hPa | 2.6V | 00:00:00 | 02:11:07 | 00:00:00 | |
| DM0DOS-11 | 2026-09-05 12:44:46 | 46.53341 | 7.80105 | 39° | 24km/h | 33013m | 6.5m/s | -36.2°C | 1.6% | 0hPa | 2.6V | 08:30:00 | 02:11:02 | 00:00:00 | |
| DB0UT-7 | 2026-09-05 12:44:46 | 46.53353 | 7.80126 | 43° | 15km/h | 33036m | 6.5m/s | -36.1°C | 1.5% | 0hPa | 2.7V | 00:00:00 | 00:00:00 | 00:00:00 | |
| IW2NTF | 2026-09-05 12:44:44 | 46.53331 | 7.80097 | 18° | 22km/h | 33001m | 5.1m/s | -36.1°C | 1.5% | 0hPa | 2.7V | 08:30:00 | 02:11:00 | 00:00:00 | |
| BIOWL1-15 | 2026-09-05 12:44:39 | 46.53326 | 7.80095 | 12° | 16km/h | 32996m | 4.5m/s | -36.2°C | 0% | 0hPa | 2.7V | 18:12:15 | 02:10:59 | 00:00:00 | |
| IW2NTF | 2026-09-05 12:44:37 | 46.53317 | 7.80086 | 11° | 24km/h | 32946m | 5.7m/s | -36.5°C | 1.5% | 0hPa | 2.7V | 08:30:00 | 02:10:50 | 00:00:00 | |
| DO3MHA-11 | 2026-09-05 12:44:37 | 46.53321 | 7.80094 | 19° | 13km/h | 32986m | 6.9m/s | -36.3°C | 1.6% | 0hPa | 2.6V | 00:00:00 | 02:10:57 | 00:00:00 | |
| DM0DOS-11 | 2026-09-05 12:44:34 | 46.53326 | 7.80089 | 27° | 9km/h | 32959m | 6.3m/s | -36.4°C | 1.5% | 0hPa | 2.6V | 08:30:00 | 02:10:52 | 00:00:00 | |
| BIOWL1-15 | 2026-09-05 12:44:28 | 46.53305 | 7.80081 | 24° | 24km/h | 32937m | 3.6m/s | -36.9°C | 0% | 0hPa | 2.6V | 18:12:15 | 02:10:48 | 00:00:00 | |
| DL6DJ-15 | 2026-09-05 12:44:28 | 46.53300 | 7.80077 | 42° | 20km/h | 32933m | 5.1m/s | -36.9°C | 0.1% | -1.0hPa | 2.7V | 00:00:00 | 00:00:00 | 00:00:00 | |
| DH7VM-15 | 2026-09-05 12:44:27 | 46.53300 | 7.80077 | 43° | 20km/h | 32933m | 5.1m/s | -36.9°C | 0.1% | 0hPa | 2.7V | 00:00:00 | 00:00:00 | 00:00:00 | |
| BIOWL9-15 | 2026-09-05 12:44:26 | 46.53298 | 7.80071 | 73° | 16km/h | 32928m | 6.4m/s | -36.9°C | 0.1% | -1.0hPa | 2.7V | 00:00:00 | 00:00:00 | 00:00:00 | |
| DM0DOS-11 | 2026-09-05 12:44:23 | 46.53308 | 7.80043 | 132° | 22km/h | 32904m | 5.9m/s | -37.2°C | 1.6% | 0hPa | 2.7V | 08:30:00 | 02:10:42 | 00:00:00 | |
| BIOWL1-15 | 2026-09-05 12:44:18 | 46.53314 | 7.80032 | 117° | 2km/h | 32881m | 5.4m/s | -37.4°C | 0% | 0hPa | 2.7V | 18:12:15 | 02:10:38 | 00:00:00 | |
| DO3MHA-12 | 2026-09-05 12:44:17 | 46.53314 | 7.80032 | 126° | 13km/h | 32875m | 6.3m/s | -37.4°C | 1.7% | 0hPa | 2.7V | 00:00:00 | 02:10:37 | 00:00:00 | |
| DB0UT-7 | 2026-09-05 12:44:16 | 46.53315 | 7.80030 | 128° | 22km/h | 32869m | 6.0m/s | -37.5°C | 1.7% | 0hPa | 2.7V | 00:00:00 | 02:10:36 | 00:00:00 | |
| IW2NTF | 2026-09-05 12:44:13 | 46.53318 | 7.79989 | 92° | 20km/h | 32829m | 4.8m/s | -37.8°C | 1.7% | 0hPa | 2.7V | 08:30:00 | 02:10:29 | 00:00:00 | |
| DM0DOS-11 | 2026-09-05 12:44:13 | 46.53319 | 7.80011 | 92° | 20km/h | 32847m | 6.4m/s | -37.7°C | 1.7% | 0hPa | 2.6V | 08:30:00 | 02:10:32 | 00:00:00 | |
| BIOWL1-15 | 2026-09-05 12:44:07 | 46.53331 | 7.79962 | 125° | 16km/h | 32801m | 5m/s | -38°C | 0% | 0hPa | 2.6V | 18:12:15 | 02:10:24 | 00:00:00 | |
| DO3MHA-11 | 2026-09-05 12:44:07 | 46.53321 | 7.79976 | 128° | 22km/h | 32818m | 7.2m/s | -37.8°C | 1.7% | 0hPa | 2.6V | 00:00:00 | 02:10:27 | 00:00:00 | |
| IW2NTF | 2026-09-05 12:44:05 | 46.53324 | 7.79924 | 63° | 29km/h | 32773m | 5.3m/s | -38.2°C | 1.8% | 0hPa | 2.6V | 08:30:00 | 02:10:19 | 00:00:00 | |
| DM0DOS-11 | 2026-09-05 12:44:03 | 46.53333 | 7.79950 | 73° | 20km/h | 32788m | 6.5m/s | -38°C | 1.7% | 0hPa | 2.7V | 08:30:00 | 02:10:22 | 00:00:00 | |
| BIOWL1-15 | 2026-09-05 12:44:01 | 46.53320 | 7.79906 | 85° | 24km/h | 32761m | 6.4m/s | -38.2°C | 0% | 0hPa | 2.7V | 18:12:15 | 02:10:17 | 00:00:00 | |
| DF7PN | 2026-09-05 12:43:59 | 46.53324 | 7.79924 | 63° | 27km/h | 32773m | 5.3m/s | -38.2°C | 0.1% | -1.0hPa | 2.6V | 00:00:00 | 00:00:00 | 00:00:00 | |
| DL6DJ-15 | 2026-09-05 12:43:57 | 46.53320 | 7.79898 | 97° | 20km/h | 32755m | 5.8m/s | -38.2°C | 0.1% | -1.0hPa | 2.6V | 00:00:00 | 00:00:00 | 00:00:00 | |
| BIOWL9-15 | 2026-09-05 12:43:56 | 46.53321 | 7.79890 | 103° | 20km/h | 32749m | 4.9m/s | -38.2°C | 0.1% | -1.0hPa | 2.6V | 00:00:00 | 00:00:00 | 00:00:00 | |
| DM0DOS-11 | 2026-09-05 12:43:52 | 46.53321 | 7.79867 | 75° | 24km/h | 32732m | 6.6m/s | -38.2°C | 1.7% | 0hPa | 2.6V | 08:30:00 | 02:10:12 | 00:00:00 | |
| IW2NTF | 2026-09-05 12:43:52 | 46.53312 | 7.79840 | 57° | 29km/h | 32714m | 4.9m/s | -38.2°C | 1.8% | 0hPa | 2.7V | 08:30:00 | 02:10:09 | 00:00:00 | |
| BIOWL1-15 | 2026-09-05 12:43:47 | 46.53305 | 7.79824 | 63° | 22km/h | 32703m | 6.7m/s | -38.3°C | 0% | 0hPa | 2.6V | 18:12:15 | 02:10:07 | 00:00:00 | |
| DB0UT-7 | 2026-09-05 12:43:46 | 46.53303 | 7.79818 | 65° | 16km/h | 32697m | 5.6m/s | -38.2°C | 1.7% | 0hPa | 2.7V | 00:00:00 | 00:00:00 | 00:00:00 | |
| IW2NTF | 2026-09-05 12:43:44 | 46.53279 | 7.79771 | 49° | 27km/h | 32658m | 4.7m/s | -38.3°C | 1.7% | 0hPa | 2.7V | 08:30:00 | 02:09:59 | 00:00:00 | |
| DO3MHA-12 | 2026-09-05 12:43:38 | 46.53275 | 7.79764 | 53° | 16km/h | 32653m | 6.0m/s | -38.4°C | 1.8% | 0hPa | 2.6V | 00:00:00 | 02:09:58 | 00:00:00 | |
| DO3MHA-11 | 2026-09-05 12:43:37 | 46.53273 | 7.79759 | 55° | 16km/h | 32647m | 6.9m/s | -38.2°C | 1.8% | 0hPa | 2.6V | 00:00:00 | 02:09:57 | 00:00:00 | |
| BIOWL1-15 | 2026-09-05 12:43:37 | 46.53273 | 7.79759 | 54° | 15km/h | 32647m | 6.9m/s | -38.3°C | 0% | 0hPa | 2.6V | 18:12:15 | 02:09:57 | 00:00:00 | |
| OE5DXL-15 | 2026-09-05 12:43:36 | 46.53268 | 7.79753 | 11° | 15km/h | 32629m | 5.3m/s | 0°C | 0% | 0hPa | 2.6V | 00:00:00 | 00:00:00 | 00:00:00 | |
| IW2NTF | 2026-09-05 12:43:33 | 46.53242 | 7.79746 | 14° | 24km/h | 32600m | 5.8m/s | -38.4°C | 1.8% | 0hPa | 2.6V | 08:30:00 | 02:09:49 | 00:00:00 | |
| DM0DOS-11 | 2026-09-05 12:43:32 | 46.53261 | 7.79752 | 10° | 22km/h | 32617m | 6.6m/s | -38.2°C | 1.7% | 0hPa | 2.6V | 08:30:00 | 02:09:52 | 00:00:00 | |
| HASLITAL | 2026-09-05 12:43:31 | 46.53261 | 7.79752 | 12° | 22km/h | 32617m | 6.6m/s | -38.2°C | 0.1% | 0hPa | 2.7V | 00:00:00 | 00:00:00 | 00:00:00 | |
| DL1ZP-14 | 2026-09-05 12:43:30 | 46.53248 | 7.79748 | 13° | 26km/h | 32605m | 5.0m/s | -38.3°C | 0.1% | -1.0hPa | 2.7V | 00:00:00 | 00:00:00 | 00:00:00 | |
| DO3MHA-12 | 2026-09-05 12:43:28 | 46.53237 | 7.79744 | 16° | 11km/h | 32594m | 6.4m/s | -38.3°C | 1.8% | 0hPa | 2.6V | 00:00:00 | 02:09:48 | 00:00:00 | |
| DM0DOS-11 | 2026-09-05 12:43:27 | 46.53226 | 7.79728 | 41° | 15km/h | 32559m | 5.8m/s | -38.3°C | 1.7% | 0hPa | 2.7V | 08:30:00 | 02:09:42 | 00:00:00 | |
| BIOWL1-15 | 2026-09-05 12:43:26 | 46.53232 | 7.79740 | 47° | 7km/h | 32582m | 5.2m/s | -38.3°C | 0% | 0hPa | 2.7V | 18:12:15 | 02:09:46 | 00:00:00 | |
| DL6DJ-15 | 2026-09-05 12:43:26 | 46.53230 | 7.79735 | 60° | 9km/h | 32572m | 6.1m/s | -38.4°C | 0.1% | -1.0hPa | 2.6V | 00:00:00 | 00:00:00 | 00:00:00 | |
| IW2NTF | 2026-09-05 12:43:25 | 46.53218 | 7.79723 | 342° | 5km/h | 32543m | 5.7m/s | -38.4°C | 1.8% | 0hPa | 2.6V | 08:30:00 | 02:09:39 | 00:00:00 | |
| BIOWL9-15 | 2026-09-05 12:43:24 | 46.53230 | 7.79735 | 60° | 9km/h | 32572m | 6.1m/s | -38.4°C | 0.1% | -1.0hPa | 2.6V | 00:00:00 | 00:00:00 | 00:00:00 | |
| DK5PH-5 | 2026-09-05 12:43:18 | 46.53217 | 7.79725 | 282° | 15km/h | 32537m | 7.0m/s | -38.3°C | 1.7% | 0hPa | 2.6V | 00:00:00 | 02:09:38 | 00:00:00 | |
| DO3MHA-11 | 2026-09-05 12:43:17 | 46.53218 | 7.79728 | 249° | 11km/h | 32530m | 6.8m/s | -38.2°C | 1.8% | 0hPa | 2.6V | 00:00:00 | 02:09:37 | 00:00:00 | |
| BIOWL1-15 | 2026-09-05 12:43:17 | 46.53221 | 7.79738 | 240° | 15km/h | 32518m | 4.8m/s | -38.4°C | 0% | 0hPa | 2.7V | 18:12:15 | 02:09:35 | 00:00:00 | |
| DM0DOS-11 | 2026-09-05 12:43:16 | 46.53222 | 7.79744 | 23° | 7km/h | 32501m | 6.2m/s | -38.3°C | 1.7% | 0hPa | 2.6V | 08:30:00 | 02:09:32 | 00:00:00 | |
| DB0ND-19 | 2026-09-05 12:43:16 | 46.53223 | 7.79741 | 249° | 9km/h | 32514m | 5.0m/s | -38.3°C | 0.1% | -1.0hPa | 2.7V | 00:00:00 | 00:00:00 | 00:00:00 | |
| IW2NTF | 2026-09-05 12:43:13 | 46.53218 | 7.79733 | 90° | 13km/h | 32484m | 6.4m/s | -38.4°C | 1.7% | 0hPa | 2.7V | 08:30:00 | 02:09:29 | 00:00:00 | |
| HASLITAL | 2026-09-05 12:43:10 | 46.53220 | 7.79742 | 52° | 13km/h | 32495m | 5.2m/s | -38.4°C | 0.2% | 0hPa | 2.6V | 00:00:00 | 00:00:00 | 00:00:00 | |
| DO3MHA-12 | 2026-09-05 12:43:08 | 46.53219 | 7.79729 | 127° | 11km/h | 32478m | 6.2m/s | -38.4°C | 1.8% | 0hPa | 2.6V | 00:00:00 | 02:09:28 | 00:00:00 | |
| DO3MHA-11 | 2026-09-05 12:43:07 | 46.53221 | 7.79727 | 163° | 13km/h | 32472m | 5.6m/s | -38.5°C | 1.8% | 0hPa | 2.6V | 00:00:00 | 02:09:27 | 00:00:00 | |
| DM0DOS-11 | 2026-09-05 12:43:06 | 46.53236 | 7.79739 | 264° | 11km/h | 32444m | 6.2m/s | -38.6°C | 1.8% | 0hPa | 2.6V | 08:30:00 | 02:09:22 | 00:00:00 | |
| OE5DXL-15 | 2026-09-05 12:43:05 | 46.53235 | 7.79735 | 239° | 24km/h | 32451m | 6.3m/s | 0°C | 0% | 0hPa | 2.7V | 00:00:00 | 00:00:00 | 00:00:00 | |
| IW2NTF | 2026-09-05 12:43:04 | 46.53236 | 7.79746 | 207° | 5km/h | 32429m | 5.4m/s | -38.6°C | 1.7% | 0hPa | 2.7V | 08:30:00 | 02:09:19 | 00:00:00 | |
| DL1ZP-14 | 2026-09-05 12:42:59 | 46.53236 | 7.79746 | 207° | 5km/h | 32429m | 5.4m/s | -38.6°C | 0.1% | -1.0hPa | 2.7V | 00:00:00 | 00:00:00 | 00:00:00 | |
| DO3MHA-12 | 2026-09-05 12:42:58 | 46.53238 | 7.79747 | 191° | 22km/h | 32423m | 6.4m/s | -38.6°C | 1.7% | 0hPa | 2.6V | 00:00:00 | 02:09:18 | 00:00:00 | |
| DO3MHA-11 | 2026-09-05 12:42:57 | 46.53243 | 7.79748 | 190° | 22km/h | 32417m | 6.3m/s | -38.6°C | 1.8% | 0hPa | 2.7V | 00:00:00 | 02:09:17 | 00:00:00 | |
| DM0DOS-11 | 2026-09-05 12:42:56 | 46.53274 | 7.79762 | 205° | 18km/h | 32387m | 5.5m/s | -38.8°C | 1.8% | 0hPa | 2.7V | 08:30:00 | 02:09:12 | 00:00:00 | |
| DL6DJ-15 | 2026-09-05 12:42:55 | 46.53263 | 7.79756 | 198° | 27km/h | 32400m | 6.0m/s | -38.7°C | 0.1% | -1.0hPa | 2.6V | 00:00:00 | 00:00:00 | 00:00:00 | |
| IW2NTF | 2026-09-05 12:42:53 | 46.53284 | 7.79768 | 191° | 16km/h | 32373m | 5.7m/s | -38.7°C | 1.8% | 0hPa | 2.6V | 08:30:00 | 02:09:09 | 00:00:00 | |
| DO3MHA-12 | 2026-09-05 12:42:48 | 46.53289 | 7.79769 | 189° | 22km/h | 32367m | 6.3m/s | -38.7°C | 1.8% | 0hPa | 2.7V | 00:00:00 | 02:09:08 | 00:00:00 | |
| DO3MHA-11 | 2026-09-05 12:42:47 | 46.53295 | 7.79770 | 189° | 22km/h | 32361m | 5.8m/s | -38.8°C | 1.8% | 0hPa | 2.7V | 00:00:00 | 02:09:07 | 08:30:00 | |
| DB0UT-7 | 2026-09-05 12:42:46 | 46.53301 | 7.79772 | 193° | 24km/h | 32355m | 5.2m/s | -38.7°C | 1.8% | 0hPa | 2.6V | 00:00:00 | 00:00:00 | 00:00:00 | |
| DM0DOS-11 | 2026-09-05 12:42:45 | 46.53321 | 7.79784 | 211° | 16km/h | 32331m | 5.1m/s | -39.2°C | 1.8% | 0hPa | 2.6V | 08:30:00 | 02:09:02 | 00:00:00 | |
| IW2NTF | 2026-09-05 12:42:45 | 46.53335 | 7.79788 | 172° | 26km/h | 32316m | 7.1m/s | -39.3°C | 1.8% | 0hPa | 2.7V | 08:30:00 | 02:08:59 | 00:00:00 | |
| BIOWL1-15 | 2026-09-05 12:42:32 | 46.53380 | 7.79765 | 173° | 18km/h | 32274m | 5m/s | -39.4°C | 0% | 0hPa | 2.6V | 18:12:15 | 02:08:52 | 00:00:00 | |
| IW2NTF | 2026-09-05 12:42:32 | 46.53397 | 7.79766 | 183° | 31km/h | 32256m | 5.7m/s | -39.4°C | 1.9% | 0hPa | 2.7V | 08:30:00 | 02:08:49 | 00:00:00 | |
| DO3MHA-12 | 2026-09-05 12:42:28 | 46.53405 | 7.79766 | 181° | 26km/h | 32251m | 4.8m/s | -39.3°C | 1.9% | 0hPa | 2.7V | 00:00:00 | 02:08:48 | 08:30:00 | |
| DO3MHA-11 | 2026-09-05 12:42:27 | 46.53414 | 7.79766 | 175° | 24km/h | 32247m | 4.0m/s | -39.3°C | 1.9% | 0hPa | 2.6V | 00:00:00 | 02:08:47 | 00:00:00 | |
| DM0DOS-11 | 2026-09-05 12:42:26 | 46.53434 | 7.79752 | 115° | 18km/h | 32223m | 5.9m/s | -39.2°C | 1.8% | 0hPa | 2.6V | 08:30:00 | 02:08:43 | 00:00:00 | |
| IW2NTF | 2026-09-05 12:42:25 | 46.53446 | 7.79722 | 135° | 27km/h | 32198m | 5.2m/s | -39.3°C | 1.9% | 0hPa | 2.6V | 08:30:00 | 02:08:39 | 00:00:00 | |
| BIOWL1-15 | 2026-09-05 12:42:22 | 46.53436 | 7.79745 | 112° | 22km/h | 32217m | 5.5m/s | -39.2°C | 0% | 0hPa | 2.6V | 18:12:15 | 02:08:42 | 00:00:00 | |
| DM0DOS-11 | 2026-09-05 12:42:18 | 46.53472 | 7.79698 | 155° | 20km/h | 32165m | 5.3m/s | -39.2°C | 1.8% | 0hPa | 2.6V | 08:30:00 | 02:08:33 | 00:00:00 | |
| BIOWL1-15 | 2026-09-05 12:42:14 | 46.53477 | 7.79695 | 152° | 24km/h | 32159m | 6.7m/s | -39.2°C | 0% | 0hPa | 2.6V | 18:12:15 | 02:08:32 | 00:00:00 | |
| DB0ND-19 | 2026-09-05 12:42:13 | 46.53472 | 7.79698 | 155° | 18km/h | 32165m | 5.3m/s | -39.2°C | 0.1% | -1.0hPa | 2.7V | 00:00:00 | 00:00:00 | 00:00:00 | |
| DO3MHA-12 | 2026-09-05 12:42:08 | 46.53495 | 7.79664 | 104° | 20km/h | 32136m | 6.6m/s | -39.2°C | 1.8% | 0hPa | 2.7V | 00:00:00 | 02:08:28 | 00:00:00 | |
| DO3MHA-11 | 2026-09-05 12:42:07 | 46.53495 | 7.79654 | 87° | 18km/h | 32129m | 7.3m/s | -39.2°C | 1.8% | 0hPa | 2.7V | 00:00:00 | 02:08:27 | 00:00:00 | |
| HASLITAL | 2026-09-05 12:42:06 | 46.53496 | 7.79654 | 87° | 27km/h | 32129m | 7.4m/s | -39.2°C | 0.2% | 0hPa | 2.7V | 00:00:00 | 00:00:00 | 00:00:00 | |
| DM0DOS-11 | 2026-09-05 12:42:05 | 46.53490 | 7.79626 | 162° | 9km/h | 32099m | 7.4m/s | -39.4°C | 1.8% | 0hPa | 2.7V | 08:30:00 | 02:08:22 | 00:00:00 | |
| IW2NTF | 2026-09-05 12:42:04 | 46.53504 | 7.79624 | 171° | 20km/h | 32082m | 4.7m/s | -39.4°C | 1.8% | 0hPa | 2.6V | 08:30:00 | 02:08:19 | 00:00:00 | |
| BIOWL1-15 | 2026-09-05 12:42:01 | 46.53504 | 7.79592 | 59° | 22km/h | 32045m | 6.2m/s | -39.4°C | 0% | 0hPa | 2.7V | 18:12:15 | 02:08:13 | 00:00:00 | |
| DL1ZP-14 | 2026-09-05 12:41:57 | 46.53510 | 7.79619 | 114° | 13km/h | 32071m | 6.6m/s | -39.6°C | 0.1% | -1.0hPa | 2.7V | 00:00:00 | 00:00:00 | 00:00:00 | |
| DF7PN | 2026-09-05 12:41:55 | 46.53510 | 7.79607 | 69° | 20km/h | 32058m | 6.3m/s | -39.6°C | 0.1% | -1.0hPa | 2.7V | 00:00:00 | 00:00:00 | 00:00:00 | |
| IW2NTF | 2026-09-05 12:41:52 | 46.53492 | 7.79576 | 19° | 15km/h | 32022m | 6.2m/s | -39.5°C | 1.8% | 0hPa | 2.7V | 08:30:00 | 02:08:09 | 00:00:00 | |
| BIOWL1-15 | 2026-09-05 12:41:50 | 46.53485 | 7.79571 | 36° | 15km/h | 32010m | 5.6m/s | -39.5°C | 0% | 0hPa | 2.6V | 18:12:15 | 02:08:07 | 00:00:00 | |
| DK5PH-5 | 2026-09-05 12:41:48 | 46.53488 | 7.79574 | 23° | 16km/h | 32016m | 6.2m/s | -39.5°C | 1.8% | 0hPa | 2.6V | 00:00:00 | 02:08:08 | 00:00:00 | |
| DM0DOS-11 | 2026-09-05 12:41:46 | 46.53492 | 7.79540 | 138° | 16km/h | 31975m | 4.1m/s | -39.5°C | 1.8% | 0hPa | 2.6V | 08:30:00 | 02:08:01 | 00:00:00 | |
| IW2NTF | 2026-09-05 12:41:46 | 46.53495 | 7.79534 | 57° | 7km/h | 31964m | 7.5m/s | -39.6°C | 1.8% | 0hPa | 2.7V | 08:30:00 | 02:07:59 | 00:00:00 | |
| BIOWL1-15 | 2026-09-05 12:41:39 | 46.53483 | 7.79535 | 342° | 24km/h | 31944m | 5.3m/s | -39.6°C | 0% | 0hPa | 2.6V | 18:12:15 | 02:07:56 | 00:00:00 | |
| DO3MHA-12 | 2026-09-05 12:41:37 | 46.53488 | 7.79533 | 352° | 16km/h | 31950m | 6.4m/s | -39.6°C | 1.8% | 0hPa | 2.6V | 00:00:00 | 02:07:57 | 00:00:00 | |
| DM0DOS-11 | 2026-09-05 12:41:35 | 46.53480 | 7.79537 | 134° | 20km/h | 31908m | 7.4m/s | -39.5°C | 1.8% | 0hPa | 2.6V | 08:30:00 | 02:07:50 | 00:00:00 | |
| IW2NTF | 2026-09-05 12:41:32 | 46.53484 | 7.79531 | 130° | 24km/h | 31901m | 6.1m/s | -39.5°C | 1.8% | 0hPa | 2.7V | 08:30:00 | 02:07:49 | 00:00:00 | |
| BIOWL1-15 | 2026-09-05 12:41:27 | 46.53492 | 7.79519 | 140° | 22km/h | 31891m | 4.6m/s | -39.6°C | 0% | 0hPa | 2.6V | 18:12:15 | 02:07:47 | 00:00:00 | |
| DL1ZP-14 | 2026-09-05 12:41:26 | 46.53496 | 7.79515 | 155° | 18km/h | 31886m | 5.8m/s | -39.6°C | 0.1% | -1.0hPa | 2.6V | 00:00:00 | 00:00:00 | 00:00:00 | |
| DF7PN | 2026-09-05 12:41:24 | 46.53503 | 7.79515 | 212° | 13km/h | 31874m | 6.0m/s | -39.6°C | 0.1% | -1.0hPa | 2.7V | 00:00:00 | 00:00:00 | 00:00:00 | |
| IW2NTF | 2026-09-05 12:41:21 | 46.53498 | 7.79532 | 345° | 15km/h | 31842m | 5m/s | -39.7°C | 1.8% | 0hPa | 2.7V | 08:30:00 | 02:07:39 | 00:00:00 | |
| BIOWL9-15 | 2026-09-05 12:41:21 | 46.53502 | 7.79530 | 334° | 15km/h | 31849m | 6.7m/s | -39.6°C | 0.1% | -1.0hPa | 2.6V | 00:00:00 | 00:00:00 | 00:00:00 | |
| DM0DOS-11 | 2026-09-05 12:41:17 | 46.53494 | 7.79534 | 300° | 4km/h | 31831m | 6.6m/s | -39.6°C | 1.8% | 0hPa | 2.6V | 08:30:00 | 02:07:37 | 00:00:00 | |
| BIOWL1-15 | 2026-09-05 12:41:16 | 46.53495 | 7.79535 | 213° | 7km/h | 31825m | 6.9m/s | -39.7°C | 0% | 0hPa | 2.6V | 18:12:15 | 02:07:36 | 00:00:00 | |
| DB0UT-7 | 2026-09-05 12:41:16 | 46.53495 | 7.79535 | 213° | 18km/h | 31825m | 6.9m/s | -39.7°C | 1.8% | 0hPa | 2.6V | 00:00:00 | 02:07:36 | 00:00:00 | |
| IW2NTF | 2026-09-05 12:41:15 | 46.53519 | 7.79554 | 244° | 20km/h | 31782m | 6.4m/s | -39.9°C | 1.8% | 0hPa | 2.6V | 08:30:00 | 02:07:29 | 00:00:00 | |
| BIOWL1-15 | 2026-09-05 12:41:05 | 46.53525 | 7.79587 | 270° | 20km/h | 31758m | 4.3m/s | -40°C | 0% | 0hPa | 2.6V | 18:12:15 | 02:07:25 | 00:00:00 | |
| HASLITAL | 2026-09-05 12:41:03 | 46.53524 | 7.79593 | 286° | 15km/h | 31753m | 5.6m/s | -40.0°C | 0.2% | 0hPa | 2.7V | 00:00:00 | 00:00:00 | 00:00:00 | |
| IW2NTF | 2026-09-05 12:41:00 | 46.53518 | 7.79606 | 249° | 13km/h | 31725m | 5.5m/s | -40.4°C | 1.8% | 0hPa | 2.7V | 08:30:00 | 02:07:19 | 00:00:00 | |
| DO3MHA-12 | 2026-09-05 12:40:57 | 46.53524 | 7.79621 | 238° | 22km/h | 31711m | 7.9m/s | -40.4°C | 1.9% | 0hPa | 2.6V | 00:00:00 | 02:07:17 | 08:30:00 | |
| DM0DOS-11 | 2026-09-05 12:40:55 | 46.53550 | 7.79676 | 246° | 5km/h | 31674m | 6m/s | -40.8°C | 1.9% | 0hPa | 2.6V | 08:30:00 | 02:07:11 | 00:00:00 | |
| BIOWL1-15 | 2026-09-05 12:40:55 | 46.53535 | 7.79645 | 235° | 42km/h | 31697m | 5.1m/s | -40.6°C | 0% | 0hPa | 2.7V | 18:12:15 | 02:07:15 | 00:00:00 | |
| IW2NTF | 2026-09-05 12:40:55 | 46.53550 | 7.79679 | 318° | 5km/h | 31662m | 6.2m/s | -40.8°C | 1.9% | 0hPa | 2.7V | 08:30:00 | 02:07:09 | 00:00:00 | |
| DF7PN | 2026-09-05 12:40:53 | 46.53546 | 7.79667 | 233° | 26km/h | 31687m | 6.3m/s | -40.7°C | 0.2% | -1.0hPa | 2.7V | 00:00:00 | 00:00:00 | 00:00:00 | |
| DL6DJ-15 | 2026-09-05 12:40:50 | 46.53550 | 7.79677 | 314° | 2km/h | 31668m | 5.5m/s | -40.8°C | 0.2% | -1.0hPa | 2.7V | 00:00:00 | 00:00:00 | 00:00:00 | |
| BIOWL9-15 | 2026-09-05 12:40:49 | 46.53549 | 7.79679 | 318° | 5km/h | 31662m | 6.2m/s | -40.8°C | 0.2% | -1.0hPa | 2.7V | 00:00:00 | 00:00:00 | 00:00:00 | |
| DK5PH-5 | 2026-09-05 12:40:48 | 46.53548 | 7.79681 | 296° | 22km/h | 31656m | 6.3m/s | -40.7°C | 1.9% | 0hPa | 2.7V | 00:00:00 | 02:07:08 | 00:00:00 | |
| DO3MHA-12 | 2026-09-05 12:40:47 | 46.53548 | 7.79685 | 277° | 26km/h | 31650m | 6.2m/s | -40.7°C | 1.9% | 0hPa | 2.6V | 00:00:00 | 02:07:07 | 00:00:00 | |
| DB0UT-7 | 2026-09-05 12:40:46 | 46.53548 | 7.79690 | 265° | 22km/h | 31644m | 6.0m/s | -40.7°C | 1.9% | 0hPa | 2.6V | 00:00:00 | 00:00:00 | 00:00:00 | |
| DM0DOS-11 | 2026-09-05 12:40:45 | 46.53564 | 7.79721 | 207° | 31km/h | 31612m | 5.8m/s | -40.6°C | 1.9% | 0hPa | 2.6V | 08:30:00 | 02:07:01 | 00:00:00 | |
| IW2NTF | 2026-09-05 12:40:45 | 46.53580 | 7.79731 | 202° | 37km/h | 31599m | 6.9m/s | -40.5°C | 1.9% | 0hPa | 2.7V | 08:30:00 | 02:06:59 | 00:00:00 | |
| BIOWL1-15 | 2026-09-05 12:40:44 | 46.53551 | 7.79704 | 241° | 20km/h | 31631m | 6.9m/s | -40.8°C | 0% | 0hPa | 2.6V | 18:12:15 | 02:07:04 | 00:00:00 | |
| HASLITAL | 2026-09-05 12:40:43 | 46.53551 | 7.79704 | 242° | 20km/h | 31631m | 6.9m/s | -40.8°C | 0.2% | 0hPa | 2.7V | 00:00:00 | 00:00:00 | 00:00:00 | |
| DB0ND-19 | 2026-09-05 12:40:40 | 46.53580 | 7.79731 | 202° | 35km/h | 31600m | 6.9m/s | -40.6°C | 0.1% | -1.0hPa | 2.7V | 00:00:00 | 00:00:00 | 00:00:00 | |
| DO3MHA-12 | 2026-09-05 12:40:37 | 46.53596 | 7.79738 | 192° | 16km/h | 31589m | 4.7m/s | -40.6°C | 1.9% | 0hPa | 2.7V | 00:00:00 | 02:06:57 | 00:00:00 | |
| IW2NTF | 2026-09-05 12:40:35 | 46.53606 | 7.79746 | 232° | 29km/h | 31540m | 7m/s | -40.5°C | 1.9% | 0hPa | 2.7V | 08:30:00 | 02:06:49 | 00:00:00 | |
| BIOWL1-15 | 2026-09-05 12:40:33 | 46.53604 | 7.79733 | 356° | 7km/h | 31558m | 3.9m/s | -40.7°C | 0% | 0hPa | 2.6V | 18:12:15 | 02:06:52 | 00:00:00 | |
| DM0DOS-11 | 2026-09-05 12:40:33 | 46.53603 | 7.79734 | 282° | 7km/h | 31553m | 5.2m/s | -40.6°C | 1.9% | 0hPa | 2.6V | 08:30:00 | 02:06:51 | 00:00:00 | |
| DO3MHA-11 | 2026-09-05 12:40:27 | 46.53621 | 7.79763 | 209° | 24km/h | 31528m | 5.1m/s | -40.5°C | 1.9% | 0hPa | 2.6V | 00:00:00 | 02:06:47 | 00:00:00 | |
| DM0DOS-11 | 2026-09-05 12:40:26 | 46.53663 | 7.79758 | 126° | 15km/h | 31493m | 6.1m/s | -40.8°C | 1.9% | 0hPa | 2.6V | 08:30:00 | 02:06:41 | 00:00:00 | |
| IW2NTF | 2026-09-05 12:40:24 | 46.53666 | 7.79755 | 210° | 7km/h | 31480m | 6.7m/s | -40.8°C | 1.9% | 0hPa | 2.6V | 08:30:00 | 02:06:39 | 00:00:00 | |
| BIOWL1-15 | 2026-09-05 12:40:23 | 46.53671 | 7.79763 | 230° | 22km/h | 31467m | 5.7m/s | -40.6°C | 0% | 0hPa | 2.7V | 18:12:15 | 02:06:37 | 00:00:00 | |
| DF7PN | 2026-09-05 12:40:22 | 46.53666 | 7.79755 | 210° | 7km/h | 31480m | 6.7m/s | -40.8°C | 0.2% | -1.0hPa | 2.6V | 00:00:00 | 00:00:00 | 00:00:00 | |
| DL6DJ-15 | 2026-09-05 12:40:19 | 46.53666 | 7.79755 | 210° | 7km/h | 31480m | 6.7m/s | -40.8°C | 0.2% | -1.0hPa | 2.6V | 00:00:00 | 00:00:00 | 00:00:00 | |
| DK5PH-5 | 2026-09-05 12:40:18 | 46.53668 | 7.79758 | 230° | 20km/h | 31474m | 6.3m/s | -40.7°C | 2.0% | 0hPa | 2.6V | 00:00:00 | 02:06:38 | 00:00:00 | |
| DO3MHA-12 | 2026-09-05 12:40:17 | 46.53671 | 7.79763 | 231° | 24km/h | 31468m | 5.6m/s | -40.6°C | 1.9% | 0hPa | 2.6V | 00:00:00 | 02:06:37 | 00:00:00 | |
| DM0DOS-11 | 2026-09-05 12:40:16 | 46.53701 | 7.79786 | 174° | 22km/h | 31431m | 6m/s | -40.9°C | 2% | 0hPa | 2.6V | 08:30:00 | 02:06:31 | 00:00:00 | |
| DB0UT-7 | 2026-09-05 12:40:16 | 46.53675 | 7.79770 | 227° | 20km/h | 31462m | 5.5m/s | -40.6°C | 1.9% | 0hPa | 2.6V | 00:00:00 | 02:06:36 | 00:00:00 | |
| IW2NTF | 2026-09-05 12:40:13 | 46.53712 | 7.79784 | 178° | 22km/h | 31418m | 6.9m/s | -40.8°C | 1.9% | 0hPa | 2.7V | 08:30:00 | 02:06:29 | 00:00:00 | |
| BIOWL1-15 | 2026-09-05 12:40:12 | 46.53696 | 7.79786 | 182° | 22km/h | 31437m | 6.2m/s | -40.8°C | 0% | 0hPa | 2.6V | 18:12:15 | 02:06:32 | 00:00:00 | |
| DB0ND-19 | 2026-09-05 12:40:09 | 46.53713 | 7.79784 | 178° | 22km/h | 31418m | 6.9m/s | -40.8°C | 0.1% | -1.0hPa | 2.6V | 00:00:00 | 00:00:00 | 00:00:00 | |
| DO3MHA-12 | 2026-09-05 12:40:07 | 46.53723 | 7.79785 | 183° | 16km/h | 31407m | 4.8m/s | -40.7°C | 2.0% | 0hPa | 2.6V | 00:00:00 | 02:06:27 | 00:00:00 | |
| DH7VM-15 | 2026-09-05 12:40:05 | 46.53727 | 7.79784 | 177° | 15km/h | 31402m | 5.8m/s | -40.8°C | 0.2% | 0hPa | 2.6V | 00:00:00 | 00:00:00 | 00:00:00 | |
| IW2NTF | 2026-09-05 12:40:04 | 46.53751 | 7.79779 | 177° | 26km/h | 31357m | 4.9m/s | -40.9°C | 2% | 0hPa | 2.6V | 08:30:00 | 02:06:19 | 00:00:00 | |
| BIOWL1-15 | 2026-09-05 12:40:01 | 46.53752 | 7.79779 | 178° | 26km/h | 31357m | 4.9m/s | -40.9°C | 0% | 0hPa | 2.6V | 18:12:15 | 02:06:19 | 00:00:00 | |
| HASLITAL | 2026-09-05 12:40:00 | 46.53741 | 7.79779 | 181° | 16km/h | 31369m | 7.2m/s | -41.0°C | 0.2% | 0hPa | 2.6V | 00:00:00 | 00:00:00 | 00:00:00 | |
| DM0DOS-11 | 2026-09-05 12:39:58 | 46.53778 | 7.79762 | 135° | 31km/h | 31332m | 5.4m/s | -40.8°C | 1.9% | 0hPa | 2.6V | 08:30:00 | 02:06:15 | 00:00:00 | |
| DO3MHA-11 | 2026-09-05 12:39:57 | 46.53765 | 7.79775 | 158° | 22km/h | 31346m | 7.3m/s | -40.8°C | 2.0% | 0hPa | 2.6V | 00:00:00 | 02:06:17 | 00:00:00 | |
| IW2NTF | 2026-09-05 12:39:54 | 46.53804 | 7.79738 | 182° | 15km/h | 31297m | 5.1m/s | -40.9°C | 1.9% | 0hPa | 2.6V | 08:30:00 | 02:06:09 | 00:00:00 | |
| BIOWL1-15 | 2026-09-05 12:39:48 | 46.53808 | 7.79737 | 164° | 13km/h | 31292m | 4.8m/s | -40.8°C | 0% | 0hPa | 2.7V | 18:12:15 | 02:06:08 | 00:00:00 | |
| DK5PH-5 | 2026-09-05 12:39:48 | 46.53808 | 7.79737 | 165° | 20km/h | 31292m | 4.7m/s | -40.8°C | 1.9% | 0hPa | 2.6V | 00:00:00 | 02:06:08 | 00:00:00 | |
| DM0DOS-11 | 2026-09-05 12:39:47 | 46.53816 | 7.79722 | 114° | 29km/h | 31272m | 6.5m/s | -41°C | 1.9% | 0hPa | 2.6V | 08:30:00 | 02:06:05 | 00:00:00 | |
| DO3MHA-11 | 2026-09-05 12:39:47 | 46.53810 | 7.79735 | 138° | 29km/h | 31287m | 6.5m/s | -40.8°C | 1.9% | 0hPa | 2.7V | 00:00:00 | 02:06:07 | 08:30:00 | |
| DB0UT-7 | 2026-09-05 12:39:46 | 46.53813 | 7.79730 | 119° | 22km/h | 31280m | 7.1m/s | -40.8°C | 1.9% | 0hPa | 2.6V | 00:00:00 | 00:00:00 | 00:00:00 | |
| IW2NTF | 2026-09-05 12:39:44 | 46.53849 | 7.79668 | 144° | 26km/h | 31236m | 5.7m/s | -41°C | 1.9% | 0hPa | 2.6V | 08:30:00 | 02:05:59 | 00:00:00 | |
| HASLITAL | 2026-09-05 12:39:40 | 46.53836 | 7.79681 | 142° | 35km/h | 31247m | 5.6m/s | -41.1°C | 0.2% | 0hPa | 2.7V | 00:00:00 | 00:00:00 | 00:00:00 | |
| DO3MHA-11 | 2026-09-05 12:39:37 | 46.53857 | 7.79658 | 125° | 16km/h | 31223m | 6.9m/s | -41.1°C | 1.9% | 0hPa | 2.7V | 00:00:00 | 02:05:57 | 00:00:00 | |
| BIOWL1-15 | 2026-09-05 12:39:37 | 46.53857 | 7.79658 | 125° | 15km/h | 31223m | 7m/s | -41.1°C | 0% | 0hPa | 2.6V | 18:12:15 | 02:05:57 | 00:00:00 | |
| DM0DOS-11 | 2026-09-05 12:39:36 | 46.53859 | 7.79650 | 98° | 9km/h | 31210m | 5.6m/s | -41.2°C | 2% | 0hPa | 2.7V | 08:30:00 | 02:05:55 | 00:00:00 | |
| IW2NTF | 2026-09-05 12:39:34 | 46.53874 | 7.79625 | 121° | 31km/h | 31175m | 6.9m/s | -41.6°C | 2% | 0hPa | 2.6V | 08:30:00 | 02:05:49 | 00:00:00 | |
| BIOWL1-15 | 2026-09-05 12:39:27 | 46.53880 | 7.79602 | 107° | 37km/h | 31162m | 5.8m/s | -41.6°C | 0% | 0hPa | 2.7V | 18:12:15 | 02:05:47 | 00:00:00 | |
| DM0DOS-11 | 2026-09-05 12:39:26 | 46.53885 | 7.79578 | 108° | 29km/h | 31152m | 4.8m/s | -41.6°C | 2% | 0hPa | 2.7V | 08:30:00 | 02:05:45 | 00:00:00 | |
| IW2NTF | 2026-09-05 12:39:23 | 46.53892 | 7.79567 | 6° | 7km/h | 31116m | 6.3m/s | -41.8°C | 2% | 0hPa | 2.7V | 08:30:00 | 02:05:39 | 00:00:00 | |
| DL1ZP-14 | 2026-09-05 12:39:22 | 46.53893 | 7.79565 | 243° | 5km/h | 31128m | 5.1m/s | -41.6°C | 0.2% | -1.0hPa | 2.7V | 00:00:00 | 00:00:00 | 00:00:00 | |
| HASLITAL | 2026-09-05 12:39:19 | 46.53893 | 7.79567 | 296° | 4km/h | 31123m | 5.8m/s | -41.7°C | 0.2% | 0hPa | 2.6V | 00:00:00 | 00:00:00 | 00:00:00 | |
| DK5PH-5 | 2026-09-05 12:39:18 | 46.53890 | 7.79566 | 41° | 16km/h | 31111m | 6.1m/s | -41.7°C | 2.0% | 0hPa | 2.6V | 00:00:00 | 02:05:38 | 08:30:00 | |
| DO3MHA-11 | 2026-09-05 12:39:17 | 46.53887 | 7.79560 | 61° | 20km/h | 31105m | 5.9m/s | -41.8°C | 2.0% | 0hPa | 2.6V | 00:00:00 | 02:05:37 | 00:00:00 | |
| DM0DOS-11 | 2026-09-05 12:39:16 | 46.53885 | 7.79543 | 90° | 29km/h | 31093m | 5.7m/s | -42°C | 2% | 0hPa | 2.7V | 08:30:00 | 02:05:35 | 00:00:00 | |
| BIOWL1-15 | 2026-09-05 12:39:16 | 46.53885 | 7.79553 | 76° | 27km/h | 31098m | 5.3m/s | -42°C | 0% | 0hPa | 2.6V | 18:12:15 | 02:05:36 | 00:00:00 | |
| DB0UT-7 | 2026-09-05 12:39:16 | 46.53885 | 7.79553 | 76° | 16km/h | 31099m | 5.2m/s | -41.9°C | 2.0% | 0hPa | 2.6V | 00:00:00 | 02:05:36 | 00:00:00 | |
| IW2NTF | 2026-09-05 12:39:12 | 46.53892 | 7.79493 | 29° | 20km/h | 31046m | 5.5m/s | -42°C | 2.1% | 0hPa | 2.6V | 08:30:00 | 02:05:27 | 00:00:00 | |
| BIOWL1-15 | 2026-09-05 12:39:05 | 46.53884 | 7.79484 | 44° | 20km/h | 31036m | 5.4m/s | -42.1°C | 0% | 0hPa | 2.7V | 18:12:15 | 02:05:25 | 00:00:00 | |
| IW2NTF | 2026-09-05 12:39:02 | 46.53873 | 7.79460 | 29° | 22km/h | 30990m | 5.5m/s | -42.6°C | 2.2% | 0hPa | 2.6V | 08:30:00 | 02:05:17 | 00:00:00 | |
| BIOWL1-15 | 2026-09-05 12:38:54 | 46.53852 | 7.79438 | 20° | 11km/h | 30962m | 6.2m/s | -42.6°C | 0% | 0hPa | 2.6V | 18:12:15 | 02:05:12 | 00:00:00 | |
| BIOWL1-15 | 2026-09-05 12:38:44 | 46.53828 | 7.79432 | 73° | 15km/h | 30917m | 5.9m/s | -42.7°C | 0% | 0hPa | 2.6V | 18:12:15 | 02:05:04 | 00:00:00 | |
| BIOWL1-15 | 2026-09-05 12:38:35 | 46.53820 | 7.79388 | 130° | 7km/h | 30834m | 5m/s | -43°C | 0% | 0hPa | 2.6V | 18:12:15 | 02:04:49 | 00:00:00 | |
| BIOWL1-15 | 2026-09-05 12:38:23 | 46.53812 | 7.79346 | 223° | 9km/h | 30779m | 5.2m/s | -43.2°C | 0% | 0hPa | 2.7V | 18:12:15 | 02:04:39 | 00:00:00 | |
| DM0DOS-11 | 2026-09-05 12:38:23 | 46.53809 | 7.79345 | 142° | 7km/h | 30790m | 6.2m/s | -43.1°C | 2.2% | 0hPa | 2.6V | 08:30:00 | 02:04:41 | 00:00:00 | |
| DO3MHA-11 | 2026-09-05 12:38:23 | 46.53808 | 7.79353 | 79° | 11km/h | 30802m | 5.1m/s | -43.2°C | 2.3% | 0hPa | 2.7V | 00:00:00 | 02:04:43 | 00:00:00 | |
| DL1ZP-14 | 2026-09-05 12:38:20 | 46.53812 | 7.79346 | 223° | 7km/h | 30779m | 5.2m/s | -43.2°C | 0.2% | -1.0hPa | 2.7V | 00:00:00 | 00:00:00 | 00:00:00 | |
| DK5PH-5 | 2026-09-05 12:38:18 | 46.53814 | 7.79348 | 222° | 11km/h | 30774m | 5.1m/s | -43.0°C | 2.2% | 0hPa | 2.7V | 00:00:00 | 02:04:38 | 00:00:00 | |
| HASLITAL | 2026-09-05 12:38:17 | 46.53814 | 7.79348 | 223° | 5km/h | 30774m | 5.1m/s | -43.1°C | 0.3% | 0hPa | 2.7V | 00:00:00 | 00:00:00 | 00:00:00 | |
| DB0UT-7 | 2026-09-05 12:38:16 | 46.53815 | 7.79346 | 108° | 13km/h | 30763m | 6.2m/s | -43.0°C | 2.2% | 0hPa | 2.7V | 00:00:00 | 02:04:36 | 00:00:00 | |
| IW2NTF | 2026-09-05 12:38:13 | 46.53819 | 7.79328 | 105° | 22km/h | 30744m | 5.7m/s | -42.9°C | 2.2% | 0hPa | 2.7V | 08:30:00 | 02:04:33 | 00:00:00 | |
| DM0DOS-11 | 2026-09-05 12:38:13 | 46.53822 | 7.79315 | 109° | 15km/h | 30732m | 6m/s | -42.9°C | 2.2% | 0hPa | 2.6V | 08:30:00 | 02:04:31 | 00:00:00 | |
| BIOWL1-15 | 2026-09-05 12:38:08 | 46.53823 | 7.79308 | 65° | 4km/h | 30715m | 5.4m/s | -42.8°C | 0% | 0hPa | 2.6V | 18:12:15 | 02:04:28 | 00:00:00 | |
| DB0ND-19 | 2026-09-05 12:38:05 | 46.53821 | 7.79304 | 88° | 2km/h | 30698m | 4.5m/s | -42.8°C | 0.2% | -1.0hPa | 2.7V | 00:00:00 | 00:00:00 | 00:00:00 | |
| IW2NTF | 2026-09-05 12:38:04 | 46.53823 | 7.79305 | 201° | 9km/h | 30687m | 6.8m/s | -42.7°C | 2.2% | 0hPa | 2.7V | 08:30:00 | 02:04:23 | 00:00:00 | |
| DM0DOS-11 | 2026-09-05 12:38:01 | 46.53851 | 7.79298 | 125° | 16km/h | 30646m | 5m/s | -42.7°C | 2.1% | 0hPa | 2.6V | 08:30:00 | 02:04:16 | 00:00:00 | |
| BIOWL1-15 | 2026-09-05 12:37:58 | 46.53851 | 7.79298 | 126° | 16km/h | 30646m | 5m/s | -42.7°C | 0% | 0hPa | 2.6V | 18:12:15 | 02:04:16 | 00:00:00 | |
| HASLITAL | 2026-09-05 12:37:57 | 46.53848 | 7.79303 | 134° | 18km/h | 30651m | 5.4m/s | -42.6°C | 0.3% | 0hPa | 2.6V | 00:00:00 | 00:00:00 | 00:00:00 | |
| IW2NTF | 2026-09-05 12:37:54 | 46.53856 | 7.79289 | 158° | 5km/h | 30627m | 5.5m/s | -42.7°C | 2.1% | 0hPa | 2.6V | 08:30:00 | 02:04:13 | 00:00:00 | |
| DL1ZP-14 | 2026-09-05 12:37:49 | 46.53866 | 7.79282 | 157° | 16km/h | 30599m | 5.1m/s | -42.8°C | 0.2% | -1.0hPa | 2.7V | 00:00:00 | 00:00:00 | 00:00:00 | |
| DM0DOS-11 | 2026-09-05 12:37:48 | 46.53875 | 7.79278 | 173° | 22km/h | 30586m | 6.5m/s | -42.8°C | 2.2% | 0hPa | 2.6V | 08:30:00 | 02:04:06 | 00:00:00 | |
| BIOWL1-15 | 2026-09-05 12:37:47 | 46.53881 | 7.79277 | 173° | 22km/h | 30581m | 4.7m/s | -42.8°C | 0% | 0hPa | 2.6V | 18:12:15 | 02:04:05 | 00:00:00 | |
| DB0UT-7 | 2026-09-05 12:37:46 | 46.53875 | 7.79278 | 174° | 15km/h | 30587m | 6.5m/s | -42.7°C | 2.2% | 0hPa | 2.6V | 00:00:00 | 00:00:00 | 00:00:00 | |
| IW2NTF | 2026-09-05 12:37:45 | 46.53896 | 7.79261 | 100° | 20km/h | 30559m | 6.4m/s | -42.9°C | 2.2% | 0hPa | 2.6V | 08:30:00 | 02:04:01 | 00:00:00 | |
| BIOWL1-15 | 2026-09-05 12:37:35 | 46.53896 | 7.79241 | 203° | 11km/h | 30526m | 4.7m/s | -42.9°C | 0% | 0hPa | 2.6V | 18:12:15 | 02:03:55 | 00:00:00 | |
| IW2NTF | 2026-09-05 12:37:34 | 46.53909 | 7.79236 | 130° | 18km/h | 30504m | 5.2m/s | -42.8°C | 2.1% | 0hPa | 2.7V | 08:30:00 | 02:03:51 | 00:00:00 | |
| DM0DOS-11 | 2026-09-05 12:37:32 | 46.53906 | 7.79240 | 147° | 16km/h | 30510m | 6.2m/s | -42.8°C | 2.1% | 0hPa | 2.7V | 08:30:00 | 02:03:52 | 00:00:00 | |
| DB0NH | 2026-09-05 12:37:29 | 46.53914 | 7.79225 | 120° | 22km/h | 30495m | 4.6m/s | 0°C | 0% | 0hPa | 2.6V | 00:00:00 | 02:03:49 | 00:00:00 | |
| DM0DOS-11 | 2026-09-05 12:37:25 | 46.53927 | 7.79223 | 139° | 11km/h | 30456m | 6.5m/s | -42.9°C | 2.1% | 0hPa | 2.6V | 08:30:00 | 02:03:42 | 00:00:00 | |
| DH7VM-15 | 2026-09-05 12:37:25 | 46.53921 | 7.79222 | 224° | 11km/h | 30472m | 5.0m/s | -43.1°C | 0.3% | 0hPa | 2.7V | 00:00:00 | 00:00:00 | 00:00:00 | |
| BIOWL1-15 | 2026-09-05 12:37:24 | 46.53931 | 7.79215 | 122° | 16km/h | 30444m | 4.9m/s | -43°C | 0% | 0hPa | 2.7V | 18:12:15 | 02:03:40 | 00:00:00 | |
| IW2NTF | 2026-09-05 12:37:22 | 46.53929 | 7.79220 | 123° | 15km/h | 30450m | 5.5m/s | -42.9°C | 2.1% | 0hPa | 2.7V | 08:30:00 | 02:03:41 | 00:00:00 | |
| DK5PH-5 | 2026-09-05 12:37:18 | 46.53936 | 7.79206 | 137° | 13km/h | 30433m | 6.1m/s | -43.1°C | 2.2% | 0hPa | 2.6V | 00:00:00 | 02:03:38 | 00:00:00 | |
| DM0DOS-11 | 2026-09-05 12:37:17 | 46.53951 | 7.79188 | 119° | 18km/h | 30399m | 5.7m/s | -43.2°C | 2.2% | 0hPa | 2.6V | 08:30:00 | 02:03:32 | 00:00:00 | |
| IW2NTF | 2026-09-05 12:37:17 | 46.53953 | 7.79182 | 122° | 18km/h | 30393m | 5.1m/s | -43.1°C | 2.2% | 0hPa | 2.6V | 08:30:00 | 02:03:31 | 00:00:00 | |
| BIOWL1-15 | 2026-09-05 12:37:14 | 46.53950 | 7.79188 | 120° | 18km/h | 30399m | 5.7m/s | -43.2°C | 0% | 0hPa | 2.6V | 18:12:15 | 02:03:32 | 00:00:00 | |
| BIOWL9-15 | 2026-09-05 12:37:12 | 46.53953 | 7.79182 | 122° | 16km/h | 30394m | 5.1m/s | -43.1°C | 0.2% | -1.0hPa | 2.6V | 00:00:00 | 00:00:00 | 00:00:00 | |
| DM0DOS-11 | 2026-09-05 12:37:04 | 46.53970 | 7.79148 | 110° | 13km/h | 30344m | 4.2m/s | -43.6°C | 2.2% | 0hPa | 2.6V | 08:30:00 | 02:03:22 | 00:00:00 | |
| IW2NTF | 2026-09-05 12:37:01 | 46.53971 | 7.79145 | 130° | 9km/h | 30339m | 5.6m/s | -43.6°C | 2.2% | 0hPa | 2.6V | 08:30:00 | 02:03:21 | 00:00:00 | |
| BIOWL1-15 | 2026-09-05 12:37:01 | 46.53973 | 7.79143 | 180° | 7km/h | 30333m | 6.5m/s | -43.6°C | 0% | 0hPa | 2.7V | 18:12:15 | 02:03:20 | 00:00:00 | |
| DM0DOS-11 | 2026-09-05 12:36:57 | 46.53992 | 7.79141 | 118° | 18km/h | 30288m | 4.9m/s | -43.7°C | 2.2% | 0hPa | 2.6V | 08:30:00 | 02:03:12 | 00:00:00 | |
| HASLITAL | 2026-09-05 12:36:55 | 46.53983 | 7.79153 | 201° | 11km/h | 30312m | 4.6m/s | -43.7°C | 0.3% | 0hPa | 2.6V | 00:00:00 | 00:00:00 | 00:00:00 | |
| IW2NTF | 2026-09-05 12:36:52 | 46.53997 | 7.79132 | 150° | 13km/h | 30276m | 6.3m/s | -43.8°C | 2.2% | 0hPa | 2.6V | 08:30:00 | 02:03:10 | 00:00:00 | |
| BIOWL1-15 | 2026-09-05 12:36:51 | 46.54000 | 7.79131 | 177° | 13km/h | 30271m | 5.6m/s | -43.6°C | 0% | 0hPa | 2.7V | 18:12:15 | 02:03:09 | 00:00:00 | |
| DK5PH-5 | 2026-09-05 12:36:48 | 46.54003 | 7.79131 | 192° | 20km/h | 30266m | 4.8m/s | -43.6°C | 2.2% | 0hPa | 2.6V | 00:00:00 | 02:03:08 | 00:00:00 | |
| DB0UT-7 | 2026-09-05 12:36:46 | 46.54010 | 7.79132 | 179° | 22km/h | 30255m | 6.4m/s | -43.6°C | 2.2% | 0hPa | 2.6V | 00:00:00 | 00:00:00 | 00:00:00 | |
| DM0DOS-11 | 2026-09-05 12:36:44 | 46.54023 | 7.79122 | 146° | 16km/h | 30231m | 6.3m/s | -43.7°C | 2.2% | 0hPa | 2.6V | 08:30:00 | 02:03:02 | 00:00:00 | |
| BIOWL1-15 | 2026-09-05 12:36:38 | 46.54075 | 7.79068 | 181° | 20km/h | 30168m | 5.1m/s | -43.7°C | 0% | 0hPa | 2.6V | 18:12:15 | 02:02:51 | 00:00:00 | |
| DM0DOS-11 | 2026-09-05 12:36:37 | 46.54070 | 7.79069 | 169° | 20km/h | 30173m | 6.3m/s | -43.8°C | 2.2% | 0hPa | 2.6V | 08:30:00 | 02:02:52 | 00:00:00 | |
| HASLITAL | 2026-09-05 12:36:33 | 46.54060 | 7.79077 | 139° | 26km/h | 30186m | 5.1m/s | -44.0°C | 0.3% | 0hPa | 2.7V | 00:00:00 | 00:00:00 | 00:00:00 | |
| IW2NTF | 2026-09-05 12:36:32 | 46.54079 | 7.79068 | 178° | 20km/h | 30163m | 4.4m/s | -43.7°C | 2.2% | 0hPa | 2.7V | 08:30:00 | 02:02:50 | 00:00:00 | |
| DM0DOS-11 | 2026-09-05 12:36:27 | 46.54119 | 7.79031 | 163° | 24km/h | 30118m | 5.2m/s | -43.8°C | 2.3% | 0hPa | 2.6V | 08:30:00 | 02:02:42 | 00:00:00 | |
| IW2NTF | 2026-09-05 12:36:26 | 46.54129 | 7.79027 | 158° | 18km/h | 30107m | 6m/s | -43.6°C | 2.3% | 0hPa | 2.6V | 08:30:00 | 02:02:40 | 00:00:00 | |
| BIOWL1-15 | 2026-09-05 12:36:24 | 46.54108 | 7.79039 | 144° | 27km/h | 30129m | 6m/s | -43.9°C | 0% | 0hPa | 2.7V | 18:12:15 | 02:02:44 | 00:00:00 | |
| DK5PH-5 | 2026-09-05 12:36:18 | 46.54136 | 7.79019 | 129° | 31km/h | 30095m | 6.1m/s | -43.5°C | 2.3% | 0hPa | 2.7V | 00:00:00 | 02:02:38 | 00:00:00 | |
| DM0DOS-11 | 2026-09-05 12:36:17 | 46.54169 | 7.78977 | 140° | 38km/h | 30060m | 5.6m/s | -43.7°C | 2.2% | 0hPa | 2.6V | 08:30:00 | 02:02:32 | 00:00:00 | |
| BIOWL1-15 | 2026-09-05 12:36:15 | 46.54162 | 7.78985 | 145° | 37km/h | 30065m | 5.2m/s | -43.6°C | 0% | 0hPa | 2.6V | 18:12:15 | 02:02:33 | 00:00:00 | |
| HASLITAL | 2026-09-05 12:36:13 | 46.54155 | 7.78992 | 146° | 33km/h | 30071m | 5.8m/s | -43.6°C | 0.3% | 0hPa | 2.7V | 00:00:00 | 00:00:00 | 00:00:00 | |
| IW2NTF | 2026-09-05 12:36:12 | 46.54183 | 7.78958 | 129° | 37km/h | 30047m | 6m/s | -43.8°C | 2.2% | 0hPa | 2.7V | 08:30:00 | 02:02:30 | 00:00:00 | |
| BIOWL1-15 | 2026-09-05 12:36:02 | 46.54214 | 7.78901 | 113° | 31km/h | 30002m | 6.8m/s | -44°C | 0% | 0hPa | 2.6V | 18:12:15 | 02:02:22 | 00:00:00 | |
| IW2NTF | 2026-09-05 12:36:01 | 46.54222 | 7.78875 | 116° | 46km/h | 29990m | 5.1m/s | -44.1°C | 2.3% | 0hPa | 2.7V | 08:30:00 | 02:02:20 | 00:00:00 | |
| DB0ND-19 | 2026-09-05 12:36:01 | 46.54222 | 7.78875 | 116° | 46km/h | 29990m | 5.1m/s | -44.1°C | 0.3% | -1.0hPa | 2.7V | 00:00:00 | 00:00:00 | 00:00:00 | |
| DM0DOS-11 | 2026-09-05 12:35:58 | 46.54260 | 7.78810 | 137° | 38km/h | 29960m | 5.6m/s | -44.1°C | 2.2% | 0hPa | 2.7V | 08:30:00 | 02:02:15 | 00:00:00 | |
| HASLITAL | 2026-09-05 12:35:52 | 46.54271 | 7.78792 | 124° | 27km/h | 29948m | 6.4m/s | -44.2°C | 0.3% | 0hPa | 2.6V | 00:00:00 | 00:00:00 | 00:00:00 | |
| IW2NTF | 2026-09-05 12:35:51 | 46.54277 | 7.78772 | 111° | 16km/h | 29930m | 6.5m/s | -44.1°C | 2.3% | 0hPa | 2.6V | 08:30:00 | 02:02:10 | 00:00:00 | |
| BIOWL1-15 | 2026-09-05 12:35:51 | 46.54275 | 7.78778 | 108° | 18km/h | 29936m | 5.5m/s | -44.1°C | 0% | 0hPa | 2.6V | 18:12:15 | 02:02:11 | 00:00:00 | |
| DK5PH-5 | 2026-09-05 12:35:48 | 46.54282 | 7.78761 | 128° | 26km/h | 29919m | 5.2m/s | -44.1°C | 2.3% | 0hPa | 2.6V | 00:00:00 | 02:02:08 | 00:00:00 | |
| DB0UT-7 | 2026-09-05 12:35:46 | 46.54289 | 7.78745 | 121° | 26km/h | 29907m | 6.6m/s | -44.2°C | 2.3% | 0hPa | 2.6V | 00:00:00 | 00:00:00 | 00:00:00 | |
| DM0DOS-11 | 2026-09-05 12:35:45 | 46.54306 | 7.78698 | 124° | 37km/h | 29884m | 5.5m/s | -44.2°C | 2.3% | 0hPa | 2.6V | 08:30:00 | 02:02:02 | 00:00:00 | |
| DL1ZP-14 | 2026-09-05 12:35:44 | 46.54297 | 7.78722 | 114° | 37km/h | 29894m | 5.4m/s | -44.4°C | 0.3% | -1.0hPa | 2.7V | 00:00:00 | 00:00:00 | 00:00:00 | |
| IW2NTF | 2026-09-05 12:35:42 | 46.54317 | 7.78681 | 144° | 29km/h | 29871m | 5.8m/s | -44.2°C | 2.3% | 0hPa | 2.7V | 08:30:00 | 02:02:00 | 00:00:00 | |
| BIOWL1-15 | 2026-09-05 12:35:41 | 46.54312 | 7.78688 | 134° | 33km/h | 29878m | 6.9m/s | -44.2°C | 0% | 0hPa | 2.6V | 18:12:15 | 02:02:01 | 00:00:00 | |
| DL6DJ-15 | 2026-09-05 12:35:40 | 46.54323 | 7.78676 | 151° | 22km/h | 29866m | 4.8m/s | -44.2°C | 0.2% | -1.0hPa | 2.6V | 00:00:00 | 00:00:00 | 00:00:00 | |
| BIOWL9-15 | 2026-09-05 12:35:39 | 46.54328 | 7.78672 | 152° | 16km/h | 29861m | 5.6m/s | -44.2°C | 0.3% | -1.0hPa | 2.6V | 00:00:00 | 00:00:00 | 00:00:00 | |
| IW2NTF | 2026-09-05 12:35:34 | 46.54338 | 7.78633 | 116° | 31km/h | 29812m | 5.4m/s | -44.1°C | 2.3% | 0hPa | 2.6V | 08:30:00 | 02:01:50 | 00:00:00 | |
| DM0DOS-11 | 2026-09-05 12:35:32 | 46.54333 | 7.78649 | 113° | 18km/h | 29823m | 5.7m/s | -44°C | 2.3% | 0hPa | 2.6V | 08:30:00 | 02:01:52 | 00:00:00 | |
| BIOWL1-15 | 2026-09-05 12:35:31 | 46.54335 | 7.78642 | 118° | 26km/h | 29818m | 5m/s | -44°C | 0% | 0hPa | 2.6V | 18:12:15 | 02:01:51 | 00:00:00 | |
| DB0NH | 2026-09-05 12:35:30 | 46.54338 | 7.78633 | 117° | 29km/h | 29813m | 5.4m/s | 0°C | 0% | 0hPa | 2.6V | 00:00:00 | 02:01:50 | 00:00:00 | |
| DM0DOS-11 | 2026-09-05 12:35:27 | 46.54359 | 7.78547 | 91° | 15km/h | 29759m | 6m/s | -44°C | 2.3% | 0hPa | 2.6V | 08:30:00 | 02:01:41 | 00:00:00 | |
| BIOWL1-15 | 2026-09-05 12:35:24 | 46.54359 | 7.78541 | 82° | 20km/h | 29753m | 6.2m/s | -44°C | 0% | 0hPa | 2.6V | 18:12:15 | 02:01:40 | 00:00:00 | |
| IW2NTF | 2026-09-05 12:35:24 | 46.54359 | 7.78541 | 82° | 20km/h | 29753m | 6.2m/s | -44°C | 2.3% | 0hPa | 2.6V | 08:30:00 | 02:01:40 | 00:00:00 | |
| DM0DOS-11 | 2026-09-05 12:35:17 | 46.54377 | 7.78444 | 111° | 35km/h | 29709m | 4.6m/s | -44.3°C | 2.3% | 0hPa | 2.7V | 08:30:00 | 02:01:32 | 00:00:00 | |
| DB0UT-7 | 2026-09-05 12:35:16 | 46.54360 | 7.78495 | 107° | 37km/h | 29731m | 6.6m/s | -44.3°C | 2.3% | 0hPa | 2.6V | 00:00:00 | 02:01:36 | 00:00:00 | |
| IW2NTF | 2026-09-05 12:35:13 | 46.54380 | 7.78419 | 87° | 35km/h | 29697m | 7m/s | -44.3°C | 2.3% | 0hPa | 2.6V | 08:30:00 | 02:01:30 | 00:00:00 | |
| BIOWL1-15 | 2026-09-05 12:35:11 | 46.54379 | 7.78406 | 78° | 38km/h | 29690m | 6m/s | -44.4°C | 0% | 0hPa | 2.6V | 18:12:15 | 02:01:29 | 00:00:00 | |
| DL6DJ-15 | 2026-09-05 12:35:09 | 46.54374 | 7.78380 | 76° | 35km/h | 29680m | 4.7m/s | -44.6°C | 0.3% | -1.0hPa | 2.6V | 00:00:00 | 00:00:00 | 00:00:00 | |
| BIOWL9-15 | 2026-09-05 12:35:08 | 46.54374 | 7.78380 | 76° | 35km/h | 29680m | 4.7m/s | -44.6°C | 0.3% | -1.0hPa | 2.6V | 00:00:00 | 00:00:00 | 00:00:00 | |
| IW2NTF | 2026-09-05 12:35:04 | 46.54387 | 7.78294 | 94° | 42km/h | 29639m | 5.7m/s | -44.7°C | 2.3% | 0hPa | 2.6V | 08:30:00 | 02:01:20 | 00:00:00 | |
| DM0DOS-11 | 2026-09-05 12:35:00 | 46.54381 | 7.78222 | 78° | 33km/h | 29611m | 6m/s | -44.8°C | 2.4% | 0hPa | 2.6V | 08:30:00 | 02:01:15 | 00:00:00 | |
| BIOWL1-15 | 2026-09-05 12:34:58 | 46.54385 | 7.78248 | 79° | 40km/h | 29623m | 6.1m/s | -44.9°C | 0% | 0hPa | 2.7V | 18:12:15 | 02:01:17 | 00:00:00 | |
| DB0NH | 2026-09-05 12:34:58 | 46.54386 | 7.78263 | 82° | 31km/h | 29629m | 5.2m/s | 0°C | 0% | 0hPa | 2.6V | 00:00:00 | 02:01:18 | 00:00:00 | |
| IW2NTF | 2026-09-05 12:34:52 | 46.54372 | 7.78157 | 81° | 40km/h | 29581m | 4.9m/s | -44.9°C | 2.4% | 0hPa | 2.6V | 08:30:00 | 02:01:10 | 00:00:00 | |
| HASLITAL | 2026-09-05 12:34:51 | 46.54376 | 7.78186 | 79° | 37km/h | 29594m | 7.1m/s | -44.9°C | 0.3% | 0hPa | 2.6V | 00:00:00 | 00:00:00 | 00:00:00 | |
| DM0DOS-11 | 2026-09-05 12:34:50 | 46.54369 | 7.78097 | 81° | 27km/h | 29553m | 5.2m/s | -45°C | 2.4% | 0hPa | 2.6V | 08:30:00 | 02:01:05 | 00:00:00 | |
| BIOWL1-15 | 2026-09-05 12:34:47 | 46.54370 | 7.78118 | 90° | 29km/h | 29563m | 6m/s | -44.9°C | 0% | 0hPa | 2.6V | 18:12:15 | 02:01:07 | 00:00:00 | |
| IW2NTF | 2026-09-05 12:34:46 | 46.54349 | 7.78042 | 54° | 35km/h | 29524m | 5.7m/s | -45°C | 2.4% | 0hPa | 2.6V | 08:30:00 | 02:01:00 | 00:00:00 | |
| DL1ZP-14 | 2026-09-05 12:34:42 | 46.54359 | 7.78064 | 57° | 38km/h | 29535m | 5.3m/s | -45.0°C | 0.3% | -1.0hPa | 2.7V | 00:00:00 | 00:00:00 | 00:00:00 | |
| DF7PN | 2026-09-05 12:34:40 | 46.54349 | 7.78042 | 54° | 33km/h | 29525m | 5.7m/s | -45.1°C | 0.3% | -1.0hPa | 2.7V | 00:00:00 | 00:00:00 | 00:00:00 | |
| DM0DOS-11 | 2026-09-05 12:34:38 | 46.54334 | 7.77971 | 88° | 33km/h | 29485m | 4.5m/s | -45.1°C | 2.4% | 0hPa | 2.7V | 08:30:00 | 02:00:53 | 00:00:00 | |
| DL6DJ-15 | 2026-09-05 12:34:38 | 46.54338 | 7.78015 | 71° | 24km/h | 29507m | 4.9m/s | -45.1°C | 0.3% | -1.0hPa | 2.6V | 00:00:00 | 00:00:00 | 00:00:00 | |
| BIOWL9-15 | 2026-09-05 12:34:37 | 46.54336 | 7.78005 | 79° | 26km/h | 29502m | 5.8m/s | -45.1°C | 0.3% | -1.0hPa | 2.6V | 00:00:00 | 00:00:00 | 00:00:00 | |
| BIOWL1-15 | 2026-09-05 12:34:37 | 46.54338 | 7.78015 | 72° | 26km/h | 29507m | 4.9m/s | -45.1°C | 0% | 0hPa | 2.7V | 18:12:15 | 02:00:57 | 00:00:00 | |
| IW2NTF | 2026-09-05 12:34:32 | 46.54333 | 7.77944 | 66° | 15km/h | 29468m | 6.3m/s | -45.1°C | 2.4% | 0hPa | 2.6V | 08:30:00 | 02:00:50 | 00:00:00 | |
| BIOWL1-15 | 2026-09-05 12:34:26 | 46.54314 | 7.77930 | 24° | 29km/h | 29443m | 5.3m/s | -45.1°C | 0% | 0hPa | 2.7V | 18:12:15 | 02:00:46 | 00:00:00 | |
| DM0DOS-11 | 2026-09-05 12:34:25 | 46.54294 | 7.77908 | 61° | 16km/h | 29423m | 6.3m/s | -45.1°C | 2.4% | 0hPa | 2.7V | 08:30:00 | 02:00:42 | 00:00:00 | |
| DK5PH-5 | 2026-09-05 12:34:17 | 46.54293 | 7.77877 | 77° | 11km/h | 29394m | 5.5m/s | -44.9°C | 2.4% | 0hPa | 2.7V | 00:00:00 | 02:00:37 | 00:00:00 | |
| DB0UT-7 | 2026-09-05 12:34:16 | 46.54291 | 7.77870 | 64° | 13km/h | 29389m | 4.4m/s | -44.8°C | 2.4% | 0hPa | 2.7V | 00:00:00 | 02:00:36 | 08:30:00 | |
| DM0DOS-11 | 2026-09-05 12:34:15 | 46.54279 | 7.77855 | 33° | 7km/h | 29362m | 4.6m/s | -44.9°C | 2.4% | 0hPa | 2.7V | 08:30:00 | 02:00:31 | 00:00:00 | |
| BIOWL1-15 | 2026-09-05 12:34:15 | 46.54288 | 7.77864 | 50° | 18km/h | 29384m | 4.9m/s | -44.9°C | 0% | 0hPa | 2.6V | 18:12:15 | 02:00:35 | 00:00:00 | |
| BIOWL1-15 | 2026-09-05 12:34:04 | 46.54265 | 7.77820 | 56° | 11km/h | 29325m | 6.7m/s | -45°C | 0% | 0hPa | 2.6V | 18:12:15 | 02:00:24 | 00:00:00 | |
| DM0DOS-11 | 2026-09-05 12:34:03 | 46.54258 | 7.77801 | 75° | 18km/h | 29290m | 4.7m/s | -45.1°C | 2.4% | 0hPa | 2.6V | 08:30:00 | 02:00:18 | 00:00:00 | |
| IW2NTF | 2026-09-05 12:34:02 | 46.54260 | 7.77812 | 59° | 11km/h | 29301m | 6.5m/s | -45°C | 2.4% | 0hPa | 2.7V | 08:30:00 | 02:00:20 | 00:00:00 | |
| BIOWL1-15 | 2026-09-05 12:33:56 | 46.54258 | 7.77779 | 113° | 11km/h | 29267m | 5.4m/s | -45.1°C | 0% | 0hPa | 2.6V | 18:12:15 | 02:00:14 | 00:00:00 | |
| IW2NTF | 2026-09-05 12:33:52 | 46.54256 | 7.77769 | 26° | 9km/h | 29245m | 4.6m/s | -45.1°C | 2.4% | 0hPa | 2.7V | 08:30:00 | 02:00:10 | 00:00:00 | |
| BIOWL1-15 | 2026-09-05 12:33:43 | 46.54250 | 7.77760 | 91° | 18km/h | 29205m | 5.6m/s | -45.1°C | 0% | 0hPa | 2.6V | 18:12:15 | 02:00:03 | 00:00:00 | |
| IW2NTF | 2026-09-05 12:33:42 | 46.54255 | 7.77737 | 125° | 24km/h | 29187m | 6.5m/s | -45.1°C | 2.4% | 0hPa | 2.7V | 08:30:00 | 02:00:00 | 00:00:00 | |
| DL1ZP-14 | 2026-09-05 12:33:40 | 46.54258 | 7.77731 | 135° | 20km/h | 29182m | 5.2m/s | -45.1°C | 0.3% | -1.0hPa | 2.7V | 00:00:00 | 00:00:00 | 00:00:00 | |
| DF7PN | 2026-09-05 12:33:38 | 46.54262 | 7.77727 | 137° | 15km/h | 29177m | 4.4m/s | -45.1°C | 0.3% | -1.0hPa | 2.7V | 00:00:00 | 00:00:00 | 00:00:00 | |
| DL6DJ-15 | 2026-09-05 12:33:35 | 46.54263 | 7.77714 | 32° | 9km/h | 29154m | 5.0m/s | -45.3°C | 0.3% | -1.0hPa | 2.7V | 00:00:00 | 00:00:00 | 00:00:00 | |
| BIOWL9-15 | 2026-09-05 12:33:34 | 46.54263 | 7.77714 | 32° | 9km/h | 29154m | 5.0m/s | -45.3°C | 0.3% | -1.0hPa | 2.7V | 00:00:00 | 00:00:00 | 00:00:00 | |
| IW2NTF | 2026-09-05 12:33:33 | 46.54259 | 7.77707 | 128° | 11km/h | 29132m | 4.8m/s | -45.4°C | 2.4% | 0hPa | 2.7V | 08:30:00 | 01:59:50 | 00:00:00 | |
| BIOWL1-15 | 2026-09-05 12:33:32 | 46.54259 | 7.77711 | 36° | 5km/h | 29143m | 6.2m/s | -45.4°C | 0% | 0hPa | 2.6V | 18:12:15 | 01:59:52 | 00:00:00 | |
| HASLITAL | 2026-09-05 12:33:29 | 46.54261 | 7.77703 | 126° | 16km/h | 29127m | 5.8m/s | -45.4°C | 0.4% | 0hPa | 2.6V | 00:00:00 | 00:00:00 | 00:00:00 | |
| DB0ND-19 | 2026-09-05 12:33:26 | 46.54270 | 7.77678 | 114° | 29km/h | 29109m | 4.7m/s | -45.3°C | 0.3% | -1.0hPa | 2.6V | 00:00:00 | 00:00:00 | 00:00:00 | |
| DM0DOS-11 | 2026-09-05 12:33:25 | 46.54280 | 7.77654 | 126° | 18km/h | 29093m | 5.3m/s | -45.4°C | 2.4% | 0hPa | 2.6V | 08:30:00 | 01:59:43 | 00:00:00 | |
| IW2NTF | 2026-09-05 12:33:22 | 46.54282 | 7.77645 | 39° | 9km/h | 29078m | 6.4m/s | -45.3°C | 2.4% | 0hPa | 2.7V | 08:30:00 | 01:59:40 | 00:00:00 | |
| BIOWL1-15 | 2026-09-05 12:33:21 | 46.54282 | 7.77645 | 40° | 9km/h | 29078m | 6.4m/s | -45.3°C | 0% | 0hPa | 2.7V | 18:12:15 | 01:59:40 | 00:00:00 | |
| DK5PH-5 | 2026-09-05 12:33:17 | 46.54274 | 7.77634 | 65° | 24km/h | 29062m | 3.7m/s | -45.3°C | 2.4% | 0hPa | 2.6V | 00:00:00 | 01:59:37 | 00:00:00 | |
| DB0UT-7 | 2026-09-05 12:33:16 | 46.54273 | 7.77628 | 89° | 24km/h | 29058m | 4.8m/s | -45.4°C | 2.3% | 0hPa | 2.6V | 00:00:00 | 01:59:36 | 00:00:00 | |
| DM0DOS-11 | 2026-09-05 12:33:15 | 46.54292 | 7.77589 | 122° | 29km/h | 29029m | 5.2m/s | -45.5°C | 2.4% | 0hPa | 2.6V | 08:30:00 | 01:59:31 | 00:00:00 | |
| IW2NTF | 2026-09-05 12:33:12 | 46.54295 | 7.77580 | 107° | 26km/h | 29024m | 5.8m/s | -45.5°C | 2.4% | 0hPa | 2.6V | 08:30:00 | 01:59:30 | 00:00:00 | |
| BIOWL1-15 | 2026-09-05 12:33:11 | 46.54292 | 7.77589 | 123° | 29km/h | 29030m | 5.3m/s | -45.5°C | 0% | 0hPa | 2.6V | 18:12:15 | 01:59:31 | 00:00:00 | |
| HASLITAL | 2026-09-05 12:33:08 | 46.54296 | 7.77571 | 87° | 24km/h | 29019m | 5.6m/s | -45.5°C | 0.4% | 0hPa | 2.7V | 00:00:00 | 00:00:00 | 00:00:00 | |
| DF7PN | 2026-09-05 12:33:07 | 46.54292 | 7.77557 | 52° | 16km/h | 29008m | 4.7m/s | -45.7°C | 0.3% | -1.0hPa | 2.7V | 00:00:00 | 00:00:00 | 00:00:00 | |
| IW2NTF | 2026-09-05 12:33:06 | 46.54298 | 7.77515 | 108° | 31km/h | 28971m | 5.2m/s | -45.8°C | 2.5% | 0hPa | 2.7V | 08:30:00 | 01:59:20 | 00:00:00 | |
| DL6DJ-15 | 2026-09-05 12:33:05 | 46.54288 | 7.77546 | 109° | 11km/h | 28993m | 5.0m/s | -45.7°C | 0.3% | -1.0hPa | 2.6V | 00:00:00 | 00:00:00 | 00:00:00 | |
| DM0DOS-11 | 2026-09-05 12:33:03 | 46.54295 | 7.77526 | 113° | 29km/h | 28976m | 6m/s | -45.8°C | 2.5% | 0hPa | 2.6V | 08:30:00 | 01:59:21 | 00:00:00 | |
| BIOWL1-15 | 2026-09-05 12:33:00 | 46.54298 | 7.77515 | 109° | 31km/h | 28971m | 5.3m/s | -45.8°C | 0% | 0hPa | 2.7V | 18:12:15 | 01:59:20 | 00:00:00 | |
| DB0ND-19 | 2026-09-05 12:32:55 | 46.54308 | 7.77469 | 114° | 18km/h | 28946m | 4.7m/s | -45.9°C | 0.3% | -1.0hPa | 2.6V | 00:00:00 | 00:00:00 | 00:00:00 | |
| DM0DOS-11 | 2026-09-05 12:32:53 | 46.54310 | 7.77437 | 74° | 27km/h | 28925m | 5.3m/s | -46°C | 2.5% | 0hPa | 2.6V | 08:30:00 | 01:59:11 | 00:00:00 | |
| IW2NTF | 2026-09-05 12:32:53 | 46.54308 | 7.77428 | 64° | 27km/h | 28919m | 5.2m/s | -46°C | 2.5% | 0hPa | 2.6V | 08:30:00 | 01:59:10 | 00:00:00 | |
| HASLITAL | 2026-09-05 12:32:48 | 46.54305 | 7.77419 | 59° | 26km/h | 28914m | 5.2m/s | -46.1°C | 0.4% | 0hPa | 2.6V | 00:00:00 | 00:00:00 | 00:00:00 | |
| DK5PH-5 | 2026-09-05 12:32:47 | 46.54300 | 7.77407 | 72° | 29km/h | 28905m | 4.5m/s | -46.1°C | 2.5% | 0hPa | 2.6V | 00:00:00 | 01:59:07 | 00:00:00 | |
| DB0UT-7 | 2026-09-05 12:32:46 | 46.54300 | 7.77402 | 106° | 29km/h | 28900m | 5.1m/s | -46.1°C | 2.5% | 0hPa | 2.6V | 00:00:00 | 00:00:00 | 00:00:00 | |
| DM0DOS-11 | 2026-09-05 12:32:43 | 46.54314 | 7.77353 | 93° | 38km/h | 28874m | 4.8m/s | -46.4°C | 2.6% | 0hPa | 2.6V | 08:30:00 | 01:59:01 | 00:00:00 | |
| IW2NTF | 2026-09-05 12:32:42 | 46.54314 | 7.77339 | 77° | 37km/h | 28869m | 5.7m/s | -46.5°C | 2.6% | 0hPa | 2.6V | 08:30:00 | 01:59:00 | 00:00:00 | |
| DL1ZP-14 | 2026-09-05 12:32:38 | 46.54301 | 7.77310 | 37° | 26km/h | 28851m | 5.6m/s | -46.6°C | 0.3% | -1.0hPa | 2.7V | 00:00:00 | 00:00:00 | 00:00:00 | |
| DM0DOS-11 | 2026-09-05 12:32:36 | 46.54293 | 7.77266 | 97° | 33km/h | 28818m | 5.9m/s | -46.5°C | 2.6% | 0hPa | 2.7V | 08:30:00 | 01:58:51 | 00:00:00 | |
| DL6DJ-15 | 2026-09-05 12:32:33 | 46.54292 | 7.77287 | 90° | 22km/h | 28830m | 6.1m/s | -46.5°C | 0.3% | -1.0hPa | 2.6V | 00:00:00 | 00:00:00 | 00:00:00 | |
| IW2NTF | 2026-09-05 12:32:32 | 46.54294 | 7.77253 | 97° | 37km/h | 28812m | 5.4m/s | -46.5°C | 2.6% | 0hPa | 2.6V | 08:30:00 | 01:58:50 | 00:00:00 | |
| HASLITAL | 2026-09-05 12:32:27 | 46.54297 | 7.77227 | 102° | 35km/h | 28802m | 5.0m/s | -46.5°C | 0.4% | 0hPa | 2.7V | 00:00:00 | 00:00:00 | 00:00:00 | |
| DM0DOS-11 | 2026-09-05 12:32:25 | 46.54287 | 7.77152 | 51° | 40km/h | 28763m | 5.3m/s | -46.7°C | 2.6% | 0hPa | 2.7V | 08:30:00 | 01:58:41 | 00:00:00 | |
| IW2NTF | 2026-09-05 12:32:22 | 46.54274 | 7.77132 | 45° | 33km/h | 28752m | 6.1m/s | -46.5°C | 2.6% | 0hPa | 2.6V | 08:30:00 | 01:58:39 | 00:00:00 | |
| BIOWL1-15 | 2026-09-05 12:32:21 | 46.54265 | 7.77118 | 51° | 22km/h | 28741m | 4.6m/s | -46.5°C | 0% | 0hPa | 2.7V | 18:12:15 | 01:58:37 | 00:00:00 | |
| DK5PH-5 | 2026-09-05 12:32:17 | 46.54264 | 7.77118 | 51° | 26km/h | 28741m | 4.6m/s | -46.5°C | 2.5% | 0hPa | 2.7V | 00:00:00 | 01:58:37 | 00:00:00 | |
| DB0UT-7 | 2026-09-05 12:32:16 | 46.54262 | 7.77111 | 64° | 27km/h | 28737m | 4.6m/s | -46.5°C | 2.5% | 0hPa | 2.7V | 00:00:00 | 01:58:36 | 00:00:00 | |
| DM0DOS-11 | 2026-09-05 12:32:15 | 46.54256 | 7.77061 | 86° | 29km/h | 28709m | 5.2m/s | -46.8°C | 2.6% | 0hPa | 2.7V | 08:30:00 | 01:58:31 | 00:00:00 | |
| IW2NTF | 2026-09-05 12:32:12 | 46.54251 | 7.77031 | 52° | 18km/h | 28687m | 4.4m/s | -47°C | 2.6% | 0hPa | 2.6V | 08:30:00 | 01:58:27 | 00:00:00 | |
| DO3MHA-11 | 2026-09-05 12:32:10 | 46.54255 | 7.77051 | 87° | 24km/h | 28704m | 6.0m/s | -46.8°C | 2.6% | 0hPa | 2.6V | 00:00:00 | 01:58:30 | 00:00:00 | |
| DH7VM-15 | 2026-09-05 12:32:08 | 46.54255 | 7.77043 | 81° | 20km/h | 28698m | 5.9m/s | -46.9°C | 0.4% | 0hPa | 2.6V | 00:00:00 | 00:00:00 | 00:00:00 | |
| HASLITAL | 2026-09-05 12:32:06 | 46.54251 | 7.77031 | 53° | 18km/h | 28687m | 4.4m/s | -47.0°C | 0.4% | 0hPa | 2.6V | 00:00:00 | 00:00:00 | 00:00:00 | |
| DF7PN | 2026-09-05 12:32:05 | 46.54243 | 7.77018 | 47° | 31km/h | 28676m | 7.1m/s | -47.0°C | 0.4% | -1.0hPa | 2.6V | 00:00:00 | 00:00:00 | 00:00:00 | |
| IW2NTF | 2026-09-05 12:32:02 | 46.54213 | 7.76941 | 81° | 24km/h | 28629m | 6.5m/s | -46.7°C | 2.6% | 0hPa | 2.6V | 08:30:00 | 01:58:17 | 00:00:00 | |
| BIOWL1-15 | 2026-09-05 12:32:00 | 46.54217 | 7.76967 | 66° | 26km/h | 28646m | 5.5m/s | -46.8°C | 0% | 0hPa | 2.7V | 18:12:15 | 01:58:20 | 00:00:00 | |
| DM0DOS-11 | 2026-09-05 12:32:00 | 46.54210 | 7.76923 | 72° | 24km/h | 28618m | 4.6m/s | -46.8°C | 2.6% | 0hPa | 2.7V | 08:30:00 | 01:58:15 | 00:00:00 | |
| DB0ND-19 | 2026-09-05 12:31:53 | 46.54199 | 7.76899 | 43° | 22km/h | 28596m | 4.5m/s | -47.0°C | 0.3% | -1.0hPa | 2.6V | 00:00:00 | 00:00:00 | 00:00:00 | |
| IW2NTF | 2026-09-05 12:31:51 | 46.54181 | 7.76861 | 63° | 38km/h | 28573m | 5m/s | -46.9°C | 2.6% | 0hPa | 2.6V | 08:30:00 | 01:58:07 | 00:00:00 | |
| DM0DOS-11 | 2026-09-05 12:31:50 | 46.54173 | 7.76838 | 67° | 29km/h | 28562m | 6.3m/s | -46.8°C | 2.6% | 0hPa | 2.7V | 08:30:00 | 01:58:05 | 00:00:00 | |
| DO3MHA-11 | 2026-09-05 12:31:50 | 46.54195 | 7.76892 | 48° | 27km/h | 28591m | 5.1m/s | -46.9°C | 2.6% | 0hPa | 2.6V | 00:00:00 | 01:58:10 | 00:00:00 | |
| DB0UT-7 | 2026-09-05 12:31:46 | 46.54176 | 7.76849 | 67° | 27km/h | 28568m | 5.3m/s | -46.8°C | 2.6% | 0hPa | 2.6V | 00:00:00 | 00:00:00 | 00:00:00 | |
| IW2NTF | 2026-09-05 12:31:41 | 46.54147 | 7.76787 | 36° | 24km/h | 28515m | 6.4m/s | -46.6°C | 2.6% | 0hPa | 2.6V | 08:30:00 | 01:57:57 | 00:00:00 | |
| DM0DOS-11 | 2026-09-05 12:31:40 | 46.54137 | 7.76776 | 46° | 27km/h | 28505m | 4.5m/s | -46.6°C | 2.6% | 0hPa | 2.7V | 08:30:00 | 01:57:55 | 00:00:00 | |
| BIOWL1-15 | 2026-09-05 12:31:38 | 46.54132 | 7.76767 | 53° | 31km/h | 28499m | 6.8m/s | -46.6°C | 0% | 0hPa | 2.7V | 18:12:15 | 01:57:54 | 00:00:00 | |
| DL1ZP-14 | 2026-09-05 12:31:36 | 46.54137 | 7.76776 | 46° | 27km/h | 28505m | 4.5m/s | -46.6°C | 0.3% | -1.0hPa | 2.7V | 00:00:00 | 00:00:00 | 00:00:00 | |
| DF7PN | 2026-09-05 12:31:34 | 46.54128 | 7.76757 | 60° | 35km/h | 28492m | 6.9m/s | -46.6°C | 0.4% | -1.0hPa | 2.6V | 00:00:00 | 00:00:00 | 00:00:00 | |
| IW2NTF | 2026-09-05 12:31:32 | 46.54115 | 7.76696 | 76° | 18km/h | 28458m | 5.1m/s | -46.8°C | 2.5% | 0hPa | 2.6V | 08:30:00 | 01:57:47 | 00:00:00 | |
| DL6DJ-15 | 2026-09-05 12:31:31 | 46.54120 | 7.76732 | 70° | 35km/h | 28481m | 5.1m/s | -46.8°C | 0.3% | -1.0hPa | 2.6V | 00:00:00 | 00:00:00 | 00:00:00 | |
| DO3MHA-11 | 2026-09-05 12:31:30 | 46.54118 | 7.76721 | 76° | 27km/h | 28475m | 6.8m/s | -46.8°C | 2.6% | 0hPa | 2.6V | 00:00:00 | 01:57:50 | 00:00:00 | |
| DM0DOS-11 | 2026-09-05 12:31:27 | 46.54089 | 7.76647 | 45° | 31km/h | 28423m | 6.3m/s | -46.8°C | 2.6% | 0hPa | 2.6V | 08:30:00 | 01:57:41 | 00:00:00 | |
| BIOWL1-15 | 2026-09-05 12:31:24 | 46.54106 | 7.76673 | 52° | 31km/h | 28440m | 5.9m/s | -46.9°C | 0% | 0hPa | 2.7V | 18:12:15 | 01:57:44 | 00:00:00 | |
| IW2NTF | 2026-09-05 12:31:22 | 46.54074 | 7.76609 | 72° | 37km/h | 28400m | 7.1m/s | -46.4°C | 2.6% | 0hPa | 2.7V | 08:30:00 | 01:57:37 | 00:00:00 | |
| DB0ND-19 | 2026-09-05 12:31:22 | 46.54089 | 7.76647 | 45° | 29km/h | 28423m | 6.3m/s | -46.8°C | 0.4% | -1.0hPa | 2.7V | 00:00:00 | 00:00:00 | 00:00:00 | |
| DO3MHA-11 | 2026-09-05 12:31:20 | 46.54084 | 7.76639 | 52° | 29km/h | 28418m | 5.1m/s | -46.7°C | 2.6% | 0hPa | 2.7V | 00:00:00 | 01:57:40 | 00:00:00 | |
| DM0DOS-11 | 2026-09-05 12:31:16 | 46.54063 | 7.76545 | 52° | 15km/h | 28368m | 6.2m/s | -46.5°C | 2.6% | 0hPa | 2.7V | 08:30:00 | 01:57:31 | 00:00:00 | |
| BIOWL1-15 | 2026-09-05 12:31:14 | 46.54068 | 7.76570 | 78° | 33km/h | 28386m | 4m/s | -46.4°C | 0% | 0hPa | 2.6V | 18:12:15 | 01:57:34 | 00:00:00 | |
| IW2NTF | 2026-09-05 12:31:10 | 46.54045 | 7.76527 | 37° | 29km/h | 28345m | 4.8m/s | -46.5°C | 2.6% | 0hPa | 2.7V | 08:30:00 | 01:57:27 | 00:00:00 | |
| BIOWL1-15 | 2026-09-05 12:31:04 | 46.54028 | 7.76505 | 48° | 27km/h | 28329m | 6m/s | -46.6°C | 0% | 0hPa | 2.6V | 18:12:15 | 01:57:24 | 00:00:00 | |
| DF7PN | 2026-09-05 12:31:03 | 46.54021 | 7.76490 | 64° | 24km/h | 28318m | 5.1m/s | -46.4°C | 0.3% | -1.0hPa | 2.6V | 00:00:00 | 00:00:00 | 00:00:00 | |
| DO3MHA-11 | 2026-09-05 12:31:00 | 46.54017 | 7.76471 | 75° | 22km/h | 28306m | 6.7m/s | -46.4°C | 2.6% | 0hPa | 2.6V | 00:00:00 | 01:57:20 | 08:30:00 | |
| IW2NTF | 2026-09-05 12:30:59 | 46.54011 | 7.76444 | 65° | 20km/h | 28291m | 5m/s | -46.5°C | 2.6% | 0hPa | 2.7V | 08:30:00 | 01:57:17 | 00:00:00 | |
| BIOWL1-15 | 2026-09-05 12:30:53 | 46.53982 | 7.76418 | 43° | 31km/h | 28250m | 4.9m/s | -46.4°C | 0% | 0hPa | 2.6V | 18:12:15 | 01:57:10 | 00:00:00 | |
| DB0ND-19 | 2026-09-05 12:30:51 | 46.53972 | 7.76402 | 51° | 27km/h | 28240m | 5.8m/s | -46.5°C | 0.3% | -1.0hPa | 2.7V | 00:00:00 | 00:00:00 | 00:00:00 | |
| DM0DOS-11 | 2026-09-05 12:30:50 | 46.53965 | 7.76388 | 55° | 20km/h | 28228m | 5.2m/s | -46.5°C | 2.5% | 0hPa | 2.7V | 08:30:00 | 01:57:06 | 00:00:00 | |
| BIOWL1-15 | 2026-09-05 12:30:42 | 46.53955 | 7.76364 | 60° | 18km/h | 28206m | 5.1m/s | -46.4°C | 0% | 0hPa | 2.6V | 18:12:15 | 01:57:02 | 00:00:00 | |
| IW2NTF | 2026-09-05 12:30:39 | 46.53944 | 7.76347 | 46° | 13km/h | 28179m | 3.9m/s | -46.6°C | 2.6% | 0hPa | 2.6V | 08:30:00 | 01:56:57 | 00:00:00 | |
| BIOWL1-15 | 2026-09-05 12:30:31 | 46.53922 | 7.76300 | 46° | 24km/h | 28145m | 6.1m/s | -46.9°C | 0% | 0hPa | 2.6V | 18:12:15 | 01:56:51 | 00:00:00 | |
| IW2NTF | 2026-09-05 12:30:30 | 46.53903 | 7.76287 | 14° | 20km/h | 28121m | 5.8m/s | -46.8°C | 2.7% | 0hPa | 2.6V | 08:30:00 | 01:56:47 | 00:00:00 | |
| BIOWL1-15 | 2026-09-05 12:30:22 | 46.53876 | 7.76264 | 58° | 29km/h | 28083m | 7.5m/s | -47°C | 0% | 0hPa | 2.6V | 18:12:15 | 01:56:40 | 00:00:00 | |
| HASLITAL | 2026-09-05 12:30:21 | 46.53883 | 7.76277 | 46° | 16km/h | 28095m | 4.3m/s | -46.9°C | 0.5% | 0hPa | 2.6V | 00:00:00 | 00:00:00 | 00:00:00 | |
| DO3MHA-11 | 2026-09-05 12:30:20 | 46.53876 | 7.76264 | 58° | 24km/h | 28084m | 7.4m/s | -46.9°C | 2.7% | 0hPa | 2.6V | 00:00:00 | 01:56:40 | 00:00:00 | |
| DM0DOS-11 | 2026-09-05 12:30:19 | 46.53858 | 7.76222 | 52° | 27km/h | 28060m | 6.2m/s | -46.9°C | 2.7% | 0hPa | 2.6V | 08:30:00 | 01:56:36 | 00:00:00 | |
| IW2NTF | 2026-09-05 12:30:18 | 46.53862 | 7.76231 | 57° | 33km/h | 28066m | 4.9m/s | -46.9°C | 2.7% | 0hPa | 2.6V | 08:30:00 | 01:56:37 | 00:00:00 | |
| BIOWL1-15 | 2026-09-05 12:30:14 | 46.53835 | 7.76211 | 7° | 15km/h | 28026m | 5.1m/s | -46.7°C | 0% | 0hPa | 2.6V | 18:12:15 | 01:56:30 | 00:00:00 | |
| IW2NTF | 2026-09-05 12:30:10 | 46.53828 | 7.76205 | 62° | 13km/h | 28009m | 5m/s | -46.5°C | 2.6% | 0hPa | 2.7V | 08:30:00 | 01:56:27 | 00:00:00 | |
| DO3MHA-11 | 2026-09-05 12:30:10 | 46.53835 | 7.76211 | 8° | 22km/h | 28026m | 5.1m/s | -46.6°C | 2.7% | 0hPa | 2.7V | 00:00:00 | 01:56:30 | 00:00:00 | |
| DM0DOS-11 | 2026-09-05 12:30:06 | 46.53811 | 7.76153 | 54° | 24km/h | 27975m | 6.4m/s | -46.6°C | 2.6% | 0hPa | 2.7V | 08:30:00 | 01:56:21 | 00:00:00 | |
| DF7PN | 2026-09-05 12:30:01 | 46.53807 | 7.76148 | 43° | 16km/h | 27969m | 6.0m/s | -46.6°C | 0.4% | -1.0hPa | 2.6V | 00:00:00 | 00:00:00 | 00:00:00 | |
| DO3MHA-11 | 2026-09-05 12:30:00 | 46.53807 | 7.76147 | 44° | 16km/h | 27969m | 6.0m/s | -46.6°C | 2.6% | 0hPa | 2.6V | 00:00:00 | 01:56:20 | 00:00:00 | |
| IW2NTF | 2026-09-05 12:29:59 | 46.53799 | 7.76141 | 21° | 13km/h | 27952m | 6.2m/s | -46.6°C | 2.6% | 0hPa | 2.7V | 08:30:00 | 01:56:17 | 00:00:00 | |
| BIOWL1-15 | 2026-09-05 12:29:59 | 46.53802 | 7.76142 | 17° | 13km/h | 27957m | 5.4m/s | -46.6°C | 0% | 0hPa | 2.6V | 18:12:15 | 01:56:18 | 00:00:00 | |
| DL6DJ-15 | 2026-09-05 12:29:58 | 46.53802 | 7.76142 | 17° | 11km/h | 27958m | 5.4m/s | -46.6°C | 0.4% | -1.0hPa | 2.7V | 00:00:00 | 00:00:00 | 00:00:00 | |
| BIOWL9-15 | 2026-09-05 12:29:57 | 46.53799 | 7.76141 | 21° | 11km/h | 27952m | 6.2m/s | -46.6°C | 0.4% | -1.0hPa | 2.7V | 00:00:00 | 00:00:00 | 00:00:00 | |
| DM0DOS-11 | 2026-09-05 12:29:56 | 46.53787 | 7.76110 | 73° | 24km/h | 27921m | 4.8m/s | -46.6°C | 2.5% | 0hPa | 2.7V | 08:30:00 | 01:56:11 | 00:00:00 | |
| DO3MHA-12 | 2026-09-05 12:29:56 | 46.53796 | 7.76139 | 36° | 18km/h | 27947m | 5.1m/s | -46.4°C | 2.6% | 0hPa | 2.7V | 00:00:00 | 01:56:16 | 00:00:00 | |
| DH7VM-15 | 2026-09-05 12:29:51 | 46.53788 | 7.76118 | 79° | 20km/h | 27926m | 5.5m/s | -46.5°C | 0.4% | 0hPa | 2.6V | 00:00:00 | 00:00:00 | 00:00:00 | |
| IW2NTF | 2026-09-05 12:29:50 | 46.53770 | 7.76071 | 47° | 35km/h | 27899m | 3.9m/s | -46.7°C | 2.6% | 0hPa | 2.6V | 08:30:00 | 01:56:07 | 00:00:00 | |
| BIOWL1-15 | 2026-09-05 12:29:49 | 46.53781 | 7.76092 | 58° | 33km/h | 27910m | 6.9m/s | -46.8°C | 0% | 0hPa | 2.6V | 18:12:15 | 01:56:09 | 00:00:00 | |
| DB0UT-7 | 2026-09-05 12:29:46 | 46.53764 | 7.76063 | 47° | 18km/h | 27895m | 4.5m/s | -46.6°C | 2.6% | 0hPa | 2.7V | 00:00:00 | 00:00:00 | 08:30:00 | |
| DM0DOS-11 | 2026-09-05 12:29:44 | 46.53758 | 7.76038 | 98° | 13km/h | 27868m | 5.2m/s | -46.7°C | 2.7% | 0hPa | 2.7V | 08:30:00 | 01:56:01 | 00:00:00 | |
| OE5DXL-15 | 2026-09-05 12:29:43 | 46.53758 | 7.76038 | 99° | 16km/h | 27868m | 5.1m/s | 0°C | 0% | 0hPa | 2.6V | 00:00:00 | 00:00:00 | 00:00:00 | |
| IW2NTF | 2026-09-05 12:29:41 | 46.53748 | 7.76013 | 37° | 27km/h | 27848m | 5.3m/s | -46.9°C | 2.7% | 0hPa | 2.6V | 08:30:00 | 01:55:57 | 00:00:00 | |
| BIOWL1-15 | 2026-09-05 12:29:38 | 46.53748 | 7.76013 | 37° | 27km/h | 27848m | 5.3m/s | -46.9°C | 0% | 0hPa | 2.6V | 18:12:15 | 01:55:57 | 00:00:00 | |
| DO3MHA-12 | 2026-09-05 12:29:37 | 46.53747 | 7.76013 | 38° | 18km/h | 27848m | 5.3m/s | -46.8°C | 2.7% | 0hPa | 2.6V | 00:00:00 | 01:55:57 | 00:00:00 | |
| IW2NTF | 2026-09-05 12:29:33 | 46.53716 | 7.75977 | 145° | 4km/h | 27792m | 6.2m/s | -46.5°C | 2.6% | 0hPa | 2.6V | 08:30:00 | 01:55:47 | 00:00:00 | |
| DM0DOS-11 | 2026-09-05 12:29:31 | 46.53718 | 7.75990 | 50° | 16km/h | 27814m | 5.6m/s | -46.8°C | 2.6% | 0hPa | 2.6V | 08:30:00 | 01:55:51 | 00:00:00 | |
| BIOWL1-15 | 2026-09-05 12:29:28 | 46.53716 | 7.75978 | 114° | 7km/h | 27798m | 6.8m/s | -46.6°C | 0% | 0hPa | 2.7V | 18:12:15 | 01:55:48 | 00:00:00 | |
| DO3MHA-12 | 2026-09-05 12:29:27 | 46.53716 | 7.75977 | 146° | 7km/h | 27792m | 6.1m/s | -46.4°C | 2.6% | 0hPa | 2.6V | 00:00:00 | 01:55:47 | 00:00:00 | |
| DM0DOS-11 | 2026-09-05 12:29:26 | 46.53695 | 7.75971 | 10° | 31km/h | 27758m | 4m/s | -46.3°C | 2.6% | 0hPa | 2.6V | 08:30:00 | 01:55:41 | 00:00:00 | |
| BIOWL1-15 | 2026-09-05 12:29:19 | 46.53677 | 7.75973 | 283° | 7km/h | 27736m | 5.2m/s | -46.3°C | 0% | 0hPa | 2.7V | 18:12:15 | 01:55:37 | 00:00:00 | |
| IW2NTF | 2026-09-05 12:29:19 | 46.53677 | 7.75973 | 282° | 7km/h | 27736m | 5.2m/s | -46.2°C | 2.6% | 0hPa | 2.7V | 08:30:00 | 01:55:37 | 00:00:00 | |
| DB0ND-19 | 2026-09-05 12:29:18 | 46.53677 | 7.75975 | 223° | 5km/h | 27732m | 4.9m/s | -46.3°C | 0.4% | -1.0hPa | 2.6V | 00:00:00 | 00:00:00 | 00:00:00 | |
| DM0DOS-11 | 2026-09-05 12:29:16 | 46.53684 | 7.75967 | 54° | 7km/h | 27706m | 4.9m/s | -46.2°C | 2.6% | 0hPa | 2.6V | 08:30:00 | 01:55:31 | 00:00:00 | |
| DB0UT-7 | 2026-09-05 12:29:16 | 46.53677 | 7.75975 | 224° | 18km/h | 27732m | 4.8m/s | -46.2°C | 2.6% | 0hPa | 2.7V | 00:00:00 | 01:55:36 | 00:00:00 | |
| IW2NTF | 2026-09-05 12:29:13 | 46.53667 | 7.75975 | 330° | 31km/h | 27680m | 5.8m/s | -46.2°C | 2.5% | 0hPa | 2.7V | 08:30:00 | 01:55:27 | 00:00:00 | |
| BIOWL1-15 | 2026-09-05 12:29:07 | 46.53667 | 7.75975 | 331° | 31km/h | 27680m | 5.9m/s | -46.2°C | 0% | 0hPa | 2.7V | 18:12:15 | 01:55:27 | 00:00:00 | |
| DM0DOS-11 | 2026-09-05 12:29:01 | 46.53635 | 7.75997 | 323° | 13km/h | 27646m | 6.7m/s | -46.1°C | 2.6% | 0hPa | 2.7V | 08:30:00 | 01:55:21 | 00:00:00 | |
| IW2NTF | 2026-09-05 12:29:01 | 46.53629 | 7.76011 | 291° | 9km/h | 27623m | 6m/s | -46.1°C | 2.6% | 0hPa | 2.7V | 08:30:00 | 01:55:17 | 00:00:00 | |
| BIOWL1-15 | 2026-09-05 12:28:57 | 46.53629 | 7.76011 | 291° | 9km/h | 27623m | 6m/s | -46.2°C | 0% | 0hPa | 2.7V | 18:12:15 | 01:55:17 | 00:00:00 | |
| DM0DOS-11 | 2026-09-05 12:28:56 | 46.53613 | 7.76045 | 312° | 35km/h | 27589m | 5.5m/s | -46°C | 2.5% | 0hPa | 2.7V | 08:30:00 | 01:55:11 | 00:00:00 | |
| DL6DJ-15 | 2026-09-05 12:28:56 | 46.53628 | 7.76014 | 292° | 7km/h | 27618m | 6.0m/s | -46.2°C | 0.4% | -1.0hPa | 2.6V | 00:00:00 | 00:00:00 | 00:00:00 | |
| BIOWL9-15 | 2026-09-05 12:28:55 | 46.53627 | 7.76018 | 301° | 11km/h | 27612m | 4.2m/s | -46.2°C | 0.4% | -1.0hPa | 2.6V | 00:00:00 | 00:00:00 | 00:00:00 | |
| IW2NTF | 2026-09-05 12:28:53 | 46.53590 | 7.76073 | 319° | 22km/h | 27566m | 4.7m/s | -46°C | 2.5% | 0hPa | 2.6V | 08:30:00 | 01:55:07 | 00:00:00 | |
| BIOWL1-15 | 2026-09-05 12:28:46 | 46.53578 | 7.76101 | 284° | 22km/h | 27545m | 4.8m/s | -46.2°C | 0% | 0hPa | 2.6V | 18:12:15 | 01:55:03 | 00:00:00 | |
| DB0UT-7 | 2026-09-05 12:28:46 | 46.53586 | 7.76079 | 312° | 16km/h | 27562m | 5.0m/s | -46.0°C | 2.5% | 0hPa | 2.6V | 00:00:00 | 00:00:00 | 00:00:00 | |
| DM0DOS-11 | 2026-09-05 12:28:41 | 46.53576 | 7.76115 | 281° | 18km/h | 27533m | 6.6m/s | -46.3°C | 0% | 0hPa | 2.6V | 08:30:00 | 01:55:01 | 00:00:00 | |
| IW2NTF | 2026-09-05 12:28:41 | 46.53566 | 7.76138 | 314° | 26km/h | 27510m | 6.5m/s | -46.5°C | 2.6% | 0hPa | 2.7V | 08:30:00 | 01:54:57 | 00:00:00 | |
| BIOWL1-15 | 2026-09-05 12:28:36 | 46.53545 | 7.76163 | 328° | 20km/h | 27490m | 6.3m/s | -46.4°C | 0% | 0hPa | 2.7V | 18:12:15 | 01:54:53 | 00:00:00 | |
| DM0DOS-11 | 2026-09-05 12:28:36 | 46.53539 | 7.76169 | 318° | 9km/h | 27478m | 4.8m/s | -46.3°C | 0% | 0hPa | 2.6V | 08:30:00 | 01:54:51 | 00:00:00 | |
| IW2NTF | 2026-09-05 12:28:33 | 46.53538 | 7.76183 | 253° | 13km/h | 27456m | 4.8m/s | -46.2°C | 2.6% | 0hPa | 2.7V | 08:30:00 | 01:54:47 | 00:00:00 | |
| BIOWL1-15 | 2026-09-05 12:28:24 | 46.53542 | 7.76194 | 261° | 5km/h | 27434m | 4.5m/s | -46°C | 0% | 0hPa | 2.6V | 18:12:15 | 01:54:43 | 00:00:00 | |
| DM0DOS-11 | 2026-09-05 12:28:21 | 46.53541 | 7.76200 | 300° | 15km/h | 27422m | 6.7m/s | -46.1°C | 0% | 0hPa | 2.7V | 08:30:00 | 01:54:41 | 00:00:00 | |
| DO3MHA-11 | 2026-09-05 12:28:20 | 46.53538 | 7.76205 | 301° | 16km/h | 27416m | 4.9m/s | -46.1°C | 2.6% | 0hPa | 2.7V | 00:00:00 | 01:54:40 | 00:00:00 | |
| IW2NTF | 2026-09-05 12:28:18 | 46.53536 | 7.76221 | 251° | 13km/h | 27399m | 5.8m/s | -45.9°C | 2.6% | 0hPa | 2.7V | 08:30:00 | 01:54:37 | 00:00:00 | |
| DM0DOS-11 | 2026-09-05 12:28:16 | 46.53553 | 7.76248 | 223° | 16km/h | 27367m | 4.5m/s | -45.7°C | 0% | 0hPa | 2.7V | 08:30:00 | 01:54:31 | 00:00:00 | |
| BIOWL1-15 | 2026-09-05 12:28:12 | 46.53550 | 7.76243 | 227° | 18km/h | 27372m | 4.5m/s | -45.7°C | 0% | 0hPa | 2.6V | 18:12:15 | 01:54:32 | 00:00:00 | |
| DO3MHA-11 | 2026-09-05 12:28:10 | 46.53556 | 7.76251 | 213° | 11km/h | 27362m | 6.5m/s | -45.7°C | 2.6% | 0hPa | 2.7V | 00:00:00 | 01:54:30 | 00:00:00 | |
| IN3HCDX | 2026-09-05 12:28:09 | 46.53556 | 7.76251 | 214° | 15km/h | 27362m | 6.5m/s | 0°C | 0% | 0hPa | 2.7V | 00:00:00 | 00:00:00 | 00:00:00 | |
| DM0DOS-11 | 2026-09-05 12:28:04 | 46.53569 | 7.76281 | 206° | 18km/h | 27302m | 3.8m/s | -45.4°C | 0% | 0hPa | 2.7V | 08:30:00 | 01:54:19 | 00:00:00 | |
| BIOWL1-15 | 2026-09-05 12:28:02 | 46.53559 | 7.76272 | 237° | 11km/h | 27317m | 6.3m/s | -45.5°C | 0% | 0hPa | 2.6V | 18:12:15 | 01:54:22 | 00:00:00 | |
| IW2NTF | 2026-09-05 12:27:59 | 46.53576 | 7.76289 | 233° | 15km/h | 27292m | 5.8m/s | -45.3°C | 2.5% | 0hPa | 2.7V | 08:30:00 | 01:54:17 | 00:00:00 | |
| DL1ZP-14 | 2026-09-05 12:27:58 | 46.53573 | 7.76285 | 215° | 16km/h | 27298m | 5.5m/s | -45.4°C | 0.3% | -1.0hPa | 2.7V | 00:00:00 | 00:00:00 | 00:00:00 | |
| DF7PN | 2026-09-05 12:27:56 | 46.53578 | 7.76293 | 254° | 13km/h | 27286m | 5.8m/s | -45.3°C | 0.4% | -1.0hPa | 2.7V | 00:00:00 | 00:00:00 | 00:00:00 | |
| DL6DJ-15 | 2026-09-05 12:27:54 | 46.53578 | 7.76305 | 259° | 4km/h | 27270m | 5.7m/s | -45.3°C | 0.4% | -1.0hPa | 2.7V | 00:00:00 | 00:00:00 | 00:00:00 | |
| IW2NTF | 2026-09-05 12:27:53 | 46.53592 | 7.76305 | 226° | 13km/h | 27238m | 5.8m/s | -45.1°C | 2.4% | 0hPa | 2.7V | 08:30:00 | 01:54:07 | 00:00:00 | |
| BIOWL1-15 | 2026-09-05 12:27:51 | 46.53581 | 7.76304 | 157° | 9km/h | 27259m | 5.1m/s | -45.2°C | 0% | 0hPa | 2.6V | 18:12:15 | 01:54:11 | 00:00:00 | |
| DM0DOS-11 | 2026-09-05 12:27:50 | 46.53586 | 7.76302 | 176° | 13km/h | 27249m | 5.2m/s | -45.2°C | 0% | 0hPa | 2.6V | 08:30:00 | 01:54:09 | 00:00:00 | |
| DB0ND-19 | 2026-09-05 12:27:45 | 46.53598 | 7.76317 | 223° | 13km/h | 27223m | 6.2m/s | -45.0°C | 0.3% | -1.0hPa | 2.7V | 00:00:00 | 00:00:00 | 00:00:00 | |
| IW2NTF | 2026-09-05 12:27:43 | 46.53614 | 7.76324 | 197° | 9km/h | 27185m | 4.6m/s | -44.8°C | 2.4% | 0hPa | 2.7V | 08:30:00 | 01:53:57 | 00:00:00 | |
| BIOWL1-15 | 2026-09-05 12:27:40 | 46.53609 | 7.76321 | 183° | 9km/h | 27201m | 5.7m/s | -44.9°C | 0% | 0hPa | 2.6V | 18:12:15 | 01:54:00 | 00:00:00 | |
| DO3MHA-11 | 2026-09-05 12:27:39 | 46.53611 | 7.76321 | 198° | 11km/h | 27195m | 5.7m/s | -44.8°C | 2.4% | 0hPa | 2.6V | 00:00:00 | 01:53:59 | 00:00:00 | |
| IN3HCDX | 2026-09-05 12:27:37 | 46.53612 | 7.76323 | 208° | 7km/h | 27190m | 4.8m/s | 0°C | 0% | 0hPa | 2.6V | 00:00:00 | 00:00:00 | 00:00:00 | |
| HASLITAL | 2026-09-05 12:27:34 | 46.53620 | 7.76324 | 178° | 15km/h | 27173m | 6.4m/s | -44.8°C | 0.4% | 0hPa | 2.6V | 00:00:00 | 00:00:00 | 00:00:00 | |
| IW2NTF | 2026-09-05 12:27:33 | 46.53632 | 7.76313 | 95° | 13km/h | 27128m | 5.6m/s | -45.2°C | 2.4% | 0hPa | 2.6V | 08:30:00 | 01:53:47 | 00:00:00 | |
| BIOWL1-15 | 2026-09-05 12:27:29 | 46.53632 | 7.76320 | 73° | 5km/h | 27140m | 5.1m/s | -45.1°C | 0% | 0hPa | 2.7V | 18:12:15 | 01:53:49 | 00:00:00 | |
| DO3MHA-11 | 2026-09-05 12:27:29 | 46.53632 | 7.76320 | 74° | 9km/h | 27140m | 5.1m/s | -45.1°C | 2.4% | 0hPa | 2.7V | 00:00:00 | 01:53:49 | 00:00:00 | |
| DL1ZP-14 | 2026-09-05 12:27:27 | 46.53632 | 7.76313 | 95° | 11km/h | 27128m | 5.6m/s | -45.2°C | 0.4% | -1.0hPa | 2.6V | 00:00:00 | 00:00:00 | 00:00:00 | |
| DF7PN | 2026-09-05 12:27:25 | 46.53633 | 7.76304 | 99° | 13km/h | 27118m | 5.0m/s | -45.3°C | 0.3% | -1.0hPa | 2.7V | 00:00:00 | 00:00:00 | 00:00:00 | |
| IW2NTF | 2026-09-05 12:27:23 | 46.53649 | 7.76283 | 166° | 13km/h | 27074m | 5.3m/s | -45.4°C | 2.4% | 0hPa | 2.7V | 08:30:00 | 01:53:37 | 00:00:00 | |
| BIOWL1-15 | 2026-09-05 12:27:19 | 46.53642 | 7.76287 | 153° | 16km/h | 27084m | 5.2m/s | -45.3°C | 0% | 0hPa | 2.7V | 18:12:15 | 01:53:39 | 00:00:00 | |
| IN3HCDX | 2026-09-05 12:27:17 | 46.53649 | 7.76282 | 167° | 13km/h | 27074m | 5.4m/s | 0°C | 0% | 0hPa | 2.7V | 00:00:00 | 00:00:00 | 00:00:00 | |
| DO3MHA-11 | 2026-09-05 12:27:16 | 46.53651 | 7.76282 | 180° | 13km/h | 27069m | 6.2m/s | -45.4°C | 2.4% | 0hPa | 2.7V | 00:00:00 | 01:53:36 | 00:00:00 | |
| DB0ND-19 | 2026-09-05 12:27:14 | 46.53656 | 7.76283 | 164° | 4km/h | 27053m | 5.5m/s | -45.5°C | -1.0% | -1.0hPa | 2.7V | 00:00:00 | 00:00:00 | 00:00:00 | |
| IW2NTF | 2026-09-05 12:27:13 | 46.53666 | 7.76261 | 99° | 11km/h | 27019m | 5.5m/s | -45.6°C | 2.4% | 0hPa | 2.7V | 08:30:00 | 01:53:27 | 00:00:00 | |
| DO3MHA-11 | 2026-09-05 12:27:06 | 46.53666 | 7.76257 | 107° | 11km/h | 27014m | 4.9m/s | -45.6°C | 2.5% | 0hPa | 2.6V | 00:00:00 | 01:53:26 | 00:00:00 | |
| IW2NTF | 2026-09-05 12:27:03 | 46.53684 | 7.76245 | 122° | 7km/h | 26964m | 6.2m/s | -45.9°C | 2.5% | 0hPa | 2.6V | 08:30:00 | 01:53:17 | 00:00:00 | |
| DK5PH-5 | 2026-09-05 12:26:59 | 46.53682 | 7.76247 | 180° | 13km/h | 26975m | 5.4m/s | -45.7°C | 2.4% | 0hPa | 2.6V | 00:00:00 | 01:53:19 | 00:00:00 | |
| IN3HCDX | 2026-09-05 12:26:55 | 46.53687 | 7.76238 | 117° | 15km/h | 26953m | 5.0m/s | 0°C | 0% | 0hPa | 2.6V | 00:00:00 | 00:00:00 | 00:00:00 | |
| IW2NTF | 2026-09-05 12:26:54 | 46.53702 | 7.76208 | 155° | 15km/h | 26909m | 4.6m/s | -46.3°C | 2.5% | 0hPa | 2.6V | 08:30:00 | 01:53:07 | 00:00:00 | |
| DL6DJ-15 | 2026-09-05 12:26:52 | 46.53691 | 7.76220 | 115° | 9km/h | 26931m | 4.7m/s | -46.2°C | 0.4% | -1.0hPa | 2.6V | 00:00:00 | 00:00:00 | 00:00:00 | |
| DB0UT-7 | 2026-09-05 12:26:46 | 46.53705 | 7.76206 | 158° | 15km/h | 26904m | 5.6m/s | -46.3°C | 2.5% | 0hPa | 2.6V | 00:00:00 | 00:00:00 | 00:00:00 | |
| IW2NTF | 2026-09-05 12:26:42 | 46.53702 | 7.76163 | 68° | 24km/h | 26856m | 6.3m/s | -46.4°C | 2.6% | 0hPa | 2.7V | 08:30:00 | 01:52:57 | 00:00:00 | |
| HASLITAL | 2026-09-05 12:26:32 | 46.53692 | 7.76139 | 73° | 15km/h | 26836m | 5.7m/s | -46.4°C | 0.4% | 0hPa | 2.6V | 00:00:00 | 00:00:00 | 00:00:00 | |
| IW2NTF | 2026-09-05 12:26:31 | 46.53696 | 7.76109 | 77° | 13km/h | 26802m | 5m/s | -46.6°C | 2.5% | 0hPa | 2.6V | 08:30:00 | 01:52:47 | 00:00:00 | |
| BIOWL1-15 | 2026-09-05 12:26:29 | 46.53697 | 7.76109 | 78° | 13km/h | 26802m | 5m/s | -46.6°C | 0% | 0hPa | 2.6V | 18:12:15 | 01:52:47 | 00:00:00 | |
| DK5PH-5 | 2026-09-05 12:26:29 | 46.53696 | 7.76118 | 109° | 13km/h | 26814m | 5.9m/s | -46.4°C | 2.5% | 0hPa | 2.6V | 00:00:00 | 01:52:49 | 00:00:00 | |
| DO3MHA-11 | 2026-09-05 12:26:27 | 46.53697 | 7.76109 | 78° | 11km/h | 26802m | 5.0m/s | -46.5°C | 2.5% | 0hPa | 2.7V | 00:00:00 | 01:52:47 | 00:00:00 | |
| DL1ZP-14 | 2026-09-05 12:26:25 | 46.53693 | 7.76093 | 67° | 16km/h | 26785m | 5.4m/s | -46.7°C | 0.4% | -1.0hPa | 2.7V | 00:00:00 | 00:00:00 | 00:00:00 | |
| BIOWL9-15 | 2026-09-05 12:26:20 | 46.53683 | 7.76077 | 52° | 2km/h | 26758m | 4.4m/s | -47.1°C | 0.4% | -1.0hPa | 2.6V | 00:00:00 | 00:00:00 | 00:00:00 | |
| IW2NTF | 2026-09-05 12:26:19 | 46.53685 | 7.76074 | 135° | 11km/h | 26747m | 5.8m/s | -47°C | 2.6% | 0hPa | 2.6V | 08:30:00 | 01:52:37 | 00:00:00 | |
| DM0DOS-11 | 2026-09-05 12:26:18 | 46.53688 | 7.76052 | 55° | 18km/h | 26720m | 5.3m/s | -47.3°C | 0% | 0hPa | 2.7V | 08:30:00 | 01:52:32 | 00:00:00 | |
| BIOWL1-15 | 2026-09-05 12:26:18 | 46.53687 | 7.76071 | 130° | 15km/h | 26742m | 4.1m/s | -47.1°C | 0% | 0hPa | 2.6V | 18:12:15 | 01:52:36 | 00:00:00 | |
| DO3MHA-11 | 2026-09-05 12:26:17 | 46.53685 | 7.76074 | 136° | 15km/h | 26747m | 5.8m/s | -47.0°C | 2.6% | 0hPa | 2.6V | 00:00:00 | 01:52:37 | 08:30:00 | |
| DB0UT-7 | 2026-09-05 12:26:16 | 46.53687 | 7.76071 | 131° | 11km/h | 26742m | 4.1m/s | -47.0°C | 2.6% | 0hPa | 2.7V | 00:00:00 | 01:52:36 | 00:00:00 | |
| IW2NTF | 2026-09-05 12:26:13 | 46.53672 | 7.76023 | 40° | 15km/h | 26693m | 6.1m/s | -47.4°C | 2.7% | 0hPa | 2.7V | 08:30:00 | 01:52:27 | 00:00:00 | |
| BIOWL1-15 | 2026-09-05 12:26:05 | 46.53669 | 7.76024 | 185° | 7km/h | 26665m | 5.4m/s | -47.4°C | 0% | 0hPa | 2.6V | 18:12:15 | 01:52:22 | 00:00:00 | |
| DO3MHA-11 | 2026-09-05 12:26:05 | 46.53668 | 7.76020 | 331° | 9km/h | 26682m | 4.5m/s | -47.4°C | 2.7% | 0hPa | 2.7V | 00:00:00 | 01:52:25 | 00:00:00 | |
| DK5PH-5 | 2026-09-05 12:25:59 | 46.53673 | 7.76021 | 64° | 11km/h | 26651m | 5.9m/s | -47.4°C | 2.7% | 0hPa | 2.7V | 00:00:00 | 01:52:19 | 00:00:00 | |
| DM0DOS-11 | 2026-09-05 12:25:57 | 46.53666 | 7.76018 | 25° | 13km/h | 26635m | 4.7m/s | -47.4°C | 0% | 0hPa | 2.7V | 08:30:00 | 01:52:16 | 00:00:00 | |
| BIOWL1-15 | 2026-09-05 12:25:53 | 46.53657 | 7.75992 | 74° | 4km/h | 26597m | 4.8m/s | -47.4°C | 0% | 0hPa | 2.7V | 18:12:15 | 01:52:09 | 00:00:00 | |
| DF7PN | 2026-09-05 12:25:52 | 46.53659 | 7.76001 | 79° | 13km/h | 26614m | 4.9m/s | -47.5°C | 0.4% | -1.0hPa | 2.7V | 00:00:00 | 00:00:00 | 00:00:00 | |
| BIOWL9-15 | 2026-09-05 12:25:49 | 46.53657 | 7.75991 | 131° | 2km/h | 26593m | 4.3m/s | -47.5°C | 0.4% | -1.0hPa | 2.7V | 00:00:00 | 00:00:00 | 00:00:00 | |
| DB0UT-7 | 2026-09-05 12:25:46 | 46.53660 | 7.75988 | 149° | 13km/h | 26582m | 6.3m/s | -47.4°C | 2.7% | 0hPa | 2.7V | 00:00:00 | 00:00:00 | 00:00:00 | |
| IW2NTF | 2026-09-05 12:25:42 | 46.53673 | 7.75961 | 133° | 13km/h | 26533m | 5.2m/s | -47.8°C | 2.8% | 0hPa | 2.7V | 08:30:00 | 01:51:57 | 00:00:00 | |
| BIOWL1-15 | 2026-09-05 12:25:42 | 46.53666 | 7.75980 | 105° | 7km/h | 26560m | 4.6m/s | -47.5°C | 0% | 0hPa | 2.7V | 18:12:15 | 01:52:02 | 00:00:00 | |
| DO3MHA-11 | 2026-09-05 12:25:42 | 46.53666 | 7.75980 | 105° | 11km/h | 26560m | 4.5m/s | -47.5°C | 2.7% | 0hPa | 2.7V | 00:00:00 | 01:52:02 | 00:00:00 | |
| DB0ND-19 | 2026-09-05 12:25:40 | 46.53667 | 7.75974 | 108° | 11km/h | 26550m | 6.3m/s | 0°C | -1.0% | -1.0hPa | 2.6V | 00:00:00 | 00:00:00 | 00:00:00 | |
| IW2NTF | 2026-09-05 12:25:33 | 46.53704 | 7.75938 | 102° | 13km/h | 26480m | 4.3m/s | -47.7°C | 2.7% | 0hPa | 2.6V | 08:30:00 | 01:51:47 | 00:00:00 | |
| BIOWL1-15 | 2026-09-05 12:25:31 | 46.53692 | 7.75953 | 161° | 22km/h | 26501m | 5.2m/s | -47.8°C | 0% | 0hPa | 2.7V | 18:12:15 | 01:51:51 | 00:00:00 | |
| HASLITAL | 2026-09-05 12:25:30 | 46.53692 | 7.75953 | 162° | 22km/h | 26501m | 5.2m/s | -47.8°C | 0.5% | 0hPa | 2.6V | 00:00:00 | 00:00:00 | 00:00:00 | |
| DK5PH-5 | 2026-09-05 12:25:29 | 46.53701 | 7.75947 | 142° | 15km/h | 26491m | 5.8m/s | -47.7°C | 2.7% | 0hPa | 2.6V | 00:00:00 | 01:51:49 | 00:00:00 | |
| IW2NTF | 2026-09-05 12:25:23 | 46.53720 | 7.75900 | 99° | 15km/h | 26430m | 5.3m/s | -47.9°C | 2.8% | 0hPa | 2.6V | 08:30:00 | 01:51:37 | 00:00:00 | |
| BIOWL1-15 | 2026-09-05 12:25:20 | 46.53719 | 7.75904 | 105° | 9km/h | 26435m | 4.6m/s | -47.9°C | 0% | 0hPa | 2.7V | 18:12:15 | 01:51:38 | 00:00:00 | |
| DM0DOS-11 | 2026-09-05 12:25:18 | 46.53724 | 7.75879 | 114° | 22km/h | 26415m | 4.6m/s | -47.9°C | 0% | 0hPa | 2.7V | 08:30:00 | 01:51:34 | 00:00:00 | |
| BIOWL9-15 | 2026-09-05 12:25:18 | 46.53720 | 7.75900 | 99° | 13km/h | 26430m | 5.3m/s | -47.9°C | 0.4% | -1.0hPa | 2.6V | 00:00:00 | 00:00:00 | 00:00:00 | |
| DB0UT-7 | 2026-09-05 12:25:16 | 46.53721 | 7.75894 | 104° | 16km/h | 26425m | 5.5m/s | -47.9°C | 2.8% | 0hPa | 2.6V | 00:00:00 | 01:51:36 | 08:30:00 | |
| IW2NTF | 2026-09-05 12:25:13 | 46.53724 | 7.75856 | 66° | 15km/h | 26378m | 5.7m/s | -47.7°C | 2.7% | 0hPa | 2.6V | 08:30:00 | 01:51:27 | 00:00:00 | |
| BIOWL1-15 | 2026-09-05 12:25:09 | 46.53727 | 7.75862 | 34° | 7km/h | 26388m | 4.2m/s | -47.7°C | 0% | 0hPa | 2.7V | 18:12:15 | 01:51:29 | 00:00:00 | |
| DM0DOS-11 | 2026-09-05 12:25:04 | 46.53723 | 7.75819 | 87° | 11km/h | 26347m | 4m/s | -47.7°C | 0% | 0hPa | 2.6V | 08:30:00 | 01:51:21 | 00:00:00 | |
| BIOWL1-15 | 2026-09-05 12:25:01 | 46.53722 | 7.75810 | 68° | 13km/h | 26337m | 5.8m/s | -47.7°C | 0% | 0hPa | 2.7V | 18:12:15 | 01:51:19 | 00:00:00 | |
| IW2NTF | 2026-09-05 12:24:59 | 46.53717 | 7.75802 | 35° | 15km/h | 26326m | 4.8m/s | -47.6°C | 2.7% | 0hPa | 2.6V | 08:30:00 | 01:51:17 | 00:00:00 | |
| DK5PH-5 | 2026-09-05 12:24:59 | 46.53722 | 7.75810 | 69° | 26km/h | 26337m | 5.7m/s | -47.6°C | 2.7% | 0hPa | 2.7V | 00:00:00 | 01:51:19 | 08:30:00 | |
| IW2NTF | 2026-09-05 12:24:53 | 46.53678 | 7.75754 | 33° | 20km/h | 26275m | 4.1m/s | -48°C | 2.7% | 0hPa | 2.7V | 08:30:00 | 01:51:07 | 00:00:00 | |
| DM0DOS-11 | 2026-09-05 12:24:53 | 46.53693 | 7.75778 | 54° | 26km/h | 26294m | 4.3m/s | -47.8°C | 0% | 0hPa | 2.6V | 00:00:00 | 01:51:11 | 00:00:00 | |
| BIOWL1-15 | 2026-09-05 12:24:49 | 46.53685 | 7.75764 | 50° | 22km/h | 26285m | 5.7m/s | -47.9°C | 0% | 0hPa | 2.6V | 18:12:15 | 01:51:09 | 00:00:00 | |
| DL6DJ-15 | 2026-09-05 12:24:48 | 46.53678 | 7.75754 | 33° | 18km/h | 26275m | 4.1m/s | -48.0°C | 0.5% | -1.0hPa | 2.7V | 00:00:00 | 00:00:00 | 00:00:00 | |
| BIOWL9-15 | 2026-09-05 12:24:47 | 46.53673 | 7.75750 | 33° | 20km/h | 26270m | 4.4m/s | -48.1°C | 0.4% | -1.0hPa | 2.7V | 00:00:00 | 00:00:00 | 00:00:00 | |
| DB0UT-7 | 2026-09-05 12:24:46 | 46.53673 | 7.75749 | 34° | 27km/h | 26271m | 4.3m/s | -48.0°C | 2.7% | 0hPa | 2.7V | 00:00:00 | 00:00:00 | 00:00:00 | |
| DM0DOS-11 | 2026-09-05 12:24:42 | 46.53654 | 7.75723 | 42° | 18km/h | 26244m | 6.1m/s | -48.3°C | 0% | 0hPa | 2.7V | 00:00:00 | 01:51:01 | 00:00:00 | |
| BIOWL1-15 | 2026-09-05 12:24:40 | 46.53641 | 7.75713 | 18° | 26km/h | 26230m | 4.3m/s | -48.3°C | 0% | 0hPa | 2.6V | 18:12:15 | 01:50:58 | 00:00:00 | |
| IW2NTF | 2026-09-05 12:24:39 | 46.53634 | 7.75710 | 20° | 31km/h | 26224m | 6.3m/s | -48.4°C | 2.8% | 0hPa | 2.7V | 08:30:00 | 01:50:57 | 00:00:00 | |
| DM0DOS-11 | 2026-09-05 12:24:32 | 46.53576 | 7.75681 | 19° | 35km/h | 26191m | 4.8m/s | -48.7°C | 0% | 0hPa | 2.6V | 00:00:00 | 01:50:51 | 00:00:00 | |
| IW2NTF | 2026-09-05 12:24:32 | 46.53552 | 7.75659 | 40° | 20km/h | 26170m | 4.4m/s | -49°C | 2.9% | 0hPa | 2.6V | 08:30:00 | 01:50:47 | 00:00:00 | |
| BIOWL1-15 | 2026-09-05 12:24:30 | 46.53556 | 7.75665 | 42° | 24km/h | 26175m | 5.1m/s | -49°C | 0% | 0hPa | 2.7V | 18:12:15 | 01:50:48 | 00:00:00 | |
| DK5PH-5 | 2026-09-05 12:24:28 | 46.53556 | 7.75664 | 42° | 29km/h | 26175m | 5.1m/s | -49.0°C | 2.8% | 0hPa | 2.6V | 00:00:00 | 01:50:48 | 00:00:00 | |
| DM0DOS-11 | 2026-09-05 12:24:22 | 46.53523 | 7.75652 | 9° | 31km/h | 26138m | 5.1m/s | -49.2°C | 0% | 0hPa | 2.6V | 00:00:00 | 01:50:41 | 00:00:00 | |
| IW2NTF | 2026-09-05 12:24:20 | 46.53478 | 7.75645 | 1° | 35km/h | 26112m | 4.1m/s | -49.1°C | 2.9% | 0hPa | 2.6V | 08:30:00 | 01:50:36 | 00:00:00 | |
| BIOWL1-15 | 2026-09-05 12:24:18 | 46.53496 | 7.75646 | 6° | 38km/h | 26122m | 6.2m/s | -49.2°C | 0% | 0hPa | 2.7V | 18:12:15 | 01:50:38 | 00:00:00 | |
| BIOWL9-15 | 2026-09-05 12:24:16 | 46.53470 | 7.75644 | 5° | 31km/h | 26108m | 3.9m/s | -49.2°C | 0.5% | -1.0hPa | 2.7V | 00:00:00 | 00:00:00 | 00:00:00 | |
| DO3MHA-11 | 2026-09-05 12:24:12 | 46.53447 | 7.75636 | 17° | 29km/h | 26092m | 4.6m/s | -49.2°C | 2.9% | 0hPa | 2.7V | 00:00:00 | 01:50:32 | 00:00:00 | |
| DH7VM-15 | 2026-09-05 12:24:10 | 46.53433 | 7.75632 | 4° | 31km/h | 26081m | 6.0m/s | -49.4°C | 0% | 0hPa | 2.7V | 00:00:00 | 00:00:00 | 00:00:00 | |
| IW2NTF | 2026-09-05 12:24:08 | 46.53400 | 7.75635 | 356° | 31km/h | 26058m | 5.9m/s | -49.3°C | 3% | 0hPa | 2.7V | 08:30:00 | 01:50:26 | 00:00:00 | |
| BIOWL1-15 | 2026-09-05 12:24:07 | 46.53408 | 7.75634 | 355° | 33km/h | 26064m | 6.1m/s | -49.4°C | 0% | 0hPa | 2.6V | 18:12:15 | 01:50:27 | 00:00:00 | |
| DM0DOS-11 | 2026-09-05 12:24:02 | 46.53365 | 7.75643 | 340° | 26km/h | 26034m | 4.8m/s | 0°C | 0% | 0hPa | 2.7V | 00:00:00 | 01:50:21 | 00:00:00 | |
| IW2NTF | 2026-09-05 12:24:02 | 46.53337 | 7.75646 | 6° | 22km/h | 26006m | 5.4m/s | -49.5°C | 2.9% | 0hPa | 2.7V | 08:30:00 | 01:50:16 | 00:00:00 | |
| BIOWL1-15 | 2026-09-05 12:23:55 | 46.53331 | 7.75646 | 358° | 22km/h | 26001m | 6.2m/s | -49.5°C | 0% | 0hPa | 2.6V | 18:12:15 | 01:50:15 | 00:00:00 | |
| DM0DOS-11 | 2026-09-05 12:23:52 | 46.53308 | 7.75652 | 352° | 22km/h | 25981m | 6.4m/s | 0°C | 0% | 0hPa | 2.7V | 00:00:00 | 01:50:11 | 00:00:00 | |
| DO3MHA-11 | 2026-09-05 12:23:51 | 46.53308 | 7.75652 | 353° | 15km/h | 25981m | 6.4m/s | -49.4°C | 2.9% | 0hPa | 2.7V | 00:00:00 | 01:50:11 | 00:00:00 | |
| IW2NTF | 2026-09-05 12:23:49 | 46.53291 | 7.75655 | 320° | 13km/h | 25953m | 5.7m/s | -49.6°C | 3% | 0hPa | 2.7V | 08:30:00 | 01:50:06 | 00:00:00 | |
| BIOWL1-15 | 2026-09-05 12:23:46 | 46.53285 | 7.75662 | 327° | 16km/h | 25943m | 4.8m/s | -49.7°C | 0% | 0hPa | 2.6V | 18:12:15 | 01:50:04 | 00:00:00 | |
| BIOWL9-15 | 2026-09-05 12:23:44 | 46.53285 | 7.75662 | 326° | 15km/h | 25943m | 4.8m/s | -49.7°C | 0.5% | -1.0hPa | 2.6V | 00:00:00 | 00:00:00 | 00:00:00 | |
| IW2NTF | 2026-09-05 12:23:42 | 46.53251 | 7.75669 | 339° | 11km/h | 25899m | 4.8m/s | -49.9°C | 3% | 0hPa | 2.6V | 08:30:00 | 01:49:56 | 00:00:00 | |
| BIOWL1-15 | 2026-09-05 12:23:33 | 46.53244 | 7.75670 | 16° | 5km/h | 25883m | 4.8m/s | -49.9°C | 0% | 0hPa | 2.7V | 18:12:15 | 01:49:53 | 00:00:00 | |
| DO3MHA-11 | 2026-09-05 12:23:31 | 46.53242 | 7.75671 | 313° | 7km/h | 25872m | 6.2m/s | -49.8°C | 3.0% | 0hPa | 2.7V | 00:00:00 | 01:49:51 | 00:00:00 | |
| IW2NTF | 2026-09-05 12:23:28 | 46.53226 | 7.75670 | 327° | 5km/h | 25823m | 5.3m/s | -49.9°C | 3% | 0hPa | 2.7V | 08:30:00 | 01:49:42 | 00:00:00 | |
| BIOWL1-15 | 2026-09-05 12:23:22 | 46.53226 | 7.75670 | 328° | 5km/h | 25823m | 5.3m/s | -49.9°C | 0% | 0hPa | 2.7V | 18:12:15 | 01:49:42 | 00:00:00 | |
| DO3MHA-11 | 2026-09-05 12:23:20 | 46.53225 | 7.75673 | 297° | 11km/h | 25814m | 5.3m/s | -49.9°C | 3.0% | 0hPa | 2.6V | 00:00:00 | 01:49:40 | 00:00:00 | |
| DL1ZP-14 | 2026-09-05 12:23:18 | 46.53224 | 7.75674 | 15° | 4km/h | 25802m | 5.4m/s | -49.9°C | 0.5% | -1.0hPa | 2.6V | 00:00:00 | 00:00:00 | 00:00:00 | |
| DF7PN | 2026-09-05 12:23:17 | 46.53220 | 7.75673 | 353° | 11km/h | 25792m | 4.9m/s | -50.0°C | 0.5% | -1.0hPa | 2.6V | 00:00:00 | 00:00:00 | 00:00:00 | |
| DB0UT-7 | 2026-09-05 12:23:16 | 46.53219 | 7.75673 | 354° | 18km/h | 25792m | 4.9m/s | -50.0°C | 3.0% | 0hPa | 2.6V | 00:00:00 | 01:49:36 | 00:00:00 | |
| IW2NTF | 2026-09-05 12:23:15 | 46.53204 | 7.75681 | 343° | 16km/h | 25770m | 6.2m/s | -50.2°C | 3% | 0hPa | 2.6V | 08:30:00 | 01:49:32 | 00:00:00 | |
| BIOWL1-15 | 2026-09-05 12:23:11 | 46.53200 | 7.75682 | 355° | 13km/h | 25764m | 5.9m/s | -50.3°C | 0% | 0hPa | 2.7V | 18:12:15 | 01:49:31 | 00:00:00 | |
| DO3MHA-11 | 2026-09-05 12:23:07 | 46.53188 | 7.75682 | 353° | 20km/h | 25742m | 5.1m/s | -50.6°C | 3.1% | 0hPa | 2.7V | 00:00:00 | 01:49:27 | 08:30:00 | |
| IW2NTF | 2026-09-05 12:23:05 | 46.53162 | 7.75684 | 341° | 22km/h | 25709m | 6.5m/s | -50.8°C | 3.2% | 0hPa | 2.7V | 08:30:00 | 01:49:21 | 00:00:00 | |
| BIOWL1-15 | 2026-09-05 12:23:00 | 46.53156 | 7.75688 | 329° | 26km/h | 25702m | 6.7m/s | -50.7°C | 0% | 0hPa | 2.6V | 18:12:15 | 01:49:20 | 00:00:00 | |
| DK5PH-5 | 2026-09-05 12:22:58 | 46.53145 | 7.75699 | 323° | 18km/h | 25692m | 5.0m/s | -50.7°C | 3.2% | 0hPa | 2.6V | 00:00:00 | 01:49:18 | 00:00:00 | |
| DO3MHA-11 | 2026-09-05 12:22:57 | 46.53140 | 7.75705 | 326° | 18km/h | 25686m | 6.3m/s | -50.7°C | 3.2% | 0hPa | 2.6V | 00:00:00 | 01:49:17 | 00:00:00 | |
| IW2NTF | 2026-09-05 12:22:55 | 46.53116 | 7.75725 | 332° | 16km/h | 25651m | 4.8m/s | -50.6°C | 3.2% | 0hPa | 2.6V | 08:30:00 | 01:49:11 | 00:00:00 | |
| BIOWL1-15 | 2026-09-05 12:22:50 | 46.53113 | 7.75727 | 341° | 15km/h | 25646m | 6.3m/s | -50.5°C | 0% | 0hPa | 2.7V | 18:12:15 | 01:49:10 | 00:00:00 | |
| DL1ZP-14 | 2026-09-05 12:22:47 | 46.53101 | 7.75731 | 338° | 16km/h | 25629m | 5.2m/s | -50.5°C | 0.6% | -1.0hPa | 2.6V | 00:00:00 | 00:00:00 | 00:00:00 | |
| DF7PN | 2026-09-05 12:22:46 | 46.53093 | 7.75739 | 315° | 22km/h | 25617m | 5.9m/s | -50.3°C | 0.5% | -1.0hPa | 2.7V | 00:00:00 | 00:00:00 | 00:00:00 | |
| BIOWL1-15 | 2026-09-05 12:22:39 | 46.53064 | 7.75767 | 340° | 24km/h | 25585m | 5.8m/s | -50.2°C | 0% | 0hPa | 2.7V | 18:12:15 | 01:48:59 | 00:00:00 | |
| DO3MHA-11 | 2026-09-05 12:22:36 | 46.53050 | 7.75776 | 340° | 15km/h | 25569m | 4.8m/s | -50.1°C | 3.1% | 0hPa | 2.6V | 00:00:00 | 01:48:56 | 00:00:00 | |
| IW2NTF | 2026-09-05 12:22:35 | 46.53035 | 7.75779 | 328° | 13km/h | 25542m | 5.8m/s | -50.1°C | 3.1% | 0hPa | 2.6V | 08:30:00 | 01:48:51 | 00:00:00 | |
| BIOWL1-15 | 2026-09-05 12:22:28 | 46.53016 | 7.75809 | 335° | 18km/h | 25507m | 5.2m/s | -50°C | 0% | 0hPa | 2.7V | 18:12:15 | 01:48:45 | 00:00:00 | |
| DK5PH-5 | 2026-09-05 12:22:28 | 46.53027 | 7.75794 | 303° | 13km/h | 25524m | 5.3m/s | -50.0°C | 3.0% | 0hPa | 2.6V | 00:00:00 | 01:48:48 | 00:00:00 | |
| IW2NTF | 2026-09-05 12:22:25 | 46.53002 | 7.75820 | 316° | 13km/h | 25484m | 5.3m/s | -50.1°C | 3.1% | 0hPa | 2.6V | 08:30:00 | 01:48:41 | 00:00:00 | |
| BIOWL1-15 | 2026-09-05 12:22:18 | 46.52995 | 7.75828 | 327° | 11km/h | 25467m | 5.7m/s | -50.2°C | 0% | 0hPa | 2.7V | 18:12:15 | 01:48:38 | 00:00:00 | |
| DB0UT-7 | 2026-09-05 12:22:16 | 46.52991 | 7.75833 | 306° | 11km/h | 25457m | 5.9m/s | -50.2°C | 3.0% | 0hPa | 2.7V | 00:00:00 | 01:48:36 | 00:00:00 | |
| DF7PN | 2026-09-05 12:22:15 | 46.52988 | 7.75843 | 295° | 15km/h | 25445m | 4.8m/s | -50.1°C | 0.5% | -1.0hPa | 2.7V | 00:00:00 | 00:00:00 | 00:00:00 | |
| IW2NTF | 2026-09-05 12:22:14 | 46.52980 | 7.75856 | 330° | 13km/h | 25429m | 5.9m/s | -50.4°C | 3.1% | 0hPa | 2.7V | 08:30:00 | 01:48:31 | 00:00:00 | |
| BIOWL1-15 | 2026-09-05 12:22:07 | 46.52972 | 7.75863 | 312° | 7km/h | 25407m | 4.3m/s | -50.2°C | 0% | 0hPa | 2.6V | 18:12:15 | 01:48:27 | 00:00:00 | |
| IW2NTF | 2026-09-05 12:22:04 | 46.52958 | 7.75879 | 300° | 16km/h | 25374m | 6m/s | -50.2°C | 3% | 0hPa | 2.6V | 08:30:00 | 01:48:21 | 00:00:00 | |
| BIOWL1-15 | 2026-09-05 12:21:57 | 46.52952 | 7.75893 | 360° | 9km/h | 25353m | 6.7m/s | -50.5°C | 0% | 0hPa | 2.6V | 18:12:15 | 01:48:17 | 00:00:00 | |
| DK5PH-5 | 2026-09-05 12:21:55 | 46.52947 | 7.75890 | 44° | 7km/h | 25342m | 4.8m/s | -50.2°C | 3.1% | 0hPa | 2.7V | 00:00:00 | 01:48:15 | 00:00:00 | |
| IW2NTF | 2026-09-05 12:21:52 | 46.52943 | 7.75888 | 294° | 5km/h | 25320m | 4.8m/s | -50.3°C | 3.1% | 0hPa | 2.7V | 08:30:00 | 01:48:11 | 00:00:00 | |
| BIOWL1-15 | 2026-09-05 12:21:47 | 46.52937 | 7.75900 | 300° | 13km/h | 25298m | 6m/s | -50.3°C | 0% | 0hPa | 2.6V | 18:12:15 | 01:48:07 | 00:00:00 | |
| IW2NTF | 2026-09-05 12:21:47 | 46.52930 | 7.75907 | 52° | 9km/h | 25265m | 4.6m/s | -50.1°C | 3.1% | 0hPa | 2.6V | 08:30:00 | 01:48:01 | 00:00:00 | |
| DL1ZP-14 | 2026-09-05 12:21:45 | 46.52935 | 7.75907 | 288° | 9km/h | 25287m | 4.5m/s | -50.2°C | 0.5% | -1.0hPa | 2.7V | 00:00:00 | 00:00:00 | 00:00:00 | |
| BIOWL1-15 | 2026-09-05 12:21:38 | 46.52927 | 7.75900 | 23° | 4km/h | 25238m | 6.1m/s | -50.1°C | 0% | 0hPa | 2.6V | 18:12:15 | 01:47:56 | 00:00:00 | |
| DH7VM-15 | 2026-09-05 12:21:38 | 46.52928 | 7.75901 | 79° | 4km/h | 25249m | 5.1m/s | -50.1°C | 0% | 0hPa | 2.6V | 00:00:00 | 00:00:00 | 00:00:00 | |
| IW2NTF | 2026-09-05 12:21:37 | 46.52924 | 7.75907 | 257° | 9km/h | 25211m | 5m/s | -50.2°C | 3.1% | 0hPa | 2.6V | 08:30:00 | 01:47:51 | 00:00:00 | |
| DO3MHA-11 | 2026-09-05 12:21:31 | 46.52924 | 7.75907 | 258° | 5km/h | 25212m | 5.0m/s | -50.1°C | 3.1% | 0hPa | 2.6V | 00:00:00 | 01:47:51 | 08:30:00 | |
| IW2NTF | 2026-09-05 12:21:27 | 46.52917 | 7.75902 | 344° | 7km/h | 25158m | 6m/s | -50.2°C | 3% | 0hPa | 2.7V | 08:30:00 | 01:47:41 | 00:00:00 | |
| BIOWL1-15 | 2026-09-05 12:21:26 | 46.52921 | 7.75902 | 38° | 4km/h | 25174m | 5.1m/s | -50.4°C | 0% | 0hPa | 2.6V | 18:12:15 | 01:47:44 | 00:00:00 | |
| DK5PH-5 | 2026-09-05 12:21:25 | 46.52921 | 7.75903 | 56° | 7km/h | 25180m | 5.9m/s | -50.3°C | 3.1% | 0hPa | 2.6V | 00:00:00 | 01:47:45 | 00:00:00 | |
| HASLITAL | 2026-09-05 12:21:22 | 46.52920 | 7.75902 | 1° | 4km/h | 25169m | 4.6m/s | -50.4°C | 0.6% | 0hPa | 2.6V | 00:00:00 | 00:00:00 | 00:00:00 | |
| DO3MHA-11 | 2026-09-05 12:21:21 | 46.52917 | 7.75902 | 345° | 9km/h | 25158m | 6.0m/s | -50.2°C | 3.0% | 0hPa | 2.6V | 00:00:00 | 01:47:41 | 00:00:00 | |
| IW2NTF | 2026-09-05 12:21:16 | 46.52921 | 7.75913 | 101° | 9km/h | 25106m | 5.6m/s | -50.4°C | 3.2% | 0hPa | 2.6V | 08:30:00 | 01:47:31 | 00:00:00 | |
| BIOWL1-15 | 2026-09-05 12:21:09 | 46.52919 | 7.75906 | 360° | 9km/h | 25080m | 6.5m/s | -50.7°C | 0% | 0hPa | 2.6V | 18:12:15 | 01:47:26 | 00:00:00 | |
| IW2NTF | 2026-09-05 12:21:07 | 46.52912 | 7.75910 | 203° | 7km/h | 25053m | 4.6m/s | -50.6°C | 3% | 0hPa | 2.6V | 08:30:00 | 01:47:21 | 00:00:00 | |
| DO3MHA-12 | 2026-09-05 12:21:06 | 46.52919 | 7.75906 | 360° | 7km/h | 25080m | 6.4m/s | -50.7°C | 3.0% | 0hPa | 2.6V | 00:00:00 | 01:47:26 | 08:30:00 | |
| HARRO8 | 2026-09-05 12:21:03 | 46.52913 | 7.75914 | 175° | 13km/h | 24974m | 4.7m/s | -51.3°C | 0.6% | -1.0hPa | 2.6V | 00:00:00 | 00:00:00 | 00:00:00 | |
| DO3MHA-11 | 2026-09-05 12:21:01 | 46.52912 | 7.75910 | 204° | 9km/h | 25054m | 4.6m/s | -50.5°C | 3.0% | 0hPa | 2.6V | 00:00:00 | 01:47:21 | 00:00:00 | |
| IW2NTF | 2026-09-05 12:20:57 | 46.52919 | 7.75897 | 334° | 15km/h | 25002m | 6.2m/s | -51.1°C | 3.1% | 0hPa | 2.7V | 08:30:00 | 01:47:11 | 00:00:00 | |
| BIOWL1-15 | 2026-09-05 12:20:56 | 46.52922 | 7.75900 | 111° | 13km/h | 25029m | 4.3m/s | -50.7°C | 0% | 0hPa | 2.6V | 18:12:15 | 01:47:16 | 00:00:00 | |
| BIOWL1-15 | 2026-09-05 12:20:46 | 46.52910 | 7.75913 | 207° | 11km/h | 24978m | 4.5m/s | 0°C | 0% | 0hPa | 2.7V | 18:12:15 | 01:47:06 | 00:00:00 | |
| BIOWL1-15 | 2026-09-05 12:20:36 | 46.52920 | 7.75877 | 326° | 0km/h | 24913m | 4.8m/s | 0°C | 0% | 0hPa | 2.6V | 18:12:15 | 01:46:53 | 00:00:00 | |
| IW2NTF | 2026-09-05 12:20:32 | 46.52923 | 7.75876 | 159° | 13km/h | 24902m | 4.8m/s | -51.4°C | 3.2% | 0hPa | 2.6V | 08:30:00 | 01:46:51 | 00:00:00 | |
| DO3MHA-11 | 2026-09-05 12:20:31 | 46.52923 | 7.75876 | 160° | 13km/h | 24902m | 4.7m/s | -51.4°C | 3.2% | 0hPa | 2.6V | 00:00:00 | 01:46:51 | 00:00:00 | |
| IW2NTF | 2026-09-05 12:20:26 | 46.52930 | 7.75844 | 351° | 13km/h | 24853m | 6.2m/s | -51.5°C | 3.3% | 0hPa | 2.6V | 08:30:00 | 01:46:41 | 00:00:00 | |
| BIOWL1-15 | 2026-09-05 12:20:25 | 46.52936 | 7.75847 | 98° | 11km/h | 24873m | 5.2m/s | 0°C | 0% | 0hPa | 2.6V | 18:12:15 | 01:46:45 | 00:00:00 | |
| DO3MHA-12 | 2026-09-05 12:20:24 | 46.52936 | 7.75844 | 80° | 7km/h | 24868m | 4.9m/s | -51.5°C | 3.3% | 0hPa | 2.7V | 00:00:00 | 01:46:44 | 00:00:00 | |
| DH7VM-15 | 2026-09-05 12:20:22 | 46.52933 | 7.75843 | 349° | 9km/h | 24859m | 4.9m/s | -51.5°C | 0% | 0hPa | 2.6V | 00:00:00 | 00:00:00 | 00:00:00 | |
| DO3MHA-11 | 2026-09-05 12:20:21 | 46.52930 | 7.75844 | 352° | 11km/h | 24853m | 6.2m/s | -51.5°C | 3.3% | 0hPa | 2.6V | 00:00:00 | 01:46:41 | 00:00:00 | |
| HASLITAL | 2026-09-05 12:20:20 | 46.52930 | 7.75844 | 352° | 13km/h | 24853m | 6.2m/s | -51.5°C | 0.7% | 0hPa | 2.6V | 00:00:00 | 00:00:00 | 00:00:00 | |
| IW2NTF | 2026-09-05 12:20:16 | 46.52924 | 7.75821 | 54° | 9km/h | 24804m | 4.4m/s | -51.6°C | 3.2% | 0hPa | 2.6V | 08:30:00 | 01:46:31 | 00:00:00 | |
| DB0UT-7 | 2026-09-05 12:20:16 | 46.52922 | 7.75841 | 123° | 13km/h | 24827m | 4.8m/s | -51.6°C | 3.3% | 0hPa | 2.7V | 00:00:00 | 01:46:36 | 00:00:00 | |
| DO3MHA-12 | 2026-09-05 12:20:14 | 46.52925 | 7.75834 | 108° | 13km/h | 24817m | 5.7m/s | -51.7°C | 3.3% | 0hPa | 2.7V | 00:00:00 | 01:46:34 | 00:00:00 | |
| DL1ZP-14 | 2026-09-05 12:20:12 | 46.52925 | 7.75824 | 74° | 11km/h | 24808m | 3.5m/s | -51.6°C | 0.6% | -1.0hPa | 2.7V | 00:00:00 | 00:00:00 | 00:00:00 | |
| DF7PN | 2026-09-05 12:20:11 | 46.52922 | 7.75819 | 22° | 5km/h | 24799m | 5.4m/s | -51.7°C | 0.6% | -1.0hPa | 2.7V | 00:00:00 | 00:00:00 | 00:00:00 | |
| DL6DJ-15 | 2026-09-05 12:20:08 | 46.52916 | 7.75823 | 330° | 13km/h | 24785m | 4.5m/s | -51.9°C | 0.6% | -1.0hPa | 2.7V | 00:00:00 | 00:00:00 | 00:00:00 | |
| IW2NTF | 2026-09-05 12:20:06 | 46.52900 | 7.75819 | 74° | 7km/h | 24754m | 4.6m/s | -52.1°C | 3.4% | 0hPa | 2.7V | 08:30:00 | 01:46:21 | 00:00:00 | |
| DO3MHA-12 | 2026-09-05 12:20:03 | 46.52903 | 7.75824 | 31° | 13km/h | 24765m | 5.2m/s | -52.0°C | 3.4% | 0hPa | 2.7V | 00:00:00 | 01:46:23 | 00:00:00 | |
| DO3MHA-11 | 2026-09-05 12:20:01 | 46.52900 | 7.75819 | 75° | 15km/h | 24755m | 4.6m/s | -52.1°C | 3.4% | 0hPa | 2.7V | 00:00:00 | 01:46:21 | 08:30:00 | |
| HASLITAL | 2026-09-05 12:20:00 | 46.52900 | 7.75819 | 76° | 7km/h | 24755m | 4.6m/s | -52.1°C | 0.7% | 0hPa | 2.7V | 00:00:00 | 00:00:00 | 00:00:00 | |
| IW2NTF | 2026-09-05 12:19:55 | 46.52868 | 7.75815 | 351° | 16km/h | 24705m | 4.5m/s | -52°C | 3.4% | 0hPa | 2.7V | 08:30:00 | 01:46:11 | 00:00:00 | |
| DO3MHA-12 | 2026-09-05 12:19:53 | 46.52877 | 7.75812 | 344° | 15km/h | 24716m | 4.9m/s | -52.0°C | 3.4% | 0hPa | 2.6V | 00:00:00 | 01:46:13 | 00:00:00 | |
| DO3MHA-11 | 2026-09-05 12:19:51 | 46.52868 | 7.75815 | 352° | 16km/h | 24705m | 4.5m/s | -52.0°C | 3.4% | 0hPa | 2.6V | 00:00:00 | 01:46:11 | 00:00:00 | |
| IW2NTF | 2026-09-05 12:19:47 | 46.52829 | 7.75825 | 349° | 27km/h | 24655m | 5.7m/s | -52.1°C | 3.3% | 0hPa | 2.6V | 08:30:00 | 01:46:01 | 00:00:00 | |
| DB0UT-7 | 2026-09-05 12:19:46 | 46.52855 | 7.75822 | 337° | 18km/h | 24681m | 3.8m/s | -51.9°C | 3.3% | 0hPa | 2.6V | 00:00:00 | 00:00:00 | 00:00:00 | |
| DO3MHA-12 | 2026-09-05 12:19:43 | 46.52842 | 7.75823 | 1° | 18km/h | 24666m | 4.8m/s | -52.0°C | 3.3% | 0hPa | 2.6V | 00:00:00 | 01:46:03 | 00:00:00 | |
| DO3MHA-11 | 2026-09-05 12:19:41 | 46.52829 | 7.75825 | 350° | 16km/h | 24656m | 5.6m/s | -52.0°C | 3.3% | 0hPa | 2.6V | 00:00:00 | 01:46:01 | 00:00:00 | |
| HASLITAL | 2026-09-05 12:19:40 | 46.52822 | 7.75827 | 343° | 26km/h | 24650m | 4.7m/s | -52.2°C | 0.8% | 0hPa | 2.6V | 00:00:00 | 00:00:00 | 00:00:00 | |
| DF7PN | 2026-09-05 12:19:39 | 46.52817 | 7.75830 | 335° | 20km/h | 24646m | 3.8m/s | -52.1°C | 0.6% | -1.0hPa | 2.6V | 00:00:00 | 00:00:00 | 00:00:00 | |
| DL6DJ-15 | 2026-09-05 12:19:37 | 46.52800 | 7.75840 | 328° | 11km/h | 24622m | 5.2m/s | -52.2°C | 0.6% | -1.0hPa | 2.6V | 00:00:00 | 00:00:00 | 00:00:00 | |
| IW2NTF | 2026-09-05 12:19:33 | 46.52790 | 7.75850 | 335° | 18km/h | 24607m | 4.6m/s | -52.1°C | 3.4% | 0hPa | 2.6V | 08:30:00 | 01:45:51 | 00:00:00 | |
| DO3MHA-12 | 2026-09-05 12:19:32 | 46.52794 | 7.75846 | 325° | 20km/h | 24611m | 4.6m/s | -52.1°C | 3.4% | 0hPa | 2.6V | 00:00:00 | 01:45:52 | 00:00:00 | |
| DO3MHA-11 | 2026-09-05 12:19:31 | 46.52790 | 7.75849 | 336° | 20km/h | 24607m | 4.5m/s | -52.1°C | 3.4% | 0hPa | 2.6V | 00:00:00 | 01:45:51 | 00:00:00 | |
| HARRO8 | 2026-09-05 12:19:30 | 46.52786 | 7.75852 | 349° | 18km/h | 24601m | 6.0m/s | -52.2°C | 0.6% | -1.0hPa | 2.7V | 00:00:00 | 00:00:00 | 00:00:00 | |
| IW2NTF | 2026-09-05 12:19:23 | 46.52740 | 7.75855 | 359° | 15km/h | 24557m | 4.4m/s | -52.5°C | 3.4% | 0hPa | 2.7V | 08:30:00 | 01:45:41 | 00:00:00 | |
| DO3MHA-12 | 2026-09-05 12:19:22 | 46.52744 | 7.75855 | 354° | 13km/h | 24562m | 5.6m/s | -52.4°C | 3.5% | 0hPa | 2.6V | 00:00:00 | 01:45:42 | 08:30:00 | |
| DO3MHA-11 | 2026-09-05 12:19:21 | 46.52740 | 7.75855 | 360° | 13km/h | 24557m | 4.4m/s | -52.4°C | 3.4% | 0hPa | 2.6V | 00:00:00 | 01:45:41 | 00:00:00 | |
| HASLITAL | 2026-09-05 12:19:19 | 46.52736 | 7.75856 | 357° | 13km/h | 24553m | 4.1m/s | -52.4°C | 0.7% | 0hPa | 2.6V | 00:00:00 | 00:00:00 | 00:00:00 | |
| DB0UT-7 | 2026-09-05 12:19:16 | 46.52728 | 7.75859 | 360° | 15km/h | 24533m | 5.2m/s | -52.3°C | 3.5% | 0hPa | 2.6V | 00:00:00 | 01:45:36 | 00:00:00 | |
| IW2NTF | 2026-09-05 12:19:13 | 46.52706 | 7.75854 | 1° | 20km/h | 24506m | 5m/s | -52.1°C | 3.5% | 0hPa | 2.6V | 08:30:00 | 01:45:31 | 00:00:00 | |
| DO3MHA-12 | 2026-09-05 12:19:12 | 46.52711 | 7.75854 | 6° | 15km/h | 24512m | 5.7m/s | -52.1°C | 3.5% | 0hPa | 2.6V | 00:00:00 | 01:45:32 | 00:00:00 | |
| DO3MHA-11 | 2026-09-05 12:19:11 | 46.52706 | 7.75854 | 2° | 15km/h | 24506m | 4.9m/s | -52.1°C | 3.5% | 0hPa | 2.6V | 00:00:00 | 01:45:31 | 00:00:00 | |
| DL1ZP-14 | 2026-09-05 12:19:10 | 46.52697 | 7.75853 | 9° | 16km/h | 24497m | 4.9m/s | -52.1°C | 0.6% | -1.0hPa | 2.6V | 00:00:00 | 00:00:00 | 00:00:00 | |
| DF7PN | 2026-09-05 12:19:08 | 46.52693 | 7.75851 | 17° | 16km/h | 24492m | 5.7m/s | -52.0°C | 0.6% | -1.0hPa | 2.6V | 00:00:00 | 00:00:00 | 00:00:00 | |
| DL6DJ-15 | 2026-09-05 12:19:05 | 46.52680 | 7.75847 | 350° | 9km/h | 24471m | 4.7m/s | -52.0°C | 0.6% | -1.0hPa | 2.6V | 00:00:00 | 00:00:00 | 00:00:00 | |
| IW2NTF | 2026-09-05 12:19:04 | 46.52672 | 7.75847 | 16° | 16km/h | 24455m | 5.7m/s | -52.1°C | 3.4% | 0hPa | 2.6V | 08:30:00 | 01:45:21 | 00:00:00 | |
| HARRO8 | 2026-09-05 12:18:59 | 46.52663 | 7.75843 | 14° | 20km/h | 24445m | 5.1m/s | 0°C | -1.0% | -1.0hPa | 2.7V | 00:00:00 | 00:00:00 | 00:00:00 | |
| HASLITAL | 2026-09-05 12:18:58 | 46.52662 | 7.75843 | 15° | 22km/h | 24445m | 5.1m/s | -52.2°C | 0.8% | 0hPa | 2.7V | 00:00:00 | 00:00:00 | 00:00:00 | |
| IW2NTF | 2026-09-05 12:18:53 | 46.52623 | 7.75829 | 12° | 7km/h | 24404m | 6.2m/s | -52.2°C | 3.3% | 0hPa | 2.7V | 08:30:00 | 01:45:11 | 00:00:00 | |
| DO3MHA-11 | 2026-09-05 12:18:51 | 46.52623 | 7.75829 | 13° | 11km/h | 24404m | 6.2m/s | -52.1°C | 3.3% | 0hPa | 2.7V | 00:00:00 | 01:45:11 | 00:00:00 | |
| DO3MHA-12 | 2026-09-05 12:18:50 | 46.52622 | 7.75829 | 356° | 13km/h | 24398m | 5.0m/s | -52.1°C | 3.3% | 0hPa | 2.7V | 00:00:00 | 01:45:10 | 00:00:00 | |
| DH7VM-15 | 2026-09-05 12:18:46 | 46.52618 | 7.75823 | 46° | 13km/h | 24377m | 4.6m/s | -52.1°C | 0% | 0hPa | 2.6V | 00:00:00 | 00:00:00 | 00:00:00 | |
| IW2NTF | 2026-09-05 12:18:42 | 46.52599 | 7.75817 | 339° | 20km/h | 24352m | 4.8m/s | -52.2°C | 3.5% | 0hPa | 2.6V | 08:30:00 | 01:45:01 | 00:00:00 | |
| DO3MHA-11 | 2026-09-05 12:18:41 | 46.52599 | 7.75817 | 340° | 18km/h | 24353m | 4.8m/s | -52.1°C | 3.5% | 0hPa | 2.6V | 00:00:00 | 01:45:01 | 00:00:00 | |
| DO3MHA-12 | 2026-09-05 12:18:40 | 46.52594 | 7.75820 | 342° | 18km/h | 24348m | 5.0m/s | -52.1°C | 3.5% | 0hPa | 2.6V | 00:00:00 | 01:45:00 | 00:00:00 | |
| HASLITAL | 2026-09-05 12:18:38 | 46.52589 | 7.75822 | 351° | 22km/h | 24342m | 6.3m/s | -52.1°C | 0.8% | 0hPa | 2.6V | 00:00:00 | 00:00:00 | 00:00:00 | |
| DF7PN | 2026-09-05 12:18:37 | 46.52579 | 7.75822 | 8° | 20km/h | 24331m | 4.5m/s | -52.1°C | 0.6% | -1.0hPa | 2.6V | 00:00:00 | 00:00:00 | 00:00:00 | |
| IW2NTF | 2026-09-05 12:18:33 | 46.52554 | 7.75816 | 21° | 13km/h | 24299m | 5.5m/s | -52.1°C | 3.4% | 0hPa | 2.6V | 08:30:00 | 01:44:51 | 00:00:00 | |
| DO3MHA-11 | 2026-09-05 12:18:31 | 46.52553 | 7.75816 | 22° | 15km/h | 24299m | 5.5m/s | -52.0°C | 3.4% | 0hPa | 2.6V | 00:00:00 | 01:44:51 | 08:30:00 | |
| DO3MHA-12 | 2026-09-05 12:18:30 | 46.52551 | 7.75814 | 17° | 13km/h | 24294m | 4.5m/s | -52.1°C | 3.3% | 0hPa | 2.7V | 00:00:00 | 01:44:50 | 00:00:00 | |
| IW2NTF | 2026-09-05 12:18:23 | 46.52518 | 7.75834 | 346° | 18km/h | 24248m | 5.7m/s | -52.2°C | 3.5% | 0hPa | 2.7V | 08:30:00 | 01:44:41 | 00:00:00 | |
| DK5PH-5 | 2026-09-05 12:18:22 | 46.52523 | 7.75832 | 352° | 13km/h | 24253m | 4.2m/s | -52.3°C | 3.6% | 0hPa | 2.6V | 00:00:00 | 01:44:42 | 08:30:00 | |
| DO3MHA-11 | 2026-09-05 12:18:21 | 46.52518 | 7.75834 | 347° | 15km/h | 24248m | 5.6m/s | -52.2°C | 3.5% | 0hPa | 2.6V | 00:00:00 | 01:44:41 | 00:00:00 | |
| HASLITAL | 2026-09-05 12:18:17 | 46.52507 | 7.75841 | 326° | 13km/h | 24231m | 5.7m/s | -52.1°C | 0.8% | 0hPa | 2.6V | 00:00:00 | 00:00:00 | 00:00:00 | |
| DB0UT-7 | 2026-09-05 12:18:16 | 46.52502 | 7.75847 | 320° | 11km/h | 24220m | 4.2m/s | -51.9°C | 3.4% | 0hPa | 2.6V | 00:00:00 | 01:44:36 | 00:00:00 | |
| IW2NTF | 2026-09-05 12:18:12 | 46.52494 | 7.75869 | 307° | 15km/h | 24194m | 6.2m/s | -52°C | 3.4% | 0hPa | 2.6V | 08:30:00 | 01:44:31 | 00:00:00 | |
| DO3MHA-11 | 2026-09-05 12:18:11 | 46.52494 | 7.75869 | 308° | 15km/h | 24194m | 6.1m/s | -51.9°C | 3.4% | 0hPa | 2.6V | 00:00:00 | 01:44:31 | 00:00:00 | |
| DL1ZP-14 | 2026-09-05 12:18:08 | 46.52481 | 7.75879 | 331° | 15km/h | 24172m | 6.3m/s | -51.9°C | 0.6% | -1.0hPa | 2.6V | 00:00:00 | 00:00:00 | 00:00:00 | |
| DF7PN | 2026-09-05 12:18:06 | 46.52478 | 7.75882 | 323° | 15km/h | 24166m | 4.9m/s | -52.0°C | 0.6% | -1.0hPa | 2.6V | 00:00:00 | 00:00:00 | 00:00:00 | |
| IW2NTF | 2026-09-05 12:18:03 | 46.52465 | 7.75898 | 295° | 11km/h | 24140m | 5.3m/s | -51.8°C | 3.3% | 0hPa | 2.6V | 08:30:00 | 01:44:21 | 00:00:00 | |
| DO3MHA-11 | 2026-09-05 12:18:01 | 46.52465 | 7.75898 | 296° | 7km/h | 24141m | 5.2m/s | -51.7°C | 3.3% | 0hPa | 2.6V | 00:00:00 | 01:44:21 | 00:00:00 | |
| HASLITAL | 2026-09-05 12:17:57 | 46.52465 | 7.75911 | 257° | 11km/h | 24125m | 4.5m/s | -51.9°C | 0.8% | 0hPa | 2.7V | 00:00:00 | 00:00:00 | 00:00:00 | |
| IW2NTF | 2026-09-05 12:17:53 | 46.52459 | 7.75921 | 315° | 9km/h | 24087m | 4.7m/s | -52°C | 3.3% | 0hPa | 2.7V | 08:30:00 | 01:44:11 | 00:00:00 | |
| DK5PH-5 | 2026-09-05 12:17:50 | 46.52458 | 7.75923 | 322° | 9km/h | 24083m | 5.3m/s | -52.0°C | 3.4% | 0hPa | 2.6V | 00:00:00 | 01:44:10 | 00:00:00 | |
| DB0UT-7 | 2026-09-05 12:17:46 | 46.52452 | 7.75933 | 273° | 9km/h | 24062m | 6.1m/s | -51.9°C | 3.5% | 0hPa | 2.6V | 00:00:00 | 00:00:00 | 00:00:00 | |
| IW2NTF | 2026-09-05 12:17:42 | 46.52454 | 7.75950 | 25° | 4km/h | 24037m | 6.4m/s | -52°C | 3.3% | 0hPa | 2.6V | 08:30:00 | 01:44:01 | 00:00:00 | |
| DO3MHA-11 | 2026-09-05 12:17:41 | 46.52454 | 7.75949 | 26° | 4km/h | 24037m | 6.3m/s | -52.0°C | 3.3% | 0hPa | 2.6V | 00:00:00 | 01:44:01 | 00:00:00 | |
| DL1ZP-14 | 2026-09-05 12:17:37 | 46.52443 | 7.75936 | 10° | 4km/h | 24011m | 5.3m/s | -52.1°C | 0.7% | -1.0hPa | 2.6V | 00:00:00 | 00:00:00 | 00:00:00 | |
| DF7PN | 2026-09-05 12:17:35 | 46.52442 | 7.75936 | 304° | 2km/h | 24006m | 4.6m/s | -52.0°C | 0.6% | -1.0hPa | 2.6V | 00:00:00 | 00:00:00 | 00:00:00 | |
| IW2NTF | 2026-09-05 12:17:33 | 46.52444 | 7.75940 | 169° | 4km/h | 23984m | 5.2m/s | -51.9°C | 3.4% | 0hPa | 2.6V | 08:30:00 | 01:43:51 | 00:00:00 | |
| DL6DJ-15 | 2026-09-05 12:17:32 | 46.52443 | 7.75939 | 205° | 2km/h | 23990m | 5.5m/s | -51.9°C | 0.7% | -1.0hPa | 2.6V | 00:00:00 | 00:00:00 | 00:00:00 | |
| DO3MHA-11 | 2026-09-05 12:17:30 | 46.52445 | 7.75939 | 169° | 9km/h | 23980m | 4.8m/s | -51.8°C | 3.4% | 0hPa | 2.6V | 00:00:00 | 01:43:50 | 00:00:00 | |
| DH7VM-15 | 2026-09-05 12:17:25 | 46.52452 | 7.75934 | 124° | 11km/h | 23959m | 5.2m/s | -51.9°C | 0% | 0hPa | 2.7V | 00:00:00 | 00:00:00 | 00:00:00 | |
| IW2NTF | 2026-09-05 12:17:23 | 46.52454 | 7.75912 | 62° | 5km/h | 23932m | 5.7m/s | -51.7°C | 3.3% | 0hPa | 2.7V | 08:30:00 | 01:43:41 | 00:00:00 | |
| DK5PH-5 | 2026-09-05 12:17:20 | 46.52453 | 7.75911 | 326° | 9km/h | 23927m | 4.6m/s | -51.6°C | 3.3% | 0hPa | 2.6V | 00:00:00 | 01:43:40 | 00:00:00 | |
| DO3MHA-11 | 2026-09-05 12:17:19 | 46.52453 | 7.75912 | 267° | 5km/h | 23922m | 4.7m/s | -51.7°C | 3.3% | 0hPa | 2.6V | 00:00:00 | 01:43:39 | 00:00:00 | |
| DB0UT-7 | 2026-09-05 12:17:16 | 46.52455 | 7.75912 | 150° | 11km/h | 23906m | 5.1m/s | -51.6°C | 3.4% | 0hPa | 2.6V | 00:00:00 | 01:43:36 | 00:00:00 | |
| IW2NTF | 2026-09-05 12:17:13 | 46.52463 | 7.75902 | 107° | 9km/h | 23880m | 5.2m/s | -51.5°C | 3.4% | 0hPa | 2.6V | 08:30:00 | 01:43:31 | 00:00:00 | |
| DO3MHA-11 | 2026-09-05 12:17:09 | 46.52464 | 7.75894 | 90° | 11km/h | 23868m | 5.2m/s | -51.6°C | 3.3% | 0hPa | 2.7V | 00:00:00 | 01:43:29 | 00:00:00 | |
| DL1ZP-14 | 2026-09-05 12:17:06 | 46.52458 | 7.75880 | 27° | 9km/h | 23847m | 4.9m/s | -51.9°C | 0.6% | -1.0hPa | 2.7V | 00:00:00 | 00:00:00 | 00:00:00 | |
| DF7PN | 2026-09-05 12:17:04 | 46.52454 | 7.75876 | 63° | 7km/h | 23837m | 6.1m/s | -52.0°C | 0.6% | -1.0hPa | 2.6V | 00:00:00 | 00:00:00 | 00:00:00 | |
| IW2NTF | 2026-09-05 12:17:01 | 46.52454 | 7.75868 | 106° | 11km/h | 23825m | 5.1m/s | -51.9°C | 3.4% | 0hPa | 2.6V | 08:30:00 | 01:43:21 | 00:00:00 | |
| DL6DJ-15 | 2026-09-05 12:17:01 | 46.52454 | 7.75868 | 106° | 11km/h | 23825m | 5.1m/s | -51.9°C | 0.7% | -1.0hPa | 2.7V | 00:00:00 | 00:00:00 | 00:00:00 | |
| DO3MHA-11 | 2026-09-05 12:16:59 | 46.52457 | 7.75860 | 129° | 13km/h | 23814m | 5.5m/s | -51.7°C | 3.4% | 0hPa | 2.7V | 00:00:00 | 01:43:19 | 08:30:00 | |
| IW2NTF | 2026-09-05 12:16:56 | 46.52470 | 7.75828 | 62° | 9km/h | 23773m | 4m/s | -51.6°C | 3.2% | 0hPa | 2.6V | 08:30:00 | 01:43:11 | 00:00:00 | |
| HASLITAL | 2026-09-05 12:16:56 | 46.52465 | 7.75848 | 134° | 18km/h | 23798m | 6.1m/s | -51.8°C | 0.8% | 0hPa | 2.6V | 00:00:00 | 00:00:00 | 00:00:00 | |
| DK5PH-5 | 2026-09-05 12:16:50 | 46.52469 | 7.75824 | 69° | 11km/h | 23769m | 5.2m/s | -51.7°C | 3.3% | 0hPa | 2.6V | 00:00:00 | 01:43:10 | 00:00:00 | |
| DO3MHA-11 | 2026-09-05 12:16:49 | 46.52468 | 7.75814 | 94° | 9km/h | 23758m | 4.9m/s | -51.6°C | 3.3% | 0hPa | 2.6V | 00:00:00 | 01:43:08 | 00:00:00 | |
| IW2NTF | 2026-09-05 12:16:47 | 46.52476 | 7.75794 | 83° | 7km/h | 23723m | 5.1m/s | -51.9°C | 3.4% | 0hPa | 2.6V | 08:30:00 | 01:43:01 | 00:00:00 | |
| DB0UT-7 | 2026-09-05 12:16:46 | 46.52470 | 7.75803 | 120° | 7km/h | 23749m | 4.8m/s | -51.6°C | 3.4% | 0hPa | 2.6V | 00:00:00 | 00:00:00 | 00:00:00 | |
| IW2NTF | 2026-09-05 12:16:37 | 46.52471 | 7.75767 | 98° | 4km/h | 23671m | 5.9m/s | -52.4°C | 3.4% | 0hPa | 2.6V | 08:30:00 | 01:42:51 | 00:00:00 | |
| DL1ZP-14 | 2026-09-05 12:16:35 | 46.52472 | 7.75777 | 78° | 11km/h | 23687m | 6.0m/s | -52.0°C | 0.6% | -1.0hPa | 2.6V | 00:00:00 | 00:00:00 | 00:00:00 | |
| DF7PN | 2026-09-05 12:16:33 | 46.52471 | 7.75769 | 81° | 7km/h | 23677m | 4.9m/s | -52.3°C | 0.7% | -1.0hPa | 2.6V | 00:00:00 | 00:00:00 | 00:00:00 | |
| DL6DJ-15 | 2026-09-05 12:16:30 | 46.52473 | 7.75768 | 222° | 5km/h | 23661m | 4.6m/s | -52.3°C | 0.6% | -1.0hPa | 2.6V | 00:00:00 | 00:00:00 | 00:00:00 | |
| DO3MHA-11 | 2026-09-05 12:16:25 | 46.52478 | 7.75772 | 195° | 7km/h | 23641m | 3.6m/s | -52.2°C | 3.4% | 0hPa | 2.6V | 00:00:00 | 01:42:45 | 00:00:00 | |
| IW2NTF | 2026-09-05 12:16:22 | 46.52480 | 7.75778 | 241° | 5km/h | 23621m | 4.5m/s | -52.3°C | 3.4% | 0hPa | 2.7V | 08:30:00 | 01:42:41 | 00:00:00 | |
| IW2NTF | 2026-09-05 12:16:16 | 46.52507 | 7.75785 | 194° | 9km/h | 23570m | 4.4m/s | -52.5°C | 3.5% | 0hPa | 2.6V | 08:30:00 | 01:42:31 | 00:00:00 | |
| DB0UT-7 | 2026-09-05 12:16:16 | 46.52490 | 7.75778 | 188° | 11km/h | 23596m | 5.8m/s | -52.3°C | 3.4% | 0hPa | 2.7V | 00:00:00 | 01:42:36 | 08:30:00 | |
| DO3MHA-11 | 2026-09-05 12:16:15 | 46.52494 | 7.75779 | 198° | 11km/h | 23591m | 5.1m/s | -52.4°C | 3.4% | 0hPa | 2.7V | 00:00:00 | 01:42:35 | 00:00:00 | |
| HASLITAL | 2026-09-05 12:16:14 | 46.52494 | 7.75779 | 199° | 15km/h | 23591m | 5.1m/s | -52.4°C | 0.8% | 0hPa | 2.7V | 00:00:00 | 00:00:00 | 00:00:00 | |
| DO3MHA-11 | 2026-09-05 12:16:05 | 46.52508 | 7.75800 | 301° | 9km/h | 23539m | 4.9m/s | -52.6°C | 3.5% | 0hPa | 2.7V | 00:00:00 | 01:42:25 | 00:00:00 | |
| IW2NTF | 2026-09-05 12:16:04 | 46.52506 | 7.75806 | 258° | 7km/h | 23520m | 4.5m/s | -52.7°C | 3.5% | 0hPa | 2.7V | 08:30:00 | 01:42:21 | 00:00:00 | |
| DL1ZP-14 | 2026-09-05 12:16:03 | 46.52507 | 7.75803 | 298° | 4km/h | 23530m | 5.1m/s | -52.8°C | 0.7% | -1.0hPa | 2.6V | 00:00:00 | 00:00:00 | 00:00:00 | |
| DF7PN | 2026-09-05 12:16:02 | 46.52506 | 7.75806 | 258° | 5km/h | 23520m | 4.5m/s | -52.7°C | 0.7% | -1.0hPa | 2.6V | 00:00:00 | 00:00:00 | 00:00:00 | |
| DL6DJ-15 | 2026-09-05 12:15:59 | 46.52509 | 7.75811 | 216° | 7km/h | 23510m | 6.2m/s | -52.7°C | 0.7% | -1.0hPa | 2.6V | 00:00:00 | 00:00:00 | 00:00:00 | |
| IW2NTF | 2026-09-05 12:15:56 | 46.52526 | 7.75840 | 202° | 9km/h | 23471m | 5.7m/s | -52.6°C | 3.6% | 0hPa | 2.6V | 08:30:00 | 01:42:11 | 00:00:00 | |
| HASLITAL | 2026-09-05 12:15:54 | 46.52520 | 7.75829 | 246° | 16km/h | 23485m | 3.4m/s | -52.7°C | 0.8% | 0hPa | 2.7V | 00:00:00 | 00:00:00 | 00:00:00 | |
| IW2NTF | 2026-09-05 12:15:46 | 46.52554 | 7.75843 | 199° | 20km/h | 23419m | 5.9m/s | -52.8°C | 3.5% | 0hPa | 2.7V | 08:30:00 | 01:42:01 | 00:00:00 | |
| DB0UT-7 | 2026-09-05 12:15:46 | 46.52534 | 7.75837 | 178° | 18km/h | 23445m | 4.1m/s | -52.7°C | 3.5% | 0hPa | 2.6V | 00:00:00 | 00:00:00 | 00:00:00 | |
| IW2NTF | 2026-09-05 12:15:37 | 46.52592 | 7.75839 | 156° | 16km/h | 23368m | 6m/s | -52.6°C | 3.6% | 0hPa | 2.6V | 08:30:00 | 01:41:51 | 00:00:00 | |
| DO3MHA-11 | 2026-09-05 12:15:33 | 46.52586 | 7.75844 | 150° | 18km/h | 23378m | 4.9m/s | -52.5°C | 3.5% | 0hPa | 2.7V | 00:00:00 | 01:41:53 | 00:00:00 | |
| DL1ZP-14 | 2026-09-05 12:15:32 | 46.52589 | 7.75842 | 152° | 13km/h | 23373m | 4.5m/s | -52.5°C | 0.7% | -1.0hPa | 2.7V | 00:00:00 | 00:00:00 | 00:00:00 | |
| DF7PN | 2026-09-05 12:15:31 | 46.52597 | 7.75837 | 162° | 20km/h | 23362m | 5.3m/s | -52.6°C | 0.7% | -1.0hPa | 2.6V | 00:00:00 | 00:00:00 | 00:00:00 | |
| DL6DJ-15 | 2026-09-05 12:15:28 | 46.52607 | 7.75833 | 165° | 20km/h | 23353m | 5.3m/s | 0°C | -1.0% | -1.0hPa | 2.6V | 00:00:00 | 00:00:00 | 00:00:00 | |
| IW2NTF | 2026-09-05 12:15:26 | 46.52641 | 7.75818 | 149° | 18km/h | 23316m | 6m/s | -52.3°C | 3.5% | 0hPa | 2.6V | 08:30:00 | 01:41:41 | 00:00:00 | |
| DO3MHA-11 | 2026-09-05 12:15:22 | 46.52636 | 7.75821 | 159° | 18km/h | 23321m | 4.6m/s | -52.3°C | 3.5% | 0hPa | 2.6V | 00:00:00 | 01:41:42 | 08:30:00 | |
| IW2NTF | 2026-09-05 12:15:17 | 46.52673 | 7.75774 | 155° | 15km/h | 23267m | 4.6m/s | -52.3°C | 3.5% | 0hPa | 2.7V | 08:30:00 | 01:41:31 | 00:00:00 | |
| DB0UT-7 | 2026-09-05 12:15:17 | 46.52657 | 7.75792 | 135° | 20km/h | 23291m | 4.4m/s | -52.2°C | 3.4% | 0hPa | 2.6V | 00:00:00 | 01:41:36 | 00:00:00 | |
| DO3MHA-11 | 2026-09-05 12:15:12 | 46.52670 | 7.75776 | 152° | 20km/h | 23272m | 3.6m/s | -52.2°C | 3.5% | 0hPa | 2.6V | 00:00:00 | 01:41:32 | 00:00:00 | |
| IW2NTF | 2026-09-05 12:15:06 | 46.52702 | 7.75716 | 102° | 18km/h | 23218m | 4.8m/s | -52.4°C | 3.4% | 0hPa | 2.6V | 08:30:00 | 01:41:21 | 00:00:00 | |
| DL1ZP-14 | 2026-09-05 12:15:02 | 46.52702 | 7.75716 | 102° | 18km/h | 23218m | 4.8m/s | -52.4°C | 0.6% | -1.0hPa | 2.6V | 00:00:00 | 00:00:00 | 00:00:00 | |
| DF7PN | 2026-09-05 12:15:00 | 46.52703 | 7.75705 | 100° | 13km/h | 23207m | 4.8m/s | -52.3°C | 0.7% | -1.0hPa | 2.7V | 00:00:00 | 00:00:00 | 00:00:00 | |
| DL6DJ-15 | 2026-09-05 12:14:57 | 46.52706 | 7.75696 | 125° | 11km/h | 23196m | 5.7m/s | 0°C | -1.0% | -1.0hPa | 2.7V | 00:00:00 | 00:00:00 | 00:00:00 | |
| IW2NTF | 2026-09-05 12:14:53 | 46.52710 | 7.75663 | 78° | 24km/h | 23167m | 5.3m/s | -52.4°C | 3.5% | 0hPa | 2.7V | 08:30:00 | 01:41:11 | 00:00:00 | |
| DO3MHA-11 | 2026-09-05 12:14:51 | 46.52710 | 7.75662 | 79° | 20km/h | 23168m | 5.3m/s | -52.4°C | 3.5% | 0hPa | 2.7V | 00:00:00 | 01:41:11 | 00:00:00 | |
| IW2NTF | 2026-09-05 12:14:46 | 46.52697 | 7.75585 | 108° | 16km/h | 23118m | 3.4m/s | -52.5°C | 3.6% | 0hPa | 2.6V | 08:30:00 | 01:41:01 | 00:00:00 | |
| DB0UT-7 | 2026-09-05 12:14:46 | 46.52701 | 7.75615 | 62° | 15km/h | 23143m | 4.9m/s | -52.4°C | 3.5% | 0hPa | 2.6V | 00:00:00 | 00:00:00 | 00:00:00 | |
| DK5PH-5 | 2026-09-05 12:14:43 | 46.52695 | 7.75596 | 84° | 15km/h | 23128m | 5.8m/s | -52.4°C | 3.6% | 0hPa | 2.7V | 00:00:00 | 01:41:03 | 00:00:00 | |
| DO3MHA-11 | 2026-09-05 12:14:40 | 46.52698 | 7.75580 | 105° | 20km/h | 23115m | 4.5m/s | -52.4°C | 3.6% | 0hPa | 2.7V | 00:00:00 | 01:41:00 | 00:00:00 | |
| IW2NTF | 2026-09-05 12:14:37 | 46.52686 | 7.75515 | 57° | 22km/h | 23071m | 4.8m/s | -52.2°C | 3.5% | 0hPa | 2.7V | 08:30:00 | 01:40:51 | 00:00:00 | |
| DO3MHA-11 | 2026-09-05 12:14:30 | 46.52683 | 7.75509 | 56° | 9km/h | 23067m | 3.4m/s | -52.1°C | 3.5% | 0hPa | 2.6V | 00:00:00 | 01:40:50 | 00:00:00 | |
| DF7PN | 2026-09-05 12:14:29 | 46.52680 | 7.75502 | 82° | 5km/h | 23058m | 5.9m/s | -52.2°C | 0.7% | -1.0hPa | 2.6V | 00:00:00 | 00:00:00 | 00:00:00 | |
| IW2NTF | 2026-09-05 12:14:26 | 46.52675 | 7.75487 | 56° | 16km/h | 23025m | 5.2m/s | -52.1°C | 3.4% | 0hPa | 2.6V | 08:30:00 | 01:40:41 | 00:00:00 | |
| DL6DJ-15 | 2026-09-05 12:14:26 | 46.52681 | 7.75498 | 48° | 5km/h | 23038m | 4.9m/s | 0°C | -1.0% | -1.0hPa | 2.6V | 00:00:00 | 00:00:00 | 00:00:00 | |
| DO3MHA-11 | 2026-09-05 12:14:20 | 46.52673 | 7.75482 | 59° | 11km/h | 23020m | 4.5m/s | -52.1°C | 3.4% | 0hPa | 2.6V | 00:00:00 | 01:40:40 | 00:00:00 | |
| IW2NTF | 2026-09-05 12:14:17 | 46.52659 | 7.75464 | 110° | 11km/h | 22979m | 3.9m/s | -52.1°C | 3.5% | 0hPa | 2.6V | 08:30:00 | 01:40:31 | 00:00:00 | |
| DB0UT-7 | 2026-09-05 12:14:16 | 46.52664 | 7.75473 | 11° | 7km/h | 23002m | 4.8m/s | -52.0°C | 3.4% | 0hPa | 2.6V | 00:00:00 | 01:40:36 | 00:00:00 | |
| DK5PH-5 | 2026-09-05 12:14:13 | 46.52658 | 7.75469 | 62° | 7km/h | 22989m | 5.6m/s | -52.1°C | 3.5% | 0hPa | 2.6V | 00:00:00 | 01:40:33 | 00:00:00 | |
| DO3MHA-11 | 2026-09-05 12:14:10 | 46.52660 | 7.75460 | 105° | 7km/h | 22975m | 4.7m/s | -52.1°C | 3.5% | 0hPa | 2.7V | 00:00:00 | 01:40:30 | 00:00:00 | |
| IW2NTF | 2026-09-05 12:14:05 | 46.52647 | 7.75450 | 355° | 9km/h | 22932m | 3.7m/s | -52.1°C | 3.4% | 0hPa | 2.7V | 08:30:00 | 01:40:21 | 00:00:00 | |
| DO3MHA-12 | 2026-09-05 12:14:02 | 46.52650 | 7.75450 | 3° | 5km/h | 22936m | 4.7m/s | -52.1°C | 3.4% | 0hPa | 2.6V | 00:00:00 | 01:40:22 | 00:00:00 | |
| DL1ZP-14 | 2026-09-05 12:13:59 | 46.52644 | 7.75451 | 268° | 2km/h | 22922m | 5.4m/s | -52.1°C | 0.7% | -1.0hPa | 2.6V | 00:00:00 | 00:00:00 | 00:00:00 | |
| DF7PN | 2026-09-05 12:13:57 | 46.52646 | 7.75454 | 226° | 5km/h | 22912m | 4.9m/s | -52.1°C | 0.7% | -1.0hPa | 2.6V | 00:00:00 | 00:00:00 | 00:00:00 | |
| IW2NTF | 2026-09-05 12:13:55 | 46.52647 | 7.75462 | 268° | 4km/h | 22882m | 4.7m/s | -52°C | 3.4% | 0hPa | 2.6V | 08:30:00 | 01:40:11 | 00:00:00 | |
| HASLITAL | 2026-09-05 12:13:50 | 46.52647 | 7.75463 | 294° | 5km/h | 22878m | 5.1m/s | -52.1°C | 0.8% | 0hPa | 2.7V | 00:00:00 | 00:00:00 | 00:00:00 | |
| DB0UT-7 | 2026-09-05 12:13:46 | 46.52642 | 7.75476 | 278° | 13km/h | 22859m | 5.3m/s | -52.3°C | 3.4% | 0hPa | 2.7V | 00:00:00 | 00:00:00 | 00:00:00 | |
| IW2NTF | 2026-09-05 12:13:45 | 46.52652 | 7.75492 | 201° | 13km/h | 22833m | 4.2m/s | -52.4°C | 3.5% | 0hPa | 2.7V | 08:30:00 | 01:40:01 | 00:00:00 | |
| DK5PH-5 | 2026-09-05 12:13:43 | 46.52646 | 7.75488 | 222° | 13km/h | 22844m | 5.3m/s | -52.3°C | 3.4% | 0hPa | 2.6V | 00:00:00 | 01:40:03 | 00:00:00 | |
| DO3MHA-11 | 2026-09-05 12:13:40 | 46.52655 | 7.75494 | 200° | 16km/h | 22830m | 4.5m/s | -52.4°C | 3.6% | 0hPa | 2.6V | 00:00:00 | 01:40:00 | 00:00:00 | |
| DO3MHA-12 | 2026-09-05 12:13:37 | 46.52664 | 7.75502 | 230° | 18km/h | 22815m | 4.1m/s | -52.5°C | 3.5% | 0hPa | 2.6V | 00:00:00 | 01:39:57 | 00:00:00 | |
| IW2NTF | 2026-09-05 12:13:35 | 46.52671 | 7.75537 | 234° | 22km/h | 22786m | 4.4m/s | -52.6°C | 3.5% | 0hPa | 2.6V | 08:30:00 | 01:39:51 | 00:00:00 | |
| DO3MHA-11 | 2026-09-05 12:13:30 | 46.52675 | 7.75543 | 223° | 13km/h | 22782m | 3.7m/s | -52.5°C | 3.5% | 0hPa | 2.7V | 00:00:00 | 01:39:50 | 00:00:00 | |
| HASLITAL | 2026-09-05 12:13:29 | 46.52675 | 7.75543 | 223° | 22km/h | 22782m | 3.8m/s | -52.6°C | 0.8% | 0hPa | 2.7V | 00:00:00 | 00:00:00 | 00:00:00 | |
| DL1ZP-14 | 2026-09-05 12:13:28 | 46.52683 | 7.75550 | 207° | 15km/h | 22773m | 5.2m/s | -52.6°C | 0.7% | -1.0hPa | 2.7V | 00:00:00 | 00:00:00 | 00:00:00 | |
| DF7PN | 2026-09-05 12:13:26 | 46.52688 | 7.75555 | 212° | 9km/h | 22763m | 4.2m/s | -52.5°C | 0.7% | -1.0hPa | 2.7V | 00:00:00 | 00:00:00 | 00:00:00 | |
| IW2NTF | 2026-09-05 12:13:22 | 46.52694 | 7.75570 | 268° | 7km/h | 22739m | 5.7m/s | -52.5°C | 3.5% | 0hPa | 2.7V | 08:30:00 | 01:39:41 | 00:00:00 | |
| DO3MHA-11 | 2026-09-05 12:13:20 | 46.52694 | 7.75573 | 276° | 7km/h | 22734m | 4.9m/s | -52.4°C | 3.5% | 0hPa | 2.7V | 00:00:00 | 01:39:40 | 00:00:00 | |
| DO3MHA-12 | 2026-09-05 12:13:16 | 46.52699 | 7.75581 | 213° | 7km/h | 22714m | 3.8m/s | -52.4°C | 3.5% | 0hPa | 2.6V | 00:00:00 | 01:39:36 | 00:00:00 | |
| IW2NTF | 2026-09-05 12:13:14 | 46.52709 | 7.75583 | 174° | 5km/h | 22689m | 5.4m/s | -52.4°C | 3.4% | 0hPa | 2.6V | 08:30:00 | 01:39:31 | 00:00:00 | |
| DK5PH-5 | 2026-09-05 12:13:13 | 46.52706 | 7.75584 | 169° | 7km/h | 22699m | 5.0m/s | -52.3°C | 3.5% | 0hPa | 2.6V | 00:00:00 | 01:39:33 | 00:00:00 | |
| DO3MHA-11 | 2026-09-05 12:13:10 | 46.52711 | 7.75583 | 183° | 5km/h | 22684m | 5.0m/s | -52.3°C | 3.5% | 0hPa | 2.6V | 00:00:00 | 01:39:30 | 00:00:00 | |
| HASLITAL | 2026-09-05 12:13:08 | 46.52712 | 7.75583 | 178° | 5km/h | 22680m | 4.5m/s | -52.4°C | 0.8% | 0hPa | 2.6V | 00:00:00 | 00:00:00 | 00:00:00 | |
| IW2NTF | 2026-09-05 12:13:07 | 46.52717 | 7.75574 | 113° | 5km/h | 22640m | 5.9m/s | -52.3°C | 3.5% | 0hPa | 2.6V | 08:30:00 | 01:39:21 | 00:00:00 | |
| DO3MHA-12 | 2026-09-05 12:13:05 | 46.52715 | 7.75578 | 103° | 5km/h | 22660m | 4.5m/s | -52.3°C | 3.5% | 0hPa | 2.6V | 00:00:00 | 01:39:25 | 00:00:00 | |
| DL1ZP-14 | 2026-09-05 12:12:57 | 46.52721 | 7.75565 | 148° | 5km/h | 22619m | 5.0m/s | -52.3°C | 0.7% | -1.0hPa | 2.6V | 00:00:00 | 00:00:00 | 00:00:00 | |
| IW2NTF | 2026-09-05 12:12:56 | 46.52726 | 7.75545 | 106° | 11km/h | 22590m | 5.5m/s | -52.5°C | 3.6% | 0hPa | 2.7V | 08:30:00 | 01:39:11 | 00:00:00 | |
| DO3MHA-12 | 2026-09-05 12:12:55 | 46.52723 | 7.75561 | 124° | 11km/h | 22610m | 5.2m/s | -52.3°C | 3.5% | 0hPa | 2.6V | 00:00:00 | 01:39:15 | 00:00:00 | |
| DO3MHA-11 | 2026-09-05 12:12:50 | 46.52727 | 7.75541 | 120° | 13km/h | 22585m | 4.8m/s | -52.4°C | 3.6% | 0hPa | 2.6V | 00:00:00 | 01:39:10 | 00:00:00 | |
| IW2NTF | 2026-09-05 12:12:46 | 46.52722 | 7.75505 | 39° | 16km/h | 22539m | 5.8m/s | -52.2°C | 3.5% | 0hPa | 2.7V | 08:30:00 | 01:39:01 | 00:00:00 | |
| DO3MHA-12 | 2026-09-05 12:12:45 | 46.52731 | 7.75521 | 75° | 13km/h | 22559m | 4.4m/s | -52.3°C | 3.6% | 0hPa | 2.6V | 00:00:00 | 01:39:05 | 00:00:00 | |
| DK5PH-5 | 2026-09-05 12:12:43 | 46.52728 | 7.75512 | 46° | 7km/h | 22549m | 5.0m/s | -52.1°C | 3.5% | 0hPa | 2.6V | 00:00:00 | 01:39:03 | 08:30:00 | |
| DO3MHA-11 | 2026-09-05 12:12:40 | 46.52719 | 7.75501 | 41° | 11km/h | 22534m | 4.4m/s | -52.0°C | 3.4% | 0hPa | 2.6V | 00:00:00 | 01:39:00 | 00:00:00 | |
| IW2NTF | 2026-09-05 12:12:35 | 46.52723 | 7.75478 | 134° | 9km/h | 22489m | 5.6m/s | -51.8°C | 3.4% | 0hPa | 2.6V | 08:30:00 | 01:38:51 | 00:00:00 | |
| DO3MHA-12 | 2026-09-05 12:12:34 | 46.52717 | 7.75487 | 135° | 11km/h | 22504m | 5.2m/s | -51.7°C | 3.4% | 0hPa | 2.6V | 00:00:00 | 01:38:54 | 00:00:00 | |
| DO3MHA-11 | 2026-09-05 12:12:30 | 46.52725 | 7.75476 | 125° | 7km/h | 22484m | 4.3m/s | -51.6°C | 3.4% | 0hPa | 2.6V | 00:00:00 | 01:38:50 | 00:00:00 | |
| HASLITAL | 2026-09-05 12:12:27 | 46.52725 | 7.75471 | 77° | 9km/h | 22476m | 5.7m/s | -51.7°C | 0.8% | 0hPa | 2.6V | 00:00:00 | 00:00:00 | 00:00:00 | |
| IW2NTF | 2026-09-05 12:12:26 | 46.52719 | 7.75457 | 230° | 5km/h | 22442m | 4.3m/s | -52°C | 3.3% | 0hPa | 2.6V | 08:30:00 | 01:38:41 | 00:00:00 | |
| DF7PN | 2026-09-05 12:12:24 | 46.52719 | 7.75456 | 42° | 5km/h | 22457m | 5.5m/s | -51.9°C | 0.7% | -1.0hPa | 2.6V | 00:00:00 | 00:00:00 | 00:00:00 | |
| DO3MHA-11 | 2026-09-05 12:12:20 | 46.52720 | 7.75459 | 215° | 7km/h | 22438m | 5.1m/s | -51.9°C | 3.3% | 0hPa | 2.6V | 00:00:00 | 01:38:40 | 08:30:00 | |
| DB0UT-7 | 2026-09-05 12:12:16 | 46.52724 | 7.75458 | 173° | 16km/h | 22418m | 5.7m/s | -52.0°C | 3.4% | 0hPa | 2.7V | 00:00:00 | 01:38:36 | 00:00:00 | |
| IW2NTF | 2026-09-05 12:12:15 | 46.52732 | 7.75449 | 131° | 13km/h | 22393m | 4.5m/s | -52.4°C | 3.4% | 0hPa | 2.7V | 08:30:00 | 01:38:31 | 00:00:00 | |
| DK5PH-5 | 2026-09-05 12:12:13 | 46.52728 | 7.75455 | 138° | 20km/h | 22403m | 5.7m/s | -52.3°C | 3.4% | 0hPa | 2.6V | 00:00:00 | 01:38:33 | 00:00:00 | |
| DO3MHA-12 | 2026-09-05 12:12:10 | 46.52734 | 7.75446 | 142° | 20km/h | 22388m | 4.6m/s | -52.4°C | 3.3% | 0hPa | 2.6V | 00:00:00 | 01:38:30 | 00:00:00 | |
| HASLITAL | 2026-09-05 12:12:07 | 46.52739 | 7.75443 | 178° | 13km/h | 22378m | 4.2m/s | -52.7°C | 0.8% | 0hPa | 2.6V | 00:00:00 | 00:00:00 | 00:00:00 | |
| IW2NTF | 2026-09-05 12:12:06 | 46.52766 | 7.75430 | 148° | 20km/h | 22345m | 3.4m/s | -53.2°C | 3.6% | 0hPa | 2.6V | 08:30:00 | 01:38:21 | 00:00:00 | |
| DO3MHA-11 | 2026-09-05 12:12:00 | 46.52770 | 7.75425 | 139° | 22km/h | 22341m | 4.7m/s | -53.2°C | 3.6% | 0hPa | 2.6V | 00:00:00 | 01:38:20 | 00:00:00 | |
| IW2NTF | 2026-09-05 12:11:56 | 46.52794 | 7.75363 | 117° | 22km/h | 22296m | 4.7m/s | -53.5°C | 3.6% | 0hPa | 2.6V | 08:30:00 | 01:38:11 | 00:00:00 | |
| DL1ZP-14 | 2026-09-05 12:11:55 | 46.52787 | 7.75382 | 114° | 16km/h | 22311m | 3.6m/s | -53.4°C | 0.8% | -1.0hPa | 2.6V | 00:00:00 | 00:00:00 | 00:00:00 | |
| DF7PN | 2026-09-05 12:11:53 | 46.52789 | 7.75376 | 114° | 18km/h | 22306m | 5.0m/s | -53.4°C | 0.7% | -1.0hPa | 2.6V | 00:00:00 | 00:00:00 | 00:00:00 | |
| DO3MHA-11 | 2026-09-05 12:11:50 | 46.52796 | 7.75356 | 124° | 26km/h | 22291m | 5.0m/s | -53.5°C | 3.6% | 0hPa | 2.6V | 00:00:00 | 01:38:10 | 00:00:00 | |
| HASLITAL | 2026-09-05 12:11:47 | 46.52807 | 7.75335 | 128° | 26km/h | 22276m | 3.9m/s | -53.7°C | 0.9% | 0hPa | 2.6V | 00:00:00 | 00:00:00 | 00:00:00 | |
| IW2NTF | 2026-09-05 12:11:47 | 46.52819 | 7.75283 | 91° | 20km/h | 22247m | 4.1m/s | -53.8°C | 3.8% | 0hPa | 2.6V | 08:30:00 | 01:38:01 | 00:00:00 | |
| DB0UT-7 | 2026-09-05 12:11:46 | 46.52811 | 7.75327 | 122° | 24km/h | 22271m | 5.7m/s | -53.7°C | 3.7% | 0hPa | 2.6V | 00:00:00 | 00:00:00 | 08:30:00 | |
| DO3MHA-12 | 2026-09-05 12:11:44 | 46.52817 | 7.75308 | 105° | 24km/h | 22262m | 3.8m/s | -53.7°C | 3.8% | 0hPa | 2.7V | 00:00:00 | 01:38:04 | 00:00:00 | |
| DK5PH-5 | 2026-09-05 12:11:43 | 46.52818 | 7.75299 | 100° | 24km/h | 22257m | 5.1m/s | -53.7°C | 3.8% | 0hPa | 2.7V | 00:00:00 | 01:38:03 | 00:00:00 | |
| DO3MHA-11 | 2026-09-05 12:11:40 | 46.52819 | 7.75275 | 91° | 26km/h | 22243m | 4.2m/s | -53.8°C | 3.7% | 0hPa | 2.7V | 00:00:00 | 01:38:00 | 00:00:00 | |
| DO3MHA-12 | 2026-09-05 12:11:34 | 46.52830 | 7.75221 | 118° | 26km/h | 22214m | 4.4m/s | -53.9°C | 3.7% | 0hPa | 2.7V | 00:00:00 | 01:37:54 | 00:00:00 | |
| IW2NTF | 2026-09-05 12:11:32 | 46.52835 | 7.75194 | 84° | 26km/h | 22199m | 3.9m/s | -53.9°C | 3.8% | 0hPa | 2.7V | 08:30:00 | 01:37:51 | 00:00:00 | |
| DO3MHA-11 | 2026-09-05 12:11:30 | 46.52834 | 7.75185 | 73° | 24km/h | 22195m | 4.4m/s | -53.9°C | 3.9% | 0hPa | 2.6V | 00:00:00 | 01:37:50 | 00:00:00 | |
| DL1ZP-14 | 2026-09-05 12:11:24 | 46.52817 | 7.75129 | 88° | 22km/h | 22162m | 4.8m/s | -54.0°C | 0.8% | -1.0hPa | 2.6V | 00:00:00 | 00:00:00 | 00:00:00 | |
| IW2NTF | 2026-09-05 12:11:22 | 46.52818 | 7.75114 | 99° | 18km/h | 22152m | 4.2m/s | -53.9°C | 3.8% | 0hPa | 2.7V | 08:30:00 | 01:37:41 | 00:00:00 | |
| DO3MHA-11 | 2026-09-05 12:11:20 | 46.52819 | 7.75108 | 96° | 22km/h | 22149m | 3.7m/s | -53.8°C | 3.8% | 0hPa | 2.6V | 00:00:00 | 01:37:40 | 00:00:00 | |
| DB0UT-7 | 2026-09-05 12:11:16 | 46.52814 | 7.75075 | 63° | 20km/h | 22130m | 3.8m/s | -53.7°C | 3.7% | 0hPa | 2.6V | 00:00:00 | 01:37:36 | 00:00:00 | |
| DO3MHA-12 | 2026-09-05 12:11:14 | 46.52806 | 7.75060 | 47° | 26km/h | 22120m | 5.7m/s | -53.6°C | 3.7% | 0hPa | 2.6V | 00:00:00 | 01:37:34 | 00:00:00 | |
| IW2NTF | 2026-09-05 12:11:13 | 46.52795 | 7.75045 | 45° | 20km/h | 22106m | 5.5m/s | -53.6°C | 3.8% | 0hPa | 2.6V | 08:30:00 | 01:37:31 | 00:00:00 | |
| DO3MHA-11 | 2026-09-05 12:11:10 | 46.52792 | 7.75040 | 53° | 20km/h | 22101m | 4.3m/s | -53.5°C | 3.7% | 0hPa | 2.7V | 00:00:00 | 01:37:30 | 00:00:00 | |
| IW2NTF | 2026-09-05 12:11:06 | 46.52770 | 7.74985 | 57° | 26km/h | 22060m | 4.2m/s | -53.6°C | 3.8% | 0hPa | 2.7V | 08:30:00 | 01:37:21 | 00:00:00 | |
| HASLITAL | 2026-09-05 12:11:05 | 46.52782 | 7.75019 | 57° | 15km/h | 22083m | 4.6m/s | -53.5°C | 0.9% | 0hPa | 2.7V | 00:00:00 | 00:00:00 | 00:00:00 | |
| DO3MHA-11 | 2026-09-05 12:11:00 | 46.52766 | 7.74977 | 49° | 20km/h | 22055m | 5.5m/s | -53.6°C | 3.8% | 0hPa | 2.7V | 00:00:00 | 01:37:20 | 00:00:00 | |
| IW2NTF | 2026-09-05 12:10:55 | 46.52733 | 7.74936 | 44° | 13km/h | 22012m | 4.5m/s | -53.4°C | 3.8% | 0hPa | 2.7V | 08:30:00 | 01:37:11 | 00:00:00 | |
| DL1ZP-14 | 2026-09-05 12:10:53 | 46.52735 | 7.74939 | 42° | 13km/h | 22018m | 5.1m/s | -53.4°C | 0.8% | -1.0hPa | 2.6V | 00:00:00 | 00:00:00 | 00:00:00 | |
| DF7PN | 2026-09-05 12:10:51 | 46.52733 | 7.74936 | 44° | 11km/h | 22013m | 4.5m/s | -53.4°C | 0.8% | -1.0hPa | 2.7V | 00:00:00 | 00:00:00 | 00:00:00 | |
| DO3MHA-11 | 2026-09-05 12:10:50 | 46.52731 | 7.74932 | 53° | 13km/h | 22008m | 4.9m/s | -53.4°C | 3.7% | 0hPa | 2.7V | 00:00:00 | 01:37:10 | 08:30:00 | |
| IW2NTF | 2026-09-05 12:10:47 | 46.52711 | 7.74901 | 23° | 13km/h | 21963m | 4.1m/s | -53°C | 3.6% | 0hPa | 2.7V | 08:30:00 | 01:37:01 | 00:00:00 | |
| DB0UT-7 | 2026-09-05 12:10:46 | 46.52723 | 7.74913 | 56° | 9km/h | 21989m | 5.7m/s | -53.2°C | 3.7% | 0hPa | 2.7V | 00:00:00 | 00:00:00 | 00:00:00 | |
| HASLITAL | 2026-09-05 12:10:45 | 46.52721 | 7.74910 | 41° | 11km/h | 21984m | 5.0m/s | -53.2°C | 0.9% | 0hPa | 2.7V | 00:00:00 | 00:00:00 | 00:00:00 | |
| DK5PH-5 | 2026-09-05 12:10:43 | 46.52717 | 7.74905 | 30° | 9km/h | 21974m | 5.8m/s | -53.1°C | 3.7% | 0hPa | 2.7V | 00:00:00 | 01:37:03 | 00:00:00 | |
| DO3MHA-11 | 2026-09-05 12:10:40 | 46.52708 | 7.74900 | 12° | 9km/h | 21959m | 5.8m/s | -52.9°C | 3.6% | 0hPa | 2.7V | 00:00:00 | 01:37:00 | 00:00:00 | |
| IW2NTF | 2026-09-05 12:10:35 | 46.52694 | 7.74882 | 44° | 5km/h | 21915m | 4.3m/s | -53°C | 3.6% | 0hPa | 2.7V | 08:30:00 | 01:36:51 | 00:00:00 | |
| DO3MHA-11 | 2026-09-05 12:10:30 | 46.52692 | 7.74880 | 37° | 9km/h | 21911m | 4.4m/s | -53.1°C | 3.6% | 0hPa | 2.6V | 00:00:00 | 01:36:50 | 00:00:00 | |
| IW2NTF | 2026-09-05 12:10:23 | 46.52671 | 7.74875 | 44° | 4km/h | 21867m | 4.8m/s | -53.2°C | 3.7% | 0hPa | 2.6V | 08:30:00 | 01:36:41 | 00:00:00 | |
| DL1ZP-14 | 2026-09-05 12:10:22 | 46.52671 | 7.74875 | 44° | 4km/h | 21867m | 4.8m/s | -53.3°C | 0.8% | -1.0hPa | 2.6V | 00:00:00 | 00:00:00 | 00:00:00 | |
| DO3MHA-11 | 2026-09-05 12:10:20 | 46.52671 | 7.74873 | 71° | 5km/h | 21862m | 4.6m/s | -53.2°C | 3.6% | 0hPa | 2.6V | 00:00:00 | 01:36:40 | 00:00:00 | |
| DB0UT-7 | 2026-09-05 12:10:16 | 46.52671 | 7.74872 | 77° | 11km/h | 21844m | 4.7m/s | -53.4°C | 3.7% | 0hPa | 2.6V | 00:00:00 | 01:36:36 | 00:00:00 | |
| DK5PH-5 | 2026-09-05 12:10:13 | 46.52667 | 7.74863 | 52° | 13km/h | 21829m | 5.0m/s | -53.4°C | 3.7% | 0hPa | 2.7V | 00:00:00 | 01:36:33 | 00:00:00 | |
| IW2NTF | 2026-09-05 12:10:11 | 46.52661 | 7.74851 | 76° | 9km/h | 21810m | 5.7m/s | -53.6°C | 3.6% | 0hPa | 2.7V | 08:30:00 | 01:36:29 | 00:00:00 | |
| DO3MHA-11 | 2026-09-05 12:10:10 | 46.52662 | 7.74854 | 60° | 9km/h | 21815m | 3.8m/s | -53.5°C | 3.6% | 0hPa | 2.6V | 00:00:00 | 01:36:30 | 00:00:00 | |
| IW2NTF | 2026-09-05 12:10:05 | 46.52655 | 7.74820 | 47° | 22km/h | 21762m | 4.2m/s | -53.5°C | 3.7% | 0hPa | 2.6V | 08:30:00 | 01:36:19 | 00:00:00 | |
| HASLITAL | 2026-09-05 12:10:03 | 46.52664 | 7.74837 | 99° | 2km/h | 21785m | 4.2m/s | -53.6°C | 0.9% | 0hPa | 2.7V | 00:00:00 | 00:00:00 | 00:00:00 | |
| DO3MHA-11 | 2026-09-05 12:10:00 | 46.52658 | 7.74826 | 53° | 15km/h | 21766m | 5.0m/s | -53.5°C | 3.7% | 0hPa | 2.7V | 00:00:00 | 01:36:20 | 00:00:00 | |
| IW2NTF | 2026-09-05 12:09:51 | 46.52636 | 7.74790 | 126° | 9km/h | 21712m | 4.1m/s | -53.5°C | 3.7% | 0hPa | 2.7V | 08:30:00 | 01:36:09 | 00:00:00 | |
| DL1ZP-14 | 2026-09-05 12:09:51 | 46.52634 | 7.74793 | 131° | 5km/h | 21717m | 5.5m/s | -53.4°C | 0.8% | -1.0hPa | 2.7V | 00:00:00 | 00:00:00 | 00:00:00 | |
| DF7PN | 2026-09-05 12:09:49 | 46.52636 | 7.74790 | 126° | 9km/h | 21712m | 4.1m/s | -53.5°C | 0.8% | -1.0hPa | 2.7V | 00:00:00 | 00:00:00 | 00:00:00 | |
| DB0UT-7 | 2026-09-05 12:09:46 | 46.52638 | 7.74776 | 88° | 15km/h | 21697m | 4.7m/s | -53.7°C | 3.7% | 0hPa | 2.7V | 00:00:00 | 00:00:00 | 00:00:00 | |
| IW2NTF | 2026-09-05 12:09:45 | 46.52631 | 7.74746 | 119° | 9km/h | 21664m | 5m/s | -53.9°C | 3.7% | 0hPa | 2.7V | 08:30:00 | 01:35:59 | 00:00:00 | |
| DK5PH-5 | 2026-09-05 12:09:43 | 46.52634 | 7.74758 | 57° | 15km/h | 21683m | 5.3m/s | -53.7°C | 3.7% | 0hPa | 2.6V | 00:00:00 | 01:36:03 | 00:00:00 | |
| HASLITAL | 2026-09-05 12:09:42 | 46.52634 | 7.74758 | 58° | 15km/h | 21683m | 5.4m/s | -53.8°C | 0.9% | 0hPa | 2.6V | 00:00:00 | 00:00:00 | 00:00:00 | |
| DO3MHA-11 | 2026-09-05 12:09:40 | 46.52631 | 7.74749 | 100° | 16km/h | 21669m | 5.0m/s | -53.8°C | 3.7% | 0hPa | 2.6V | 00:00:00 | 01:36:00 | 00:00:00 | |
| IW2NTF | 2026-09-05 12:09:30 | 46.52657 | 7.74697 | 100° | 15km/h | 21616m | 3.7m/s | -53.9°C | 3.7% | 0hPa | 2.6V | 08:30:00 | 01:35:49 | 00:00:00 | |
| DO3MHA-11 | 2026-09-05 12:09:30 | 46.52656 | 7.74703 | 114° | 16km/h | 21621m | 4.7m/s | -53.8°C | 3.7% | 0hPa | 2.7V | 00:00:00 | 01:35:50 | 00:00:00 | |
| IW2NTF | 2026-09-05 12:09:25 | 46.52670 | 7.74645 | 124° | 15km/h | 21568m | 4m/s | -54.2°C | 3.8% | 0hPa | 2.7V | 08:30:00 | 01:35:39 | 00:00:00 | |
| HASLITAL | 2026-09-05 12:09:22 | 46.52664 | 7.74656 | 121° | 11km/h | 21583m | 4.4m/s | -54.1°C | 1.0% | 0hPa | 2.6V | 00:00:00 | 00:00:00 | 00:00:00 | |
| DO3MHA-11 | 2026-09-05 12:09:20 | 46.52668 | 7.74649 | 128° | 16km/h | 21573m | 5.3m/s | -54.1°C | 3.9% | 0hPa | 2.6V | 00:00:00 | 01:35:40 | 08:30:00 | |
| DL1ZP-14 | 2026-09-05 12:09:19 | 46.52670 | 7.74645 | 124° | 15km/h | 21568m | 4.0m/s | -54.2°C | 0.8% | -1.0hPa | 2.7V | 00:00:00 | 00:00:00 | 00:00:00 | |
| DF7PN | 2026-09-05 12:09:18 | 46.52672 | 7.74640 | 116° | 13km/h | 21564m | 4.5m/s | -54.3°C | 0.8% | -1.0hPa | 2.7V | 00:00:00 | 00:00:00 | 00:00:00 | |
| DB0UT-7 | 2026-09-05 12:09:16 | 46.52673 | 7.74630 | 88° | 13km/h | 21554m | 4.7m/s | -54.3°C | 3.9% | 0hPa | 2.7V | 00:00:00 | 01:35:36 | 00:00:00 | |
| DK5PH-5 | 2026-09-05 12:09:13 | 46.52671 | 7.74611 | 74° | 13km/h | 21538m | 4.3m/s | -54.2°C | 3.9% | 0hPa | 2.7V | 00:00:00 | 01:35:33 | 00:00:00 | |
| IW2NTF | 2026-09-05 12:09:12 | 46.52662 | 7.74587 | 54° | 16km/h | 21520m | 4.4m/s | -54.2°C | 3.8% | 0hPa | 2.7V | 08:30:00 | 01:35:29 | 00:00:00 | |
| DO3MHA-11 | 2026-09-05 12:09:10 | 46.52664 | 7.74592 | 54° | 13km/h | 21525m | 5.0m/s | -54.2°C | 3.8% | 0hPa | 2.7V | 00:00:00 | 01:35:30 | 00:00:00 | |
| HARRO8 | 2026-09-05 12:09:09 | 46.52662 | 7.74587 | 54° | 15km/h | 21520m | 4.4m/s | -54.2°C | -1.0% | -1.0hPa | 2.7V | 00:00:00 | 00:00:00 | 00:00:00 | |
| HASLITAL | 2026-09-05 12:09:01 | 46.52653 | 7.74560 | 74° | 11km/h | 21485m | 5.6m/s | -54.2°C | 1.0% | 0hPa | 2.7V | 00:00:00 | 00:00:00 | 00:00:00 | |
| IW2NTF | 2026-09-05 12:09:00 | 46.52651 | 7.74546 | 74° | 15km/h | 21470m | 5.3m/s | -54°C | 3.9% | 0hPa | 2.7V | 08:30:00 | 01:35:19 | 00:00:00 | |
| IW2NTF | 2026-09-05 12:08:54 | 46.52654 | 7.74508 | 144° | 9km/h | 21422m | 5.1m/s | -53.6°C | 3.7% | 0hPa | 2.6V | 08:30:00 | 01:35:09 | 00:00:00 | |
| DL1ZP-14 | 2026-09-05 12:08:49 | 46.52656 | 7.74506 | 138° | 11km/h | 21416m | 5.9m/s | -53.6°C | 0.8% | -1.0hPa | 2.7V | 00:00:00 | 00:00:00 | 00:00:00 | |
| DF7PN | 2026-09-05 12:08:47 | 46.52658 | 7.74502 | 133° | 15km/h | 21411m | 4.7m/s | -53.5°C | 0.8% | -1.0hPa | 2.6V | 00:00:00 | 00:00:00 | 00:00:00 | |
| DB0UT-7 | 2026-09-05 12:08:46 | 46.52661 | 7.74498 | 131° | 18km/h | 21407m | 3.8m/s | -53.5°C | 3.7% | 0hPa | 2.6V | 00:00:00 | 00:00:00 | 00:00:00 | |
| DK5PH-5 | 2026-09-05 12:08:43 | 46.52668 | 7.74486 | 135° | 18km/h | 21392m | 4.5m/s | -53.5°C | 3.7% | 0hPa | 2.6V | 00:00:00 | 01:35:03 | 00:00:00 | |
| IW2NTF | 2026-09-05 12:08:42 | 46.52676 | 7.74476 | 141° | 15km/h | 21372m | 4m/s | -53.6°C | 3.8% | 0hPa | 2.6V | 08:30:00 | 01:34:59 | 00:00:00 | |
| HASLITAL | 2026-09-05 12:08:41 | 46.52669 | 7.74484 | 136° | 9km/h | 21388m | 4.6m/s | -53.6°C | 0.9% | 0hPa | 2.7V | 00:00:00 | 00:00:00 | 00:00:00 | |
| DO3MHA-11 | 2026-09-05 12:08:40 | 46.52674 | 7.74479 | 140° | 16km/h | 21377m | 4.8m/s | -53.6°C | 3.8% | 0hPa | 2.7V | 00:00:00 | 01:35:00 | 00:00:00 | |
| HARRO8 | 2026-09-05 12:08:38 | 46.52679 | 7.74473 | 145° | 13km/h | 21368m | 4.9m/s | -53.7°C | -1.0% | -1.0hPa | 2.7V | 00:00:00 | 00:00:00 | 00:00:00 | |
| IW2NTF | 2026-09-05 12:08:30 | 46.52710 | 7.74443 | 163° | 20km/h | 21324m | 4.6m/s | -53.7°C | 3.7% | 0hPa | 2.7V | 08:30:00 | 01:34:49 | 00:00:00 | |
| IW2NTF | 2026-09-05 12:08:24 | 46.52764 | 7.74428 | 170° | 27km/h | 21276m | 5.5m/s | -53.7°C | 3.7% | 0hPa | 2.6V | 08:30:00 | 01:34:39 | 00:00:00 | |
| HASLITAL | 2026-09-05 12:08:20 | 46.52751 | 7.74432 | 167° | 26km/h | 21285m | 4.7m/s | -53.8°C | 1.0% | 0hPa | 2.6V | 00:00:00 | 00:00:00 | 00:00:00 | |
| DO3MHA-11 | 2026-09-05 12:08:19 | 46.52764 | 7.74428 | 171° | 27km/h | 21276m | 5.5m/s | -53.6°C | 3.7% | 0hPa | 2.6V | 00:00:00 | 01:34:39 | 00:00:00 | |
| DL1ZP-14 | 2026-09-05 12:08:17 | 46.52777 | 7.74426 | 172° | 26km/h | 21267m | 3.6m/s | -53.7°C | 0.8% | -1.0hPa | 2.7V | 00:00:00 | 00:00:00 | 00:00:00 | |
| DB0UT-7 | 2026-09-05 12:08:16 | 46.52784 | 7.74424 | 168° | 26km/h | 21263m | 4.9m/s | -53.6°C | 3.7% | 0hPa | 2.6V | 00:00:00 | 01:34:36 | 00:00:00 | |
| IW2NTF | 2026-09-05 12:08:13 | 46.52827 | 7.74401 | 159° | 27km/h | 21229m | 5.8m/s | -53.8°C | 3.7% | 0hPa | 2.6V | 08:30:00 | 01:34:29 | 00:00:00 | |
| DK5PH-5 | 2026-09-05 12:08:13 | 46.52803 | 7.74414 | 156° | 26km/h | 21248m | 4.5m/s | -53.6°C | 3.7% | 0hPa | 2.6V | 00:00:00 | 01:34:33 | 08:30:00 | |
| DO3MHA-11 | 2026-09-05 12:08:09 | 46.52827 | 7.74401 | 160° | 27km/h | 21229m | 5.7m/s | -53.8°C | 3.7% | 0hPa | 2.7V | 00:00:00 | 01:34:29 | 00:00:00 | |
| IW2NTF | 2026-09-05 12:08:07 | 46.52888 | 7.74349 | 129° | 29km/h | 21181m | 5.3m/s | -53.9°C | 3.7% | 0hPa | 2.7V | 08:30:00 | 01:34:19 | 00:00:00 | |
| HASLITAL | 2026-09-05 12:08:00 | 46.52878 | 7.74365 | 135° | 31km/h | 21191m | 4.8m/s | -53.8°C | 1.0% | 0hPa | 2.6V | 00:00:00 | 00:00:00 | 00:00:00 | |
| DO3MHA-11 | 2026-09-05 12:07:58 | 46.52892 | 7.74341 | 131° | 26km/h | 21177m | 4.4m/s | -53.8°C | 3.8% | 0hPa | 2.6V | 00:00:00 | 01:34:18 | 00:00:00 | |
| IW2NTF | 2026-09-05 12:07:54 | 46.52928 | 7.74280 | 136° | 20km/h | 21135m | 4.8m/s | -53.9°C | 3.7% | 0hPa | 2.6V | 08:30:00 | 01:34:09 | 00:00:00 | |
| DO3MHA-11 | 2026-09-05 12:07:48 | 46.52932 | 7.74275 | 136° | 27km/h | 21130m | 5.3m/s | -53.9°C | 3.8% | 0hPa | 2.7V | 00:00:00 | 01:34:08 | 08:30:00 | |
| DB0UT-7 | 2026-09-05 12:07:46 | 46.52940 | 7.74261 | 128° | 24km/h | 21120m | 4.6m/s | -53.9°C | 3.8% | 0hPa | 2.6V | 00:00:00 | 00:00:00 | 00:00:00 | |
| IW2NTF | 2026-09-05 12:07:45 | 46.52963 | 7.74192 | 110° | 27km/h | 21087m | 5.5m/s | -53.9°C | 3.8% | 0hPa | 2.6V | 08:30:00 | 01:33:59 | 00:00:00 | |
| DK5PH-5 | 2026-09-05 12:07:43 | 46.52951 | 7.74236 | 116° | 24km/h | 21106m | 4.9m/s | -53.9°C | 3.8% | 0hPa | 2.7V | 00:00:00 | 01:34:03 | 00:00:00 | |
| HASLITAL | 2026-09-05 12:07:39 | 46.52960 | 7.74202 | 113° | 31km/h | 21092m | 4.3m/s | -53.9°C | 1.0% | 0hPa | 2.7V | 00:00:00 | 00:00:00 | 00:00:00 | |
| DO3MHA-11 | 2026-09-05 12:07:37 | 46.52968 | 7.74171 | 107° | 22km/h | 21074m | 4.2m/s | -53.8°C | 3.7% | 0hPa | 2.7V | 00:00:00 | 01:33:56 | 00:00:00 | |
| IW2NTF | 2026-09-05 12:07:33 | 46.52976 | 7.74118 | 96° | 24km/h | 21040m | 4.2m/s | -54.1°C | 3.8% | 0hPa | 2.7V | 08:30:00 | 01:33:49 | 00:00:00 | |
| DO3MHA-11 | 2026-09-05 12:07:26 | 46.52979 | 7.74090 | 98° | 22km/h | 21026m | 3.3m/s | -54.0°C | 3.8% | 0hPa | 2.6V | 00:00:00 | 01:33:46 | 00:00:00 | |
| IW2NTF | 2026-09-05 12:07:23 | 46.52976 | 7.74036 | 81° | 24km/h | 20994m | 3.6m/s | -54°C | 3.8% | 0hPa | 2.6V | 08:30:00 | 01:33:39 | 00:00:00 | |
| HASLITAL | 2026-09-05 12:07:19 | 46.52977 | 7.74044 | 85° | 24km/h | 20999m | 4.5m/s | -54.1°C | 1.0% | 0hPa | 2.7V | 00:00:00 | 00:00:00 | 00:00:00 | |
| DB0UT-7 | 2026-09-05 12:07:16 | 46.52972 | 7.74010 | 71° | 26km/h | 20981m | 4.1m/s | -54.1°C | 3.8% | 0hPa | 2.7V | 00:00:00 | 01:33:36 | 08:30:00 | |
| DO3MHA-11 | 2026-09-05 12:07:15 | 46.52970 | 7.74002 | 75° | 22km/h | 20977m | 4.4m/s | -54.2°C | 3.8% | 0hPa | 2.6V | 00:00:00 | 01:33:35 | 00:00:00 | |
| DF7PN | 2026-09-05 12:07:14 | 46.52968 | 7.73985 | 88° | 22km/h | 20967m | 4.1m/s | -54.3°C | 0.8% | -1.0hPa | 2.6V | 00:00:00 | 00:00:00 | 00:00:00 | |
| DK5PH-5 | 2026-09-05 12:07:13 | 46.52968 | 7.73985 | 89° | 26km/h | 20967m | 4.0m/s | -54.2°C | 3.7% | 0hPa | 2.6V | 00:00:00 | 01:33:33 | 00:00:00 | |
| IW2NTF | 2026-09-05 12:07:12 | 46.52968 | 7.73959 | 77° | 16km/h | 20949m | 3.5m/s | -54.3°C | 3.8% | 0hPa | 2.6V | 08:30:00 | 01:33:29 | 00:00:00 | |
| DO3MHA-11 | 2026-09-05 12:07:05 | 46.52957 | 7.73928 | 54° | 16km/h | 20931m | 5.5m/s | -54.3°C | 3.8% | 0hPa | 2.7V | 00:00:00 | 01:33:25 | 00:00:00 | |
| IW2NTF | 2026-09-05 12:07:03 | 46.52931 | 7.73875 | 61° | 22km/h | 20903m | 5.3m/s | -54.9°C | 4% | 0hPa | 2.7V | 08:30:00 | 01:33:19 | 00:00:00 | |
| HASLITAL | 2026-09-05 12:06:58 | 46.52931 | 7.73875 | 62° | 22km/h | 20903m | 5.3m/s | -54.9°C | 1.1% | 0hPa | 2.6V | 00:00:00 | 00:00:00 | 00:00:00 | |
| IW2NTF | 2026-09-05 12:06:51 | 46.52892 | 7.73804 | 45° | 29km/h | 20860m | 4.2m/s | -55°C | 3.9% | 0hPa | 2.6V | 08:30:00 | 01:33:09 | 00:00:00 | |
| DB0UT-7 | 2026-09-05 12:06:46 | 46.52878 | 7.73779 | 49° | 20km/h | 20848m | 3.2m/s | -55.1°C | 4.1% | 0hPa | 2.6V | 00:00:00 | 00:00:00 | 00:00:00 | |
| IW2NTF | 2026-09-05 12:06:45 | 46.52841 | 7.73744 | 29° | 22km/h | 20815m | 4.6m/s | -55.1°C | 4.1% | 0hPa | 2.6V | 08:30:00 | 01:32:59 | 00:00:00 | |
| DF7PN | 2026-09-05 12:06:43 | 46.52856 | 7.73756 | 26° | 24km/h | 20829m | 5.0m/s | -55.1°C | 0.9% | -1.0hPa | 2.7V | 00:00:00 | 00:00:00 | 00:00:00 | |
| DK5PH-5 | 2026-09-05 12:06:42 | 46.52856 | 7.73756 | 27° | 18km/h | 20829m | 4.9m/s | -55.1°C | 4.1% | 0hPa | 2.7V | 00:00:00 | 01:33:02 | 00:00:00 | |
| HASLITAL | 2026-09-05 12:06:38 | 46.52841 | 7.73744 | 31° | 22km/h | 20815m | 4.6m/s | -55.1°C | 1.1% | 0hPa | 2.6V | 00:00:00 | 00:00:00 | 00:00:00 | |
| IW2NTF | 2026-09-05 12:06:30 | 46.52794 | 7.73709 | 1° | 20km/h | 20768m | 5.6m/s | -55°C | 4% | 0hPa | 2.6V | 08:30:00 | 01:32:49 | 00:00:00 | |
| IW2NTF | 2026-09-05 12:06:24 | 46.52755 | 7.73696 | 34° | 16km/h | 20720m | 5.4m/s | -55.2°C | 3.9% | 0hPa | 2.7V | 08:30:00 | 01:32:39 | 00:00:00 | |
| HASLITAL | 2026-09-05 12:06:18 | 46.52751 | 7.73693 | 22° | 20km/h | 20715m | 4.8m/s | -55.3°C | 1.1% | 0hPa | 2.7V | 00:00:00 | 00:00:00 | 00:00:00 | |
| DB0UT-7 | 2026-09-05 12:06:16 | 46.52741 | 7.73690 | 359° | 9km/h | 20706m | 4.8m/s | -55.4°C | 3.9% | 0hPa | 2.7V | 00:00:00 | 01:32:36 | 00:00:00 | |
| DL1ZP-14 | 2026-09-05 12:06:13 | 46.52730 | 7.73697 | 317° | 16km/h | 20690m | 4.0m/s | -55.4°C | 0.9% | -1.0hPa | 2.7V | 00:00:00 | 00:00:00 | 00:00:00 | |
| IW2NTF | 2026-09-05 12:06:12 | 46.52720 | 7.73712 | 309° | 7km/h | 20671m | 5.8m/s | -56°C | 4.2% | 0hPa | 2.6V | 08:30:00 | 01:32:29 | 00:00:00 | |
| DF7PN | 2026-09-05 12:06:11 | 46.52724 | 7.73706 | 315° | 15km/h | 20681m | 4.4m/s | -55.6°C | 0.9% | -1.0hPa | 2.7V | 00:00:00 | 00:00:00 | 00:00:00 | |
| HARRO8 | 2026-09-05 12:06:03 | 46.52715 | 7.73716 | 218° | 5km/h | 20609m | 5.2m/s | -56.0°C | -1.0% | -1.0hPa | 2.7V | 00:00:00 | 00:00:00 | 00:00:00 | |
| IW2NTF | 2026-09-05 12:06:00 | 46.52716 | 7.73710 | 311° | 7km/h | 20622m | 5.5m/s | -56°C | 4.3% | 0hPa | 2.7V | 08:30:00 | 01:32:19 | 00:00:00 | |
| HASLITAL | 2026-09-05 12:05:57 | 46.52715 | 7.73712 | 309° | 7km/h | 20617m | 4.0m/s | -56.1°C | 1.1% | 0hPa | 2.7V | 00:00:00 | 00:00:00 | 00:00:00 | |
| IW2NTF | 2026-09-05 12:05:53 | 46.52738 | 7.73709 | 162° | 11km/h | 20572m | 5.5m/s | -55.6°C | 4.1% | 0hPa | 2.7V | 08:30:00 | 01:32:09 | 00:00:00 | |
| DB0UT-7 | 2026-09-05 12:05:46 | 46.52742 | 7.73708 | 203° | 15km/h | 20557m | 6.2m/s | -55.6°C | 4.1% | 0hPa | 2.6V | 00:00:00 | 00:00:00 | 00:00:00 | |
| IW2NTF | 2026-09-05 12:05:42 | 46.52758 | 7.73708 | 158° | 18km/h | 20523m | 5.5m/s | -55.5°C | 4.2% | 0hPa | 2.6V | 08:30:00 | 01:31:59 | 00:00:00 | |
| DF7PN | 2026-09-05 12:05:40 | 46.52754 | 7.73709 | 168° | 18km/h | 20528m | 4.4m/s | -55.5°C | 1.0% | -1.0hPa | 2.6V | 00:00:00 | 00:00:00 | 00:00:00 | |
| HASLITAL | 2026-09-05 12:05:36 | 46.52765 | 7.73702 | 147° | 15km/h | 20513m | 5.0m/s | -55.4°C | 1.1% | 0hPa | 2.6V | 00:00:00 | 00:00:00 | 00:00:00 | |
| IW2NTF | 2026-09-05 12:05:33 | 46.52792 | 7.73689 | 179° | 20km/h | 20466m | 3.8m/s | -55.5°C | 4.1% | 0hPa | 2.6V | 08:30:00 | 01:31:47 | 00:00:00 | |
| DO3MHA-11 | 2026-09-05 12:05:22 | 46.52818 | 7.73675 | 154° | 29km/h | 20443m | 5.5m/s | -55.4°C | 4.1% | 0hPa | 2.6V | 00:00:00 | 01:31:42 | 00:00:00 | |
| IW2NTF | 2026-09-05 12:05:20 | 46.52840 | 7.73658 | 154° | 18km/h | 20416m | 3.4m/s | -55.5°C | 4% | 0hPa | 2.6V | 08:30:00 | 01:31:37 | 00:00:00 | |
| HASLITAL | 2026-09-05 12:05:16 | 46.52844 | 7.73656 | 162° | 18km/h | 20412m | 5.2m/s | -55.6°C | 1.1% | 0hPa | 2.7V | 00:00:00 | 00:00:00 | 00:00:00 | |
| DK5PH-5 | 2026-09-05 12:05:12 | 46.52866 | 7.73645 | 155° | 27km/h | 20391m | 5.1m/s | -55.6°C | 4.1% | 0hPa | 2.7V | 00:00:00 | 01:31:32 | 00:00:00 | |
| DL1ZP-14 | 2026-09-05 12:05:11 | 46.52879 | 7.73636 | 151° | 31km/h | 20381m | 5.5m/s | -55.6°C | 0.9% | -1.0hPa | 2.6V | 00:00:00 | 00:00:00 | 00:00:00 | |
| DF7PN | 2026-09-05 12:05:09 | 46.52886 | 7.73630 | 151° | 31km/h | 20376m | 5.0m/s | -55.6°C | 0.9% | -1.0hPa | 2.6V | 00:00:00 | 00:00:00 | 00:00:00 | |
| IW2NTF | 2026-09-05 12:05:08 | 46.52910 | 7.73604 | 136° | 27km/h | 20356m | 3.8m/s | -55.7°C | 4.1% | 0hPa | 2.6V | 08:30:00 | 01:31:25 | 00:00:00 | |
| DO3MHA-11 | 2026-09-05 12:05:04 | 46.52915 | 7.73598 | 141° | 27km/h | 20352m | 5.2m/s | -55.7°C | 4.1% | 0hPa | 2.6V | 00:00:00 | 01:31:24 | 00:00:00 | |
| IW2NTF | 2026-09-05 12:05:00 | 46.52966 | 7.73551 | 154° | 29km/h | 20309m | 4.2m/s | -55.9°C | 4.1% | 0hPa | 2.7V | 08:30:00 | 01:31:15 | 00:00:00 | |
| HARRO8 | 2026-09-05 12:05:00 | 46.52938 | 7.73576 | 143° | 26km/h | 20332m | 5.2m/s | -55.7°C | -1.0% | -1.0hPa | 2.6V | 00:00:00 | 00:00:00 | 00:00:00 | |
| HASLITAL | 2026-09-05 12:04:54 | 46.52966 | 7.73551 | 155° | 29km/h | 20309m | 4.2m/s | -55.9°C | 1.1% | 0hPa | 2.6V | 00:00:00 | 00:00:00 | 00:00:00 | |
| DO3MHA-11 | 2026-09-05 12:04:52 | 46.52985 | 7.73533 | 140° | 26km/h | 20294m | 4.6m/s | -55.9°C | 4.1% | 0hPa | 2.6V | 00:00:00 | 01:31:12 | 00:00:00 | |
| IW2NTF | 2026-09-05 12:04:48 | 46.53017 | 7.73486 | 122° | 24km/h | 20259m | 4.3m/s | -55.9°C | 4% | 0hPa | 2.6V | 08:30:00 | 01:31:05 | 00:00:00 | |
| DB0UT-7 | 2026-09-05 12:04:46 | 46.53014 | 7.73493 | 123° | 26km/h | 20264m | 5.6m/s | -55.8°C | 4.1% | 0hPa | 2.6V | 00:00:00 | 00:00:00 | 00:00:00 | |
| DK5PH-5 | 2026-09-05 12:04:42 | 46.53030 | 7.73464 | 140° | 26km/h | 20244m | 4.5m/s | -55.8°C | 4.1% | 0hPa | 2.6V | 00:00:00 | 01:31:02 | 00:00:00 | |
| DO3MHA-11 | 2026-09-05 12:04:40 | 46.53040 | 7.73451 | 135° | 29km/h | 20234m | 5.5m/s | -55.8°C | 4.2% | 0hPa | 2.6V | 00:00:00 | 01:31:00 | 00:00:00 | |
| DF7PN | 2026-09-05 12:04:38 | 46.53049 | 7.73437 | 131° | 24km/h | 20223m | 5.2m/s | -56.0°C | 1.0% | -1.0hPa | 2.6V | 00:00:00 | 00:00:00 | 00:00:00 | |
| IW2NTF | 2026-09-05 12:04:37 | 46.53060 | 7.73419 | 122° | 20km/h | 20208m | 5.2m/s | -56°C | 4.2% | 0hPa | 2.6V | 08:30:00 | 01:30:55 | 00:00:00 | |
| HASLITAL | 2026-09-05 12:04:35 | 46.53060 | 7.73419 | 124° | 20km/h | 20209m | 5.2m/s | -56.1°C | 1.1% | 0hPa | 2.7V | 00:00:00 | 00:00:00 | 00:00:00 | |
| IW2NTF | 2026-09-05 12:04:31 | 46.53101 | 7.73336 | 125° | 29km/h | 20160m | 4.9m/s | -56°C | 4.2% | 0hPa | 2.7V | 08:30:00 | 01:30:45 | 00:00:00 | |
| DO3MHA-11 | 2026-09-05 12:04:28 | 46.53087 | 7.73364 | 131° | 26km/h | 20175m | 5.6m/s | -56.0°C | 4.2% | 0hPa | 2.6V | 00:00:00 | 01:30:48 | 08:30:00 | |
| IW2NTF | 2026-09-05 12:04:20 | 46.53124 | 7.73243 | 101° | 29km/h | 20102m | 4.7m/s | -55.6°C | 4.1% | 0hPa | 2.7V | 08:30:00 | 01:30:33 | 00:00:00 | |
| DO3MHA-11 | 2026-09-05 12:04:16 | 46.53120 | 7.73269 | 107° | 26km/h | 20118m | 4.0m/s | -55.6°C | 4.1% | 0hPa | 2.7V | 00:00:00 | 01:30:36 | 00:00:00 | |
| HASLITAL | 2026-09-05 12:04:14 | 46.53123 | 7.73253 | 105° | 26km/h | 20108m | 5.7m/s | -55.7°C | 1.1% | 0hPa | 2.7V | 00:00:00 | 00:00:00 | 00:00:00 | |
| DK5PH-5 | 2026-09-05 12:04:12 | 46.53126 | 7.73232 | 102° | 29km/h | 20099m | 3.9m/s | -55.6°C | 4.1% | 0hPa | 2.7V | 00:00:00 | 01:30:32 | 00:00:00 | |
| DL1ZP-14 | 2026-09-05 12:04:09 | 46.53131 | 7.73194 | 99° | 24km/h | 20079m | 4.8m/s | -55.6°C | -1.0% | -1.0hPa | 2.7V | 00:00:00 | 00:00:00 | 00:00:00 | |
| IW2NTF | 2026-09-05 12:04:08 | 46.53139 | 7.73126 | 97° | 27km/h | 20043m | 5m/s | -55.7°C | 4.1% | 0hPa | 2.7V | 08:30:00 | 01:30:21 | 00:00:00 | |
| DF7PN | 2026-09-05 12:04:07 | 46.53133 | 7.73185 | 99° | 26km/h | 20073m | 6.0m/s | -55.6°C | 0.9% | -1.0hPa | 2.7V | 00:00:00 | 00:00:00 | 00:00:00 | |
| DO3MHA-11 | 2026-09-05 12:04:04 | 46.53136 | 7.73154 | 99° | 29km/h | 20059m | 5.0m/s | -55.5°C | 4.0% | 0hPa | 2.7V | 00:00:00 | 01:30:24 | 00:00:00 | |
| HARRO8 | 2026-09-05 12:03:58 | 46.53142 | 7.73080 | 97° | 31km/h | 20024m | 5.3m/s | -55.8°C | -1.0% | -1.0hPa | 2.7V | 00:00:00 | 00:00:00 | 00:00:00 | |
| DB0ND-19 | 2026-09-05 12:03:57 | 46.53142 | 7.72947 | 76° | 29km/h | 19965m | 3.8m/s | -55.5°C | -1.0% | -1.0hPa | 2.7V | 00:00:00 | 00:00:00 | 00:00:00 | |
| IW2NTF | 2026-09-05 12:03:54 | 46.53149 | 7.73014 | 92° | 31km/h | 19994m | 4.6m/s | -55.7°C | 4.2% | 0hPa | 2.7V | 08:30:00 | 01:30:11 | 00:00:00 | |
| DO3MHA-11 | 2026-09-05 12:03:53 | 46.53147 | 7.73037 | 99° | 31km/h | 20003m | 5.3m/s | -55.7°C | 4.2% | 0hPa | 2.6V | 00:00:00 | 01:30:13 | 00:00:00 | |
| HASLITAL | 2026-09-05 12:03:52 | 46.53147 | 7.73037 | 100° | 31km/h | 20003m | 5.4m/s | -55.7°C | 1.1% | 0hPa | 2.6V | 00:00:00 | 00:00:00 | 00:00:00 | |
| IW2NTF | 2026-09-05 12:03:46 | 46.53135 | 7.72911 | 77° | 22km/h | 19946m | 5.5m/s | -55.4°C | 4% | 0hPa | 2.6V | 08:30:00 | 01:30:01 | 00:00:00 | |
| DB0UT-7 | 2026-09-05 12:03:46 | 46.53143 | 7.72958 | 78° | 24km/h | 19969m | 4.1m/s | -55.5°C | 4.1% | 0hPa | 2.6V | 00:00:00 | 00:00:00 | 00:00:00 | |
| DO3MHA-11 | 2026-09-05 12:03:43 | 46.53138 | 7.72928 | 73° | 26km/h | 19956m | 5.0m/s | -55.4°C | 4.0% | 0hPa | 2.6V | 00:00:00 | 01:30:03 | 00:00:00 | |
| DK5PH-5 | 2026-09-05 12:03:42 | 46.53136 | 7.72919 | 75° | 24km/h | 19951m | 4.6m/s | -55.3°C | 4.0% | 0hPa | 2.6V | 00:00:00 | 01:30:02 | 08:30:00 | |
| DL1ZP-14 | 2026-09-05 12:03:38 | 46.53131 | 7.72878 | 78° | 24km/h | 19928m | 5.3m/s | 0°C | -1.0% | -1.0hPa | 2.6V | 00:00:00 | 00:00:00 | 00:00:00 | |
| DF7PN | 2026-09-05 12:03:36 | 46.53130 | 7.72869 | 76° | 24km/h | 19923m | 4.4m/s | -55.2°C | 0.9% | -1.0hPa | 2.6V | 00:00:00 | 00:00:00 | 00:00:00 | |
| IW2NTF | 2026-09-05 12:03:34 | 46.53124 | 7.72816 | 77° | 27km/h | 19899m | 5.3m/s | -55.1°C | 4.1% | 0hPa | 2.6V | 08:30:00 | 01:29:51 | 00:00:00 | |
| DO3MHA-11 | 2026-09-05 12:03:33 | 46.53126 | 7.72838 | 83° | 24km/h | 19908m | 4.4m/s | -55.1°C | 4.0% | 0hPa | 2.6V | 00:00:00 | 01:29:53 | 00:00:00 | |
| HASLITAL | 2026-09-05 12:03:32 | 46.53126 | 7.72838 | 83° | 33km/h | 19908m | 4.4m/s | -55.1°C | 1.1% | 0hPa | 2.6V | 00:00:00 | 00:00:00 | 00:00:00 | |
| HARRO8 | 2026-09-05 12:03:27 | 46.53116 | 7.72769 | 89° | 22km/h | 19872m | 4.3m/s | 0°C | -1.0% | -1.0hPa | 2.6V | 00:00:00 | 00:00:00 | 00:00:00 | |
| IW2NTF | 2026-09-05 12:03:25 | 46.53114 | 7.72737 | 77° | 20km/h | 19853m | 4.4m/s | -55.1°C | 4% | 0hPa | 2.6V | 08:30:00 | 01:29:41 | 00:00:00 | |
| DO3MHA-11 | 2026-09-05 12:03:23 | 46.53115 | 7.72752 | 85° | 22km/h | 19864m | 4.4m/s | -55.0°C | 4.0% | 0hPa | 2.7V | 00:00:00 | 01:29:43 | 00:00:00 | |
| DB0UT-7 | 2026-09-05 12:03:16 | 46.53112 | 7.72697 | 91° | 18km/h | 19831m | 5.4m/s | -55.0°C | 4.0% | 0hPa | 2.7V | 00:00:00 | 01:29:36 | 00:00:00 | |
| IW2NTF | 2026-09-05 12:03:14 | 46.53113 | 7.72659 | 92° | 16km/h | 19807m | 4.2m/s | -54.8°C | 4% | 0hPa | 2.7V | 08:30:00 | 01:29:31 | 00:00:00 | |
| DO3MHA-11 | 2026-09-05 12:03:13 | 46.53112 | 7.72673 | 93° | 22km/h | 19817m | 5.4m/s | -54.9°C | 4.1% | 0hPa | 2.7V | 00:00:00 | 01:29:33 | 00:00:00 | |
| DK5PH-5 | 2026-09-05 12:03:12 | 46.53112 | 7.72666 | 95° | 31km/h | 19812m | 4.4m/s | -54.8°C | 4.0% | 0hPa | 2.7V | 00:00:00 | 01:29:32 | 00:00:00 | |
| HASLITAL | 2026-09-05 12:03:11 | 46.53112 | 7.72666 | 96° | 20km/h | 19812m | 4.5m/s | -54.9°C | 1.1% | 0hPa | 2.7V | 00:00:00 | 00:00:00 | 00:00:00 | |
| DF7PN | 2026-09-05 12:03:05 | 46.53113 | 7.72621 | 97° | 22km/h | 19780m | 3.8m/s | -54.7°C | 0.9% | -1.0hPa | 2.7V | 00:00:00 | 00:00:00 | 00:00:00 | |
| IW2NTF | 2026-09-05 12:03:04 | 46.53114 | 7.72589 | 89° | 22km/h | 19761m | 5m/s | -54.7°C | 3.9% | 0hPa | 2.7V | 08:30:00 | 01:29:21 | 00:00:00 | |
| DO3MHA-11 | 2026-09-05 12:03:03 | 46.53114 | 7.72605 | 89° | 18km/h | 19771m | 4.8m/s | -54.7°C | 3.8% | 0hPa | 2.6V | 00:00:00 | 01:29:23 | 00:00:00 | |
| IW2NTF | 2026-09-05 12:02:54 | 46.53118 | 7.72523 | 93° | 18km/h | 19716m | 5m/s | -54.4°C | 3.6% | 0hPa | 2.6V | 08:30:00 | 01:29:11 | 00:00:00 | |
| DO3MHA-11 | 2026-09-05 12:02:53 | 46.53116 | 7.72537 | 101° | 18km/h | 19724m | 4.1m/s | -54.3°C | 3.7% | 0hPa | 2.7V | 00:00:00 | 01:29:13 | 08:30:00 | |
| HASLITAL | 2026-09-05 12:02:51 | 46.53117 | 7.72530 | 100° | 20km/h | 19720m | 3.6m/s | -54.4°C | 0% | 0hPa | 2.6V | 00:00:00 | 00:00:00 | 00:00:00 | |
| DB0UT-7 | 2026-09-05 12:02:46 | 46.53119 | 7.72492 | 99° | 16km/h | 19693m | 3.7m/s | -54.5°C | 3.7% | 0hPa | 2.6V | 00:00:00 | 00:00:00 | 08:30:00 | |
| IW2NTF | 2026-09-05 12:02:44 | 46.53121 | 7.72461 | 98° | 18km/h | 19670m | 4.7m/s | -55.3°C | 3.9% | 0hPa | 2.6V | 08:30:00 | 01:29:01 | 00:00:00 | |
| DO3MHA-11 | 2026-09-05 12:02:39 | 46.53122 | 7.72449 | 93° | 13km/h | 19662m | 4.6m/s | -55.4°C | 3.9% | 0hPa | 2.7V | 00:00:00 | 01:28:59 | 00:00:00 | |
| IW2NTF | 2026-09-05 12:02:34 | 46.53124 | 7.72417 | 99° | 15km/h | 19628m | 5.3m/s | -55.8°C | 4.1% | 0hPa | 2.7V | 08:30:00 | 01:28:51 | 00:00:00 | |
| HASLITAL | 2026-09-05 12:02:30 | 46.53124 | 7.72417 | 101° | 15km/h | 19628m | 5.3m/s | -55.8°C | 0% | 0hPa | 2.7V | 00:00:00 | 00:00:00 | 00:00:00 | |
| DO3MHA-11 | 2026-09-05 12:02:28 | 46.53125 | 7.72401 | 95° | 18km/h | 19614m | 5.2m/s | -55.6°C | 4.0% | 0hPa | 2.7V | 00:00:00 | 01:28:48 | 00:00:00 | |
| IW2NTF | 2026-09-05 12:02:25 | 46.53128 | 7.72357 | 99° | 26km/h | 19582m | 4.9m/s | -56.2°C | 4.1% | 0hPa | 2.7V | 08:30:00 | 01:28:41 | 00:00:00 | |
| DB0ND-19 | 2026-09-05 12:02:24 | 46.53133 | 7.72332 | 106° | 22km/h | 19569m | 5.0m/s | -56.4°C | -1.0% | -1.0hPa | 2.6V | 00:00:00 | 00:00:00 | 00:00:00 | |
| DO3MHA-11 | 2026-09-05 12:02:18 | 46.53133 | 7.72332 | 107° | 27km/h | 19569m | 4.9m/s | -56.4°C | 4.1% | 0hPa | 2.6V | 00:00:00 | 01:28:38 | 00:00:00 | |
| DB0UT-7 | 2026-09-05 12:02:16 | 46.53135 | 7.72314 | 97° | 35km/h | 19558m | 4.8m/s | -56.6°C | 4.2% | 0hPa | 2.6V | 00:00:00 | 01:28:36 | 00:00:00 | |
| IW2NTF | 2026-09-05 12:02:14 | 46.53139 | 7.72267 | 97° | 29km/h | 19537m | 4.7m/s | -56.9°C | 4.3% | 0hPa | 2.6V | 08:30:00 | 01:28:31 | 00:00:00 | |
| HASLITAL | 2026-09-05 12:02:09 | 46.53140 | 7.72256 | 96° | 33km/h | 19532m | 5.2m/s | 0°C | 0% | 0hPa | 2.6V | 00:00:00 | 00:00:00 | 00:00:00 | |
| DO3MHA-11 | 2026-09-05 12:02:08 | 46.53142 | 7.72231 | 95° | 37km/h | 19522m | 4.6m/s | -56.9°C | 4.3% | 0hPa | 2.6V | 00:00:00 | 01:28:28 | 00:00:00 | |
| IW2NTF | 2026-09-05 12:02:07 | 46.53147 | 7.72136 | 90° | 40km/h | 19493m | 3.3m/s | -57.2°C | 4.4% | 0hPa | 2.6V | 08:30:00 | 01:28:21 | 00:00:00 | |
| DF7PN | 2026-09-05 12:02:03 | 46.53146 | 7.72166 | 92° | 40km/h | 19500m | 4.5m/s | 0°C | -1.0% | -1.0hPa | 2.6V | 00:00:00 | 00:00:00 | 00:00:00 | |
| DB0ND-19 | 2026-09-05 12:01:53 | 46.53144 | 7.71976 | 91° | 44km/h | 19443m | 4.9m/s | -57.6°C | -1.0% | -1.0hPa | 2.6V | 00:00:00 | 00:00:00 | 00:00:00 | |
| IW2NTF | 2026-09-05 12:01:52 | 46.53144 | 7.72005 | 88° | 37km/h | 19451m | 3.6m/s | -57.5°C | 4.4% | 0hPa | 2.6V | 08:30:00 | 01:28:11 | 00:00:00 | |
| DO3MHA-11 | 2026-09-05 12:01:48 | 46.53145 | 7.71958 | 92° | 40km/h | 19438m | 4.4m/s | -57.6°C | 4.4% | 0hPa | 2.6V | 00:00:00 | 01:28:08 | 00:00:00 | |
| IW2NTF | 2026-09-05 12:01:47 | 46.53147 | 7.71852 | 96° | 35km/h | 19408m | 4.9m/s | -57.9°C | 4.5% | 0hPa | 2.7V | 08:30:00 | 01:28:01 | 00:00:00 | |
| DB0UT-7 | 2026-09-05 12:01:46 | 46.53145 | 7.71923 | 92° | 37km/h | 19431m | 4.1m/s | -57.6°C | 4.4% | 0hPa | 2.6V | 00:00:00 | 00:00:00 | 00:00:00 | |
| DK5PH-5 | 2026-09-05 12:01:40 | 46.53148 | 7.71839 | 100° | 37km/h | 19404m | 4.2m/s | -57.8°C | 4.5% | 0hPa | 2.6V | 00:00:00 | 01:28:00 | 00:00:00 | |
| DO3MHA-11 | 2026-09-05 12:01:38 | 46.53151 | 7.71814 | 100° | 38km/h | 19394m | 5.4m/s | -57.9°C | 4.5% | 0hPa | 2.6V | 00:00:00 | 01:27:58 | 00:00:00 | |
| IW2NTF | 2026-09-05 12:01:36 | 46.53161 | 7.71718 | 97° | 38km/h | 19361m | 4m/s | -58.2°C | 4.5% | 0hPa | 2.6V | 08:30:00 | 01:27:51 | 00:00:00 | |
| DF7PN | 2026-09-05 12:01:32 | 46.53163 | 7.71703 | 98° | 38km/h | 19357m | 5.3m/s | 0°C | -1.0% | -1.0hPa | 2.6V | 00:00:00 | 00:00:00 | 00:00:00 | |
| DO3MHA-11 | 2026-09-05 12:01:28 | 46.53166 | 7.71676 | 102° | 37km/h | 19348m | 3.7m/s | -58.4°C | 4.7% | 0hPa | 2.6V | 00:00:00 | 01:27:48 | 00:00:00 | |
| IW2NTF | 2026-09-05 12:01:26 | 46.53179 | 7.71586 | 99° | 38km/h | 19318m | 4.3m/s | -58.6°C | 4.9% | 0hPa | 2.6V | 08:30:00 | 01:27:41 | 00:00:00 | |
| DO3MHA-12 | 2026-09-05 12:01:22 | 46.53177 | 7.71600 | 102° | 37km/h | 19322m | 3.7m/s | -58.6°C | 4.9% | 0hPa | 2.7V | 00:00:00 | 01:27:42 | 00:00:00 | |
| DO3MHA-11 | 2026-09-05 12:01:18 | 46.53181 | 7.71546 | 93° | 35km/h | 19306m | 3.0m/s | -58.4°C | 4.8% | 0hPa | 2.7V | 00:00:00 | 01:27:38 | 08:30:00 | |
| DB0UT-7 | 2026-09-05 12:01:16 | 46.53182 | 7.71519 | 94° | 33km/h | 19297m | 4.6m/s | -58.5°C | 4.8% | 0hPa | 2.6V | 00:00:00 | 01:27:36 | 00:00:00 | |
| DO3MHA-12 | 2026-09-05 12:01:12 | 46.53184 | 7.71466 | 92° | 49km/h | 19279m | 4.3m/s | -58.4°C | 4.7% | 0hPa | 2.7V | 00:00:00 | 01:27:32 | 00:00:00 | |
| IW2NTF | 2026-09-05 12:01:10 | 46.53184 | 7.71430 | 86° | 35km/h | 19265m | 3.7m/s | -58.4°C | 4.7% | 0hPa | 2.6V | 08:30:00 | 01:27:29 | 00:00:00 | |
| DK5PH-5 | 2026-09-05 12:01:10 | 46.53184 | 7.71442 | 90° | 33km/h | 19270m | 5.0m/s | -58.4°C | 4.8% | 0hPa | 2.6V | 00:00:00 | 01:27:30 | 00:00:00 | |
| DO3MHA-11 | 2026-09-05 12:01:08 | 46.53183 | 7.71418 | 82° | 35km/h | 19261m | 4.1m/s | -58.4°C | 4.7% | 0hPa | 2.6V | 00:00:00 | 01:27:28 | 00:00:00 | |
| IW2NTF | 2026-09-05 12:01:05 | 46.53177 | 7.71304 | 97° | 29km/h | 19223m | 3.8m/s | -58.3°C | 4.7% | 0hPa | 2.6V | 08:30:00 | 01:27:19 | 00:00:00 | |
| DF7PN | 2026-09-05 12:01:01 | 46.53176 | 7.71315 | 100° | 31km/h | 19227m | 4.4m/s | 0°C | -1.0% | -1.0hPa | 2.7V | 00:00:00 | 00:00:00 | 00:00:00 | |
| DO3MHA-11 | 2026-09-05 12:00:58 | 46.53177 | 7.71293 | 93° | 31km/h | 19219m | 4.5m/s | -58.3°C | 4.7% | 0hPa | 2.7V | 00:00:00 | 01:27:18 | 00:00:00 | |
| IW2NTF | 2026-09-05 12:00:55 | 46.53177 | 7.71187 | 87° | 29km/h | 19177m | 4m/s | -58.2°C | 4.7% | 0hPa | 2.7V | 08:30:00 | 01:27:09 | 00:00:00 | |
| DB0ND-19 | 2026-09-05 12:00:51 | 46.53178 | 7.71156 | 98° | 27km/h | 19162m | 4.3m/s | -58.0°C | -1.0% | -1.0hPa | 2.6V | 00:00:00 | 00:00:00 | 00:00:00 | |
| DO3MHA-11 | 2026-09-05 12:00:48 | 46.53177 | 7.71177 | 91° | 29km/h | 19173m | 4.6m/s | -58.1°C | 4.7% | 0hPa | 2.6V | 00:00:00 | 01:27:08 | 00:00:00 | |
| DB0UT-7 | 2026-09-05 12:00:46 | 46.53178 | 7.71156 | 99° | 33km/h | 19163m | 4.2m/s | -58.0°C | 4.7% | 0hPa | 2.6V | 00:00:00 | 00:00:00 | 00:00:00 | |
| IW2NTF | 2026-09-05 12:00:45 | 46.53187 | 7.71080 | 105° | 31km/h | 19130m | 3.9m/s | -58°C | 4.5% | 0hPa | 2.6V | 08:30:00 | 01:26:59 | 00:00:00 | |
| DK5PH-5 | 2026-09-05 12:00:40 | 46.53185 | 7.71090 | 105° | 35km/h | 19135m | 4.6m/s | -57.9°C | 4.5% | 0hPa | 2.6V | 00:00:00 | 01:27:00 | 00:00:00 | |
| DO3MHA-11 | 2026-09-05 12:00:38 | 46.53188 | 7.71069 | 104° | 31km/h | 19126m | 6.0m/s | -57.9°C | 4.5% | 0hPa | 2.6V | 00:00:00 | 01:26:58 | 00:00:00 | |
| IW2NTF | 2026-09-05 12:00:34 | 46.53209 | 7.70971 | 115° | 33km/h | 19083m | 3.7m/s | -58.2°C | 4.7% | 0hPa | 2.6V | 08:30:00 | 01:26:49 | 00:00:00 | |
| DF7PN | 2026-09-05 12:00:30 | 46.53209 | 7.70971 | 115° | 31km/h | 19083m | 3.7m/s | 0°C | -1.0% | -1.0hPa | 2.6V | 00:00:00 | 00:00:00 | 00:00:00 | |
| DO3MHA-11 | 2026-09-05 12:00:28 | 46.53213 | 7.70960 | 119° | 37km/h | 19079m | 5.4m/s | -58.2°C | 4.7% | 0hPa | 2.6V | 00:00:00 | 01:26:48 | 00:00:00 | |
| IW2NTF | 2026-09-05 12:00:25 | 46.53253 | 7.70853 | 128° | 37km/h | 19038m | 4.1m/s | -58.5°C | 4.8% | 0hPa | 2.6V | 08:30:00 | 01:26:39 | 00:00:00 | |
| DO3MHA-11 | 2026-09-05 12:00:19 | 46.53259 | 7.70843 | 131° | 37km/h | 19034m | 4.9m/s | -58.5°C | 4.7% | 0hPa | 2.6V | 00:00:00 | 01:26:38 | 00:00:00 | |
| DB0UT-7 | 2026-09-05 12:00:18 | 46.53269 | 7.70825 | 133° | 44km/h | 19025m | 3.5m/s | -58.4°C | 4.8% | 0hPa | 2.7V | 00:00:00 | 01:26:36 | 00:00:00 | |
| IW2NTF | 2026-09-05 12:00:15 | 46.53313 | 7.70755 | 125° | 40km/h | 18995m | 3.6m/s | -58.4°C | 4.7% | 0hPa | 2.7V | 08:30:00 | 01:26:29 | 00:00:00 | |
| DK5PH-5 | 2026-09-05 12:00:10 | 46.53307 | 7.70767 | 129° | 46km/h | 18999m | 4.5m/s | -58.3°C | 4.8% | 0hPa | 2.6V | 00:00:00 | 01:26:30 | 00:00:00 | |
| DO3MHA-11 | 2026-09-05 12:00:08 | 46.53319 | 7.70742 | 125° | 44km/h | 18991m | 4.9m/s | -58.3°C | 4.7% | 0hPa | 2.6V | 00:00:00 | 01:26:28 | 00:00:00 | |
| IW2NTF | 2026-09-05 12:00:05 | 46.53374 | 7.70626 | 125° | 44km/h | 18949m | 4.9m/s | -58.4°C | 4.7% | 0hPa | 2.6V | 08:30:00 | 01:26:19 | 00:00:00 | |
| DO3MHA-11 | 2026-09-05 11:59:58 | 46.53381 | 7.70613 | 125° | 49km/h | 18944m | 4.8m/s | -58.3°C | 4.7% | 0hPa | 2.6V | 00:00:00 | 01:26:18 | 00:00:00 | |
| IW2NTF | 2026-09-05 11:59:55 | 46.53445 | 7.70481 | 120° | 44km/h | 18902m | 4.7m/s | -58.3°C | 4.7% | 0hPa | 2.6V | 08:30:00 | 01:26:09 | 00:00:00 | |
| DO3MHA-11 | 2026-09-05 11:59:48 | 46.53451 | 7.70467 | 121° | 46km/h | 18897m | 5.3m/s | -58.3°C | 4.7% | 0hPa | 2.6V | 00:00:00 | 01:26:08 | 08:30:00 | |
| DB0UT-7 | 2026-09-05 11:59:46 | 46.53463 | 7.70439 | 125° | 40km/h | 18888m | 3.4m/s | -58.3°C | 4.7% | 0hPa | 2.7V | 00:00:00 | 00:00:00 | 00:00:00 | |
| IW2NTF | 2026-09-05 11:59:45 | 46.53508 | 7.70346 | 121° | 46km/h | 18855m | 5.2m/s | -58.3°C | 4.8% | 0hPa | 2.7V | 08:30:00 | 01:25:59 | 00:00:00 | |
| DK5PH-5 | 2026-09-05 11:59:40 | 46.53502 | 7.70360 | 124° | 40km/h | 18859m | 3.4m/s | -58.2°C | 4.8% | 0hPa | 2.7V | 00:00:00 | 01:26:00 | 00:00:00 | |
| DO3MHA-11 | 2026-09-05 11:59:38 | 46.53514 | 7.70332 | 118° | 37km/h | 18850m | 5.0m/s | -58.3°C | 4.8% | 0hPa | 2.7V | 00:00:00 | 01:25:58 | 00:00:00 | |
| IW2NTF | 2026-09-05 11:59:34 | 46.53565 | 7.70201 | 116° | 38km/h | 18802m | 4.4m/s | -58.4°C | 4.7% | 0hPa | 2.7V | 08:30:00 | 01:25:47 | 00:00:00 | |
| DO3MHA-11 | 2026-09-05 11:59:28 | 46.53560 | 7.70213 | 122° | 42km/h | 18806m | 3.6m/s | -58.3°C | 4.7% | 0hPa | 2.7V | 00:00:00 | 01:25:48 | 00:00:00 | |
| IW2NTF | 2026-09-05 11:59:22 | 46.53596 | 7.70060 | 107° | 27km/h | 18759m | 3.5m/s | -58.3°C | 4.7% | 0hPa | 2.7V | 08:30:00 | 01:25:37 | 00:00:00 | |
| DB0ND-19 | 2026-09-05 11:59:18 | 46.53596 | 7.70060 | 107° | 26km/h | 18759m | 3.5m/s | -58.3°C | -1.0% | -1.0hPa | 2.6V | 00:00:00 | 00:00:00 | 00:00:00 | |
| DB0UT-7 | 2026-09-05 11:59:16 | 46.53599 | 7.70051 | 113° | 35km/h | 18755m | 4.3m/s | -58.2°C | 4.7% | 0hPa | 2.6V | 00:00:00 | 01:25:36 | 00:00:00 | |
| IW2NTF | 2026-09-05 11:59:12 | 46.53624 | 7.69950 | 108° | 33km/h | 18715m | 4.3m/s | -58.6°C | 4.8% | 0hPa | 2.6V | 08:30:00 | 01:25:27 | 00:00:00 | |
| DK5PH-5 | 2026-09-05 11:59:10 | 46.53618 | 7.69986 | 102° | 35km/h | 18729m | 4.2m/s | -58.4°C | 4.8% | 0hPa | 2.6V | 00:00:00 | 01:25:30 | 00:00:00 | |
| DO3MHA-11 | 2026-09-05 11:59:08 | 46.53622 | 7.69961 | 106° | 33km/h | 18720m | 5.0m/s | -58.5°C | 4.9% | 0hPa | 2.6V | 00:00:00 | 01:25:28 | 00:00:00 | |
| DO3MHA-11 | 2026-09-05 11:58:58 | 46.53640 | 7.69845 | 98° | 37km/h | 18677m | 4.1m/s | -58.4°C | 4.9% | 0hPa | 2.6V | 00:00:00 | 01:25:18 | 00:00:00 | |
| IW2NTF | 2026-09-05 11:58:55 | 46.53647 | 7.69806 | 111° | 38km/h | 18664m | 4.9m/s | -58.5°C | 4.9% | 0hPa | 2.6V | 08:30:00 | 01:25:15 | 00:00:00 | |
| DO3MHA-11 | 2026-09-05 11:58:48 | 46.53671 | 7.69716 | 110° | 42km/h | 18634m | 4.5m/s | -58.5°C | 4.7% | 0hPa | 2.7V | 00:00:00 | 01:25:08 | 00:00:00 | |
| IW2NTF | 2026-09-05 11:58:45 | 46.53680 | 7.69675 | 105° | 38km/h | 18620m | 3.8m/s | -58.6°C | 4.8% | 0hPa | 2.6V | 08:30:00 | 01:25:05 | 00:00:00 | |
| DH7VM-15 | 2026-09-05 11:58:41 | 46.53691 | 7.69633 | 116° | 44km/h | 18609m | 4.9m/s | 0°C | 0% | 0hPa | 2.6V | 00:00:00 | 00:00:00 | 00:00:00 | |
| DK5PH-5 | 2026-09-05 11:58:39 | 46.53706 | 7.69588 | 114° | 46km/h | 18597m | 3.9m/s | -58.6°C | 5.0% | 0hPa | 2.6V | 00:00:00 | 01:24:59 | 00:00:00 | |
| IW2NTF | 2026-09-05 11:58:38 | 46.53722 | 7.69524 | 109° | 49km/h | 18581m | 4.5m/s | -58.8°C | 4.9% | 0hPa | 2.6V | 08:30:00 | 01:24:55 | 00:00:00 | |
| DO3MHA-11 | 2026-09-05 11:58:38 | 46.53710 | 7.69573 | 112° | 46km/h | 18593m | 3.4m/s | -58.6°C | 4.9% | 0hPa | 2.7V | 00:00:00 | 01:24:58 | 00:00:00 | |
| DO3MHA-11 | 2026-09-05 11:58:28 | 46.53755 | 7.69416 | 121° | 47km/h | 18555m | 3.8m/s | -59.0°C | 4.9% | 0hPa | 2.7V | 00:00:00 | 01:24:48 | 00:00:00 | |
| IW2NTF | 2026-09-05 11:58:25 | 46.53771 | 7.69372 | 117° | 46km/h | 18543m | 3m/s | -59°C | 4.9% | 0hPa | 2.7V | 08:30:00 | 01:24:45 | 00:00:00 | |
| IW2NTF | 2026-09-05 11:58:20 | 46.53817 | 7.69211 | 108° | 46km/h | 18505m | 3.9m/s | -58.9°C | 4.8% | 0hPa | 2.6V | 08:30:00 | 01:24:35 | 00:00:00 | |
| DO3MHA-11 | 2026-09-05 11:58:18 | 46.53806 | 7.69260 | 108° | 46km/h | 18518m | 3.4m/s | -58.9°C | 4.9% | 0hPa | 2.7V | 00:00:00 | 01:24:38 | 08:30:00 | |
| HARRO8 | 2026-09-05 11:58:17 | 46.53813 | 7.69227 | 109° | 46km/h | 18509m | 3.4m/s | -58.8°C | 1.3% | -1.0hPa | 2.6V | 00:00:00 | 00:00:00 | 00:00:00 | |
| DB0UT-7 | 2026-09-05 11:58:16 | 46.53813 | 7.69227 | 110° | 46km/h | 18509m | 3.4m/s | -58.8°C | 4.8% | 0hPa | 2.6V | 00:00:00 | 01:24:36 | 08:30:00 | |
| DK5PH-5 | 2026-09-05 11:58:09 | 46.53838 | 7.69116 | 110° | 46km/h | 18481m | 4.1m/s | -59.1°C | 4.9% | 0hPa | 2.6V | 00:00:00 | 01:24:29 | 08:30:00 | |
| IW2NTF | 2026-09-05 11:58:08 | 46.53854 | 7.69038 | 104° | 47km/h | 18461m | 2.6m/s | -59.3°C | 5.2% | 0hPa | 2.6V | 08:30:00 | 01:24:24 | 00:00:00 | |
| IW2NTF | 2026-09-05 11:57:59 | 46.53882 | 7.68869 | 106° | 44km/h | 18421m | 4.8m/s | -59.5°C | 5% | 0hPa | 2.7V | 08:30:00 | 01:24:14 | 00:00:00 | |
| DF7PN | 2026-09-05 11:57:54 | 46.53882 | 7.68869 | 106° | 42km/h | 18421m | 4.8m/s | 0°C | -1.0% | -1.0hPa | 2.7V | 00:00:00 | 00:00:00 | 00:00:00 | |
| DO3MHA-11 | 2026-09-05 11:57:48 | 46.53891 | 7.68782 | 90° | 42km/h | 18397m | 3.8m/s | -59.4°C | 5.3% | 0hPa | 2.7V | 00:00:00 | 01:24:08 | 00:00:00 | |
| IW2NTF | 2026-09-05 11:57:47 | 46.53894 | 7.68718 | 95° | 46km/h | 18382m | 4.2m/s | -59.3°C | 5% | 0hPa | 2.6V | 08:30:00 | 01:24:04 | 00:00:00 | |
| DB0UT-7 | 2026-09-05 11:57:46 | 46.53892 | 7.68751 | 96° | 37km/h | 18389m | 3.9m/s | -59.3°C | 5.1% | 0hPa | 2.6V | 00:00:00 | 00:00:00 | 00:00:00 | |
| DK5PH-5 | 2026-09-05 11:57:39 | 46.53902 | 7.68641 | 107° | 31km/h | 18362m | 4.0m/s | -59.1°C | 4.9% | 0hPa | 2.6V | 00:00:00 | 01:23:59 | 00:00:00 | |
| DO3MHA-11 | 2026-09-05 11:57:38 | 46.53905 | 7.68629 | 107° | 35km/h | 18358m | 2.9m/s | -59.1°C | 4.8% | 0hPa | 2.6V | 00:00:00 | 01:23:58 | 00:00:00 | |
| IW2NTF | 2026-09-05 11:57:37 | 46.53911 | 7.68577 | 92° | 35km/h | 18342m | 4m/s | -59.1°C | 5% | 0hPa | 2.6V | 08:30:00 | 01:23:54 | 00:00:00 | |
| DO3MHA-11 | 2026-09-05 11:57:28 | 46.53907 | 7.68500 | 85° | 33km/h | 18316m | 3.0m/s | -59.3°C | 5.0% | 0hPa | 2.7V | 00:00:00 | 01:23:48 | 00:00:00 | |
| IW2NTF | 2026-09-05 11:57:27 | 46.53910 | 7.68449 | 102° | 37km/h | 18299m | 4.6m/s | -59.6°C | 5.1% | 0hPa | 2.7V | 08:30:00 | 01:23:44 | 00:00:00 | |
| DF7PN | 2026-09-05 11:57:23 | 46.53912 | 7.68436 | 102° | 37km/h | 18295m | 4.0m/s | 0°C | -1.0% | -1.0hPa | 2.6V | 00:00:00 | 00:00:00 | 00:00:00 | |
| DH7VM-15 | 2026-09-05 11:57:18 | 46.53917 | 7.68388 | 89° | 27km/h | 18278m | 3.3m/s | 0°C | 0% | 0hPa | 2.6V | 00:00:00 | 00:00:00 | 00:00:00 | |
| IW2NTF | 2026-09-05 11:57:17 | 46.53905 | 7.68340 | 57° | 22km/h | 18254m | 5.3m/s | -59.6°C | 5.1% | 0hPa | 2.6V | 08:30:00 | 01:23:34 | 00:00:00 | |
| DB0UT-7 | 2026-09-05 11:57:16 | 46.53912 | 7.68357 | 64° | 24km/h | 18264m | 3.6m/s | -59.7°C | 5.1% | 0hPa | 2.6V | 00:00:00 | 01:23:36 | 00:00:00 | |
| DO3MHA-11 | 2026-09-05 11:57:15 | 46.53908 | 7.68348 | 60° | 24km/h | 18260m | 4.8m/s | -59.6°C | 5.1% | 0hPa | 2.6V | 00:00:00 | 01:23:35 | 00:00:00 | |
| DB0ND-19 | 2026-09-05 11:57:14 | 46.53897 | 7.68295 | 90° | 24km/h | 18228m | 5.3m/s | -59.4°C | -1.0% | -1.0hPa | 2.6V | 00:00:00 | 00:00:00 | 00:00:00 | |
| DK5PH-5 | 2026-09-05 11:57:08 | 46.53897 | 7.68295 | 91° | 27km/h | 18228m | 5.2m/s | -59.4°C | 5.3% | 0hPa | 2.6V | 00:00:00 | 01:23:28 | 00:00:00 | |
| IW2NTF | 2026-09-05 11:57:07 | 46.53893 | 7.68258 | 68° | 29km/h | 18211m | 3.3m/s | -59.3°C | 5.3% | 0hPa | 2.6V | 08:30:00 | 01:23:24 | 00:00:00 | |
| DO3MHA-11 | 2026-09-05 11:57:05 | 46.53895 | 7.68268 | 77° | 24km/h | 18216m | 5.0m/s | -59.3°C | 5.3% | 0hPa | 2.7V | 00:00:00 | 01:23:25 | 00:00:00 | |
| IW2NTF | 2026-09-05 11:56:55 | 46.53880 | 7.68180 | 109° | 24km/h | 18166m | 3.2m/s | -58.9°C | 5.1% | 0hPa | 2.7V | 08:30:00 | 01:23:14 | 00:00:00 | |
| DB0UT-7 | 2026-09-05 11:56:46 | 46.53873 | 7.68114 | 53° | 24km/h | 18135m | 4.1m/s | -58.6°C | 5.0% | 0hPa | 2.6V | 00:00:00 | 00:00:00 | 00:00:00 | |
| IW2NTF | 2026-09-05 11:56:45 | 46.53866 | 7.68100 | 58° | 24km/h | 18127m | 3.1m/s | -58.6°C | 4.9% | 0hPa | 2.6V | 08:30:00 | 01:23:04 | 00:00:00 | |
| DB0ND-19 | 2026-09-05 11:56:43 | 46.53862 | 7.68086 | 75° | 16km/h | 18119m | 5.6m/s | -58.6°C | -1.0% | -1.0hPa | 2.6V | 00:00:00 | 00:00:00 | 00:00:00 | |
| IW2NTF | 2026-09-05 11:56:39 | 46.53863 | 7.68015 | 98° | 26km/h | 18078m | 4m/s | -58.4°C | 4.8% | 0hPa | 2.6V | 08:30:00 | 01:22:54 | 00:00:00 | |
| IW2NTF | 2026-09-05 11:56:25 | 46.53865 | 7.67931 | 96° | 27km/h | 18032m | 5m/s | -58.7°C | 4.9% | 0hPa | 2.7V | 08:30:00 | 01:22:44 | 00:00:00 | |
| IW2NTF | 2026-09-05 11:56:16 | 46.53882 | 7.67837 | 106° | 24km/h | 17986m | 4.1m/s | -58.9°C | 5.1% | 0hPa | 2.6V | 08:30:00 | 01:22:34 | 00:00:00 | |
| HARRO8 | 2026-09-05 11:56:12 | 46.53888 | 7.67797 | 96° | 29km/h | 17968m | 4.5m/s | -58.9°C | 1.4% | -1.0hPa | 2.6V | 00:00:00 | 00:00:00 | 00:00:00 | |
| DK5PH-5 | 2026-09-05 11:56:08 | 46.53889 | 7.67776 | 96° | 37km/h | 17959m | 3.9m/s | -58.8°C | 5.1% | 0hPa | 2.6V | 00:00:00 | 01:22:28 | 00:00:00 | |
| IW2NTF | 2026-09-05 11:56:07 | 46.53894 | 7.67731 | 104° | 33km/h | 17942m | 4.5m/s | -58.7°C | 5% | 0hPa | 2.6V | 08:30:00 | 01:22:24 | 00:00:00 | |
| IW2NTF | 2026-09-05 11:55:55 | 46.53918 | 7.67611 | 105° | 37km/h | 17897m | 4.3m/s | -58.7°C | 5% | 0hPa | 2.8V | 08:30:00 | 01:22:14 | 00:00:00 | |
| DH7VM-15 | 2026-09-05 11:55:55 | 46.53913 | 7.67635 | 106° | 33km/h | 17906m | 4.8m/s | 0°C | 0% | 0hPa | 2.6V | 00:00:00 | 00:00:00 | 00:00:00 | |
| DB0UT-7 | 2026-09-05 11:55:46 | 46.53939 | 7.67495 | 97° | 40km/h | 17861m | 4.2m/s | -58.6°C | 5.0% | 0hPa | 2.6V | 00:00:00 | 00:00:00 | 00:00:00 | |
| IW2NTF | 2026-09-05 11:55:45 | 46.53941 | 7.67467 | 96° | 35km/h | 17851m | 4.7m/s | -58.6°C | 5% | 0hPa | 2.6V | 08:30:00 | 01:22:04 | 00:00:00 | |
| HARRO8 | 2026-09-05 11:55:41 | 46.53945 | 7.67428 | 99° | 40km/h | 17837m | 4.9m/s | -58.5°C | 1.4% | -1.0hPa | 2.6V | 00:00:00 | 00:00:00 | 00:00:00 | |
| IW2NTF | 2026-09-05 11:55:35 | 46.53961 | 7.67320 | 98° | 42km/h | 17805m | 4.2m/s | -58.4°C | 4.9% | 0hPa | 2.6V | 08:30:00 | 01:21:54 | 00:00:00 | |
| IW2NTF | 2026-09-05 11:55:26 | 46.53968 | 7.67186 | 93° | 40km/h | 17761m | 4.9m/s | -58.5°C | 5% | 0hPa | 2.7V | 08:30:00 | 01:21:44 | 00:00:00 | |
| DO3MHA-11 | 2026-09-05 11:55:22 | 46.53969 | 7.67156 | 95° | 40km/h | 17753m | 4.4m/s | -58.5°C | 5.0% | 0hPa | 2.6V | 00:00:00 | 01:21:42 | 08:30:00 | |
| DL1ZP-14 | 2026-09-05 11:55:20 | 46.53971 | 7.67125 | 97° | 40km/h | 17744m | 3.6m/s | -58.5°C | 1.4% | -1.0hPa | 2.6V | 00:00:00 | 00:00:00 | 00:00:00 | |
| IW2NTF | 2026-09-05 11:55:16 | 46.53979 | 7.67036 | 99° | 37km/h | 17719m | 4m/s | -58.7°C | 5% | 0hPa | 2.6V | 00:00:00 | 01:21:34 | 00:00:00 | |
| DB0UT-7 | 2026-09-05 11:55:16 | 46.53976 | 7.67064 | 97° | 46km/h | 17727m | 3.4m/s | -58.6°C | 5.0% | 0hPa | 2.6V | 00:00:00 | 01:21:36 | 00:00:00 | |
| DO3MHA-11 | 2026-09-05 11:55:12 | 46.53982 | 7.67008 | 98° | 46km/h | 17712m | 4.7m/s | -58.7°C | 5.1% | 0hPa | 2.6V | 00:00:00 | 01:21:32 | 00:00:00 | |
| IW2NTF | 2026-09-05 11:55:05 | 46.53989 | 7.66875 | 90° | 47km/h | 17677m | 3.9m/s | -58.5°C | 5% | 0hPa | 2.6V | 00:00:00 | 01:21:24 | 00:00:00 | |
| DO3MHA-11 | 2026-09-05 11:55:02 | 46.53989 | 7.66841 | 86° | 46km/h | 17671m | 3.9m/s | -58.5°C | 4.8% | 0hPa | 2.8V | 00:00:00 | 01:21:22 | 00:00:00 | |
| DK5PH-5 | 2026-09-05 11:54:58 | 46.53985 | 7.66781 | 86° | 46km/h | 17656m | 4.5m/s | -58.6°C | 4.9% | 0hPa | 2.8V | 00:00:00 | 01:21:18 | 00:00:00 | |
| IW2NTF | 2026-09-05 11:54:55 | 46.53983 | 7.66708 | 88° | 51km/h | 17639m | 4.6m/s | -59°C | 5.2% | 0hPa | 2.8V | 00:00:00 | 01:21:14 | 00:00:00 | |
| DL1ZP-14 | 2026-09-05 11:54:49 | 46.53982 | 7.66624 | 90° | 46km/h | 17619m | 4.4m/s | -59.3°C | 1.6% | -1.0hPa | 2.8V | 00:00:00 | 00:00:00 | 00:00:00 | |
| DB0UT-7 | 2026-09-05 11:54:46 | 46.53981 | 7.66574 | 86° | 44km/h | 17608m | 4.5m/s | -59.4°C | 5.4% | 0hPa | 2.6V | 00:00:00 | 00:00:00 | 00:00:00 | |
| IW2NTF | 2026-09-05 11:54:45 | 46.53975 | 7.66507 | 84° | 51km/h | 17592m | 4.4m/s | -59.4°C | 5.2% | 0hPa | 2.6V | 00:00:00 | 01:21:02 | 00:00:00 | |
| DO3MHA-11 | 2026-09-05 11:54:42 | 46.53975 | 7.66507 | 85° | 46km/h | 17592m | 4.4m/s | -59.4°C | 5.2% | 0hPa | 2.6V | 00:00:00 | 01:21:02 | 00:00:00 | |
| HARRO8 | 2026-09-05 11:54:39 | 46.53975 | 7.66418 | 95° | 44km/h | 17572m | 4.1m/s | -59.3°C | 1.7% | -1.0hPa | 2.6V | 00:00:00 | 00:00:00 | 00:00:00 | |
| IW2NTF | 2026-09-05 11:54:35 | 46.53978 | 7.66339 | 84° | 42km/h | 17551m | 4.2m/s | -59.1°C | 5.2% | 0hPa | 2.6V | 00:00:00 | 01:20:52 | 00:00:00 | |
| DO3MHA-11 | 2026-09-05 11:54:32 | 46.53977 | 7.66339 | 85° | 44km/h | 17552m | 4.1m/s | -59.1°C | 5.2% | 0hPa | 2.7V | 00:00:00 | 01:20:52 | 00:00:00 | |
| DK5PH-5 | 2026-09-05 11:54:28 | 46.53973 | 7.66273 | 87° | 42km/h | 17536m | 3.4m/s | -59.0°C | 5.2% | 0hPa | 2.7V | 00:00:00 | 01:20:48 | 00:00:00 | |
| IW2NTF | 2026-09-05 11:54:25 | 46.53977 | 7.66178 | 97° | 42km/h | 17512m | 4m/s | -59°C | 5.4% | 0hPa | 2.7V | 00:00:00 | 01:20:42 | 00:00:00 | |
| DL1ZP-14 | 2026-09-05 11:54:18 | 46.53980 | 7.66121 | 93° | 40km/h | 17497m | 4.3m/s | -59.1°C | 1.6% | -1.0hPa | 2.8V | 00:00:00 | 00:00:00 | 00:00:00 | |
| DB0UT-7 | 2026-09-05 11:54:16 | 46.53981 | 7.66089 | 92° | 38km/h | 17489m | 3.1m/s | -59.0°C | 5.2% | 0hPa | 2.8V | 00:00:00 | 01:20:36 | 00:00:00 | |
| IW2NTF | 2026-09-05 11:54:15 | 46.53982 | 7.66027 | 92° | 40km/h | 17474m | 3.4m/s | -59.2°C | 5.3% | 0hPa | 2.8V | 00:00:00 | 01:20:32 | 00:00:00 | |
| DO3MHA-11 | 2026-09-05 11:54:10 | 46.53983 | 7.65996 | 96° | 40km/h | 17466m | 3.9m/s | -59.1°C | 5.2% | 0hPa | 2.6V | 00:00:00 | 01:20:30 | 00:00:00 | |
| HARRO8 | 2026-09-05 11:54:08 | 46.53985 | 7.65966 | 97° | 40km/h | 17458m | 4.9m/s | -59.3°C | 1.6% | -1.0hPa | 2.6V | 00:00:00 | 00:00:00 | 00:00:00 | |
| IW2NTF | 2026-09-05 11:54:06 | 46.53997 | 7.65879 | 101° | 38km/h | 17434m | 4.2m/s | -59.3°C | 5.3% | 0hPa | 2.6V | 00:00:00 | 01:20:22 | 00:00:00 | |
| DO3MHA-11 | 2026-09-05 11:54:00 | 46.54001 | 7.65852 | 104° | 44km/h | 17427m | 3.7m/s | -59.2°C | 5.3% | 0hPa | 2.7V | 00:00:00 | 01:20:20 | 00:00:00 | |
| DK5PH-5 | 2026-09-05 11:53:58 | 46.54006 | 7.65825 | 108° | 37km/h | 17419m | 2.7m/s | -59.2°C | 5.2% | 0hPa | 2.7V | 00:00:00 | 01:20:18 | 00:00:00 | |
| IW2NTF | 2026-09-05 11:53:55 | 46.54024 | 7.65746 | 109° | 38km/h | 17397m | 3.5m/s | -59.5°C | 5.5% | 0hPa | 2.6V | 00:00:00 | 01:20:12 | 00:00:00 | |
| DL1ZP-14 | 2026-09-05 11:53:47 | 46.54038 | 7.65687 | 108° | 31km/h | 17378m | 4.2m/s | -60.0°C | 1.7% | -1.0hPa | 2.6V | 00:00:00 | 00:00:00 | 00:00:00 | |
| DB0UT-7 | 2026-09-05 11:53:46 | 46.54041 | 7.65676 | 107° | 38km/h | 17374m | 3.5m/s | -59.9°C | 5.5% | 0hPa | 2.6V | 00:00:00 | 00:00:00 | 08:30:00 | |
| HARRO8 | 2026-09-05 11:53:37 | 46.54051 | 7.65507 | 95° | 38km/h | 17325m | 3.2m/s | -59.8°C | 1.7% | -1.0hPa | 2.6V | 00:00:00 | 00:00:00 | 00:00:00 | |
| DK5PH-5 | 2026-09-05 11:53:28 | 46.54047 | 7.65426 | 80° | 37km/h | 17300m | 4.0m/s | -59.7°C | 5.4% | 0hPa | 2.6V | 00:00:00 | 01:19:48 | 00:00:00 | |
| DB0UT-7 | 2026-09-05 11:53:16 | 46.54036 | 7.65259 | 85° | 37km/h | 17247m | 4.4m/s | -59.6°C | 5.4% | 0hPa | 2.6V | 00:00:00 | 01:19:36 | 00:00:00 | |
| HARRO8 | 2026-09-05 11:53:06 | 46.54028 | 7.65129 | 92° | 33km/h | 17205m | 3.4m/s | -59.7°C | 1.7% | -1.0hPa | 2.6V | 00:00:00 | 00:00:00 | 00:00:00 | |
| DB0ND-19 | 2026-09-05 11:53:05 | 46.54037 | 7.64896 | 85° | 37km/h | 17128m | 4.7m/s | -59.6°C | -1.0% | -1.0hPa | 2.6V | 00:00:00 | 00:00:00 | 00:00:00 | |
| DL1ZP-14 | 2026-09-05 11:52:45 | 46.54035 | 7.64841 | 92° | 38km/h | 17109m | 3.4m/s | -59.6°C | 1.6% | -1.0hPa | 2.6V | 00:00:00 | 00:00:00 | 00:00:00 | |
| DK5PH-5 | 2026-09-05 11:52:28 | 46.54062 | 7.64605 | 111° | 37km/h | 17046m | 4.6m/s | -59.4°C | 5.3% | 0hPa | 2.7V | 00:00:00 | 01:18:48 | 08:30:00 | |
| DB0UT-7 | 2026-09-05 11:52:16 | 46.54097 | 7.64458 | 112° | 38km/h | 16996m | 5.1m/s | -59.2°C | 5.4% | 0hPa | 2.6V | 00:00:00 | 01:18:36 | 00:00:00 | |
| DL1ZP-14 | 2026-09-05 11:52:14 | 46.54104 | 7.64433 | 110° | 35km/h | 16987m | 3.6m/s | -59.2°C | 1.6% | -1.0hPa | 2.6V | 00:00:00 | 00:00:00 | 00:00:00 | |
| HARRO8 | 2026-09-05 11:52:04 | 46.54131 | 7.64290 | 109° | 42km/h | 16937m | 4.1m/s | -58.9°C | 1.6% | -1.0hPa | 2.8V | 00:00:00 | 00:00:00 | 00:00:00 | |
| DB0ND-19 | 2026-09-05 11:52:03 | 46.54148 | 7.64237 | 114° | 37km/h | 16919m | 5.0m/s | -58.8°C | -1.0% | -1.0hPa | 2.8V | 00:00:00 | 00:00:00 | 00:00:00 | |
| DK5PH-5 | 2026-09-05 11:51:58 | 46.54151 | 7.64224 | 114° | 42km/h | 16914m | 4.7m/s | -58.7°C | 5.2% | 0hPa | 2.8V | 00:00:00 | 01:18:18 | 00:00:00 | |
| DB0UT-7 | 2026-09-05 11:51:46 | 46.54194 | 7.64058 | 112° | 47km/h | 16865m | 4.8m/s | -58.5°C | 5.1% | 0hPa | 2.8V | 00:00:00 | 00:00:00 | 00:00:00 | |
| DL1ZP-14 | 2026-09-05 11:51:43 | 46.54208 | 7.64007 | 112° | 37km/h | 16848m | 3.6m/s | -58.5°C | 1.6% | -1.0hPa | 2.8V | 00:00:00 | 00:00:00 | 00:00:00 | |
| HARRO8 | 2026-09-05 11:51:33 | 46.54241 | 7.63866 | 113° | 42km/h | 16811m | 4.7m/s | -58.4°C | 1.6% | -1.0hPa | 2.8V | 00:00:00 | 00:00:00 | 00:00:00 | |
| DB0ND-19 | 2026-09-05 11:51:32 | 46.54245 | 7.63851 | 112° | 42km/h | 16807m | 3.7m/s | -58.5°C | -1.0% | -1.0hPa | 2.8V | 00:00:00 | 00:00:00 | 00:00:00 | |
| DK5PH-5 | 2026-09-05 11:51:28 | 46.54264 | 7.63790 | 113° | 57km/h | 16791m | 3.7m/s | -58.3°C | 5.1% | 0hPa | 2.8V | 00:00:00 | 01:17:48 | 00:00:00 | |
| DB0UT-7 | 2026-09-05 11:51:16 | 46.54320 | 7.63572 | 112° | 58km/h | 16741m | 4.1m/s | -58.1°C | 5.1% | 0hPa | 2.8V | 00:00:00 | 01:17:36 | 00:00:00 | |
| DL1ZP-14 | 2026-09-05 11:51:12 | 46.54345 | 7.63477 | 114° | 58km/h | 16721m | 3.8m/s | -58.1°C | 1.6% | -1.0hPa | 2.8V | 00:00:00 | 00:00:00 | 00:00:00 | |
| HARRO8 | 2026-09-05 11:51:02 | 46.54402 | 7.63276 | 108° | 58km/h | 16683m | 3.6m/s | -58.0°C | 1.6% | -1.0hPa | 2.6V | 00:00:00 | 00:00:00 | 00:00:00 | |
| DB0ND-19 | 2026-09-05 11:51:01 | 46.54432 | 7.63150 | 107° | 60km/h | 16660m | 3.4m/s | -57.9°C | -1.0% | -1.0hPa | 2.6V | 00:00:00 | 00:00:00 | 00:00:00 | |
| DK5PH-5 | 2026-09-05 11:50:58 | 46.54418 | 7.63213 | 111° | 57km/h | 16672m | 3.4m/s | -57.9°C | 5.2% | 0hPa | 2.6V | 00:00:00 | 01:17:18 | 00:00:00 | |
| DB0UT-7 | 2026-09-05 11:50:46 | 46.54486 | 7.62978 | 115° | 57km/h | 16625m | 3.5m/s | -57.8°C | 5.3% | 0hPa | 2.7V | 00:00:00 | 00:00:00 | 00:00:00 | |
| DL1ZP-14 | 2026-09-05 11:50:41 | 46.54519 | 7.62857 | 110° | 57km/h | 16603m | 4.2m/s | -57.8°C | 1.8% | -1.0hPa | 2.8V | 00:00:00 | 00:00:00 | 00:00:00 | |
| HARRO8 | 2026-09-05 11:50:31 | 46.54566 | 7.62666 | 110° | 53km/h | 16565m | 4.1m/s | -57.9°C | 1.8% | -1.0hPa | 2.7V | 00:00:00 | 00:00:00 | 00:00:00 | |
| DK5PH-5 | 2026-09-05 11:50:28 | 46.54576 | 7.62629 | 112° | 58km/h | 16558m | 4.6m/s | -58.0°C | 5.2% | 0hPa | 2.7V | 00:00:00 | 01:16:48 | 00:00:00 | |
| DB0UT-7 | 2026-09-05 11:50:16 | 46.54650 | 7.62406 | 120° | 60km/h | 16513m | 3.4m/s | -58.8°C | 5.7% | 0hPa | 2.7V | 00:00:00 | 01:16:36 | 00:00:00 | |
| DL1ZP-14 | 2026-09-05 11:50:10 | 46.54699 | 7.62262 | 113° | 66km/h | 16486m | 4.1m/s | -59.1°C | 2.1% | -1.0hPa | 2.7V | 00:00:00 | 00:00:00 | 00:00:00 | |
| HARRO8 | 2026-09-05 11:50:00 | 46.54751 | 7.62059 | 107° | 58km/h | 16446m | 3.4m/s | -59.4°C | -1.0% | -1.0hPa | 2.7V | 00:00:00 | 00:00:00 | 00:00:00 | |
| DK5PH-5 | 2026-09-05 11:49:57 | 46.54760 | 7.62015 | 105° | 64km/h | 16438m | 3.5m/s | -59.4°C | 6.0% | 0hPa | 2.7V | 00:00:00 | 01:16:17 | 00:00:00 | |
| DO3MHA-11 | 2026-09-05 11:49:55 | 46.54768 | 7.61970 | 107° | 68km/h | 16430m | 3.6m/s | -59.4°C | 6.0% | 0hPa | 2.7V | 00:00:00 | 01:16:15 | 08:30:00 | |
| DB0UT-7 | 2026-09-05 11:49:46 | 46.54797 | 7.61774 | 97° | 64km/h | 16394m | 3.2m/s | -59.5°C | 6.1% | 0hPa | 2.6V | 00:00:00 | 00:00:00 | 00:00:00 | |
| IW2NTF | 2026-09-05 11:49:44 | 46.54811 | 7.61627 | 95° | 71km/h | 16370m | 4.3m/s | -59.5°C | 6.3% | 0hPa | 2.6V | 00:00:00 | 01:16:00 | 00:00:00 | |
| DL1ZP-14 | 2026-09-05 11:49:39 | 46.54815 | 7.61576 | 97° | 68km/h | 16363m | 4.5m/s | -59.6°C | 2.4% | -1.0hPa | 2.7V | 00:00:00 | 00:00:00 | 00:00:00 | |
| HARRO8 | 2026-09-05 11:49:29 | 46.54822 | 7.61356 | 92° | 64km/h | 16323m | 3.9m/s | -59.7°C | -1.0% | -1.0hPa | 2.7V | 00:00:00 | 00:00:00 | 00:00:00 | |
| DK5PH-5 | 2026-09-05 11:49:27 | 46.54823 | 7.61332 | 95° | 60km/h | 16320m | 3.2m/s | -59.6°C | 6.4% | 0hPa | 2.7V | 00:00:00 | 01:15:47 | 00:00:00 | |
| IW2NTF | 2026-09-05 11:49:23 | 46.54845 | 7.61129 | 98° | 57km/h | 16283m | 4.4m/s | -59.4°C | 6.4% | 0hPa | 2.7V | 00:00:00 | 01:15:38 | 00:00:00 | |
| DB0UT-7 | 2026-09-05 11:49:16 | 46.54850 | 7.61087 | 101° | 60km/h | 16276m | 3.8m/s | -59.3°C | 6.4% | 0hPa | 2.7V | 00:00:00 | 01:15:36 | 08:30:00 | |
| IW2NTF | 2026-09-05 11:49:12 | 46.54879 | 7.60911 | 101° | 66km/h | 16241m | 4m/s | -59.4°C | 6.5% | 0hPa | 2.7V | 00:00:00 | 01:15:28 | 00:00:00 | |
| IW2NTF | 2026-09-05 11:49:02 | 46.54922 | 7.60692 | 110° | 58km/h | 16195m | 3.8m/s | -59.4°C | 6.6% | 0hPa | 2.7V | 00:00:00 | 01:15:17 | 00:00:00 | |
| DK5PH-5 | 2026-09-05 11:48:57 | 46.54922 | 7.60692 | 111° | 68km/h | 16195m | 3.8m/s | -59.4°C | 6.6% | 0hPa | 2.7V | 00:00:00 | 01:15:17 | 00:00:00 | |
| DB0UT-7 | 2026-09-05 11:48:46 | 46.54986 | 7.60458 | 115° | 69km/h | 16146m | 5.7m/s | -60.0°C | 6.9% | 0hPa | 2.7V | 00:00:00 | 00:00:00 | 00:00:00 | |
| DL1ZP-14 | 2026-09-05 11:48:36 | 46.55073 | 7.60231 | 115° | 71km/h | 16098m | 4.7m/s | -60.2°C | 3.0% | -1.0hPa | 2.7V | 00:00:00 | 00:00:00 | 00:00:00 | |
| DO3MHA-11 | 2026-09-05 11:48:17 | 46.55213 | 7.59786 | 118° | 71km/h | 16015m | 5.0m/s | -60.9°C | 7.5% | 0hPa | 2.7V | 00:00:00 | 01:14:37 | 00:00:00 | |
| DB0UT-7 | 2026-09-05 11:48:16 | 46.55221 | 7.59764 | 120° | 78km/h | 16011m | 4.6m/s | -60.9°C | 7.6% | 0hPa | 2.7V | 00:00:00 | 01:14:36 | 00:00:00 | |
| DK5PH-5 | 2026-09-05 11:48:11 | 46.55264 | 7.59649 | 119° | 77km/h | 15990m | 5.3m/s | -61.2°C | 7.9% | 0hPa | 2.7V | 00:00:00 | 01:14:31 | 00:00:00 | |
| DO3MHA-11 | 2026-09-05 11:48:07 | 46.55301 | 7.59556 | 121° | 77km/h | 15971m | 4.3m/s | -61.2°C | 7.9% | 0hPa | 2.7V | 00:00:00 | 01:14:27 | 00:00:00 | |
| DL1ZP-14 | 2026-09-05 11:48:05 | 46.55320 | 7.59510 | 123° | 73km/h | 15961m | 4.5m/s | -61.2°C | -1.0% | -1.0hPa | 2.7V | 00:00:00 | 00:00:00 | 00:00:00 | |
| IW2NTF | 2026-09-05 11:47:59 | 46.55437 | 7.59248 | 119° | 82km/h | 15912m | 3.2m/s | -61.4°C | 7.9% | 0hPa | 2.7V | 00:00:00 | 01:14:14 | 00:00:00 | |
| DO3MHA-11 | 2026-09-05 11:47:55 | 46.55427 | 7.59274 | 121° | 88km/h | 15916m | 4.3m/s | -61.4°C | 7.9% | 0hPa | 2.7V | 00:00:00 | 01:14:15 | 00:00:00 | |
| IW2NTF | 2026-09-05 11:47:47 | 46.55577 | 7.58922 | 119° | 82km/h | 15859m | 5.3m/s | 0°C | 0% | 0hPa | 2.8V | 00:00:00 | 01:14:02 | 00:00:00 | |
| DB0UT-7 | 2026-09-05 11:47:46 | 46.55533 | 7.59028 | 121° | 89km/h | 15877m | 3.9m/s | -61.7°C | 8.4% | 0hPa | 2.7V | 00:00:00 | 00:00:00 | 00:00:00 | |
| DO3MHA-11 | 2026-09-05 11:47:45 | 46.55544 | 7.59001 | 122° | 86km/h | 15873m | 4.9m/s | -61.8°C | 8.4% | 0hPa | 2.7V | 00:00:00 | 01:14:05 | 00:00:00 | |
| DO3MHA-11 | 2026-09-05 11:47:35 | 46.55653 | 7.58730 | 119° | 93km/h | 15828m | 4.2m/s | -61.9°C | 8.4% | 0hPa | 2.7V | 00:00:00 | 01:13:55 | 00:00:00 | |
| IW2NTF | 2026-09-05 11:47:31 | 46.55708 | 7.58580 | 115° | 95km/h | 15803m | 4.3m/s | 0°C | 0% | 0hPa | 2.7V | 00:00:00 | 01:13:50 | 00:00:00 | |
| DO3MHA-11 | 2026-09-05 11:47:25 | 46.55761 | 7.58427 | 119° | 93km/h | 15781m | 4.9m/s | -62.0°C | 8.5% | 0hPa | 2.7V | 00:00:00 | 01:13:45 | 00:00:00 | |
| IW2NTF | 2026-09-05 11:47:21 | 46.55825 | 7.58248 | 114° | 91km/h | 15758m | 3.7m/s | 0°C | 0% | 0hPa | 2.7V | 00:00:00 | 01:13:39 | 00:00:00 | |
| DB0UT-7 | 2026-09-05 11:47:16 | 46.55853 | 7.58150 | 112° | 91km/h | 15745m | 3.7m/s | -62.2°C | 8.4% | 0hPa | 2.7V | 00:00:00 | 01:13:36 | 00:00:00 | |
| DO3MHA-11 | 2026-09-05 11:47:15 | 46.55862 | 7.58117 | 113° | 95km/h | 15741m | 4.8m/s | -62.3°C | 8.5% | 0hPa | 2.7V | 00:00:00 | 01:13:35 | 00:00:00 | |
| IW2NTF | 2026-09-05 11:47:12 | 46.55920 | 7.57924 | 113° | 91km/h | 15716m | 4.1m/s | 0°C | 0% | 0hPa | 2.7V | 00:00:00 | 01:13:29 | 00:00:00 | |
| DO3MHA-11 | 2026-09-05 11:47:05 | 46.55957 | 7.57800 | 112° | 91km/h | 15699m | 5.0m/s | -62.6°C | 8.5% | 0hPa | 2.8V | 00:00:00 | 01:13:25 | 00:00:00 | |
| DL1ZP-14 | 2026-09-05 11:47:03 | 46.55991 | 7.57670 | 110° | 89km/h | 15683m | 4.4m/s | -62.9°C | -1.0% | -1.0hPa | 2.8V | 00:00:00 | 00:00:00 | 00:00:00 | |
| IW2NTF | 2026-09-05 11:47:02 | 46.56007 | 7.57608 | 110° | 89km/h | 15674m | 4m/s | 0°C | 0% | 0hPa | 2.8V | 00:00:00 | 01:13:19 | 00:00:00 | |
| DO3MHA-11 | 2026-09-05 11:46:55 | 46.56040 | 7.57486 | 113° | 88km/h | 15656m | 4.0m/s | -64.0°C | 9.7% | 0hPa | 2.7V | 00:00:00 | 01:13:15 | 08:30:00 | |
| IW2NTF | 2026-09-05 11:46:51 | 46.56086 | 7.57302 | 109° | 88km/h | 15632m | 3.7m/s | 0°C | 0% | 0hPa | 2.7V | 00:00:00 | 01:13:09 | 00:00:00 | |
| DB0UT-7 | 2026-09-05 11:46:46 | 46.56107 | 7.57212 | 110° | 78km/h | 15620m | 3.7m/s | -63.9°C | 9.6% | 0hPa | 2.7V | 00:00:00 | 00:00:00 | 00:00:00 | |
| DO3MHA-11 | 2026-09-05 11:46:45 | 46.56114 | 7.57183 | 111° | 78km/h | 15616m | 5.2m/s | -63.8°C | 9.6% | 0hPa | 2.7V | 00:00:00 | 01:13:05 | 00:00:00 | |
| IW2NTF | 2026-09-05 11:46:41 | 46.56147 | 7.57016 | 102° | 75km/h | 15590m | 4.2m/s | 0°C | 0% | 0hPa | 2.7V | 00:00:00 | 01:12:59 | 00:00:00 | |
| DO3MHA-12 | 2026-09-05 11:46:38 | 46.56151 | 7.56990 | 104° | 77km/h | 15586m | 3.5m/s | -63.6°C | 9.5% | 0hPa | 2.8V | 00:00:00 | 01:12:58 | 00:00:00 | |
| DO3MHA-11 | 2026-09-05 11:46:35 | 46.56164 | 7.56907 | 104° | 78km/h | 15574m | 2.9m/s | -63.5°C | 9.6% | 0hPa | 2.8V | 00:00:00 | 01:12:55 | 00:00:00 | |
| IW2NTF | 2026-09-05 11:46:31 | 46.56204 | 7.56739 | 108° | 82km/h | 15549m | 3.5m/s | 0°C | 0% | 0hPa | 2.8V | 00:00:00 | 01:12:49 | 00:00:00 | |
| DO3MHA-11 | 2026-09-05 11:46:25 | 46.56225 | 7.56632 | 102° | 77km/h | 15533m | 4.6m/s | -63.7°C | 9.5% | 0hPa | 2.7V | 00:00:00 | 01:12:45 | 00:00:00 | |
| IW2NTF | 2026-09-05 11:46:21 | 46.56251 | 7.56471 | 108° | 78km/h | 15508m | 4.4m/s | 0°C | 0% | 0hPa | 2.7V | 00:00:00 | 01:12:39 | 00:00:00 | |
| DB0UT-7 | 2026-09-05 11:46:16 | 46.56273 | 7.56391 | 114° | 75km/h | 15496m | 4.0m/s | -63.9°C | 9.9% | 0hPa | 2.7V | 00:00:00 | 01:12:36 | 00:00:00 | |
| DO3MHA-11 | 2026-09-05 11:46:15 | 46.56280 | 7.56366 | 113° | 75km/h | 15492m | 3.0m/s | -63.9°C | 9.9% | 0hPa | 2.8V | 00:00:00 | 01:12:35 | 00:00:00 | |
| IW2NTF | 2026-09-05 11:46:11 | 46.56318 | 7.56211 | 106° | 73km/h | 15467m | 4.4m/s | 0°C | 0% | 0hPa | 2.8V | 00:00:00 | 01:12:29 | 00:00:00 | |
| DO3MHA-11 | 2026-09-05 11:46:05 | 46.56342 | 7.56106 | 111° | 78km/h | 15452m | 4.1m/s | -63.9°C | 10.1% | 0hPa | 2.8V | 00:00:00 | 01:12:25 | 00:00:00 | |
| IW2NTF | 2026-09-05 11:46:01 | 46.56383 | 7.55941 | 108° | 82km/h | 15431m | 4.1m/s | 0°C | 0% | 0hPa | 2.8V | 00:00:00 | 01:12:19 | 00:00:00 | |
| DO3MHA-11 | 2026-09-05 11:45:55 | 46.56405 | 7.55837 | 106° | 75km/h | 15415m | 3.4m/s | -64.0°C | 10.2% | 0hPa | 2.7V | 00:00:00 | 01:12:15 | 00:00:00 | |
| IW2NTF | 2026-09-05 11:45:51 | 46.56433 | 7.55684 | 109° | 73km/h | 15393m | 4.2m/s | 0°C | 0% | 0hPa | 2.7V | 00:00:00 | 01:12:09 | 00:00:00 | |
| DB0UT-7 | 2026-09-05 11:45:46 | 46.56453 | 7.55606 | 111° | 71km/h | 15381m | 4.5m/s | -64.0°C | 10.4% | 0hPa | 2.7V | 00:00:00 | 00:00:00 | 00:00:00 | |
| DO3MHA-11 | 2026-09-05 11:45:43 | 46.56473 | 7.55526 | 111° | 71km/h | 15370m | 4.7m/s | -63.9°C | 10.5% | 0hPa | 2.7V | 00:00:00 | 01:12:03 | 00:00:00 | |
| IW2NTF | 2026-09-05 11:45:41 | 46.56497 | 7.55425 | 105° | 71km/h | 15354m | 3.5m/s | 0°C | 0% | 0hPa | 2.7V | 00:00:00 | 01:11:59 | 00:00:00 | |
| IW2NTF | 2026-09-05 11:45:35 | 46.56553 | 7.55180 | 108° | 69km/h | 15314m | 4.5m/s | 0°C | 0% | 0hPa | 2.7V | 00:00:00 | 01:11:49 | 00:00:00 | |
| DO3MHA-11 | 2026-09-05 11:45:33 | 46.56529 | 7.55277 | 109° | 71km/h | 15331m | 3.5m/s | -63.7°C | 10.5% | 0hPa | 2.7V | 00:00:00 | 01:11:53 | 00:00:00 | |
| DL1ZP-14 | 2026-09-05 11:45:30 | 46.56547 | 7.55204 | 109° | 68km/h | 15318m | 3.6m/s | -63.6°C | -1.0% | -1.0hPa | 2.7V | 00:00:00 | 00:00:00 | 00:00:00 | |
| DO3MHA-11 | 2026-09-05 11:45:23 | 46.56582 | 7.55031 | 104° | 69km/h | 15291m | 3.7m/s | -63.5°C | 10.4% | 0hPa | 2.7V | 00:00:00 | 01:11:43 | 08:30:00 | |
| DB0UT-7 | 2026-09-05 11:45:17 | 46.56625 | 7.54864 | 117° | 69km/h | 15261m | 4.0m/s | -63.5°C | 10.5% | 0hPa | 2.7V | 00:00:00 | 01:11:36 | 00:00:00 | |
| DO3MHA-11 | 2026-09-05 11:45:13 | 46.56646 | 7.54792 | 108° | 69km/h | 15252m | 1.3m/s | -63.4°C | 10.4% | 0hPa | 2.7V | 00:00:00 | 01:11:33 | 00:00:00 | |
| DO3MHA-11 | 2026-09-05 11:44:53 | 46.56724 | 7.54298 | 99° | 71km/h | 15174m | 4.2m/s | -63.7°C | 10.8% | 0hPa | 2.7V | 00:00:00 | 01:11:13 | 00:00:00 | |
| DB0UT-7 | 2026-09-05 11:44:46 | 46.56752 | 7.54124 | 106° | 64km/h | 15145m | 3.7m/s | -63.6°C | 10.8% | 0hPa | 2.7V | 00:00:00 | 00:00:00 | 08:30:00 | |
| DO3MHA-11 | 2026-09-05 11:44:43 | 46.56766 | 7.54056 | 108° | 64km/h | 15131m | 4.5m/s | -63.5°C | 10.5% | 0hPa | 2.7V | 00:00:00 | 01:11:03 | 00:00:00 | |
| DO3MHA-11 | 2026-09-05 11:44:18 | 46.56917 | 7.53510 | 114° | 68km/h | 15026m | 3.7m/s | -64.1°C | 11.0% | 0hPa | 2.7V | 00:00:00 | 01:10:38 | 00:00:00 | |
| DB0UT-7 | 2026-09-05 11:44:16 | 46.56932 | 7.53467 | 118° | 71km/h | 15018m | 4.0m/s | -64.1°C | 10.8% | 0hPa | 2.7V | 00:00:00 | 01:10:36 | 00:00:00 | |
| DO3MHA-11 | 2026-09-05 11:44:08 | 46.57000 | 7.53289 | 114° | 69km/h | 14984m | 3.5m/s | -64.0°C | 11.0% | 0hPa | 2.7V | 00:00:00 | 01:10:28 | 00:00:00 | |
| DO3MHA-12 | 2026-09-05 11:44:06 | 46.57013 | 7.53242 | 113° | 71km/h | 14976m | 3.0m/s | -64.0°C | 11.1% | 0hPa | 2.7V | 00:00:00 | 01:10:26 | 00:00:00 | |
| DO3MHA-11 | 2026-09-05 11:43:58 | 46.57075 | 7.53055 | 117° | 71km/h | 14942m | 5.1m/s | -64.3°C | 11.5% | 0hPa | 2.7V | 00:00:00 | 01:10:18 | 00:00:00 | |
| DO3MHA-12 | 2026-09-05 11:43:52 | 46.57123 | 7.52913 | 115° | 78km/h | 14917m | 4.1m/s | -64.4°C | 11.5% | 0hPa | 2.7V | 00:00:00 | 01:10:12 | 08:30:00 | |
| DH7VM-15 | 2026-09-05 11:43:50 | 46.57131 | 7.52889 | 115° | 73km/h | 14913m | 3.9m/s | 0°C | 0% | 0hPa | 2.7V | 00:00:00 | 00:00:00 | 00:00:00 | |
| DO3MHA-11 | 2026-09-05 11:43:48 | 46.57153 | 7.52816 | 114° | 78km/h | 14900m | 4.4m/s | -64.5°C | 11.7% | 0hPa | 2.7V | 00:00:00 | 01:10:08 | 08:30:00 | |
| DB0UT-7 | 2026-09-05 11:43:46 | 46.57169 | 7.52765 | 116° | 80km/h | 14892m | 3.5m/s | -64.5°C | 11.9% | 0hPa | 2.7V | 00:00:00 | 00:00:00 | 00:00:00 | |
| DO3MHA-11 | 2026-09-05 11:43:38 | 46.57238 | 7.52551 | 114° | 80km/h | 14857m | 3.6m/s | -64.7°C | 12.5% | 0hPa | 2.7V | 00:00:00 | 01:09:58 | 00:00:00 | |
| DO3MHA-11 | 2026-09-05 11:43:28 | 46.57316 | 7.52280 | 115° | 78km/h | 14813m | 5.4m/s | -64.8°C | 12.5% | 0hPa | 2.7V | 00:00:00 | 01:09:48 | 00:00:00 | |
| DK5PH-5 | 2026-09-05 11:43:23 | 46.57355 | 7.52146 | 110° | 80km/h | 14790m | 5.1m/s | -64.7°C | 12.8% | 0hPa | 2.7V | 00:00:00 | 01:09:43 | 08:30:00 | |
| DO3MHA-11 | 2026-09-05 11:43:18 | 46.57386 | 7.52010 | 108° | 82km/h | 14768m | 3.8m/s | -64.6°C | 13.0% | 0hPa | 2.7V | 00:00:00 | 01:09:38 | 00:00:00 | |
| DB0UT-7 | 2026-09-05 11:43:16 | 46.57399 | 7.51953 | 110° | 80km/h | 14759m | 4.9m/s | -64.6°C | 13.0% | 0hPa | 2.7V | 00:00:00 | 01:09:36 | 00:00:00 | |
| DO3MHA-12 | 2026-09-05 11:43:11 | 46.57443 | 7.51785 | 112° | 82km/h | 14733m | 3.1m/s | -64.6°C | 12.9% | 0hPa | 2.7V | 00:00:00 | 01:09:30 | 00:00:00 | |
| DO3MHA-11 | 2026-09-05 11:43:09 | 46.57457 | 7.51728 | 109° | 80km/h | 14724m | 4.6m/s | -64.5°C | 13.1% | 0hPa | 2.7V | 00:00:00 | 01:09:28 | 00:00:00 | |
| DO3MHA-12 | 2026-09-05 11:43:00 | 46.57503 | 7.51499 | 105° | 78km/h | 14689m | 5.4m/s | -64.3°C | 13.3% | 0hPa | 2.7V | 00:00:00 | 01:09:20 | 00:00:00 | |
| DO3MHA-11 | 2026-09-05 11:42:58 | 46.57514 | 7.51443 | 106° | 78km/h | 14680m | 4.3m/s | -64.2°C | 13.4% | 0hPa | 2.7V | 00:00:00 | 01:09:18 | 00:00:00 | |
| DO3MHA-12 | 2026-09-05 11:42:50 | 46.57547 | 7.51217 | 103° | 78km/h | 14642m | 3.7m/s | -64.0°C | 14.0% | 0hPa | 2.7V | 00:00:00 | 01:09:10 | 00:00:00 | |
| DO3MHA-11 | 2026-09-05 11:42:48 | 46.57556 | 7.51161 | 105° | 78km/h | 14632m | 3.6m/s | -64.0°C | 13.9% | 0hPa | 2.7V | 00:00:00 | 01:09:08 | 00:00:00 | |
| DK5PH-5 | 2026-09-05 11:42:44 | 46.57577 | 7.51047 | 105° | 73km/h | 14615m | 4.9m/s | -63.9°C | 13.9% | 0hPa | 2.7V | 00:00:00 | 01:09:04 | 00:00:00 | |
| DO3MHA-12 | 2026-09-05 11:42:40 | 46.57595 | 7.50939 | 102° | 71km/h | 14597m | 5.2m/s | -63.8°C | 14.1% | 0hPa | 2.7V | 00:00:00 | 01:09:00 | 00:00:00 | |
| DO3MHA-11 | 2026-09-05 11:42:38 | 46.57602 | 7.50884 | 100° | 73km/h | 14589m | 4.3m/s | -63.7°C | 14.3% | 0hPa | 2.7V | 00:00:00 | 01:08:58 | 00:00:00 | |
| DO3MHA-11 | 2026-09-05 11:42:28 | 46.57633 | 7.50617 | 100° | 71km/h | 14544m | 4.9m/s | -63.7°C | 16.1% | 0hPa | 2.7V | 00:00:00 | 01:08:48 | 00:00:00 | |
| DO3MHA-12 | 2026-09-05 11:42:22 | 46.57650 | 7.50462 | 102° | 71km/h | 14518m | 4.4m/s | -63.7°C | 16.8% | 0hPa | 2.7V | 00:00:00 | 01:08:42 | 00:00:00 | |
| DO3MHA-11 | 2026-09-05 11:42:19 | 46.57662 | 7.50360 | 100° | 66km/h | 14500m | 3.9m/s | -63.6°C | 17.3% | 0hPa | 2.7V | 00:00:00 | 01:08:38 | 08:30:00 | |
| DB0UT-7 | 2026-09-05 11:42:16 | 46.57667 | 7.50311 | 95° | 64km/h | 14490m | 5.0m/s | -63.5°C | 17.4% | 0hPa | 2.7V | 00:00:00 | 01:08:36 | 00:00:00 | |
| DK5PH-5 | 2026-09-05 11:42:14 | 46.57669 | 7.50262 | 95° | 64km/h | 14481m | 5.1m/s | 0°C | 0% | 0hPa | 2.7V | 00:00:00 | 01:08:34 | 00:00:00 | |
| DO3MHA-11 | 2026-09-05 11:42:08 | 46.57683 | 7.50121 | 102° | 64km/h | 14455m | 5.2m/s | -63.3°C | 18.9% | 0hPa | 2.7V | 00:00:00 | 01:08:28 | 00:00:00 | |
| DO3MHA-11 | 2026-09-05 11:41:58 | 46.57714 | 7.49892 | 100° | 62km/h | 14408m | 3.9m/s | -63.2°C | 21.4% | 0hPa | 2.7V | 00:00:00 | 01:08:18 | 00:00:00 | |
| DO3MHA-11 | 2026-09-05 11:41:48 | 46.57753 | 7.49668 | 106° | 55km/h | 14363m | 4.2m/s | -63.3°C | 24.7% | 0hPa | 2.7V | 00:00:00 | 01:08:08 | 00:00:00 | |
| DB0UT-7 | 2026-09-05 11:41:46 | 46.57762 | 7.49624 | 105° | 57km/h | 14355m | 5.1m/s | -63.3°C | 25.1% | 0hPa | 2.7V | 00:00:00 | 00:00:00 | 00:00:00 | |
| DK5PH-5 | 2026-09-05 11:41:44 | 46.57769 | 7.49588 | 110° | 55km/h | 14346m | 3.3m/s | 0°C | 0% | 0hPa | 2.7V | 00:00:00 | 01:08:04 | 00:00:00 | |
| DO3MHA-11 | 2026-09-05 11:41:38 | 46.57795 | 7.49477 | 105° | 57km/h | 14319m | 3.8m/s | -63.4°C | 28.6% | 0hPa | 2.7V | 00:00:00 | 01:07:58 | 00:00:00 | |
| DO3MHA-11 | 2026-09-05 11:41:28 | 46.57840 | 7.49284 | 111° | 64km/h | 14272m | 4.0m/s | -63.4°C | 30.9% | 0hPa | 2.7V | 00:00:00 | 01:07:48 | 00:00:00 | |
| DO3MHA-11 | 2026-09-05 11:41:18 | 46.57923 | 7.49082 | 123° | 46km/h | 14214m | 6.1m/s | -63.5°C | 38.0% | 0hPa | 2.7V | 00:00:00 | 01:07:38 | 00:00:00 | |
| DB0UT-7 | 2026-09-05 11:41:16 | 46.57938 | 7.49056 | 134° | 73km/h | 14204m | 3.8m/s | -63.5°C | 38.6% | 0hPa | 2.7V | 00:00:00 | 01:07:36 | 00:00:00 | |
| DK5PH-5 | 2026-09-05 11:41:14 | 46.57954 | 7.49031 | 132° | 58km/h | 14193m | 6.2m/s | 0°C | 0% | 0hPa | 2.7V | 00:00:00 | 01:07:34 | 00:00:00 | |
| DO3MHA-11 | 2026-09-05 11:41:08 | 46.57993 | 7.48947 | 117° | 84km/h | 14159m | 6.4m/s | -63.9°C | 39.5% | 0hPa | 2.7V | 00:00:00 | 01:07:28 | 00:00:00 | |
| DO3MHA-11 | 2026-09-05 11:40:58 | 46.58145 | 7.48736 | 140° | 84km/h | 14084m | 8.6m/s | -64.2°C | 41.5% | 0hPa | 2.7V | 00:00:00 | 01:07:18 | 00:00:00 | |
| DO3MHA-12 | 2026-09-05 11:40:52 | 46.58244 | 7.48634 | 147° | 95km/h | 14041m | 5.0m/s | -65.1°C | 46.9% | 0hPa | 2.7V | 00:00:00 | 01:07:12 | 00:00:00 | |
| DO3MHA-11 | 2026-09-05 11:40:48 | 46.58317 | 7.48551 | 138° | 104km/h | 14012m | 6.5m/s | -65.8°C | 49.5% | 0hPa | 2.7V | 00:00:00 | 01:07:08 | 08:30:00 | |
| DB0UT-7 | 2026-09-05 11:40:46 | 46.58351 | 7.48508 | 141° | 113km/h | 14004m | 6.0m/s | -66.0°C | 49.4% | 0hPa | 2.7V | 00:00:00 | 00:00:00 | 00:00:00 | |
| DK5PH-5 | 2026-09-05 11:40:44 | 46.58390 | 7.48464 | 145° | 117km/h | 13993m | 4.5m/s | 0°C | 0% | 0hPa | 2.7V | 00:00:00 | 01:07:04 | 00:00:00 | |
| DO3MHA-12 | 2026-09-05 11:40:42 | 46.58437 | 7.48419 | 147° | 117km/h | 13980m | 7.0m/s | -67.0°C | 52.7% | 0hPa | 2.7V | 00:00:00 | 01:07:02 | 00:00:00 | |
| DO3MHA-11 | 2026-09-05 11:40:38 | 46.58533 | 7.48322 | 143° | 119km/h | 13954m | 3.5m/s | -67.3°C | 56.0% | 0hPa | 2.7V | 00:00:00 | 01:06:58 | 00:00:00 | |
| DO3MHA-12 | 2026-09-05 11:40:32 | 46.58669 | 7.48151 | 137° | 113km/h | 13919m | 6.1m/s | -67.5°C | 57.4% | 0hPa | 2.7V | 00:00:00 | 01:06:52 | 00:00:00 | |
| DO3MHA-11 | 2026-09-05 11:40:28 | 46.58759 | 7.48030 | 137° | 111km/h | 13894m | 5.2m/s | -67.5°C | 58.4% | 0hPa | 2.7V | 00:00:00 | 01:06:48 | 00:00:00 | |
| DO3MHA-12 | 2026-09-05 11:40:19 | 46.58935 | 7.47763 | 133° | 113km/h | 13842m | 7.7m/s | -67.5°C | 60.6% | 0hPa | 2.7V | 00:00:00 | 01:06:39 | 08:30:00 | |
| DO3MHA-11 | 2026-09-05 11:40:18 | 46.58955 | 7.47732 | 133° | 113km/h | 13836m | 3.1m/s | -67.4°C | 61.2% | 0hPa | 2.7V | 00:00:00 | 01:06:38 | 00:00:00 | |
| DB0UT-7 | 2026-09-05 11:40:16 | 46.58994 | 7.47666 | 130° | 113km/h | 13826m | 3.9m/s | -67.4°C | 61.6% | 0hPa | 2.7V | 00:00:00 | 01:06:36 | 08:30:00 | |
| DK5PH-5 | 2026-09-05 11:40:14 | 46.59030 | 7.47601 | 127° | 111km/h | 13813m | 5.7m/s | 0°C | 0% | 0hPa | 2.7V | 00:00:00 | 01:06:34 | 00:00:00 | |
| DO3MHA-12 | 2026-09-05 11:40:09 | 46.59111 | 7.47437 | 128° | 115km/h | 13782m | 5.8m/s | -67.3°C | 61.2% | 0hPa | 2.7V | 00:00:00 | 01:06:29 | 00:00:00 | |
| DO3MHA-11 | 2026-09-05 11:40:08 | 46.59128 | 7.47404 | 129° | 117km/h | 13778m | 2.7m/s | -67.2°C | 61.7% | 0hPa | 2.7V | 00:00:00 | 01:06:28 | 00:00:00 | |
| DO3MHA-11 | 2026-09-05 11:39:58 | 46.59311 | 7.47069 | 128° | 110km/h | 13726m | 3.4m/s | -67.0°C | 63.8% | 0hPa | 2.7V | 00:00:00 | 01:06:18 | 00:00:00 | |
| DO3MHA-11 | 2026-09-05 11:39:48 | 46.59469 | 7.46736 | 123° | 110km/h | 13671m | 2.7m/s | -66.8°C | 63.4% | 0hPa | 2.7V | 00:00:00 | 01:06:08 | 00:00:00 | |
| DB0UT-7 | 2026-09-05 11:39:46 | 46.59499 | 7.46668 | 125° | 102km/h | 13661m | 4.0m/s | -66.8°C | 63.6% | 0hPa | 2.7V | 00:00:00 | 00:00:00 | 00:00:00 | |
| DK5PH-5 | 2026-09-05 11:39:44 | 46.59531 | 7.46603 | 127° | 104km/h | 13648m | 4.1m/s | 0°C | 0% | 0hPa | 2.7V | 00:00:00 | 01:06:04 | 00:00:00 | |
| DO3MHA-11 | 2026-09-05 11:39:38 | 46.59634 | 7.46417 | 130° | 100km/h | 13614m | 5.3m/s | -66.8°C | 65.6% | 0hPa | 2.7V | 00:00:00 | 01:05:58 | 00:00:00 | |
| DO3MHA-11 | 2026-09-05 11:39:28 | 46.59783 | 7.46123 | 127° | 99km/h | 13556m | 7.6m/s | -66.4°C | 67.2% | 0hPa | 2.7V | 00:00:00 | 01:05:48 | 00:00:00 | |
| DO3MHA-11 | 2026-09-05 11:39:18 | 46.59931 | 7.45827 | 132° | 93km/h | 13499m | 7.1m/s | -66.1°C | 66.2% | 0hPa | 2.7V | 00:00:00 | 01:05:38 | 08:30:00 | |
| DB0UT-7 | 2026-09-05 11:39:16 | 46.59965 | 7.45772 | 132° | 95km/h | 13488m | 6.9m/s | -66.1°C | 66.4% | 0hPa | 2.7V | 00:00:00 | 01:05:36 | 00:00:00 | |
| DK5PH-5 | 2026-09-05 11:39:14 | 46.59994 | 7.45718 | 126° | 97km/h | 13476m | 3.4m/s | 0°C | 0% | 0hPa | 2.7V | 00:00:00 | 01:05:34 | 00:00:00 | |
| DO3MHA-11 | 2026-09-05 11:39:08 | 46.60070 | 7.45553 | 127° | 97km/h | 13445m | 5.6m/s | -65.7°C | 66.4% | 0hPa | 2.7V | 00:00:00 | 01:05:28 | 00:00:00 | |
| DO3MHA-11 | 2026-09-05 11:38:58 | 46.60227 | 7.45280 | 125° | 95km/h | 13392m | 5.1m/s | -65.3°C | 65.1% | 0hPa | 2.7V | 00:00:00 | 01:05:18 | 00:00:00 | |
| DO3MHA-12 | 2026-09-05 11:38:57 | 46.60241 | 7.45251 | 125° | 99km/h | 13387m | 3.5m/s | -65.3°C | 65.0% | 0hPa | 2.7V | 00:00:00 | 01:05:17 | 00:00:00 | |
| DO3MHA-11 | 2026-09-05 11:38:48 | 46.60375 | 7.45005 | 132° | 100km/h | 13334m | 8.0m/s | -64.9°C | 66.1% | 0hPa | 2.7V | 00:00:00 | 01:05:08 | 00:00:00 | |
| DB0UT-7 | 2026-09-05 11:38:46 | 46.60409 | 7.44950 | 131° | 100km/h | 13323m | 3.2m/s | -64.7°C | 67.4% | 0hPa | 2.7V | 00:00:00 | 00:00:00 | 00:00:00 | |
| DO3MHA-12 | 2026-09-05 11:38:43 | 46.60459 | 7.44868 | 132° | 104km/h | 13308m | 7.8m/s | -64.7°C | 65.5% | 0hPa | 2.7V | 00:00:00 | 01:05:03 | 00:00:00 | |
| DK5PH-5 | 2026-09-05 11:38:40 | 46.60511 | 7.44790 | 136° | 104km/h | 13291m | 6.5m/s | 0°C | 0% | 0hPa | 2.9V | 00:00:00 | 01:05:00 | 00:00:00 | |
| DO3MHA-11 | 2026-09-05 11:38:38 | 46.60549 | 7.44737 | 137° | 102km/h | 13280m | 7.0m/s | -64.5°C | 62.0% | 0hPa | 2.9V | 00:00:00 | 01:04:58 | 00:00:00 | |
| DO3MHA-11 | 2026-09-05 11:38:28 | 46.60729 | 7.44468 | 138° | 99km/h | 13222m | 8.3m/s | -64.1°C | 65.2% | 0hPa | 2.9V | 00:00:00 | 01:04:48 | 00:00:00 | |
| DO3MHA-11 | 2026-09-05 11:38:18 | 46.60906 | 7.44210 | 136° | 97km/h | 13170m | 4.8m/s | -63.7°C | 66.1% | 0hPa | 2.9V | 00:00:00 | 01:04:38 | 00:00:00 | |
| DB0UT-7 | 2026-09-05 11:38:16 | 46.60943 | 7.44158 | 137° | 99km/h | 13159m | 6.4m/s | -63.7°C | 67.4% | 0hPa | 2.7V | 00:00:00 | 01:04:36 | 00:00:00 | |
| DO3MHA-11 | 2026-09-05 11:38:05 | 46.61136 | 7.43882 | 135° | 102km/h | 13099m | 4.1m/s | -63.0°C | 66.9% | 0hPa | 2.7V | 00:00:00 | 01:04:25 | 00:00:00 | |
| DO3MHA-11 | 2026-09-05 11:37:52 | 46.61374 | 7.43537 | 136° | 97km/h | 13024m | 8.9m/s | -62.5°C | 65.1% | 0hPa | 2.7V | 00:00:00 | 01:04:12 | 00:00:00 | |
| DB0UT-7 | 2026-09-05 11:37:46 | 46.61476 | 7.43388 | 132° | 99km/h | 12989m | 4.9m/s | -62.1°C | 66.2% | 0hPa | 2.7V | 00:00:00 | 00:00:00 | 00:00:00 | |
| DO3MHA-11 | 2026-09-05 11:37:42 | 46.61545 | 7.43278 | 133° | 99km/h | 12964m | 4.5m/s | -62.0°C | 68.1% | 0hPa | 2.7V | 00:00:00 | 01:04:02 | 08:30:00 | |
| DO3MHA-11 | 2026-09-05 11:37:32 | 46.61721 | 7.43022 | 134° | 95km/h | 12910m | 7.6m/s | -61.6°C | 65.7% | 0hPa | 2.7V | 00:00:00 | 01:03:52 | 00:00:00 | |
| DO3MHA-12 | 2026-09-05 11:37:26 | 46.61814 | 7.42864 | 132° | 97km/h | 12875m | 8.1m/s | -61.2°C | 67.7% | 0hPa | 2.7V | 00:00:00 | 01:03:46 | 00:00:00 | |
| DO3MHA-11 | 2026-09-05 11:37:22 | 46.61881 | 7.42761 | 135° | 100km/h | 12851m | 3.9m/s | -61.0°C | 67.9% | 0hPa | 2.7V | 00:00:00 | 01:03:42 | 00:00:00 | |
| DB0UT-7 | 2026-09-05 11:37:16 | 46.61984 | 7.42597 | 129° | 100km/h | 12817m | 6.2m/s | -60.7°C | 66.1% | 0hPa | 2.7V | 00:00:00 | 01:03:36 | 00:00:00 | |
| DO3MHA-11 | 2026-09-05 11:37:12 | 46.62050 | 7.42489 | 137° | 100km/h | 12797m | 4.4m/s | -60.6°C | 67.3% | 0hPa | 2.9V | 00:00:00 | 01:03:32 | 00:00:00 | |
| DO3MHA-12 | 2026-09-05 11:37:11 | 46.62068 | 7.42465 | 138° | 102km/h | 12793m | 4.7m/s | -60.6°C | 67.3% | 0hPa | 2.7V | 00:00:00 | 01:03:31 | 00:00:00 | |
| DO3MHA-11 | 2026-09-05 11:37:02 | 46.62236 | 7.42234 | 139° | 99km/h | 12745m | 2.9m/s | -60.2°C | 69.4% | 0hPa | 2.7V | 00:00:00 | 01:03:22 | 00:00:00 | |
| DO3MHA-12 | 2026-09-05 11:37:01 | 46.62256 | 7.42209 | 139° | 97km/h | 12740m | 6.0m/s | -60.2°C | 71.1% | 0hPa | 2.7V | 00:00:00 | 01:03:21 | 00:00:00 | |
| DO3MHA-11 | 2026-09-05 11:36:52 | 46.62414 | 7.41986 | 135° | 99km/h | 12696m | 7.8m/s | -59.9°C | 66.3% | 0hPa | 2.7V | 00:00:00 | 01:03:12 | 00:00:00 | |
| DO3MHA-12 | 2026-09-05 11:36:51 | 46.62432 | 7.41959 | 134° | 97km/h | 12688m | 7.9m/s | -59.8°C | 66.7% | 0hPa | 2.7V | 00:00:00 | 01:03:11 | 00:00:00 | |
| DB0UT-7 | 2026-09-05 11:36:46 | 46.62523 | 7.41826 | 136° | 95km/h | 12658m | 7.8m/s | -59.4°C | 66.3% | 0hPa | 2.7V | 00:00:00 | 00:00:00 | 00:00:00 | |
| DO3MHA-11 | 2026-09-05 11:36:42 | 46.62587 | 7.41730 | 135° | 95km/h | 12635m | 5.4m/s | -59.2°C | 67.2% | 0hPa | 2.7V | 00:00:00 | 01:03:02 | 00:00:00 | |
| DO3MHA-12 | 2026-09-05 11:36:41 | 46.62603 | 7.41707 | 134° | 95km/h | 12631m | 3.5m/s | -59.1°C | 67.2% | 0hPa | 2.9V | 00:00:00 | 01:03:01 | 00:00:00 | |
| DO3MHA-11 | 2026-09-05 11:36:32 | 46.62752 | 7.41469 | 131° | 95km/h | 12581m | 8.8m/s | -59.0°C | 67.0% | 0hPa | 2.9V | 00:00:00 | 01:02:52 | 00:00:00 | |
| DO3MHA-12 | 2026-09-05 11:36:31 | 46.62768 | 7.41442 | 132° | 93km/h | 12574m | 4.7m/s | -58.9°C | 66.7% | 0hPa | 2.9V | 00:00:00 | 01:02:51 | 08:30:00 | |
| DO3MHA-11 | 2026-09-05 11:36:22 | 46.62912 | 7.41211 | 132° | 97km/h | 12518m | 8.7m/s | -58.4°C | 65.1% | 0hPa | 2.9V | 00:00:00 | 01:02:42 | 00:00:00 | |
| DB0UT-7 | 2026-09-05 11:36:16 | 46.63011 | 7.41050 | 135° | 95km/h | 12484m | 5.3m/s | -58.2°C | 64.3% | 0hPa | 2.9V | 00:00:00 | 01:02:36 | 00:00:00 | |
| DO3MHA-12 | 2026-09-05 11:36:12 | 46.63077 | 7.40952 | 134° | 99km/h | 12464m | 7.2m/s | -58.0°C | 64.7% | 0hPa | 2.9V | 00:00:00 | 01:02:32 | 00:00:00 | |
| DO3MHA-11 | 2026-09-05 11:36:02 | 46.63253 | 7.40685 | 137° | 95km/h | 12403m | 3.8m/s | -57.5°C | 64.1% | 0hPa | 2.9V | 00:00:00 | 01:02:22 | 00:00:00 | |
| DO3MHA-12 | 2026-09-05 11:36:01 | 46.63269 | 7.40662 | 138° | 95km/h | 12397m | 8.3m/s | -57.5°C | 63.4% | 0hPa | 2.9V | 00:00:00 | 01:02:21 | 00:00:00 | |
| DO3MHA-11 | 2026-09-05 11:35:52 | 46.63418 | 7.40435 | 135° | 93km/h | 12342m | 7.5m/s | -57.0°C | 65.8% | 0hPa | 2.9V | 00:00:00 | 01:02:12 | 00:00:00 | |
| DO3MHA-12 | 2026-09-05 11:35:51 | 46.63436 | 7.40410 | 137° | 93km/h | 12337m | 3.1m/s | -56.9°C | 65.5% | 0hPa | 2.9V | 00:00:00 | 01:02:11 | 00:00:00 | |
| DB0UT-7 | 2026-09-05 11:35:46 | 46.63516 | 7.40290 | 130° | 93km/h | 12310m | 3.8m/s | -56.7°C | 64.5% | 0hPa | 2.9V | 00:00:00 | 00:00:00 | 08:30:00 | |
| DO3MHA-11 | 2026-09-05 11:35:42 | 46.63577 | 7.40185 | 132° | 93km/h | 12290m | 6.2m/s | -56.7°C | 65.3% | 0hPa | 2.7V | 00:00:00 | 01:02:02 | 00:00:00 | |
| DO3MHA-12 | 2026-09-05 11:35:41 | 46.63593 | 7.40160 | 134° | 93km/h | 12284m | 4.8m/s | -56.6°C | 65.5% | 0hPa | 2.9V | 00:00:00 | 01:02:01 | 00:00:00 | |
| DO3MHA-11 | 2026-09-05 11:35:32 | 46.63737 | 7.39936 | 133° | 95km/h | 12228m | 4.9m/s | -56.2°C | 63.2% | 0hPa | 2.9V | 00:00:00 | 01:01:52 | 00:00:00 | |
| DO3MHA-12 | 2026-09-05 11:35:31 | 46.63753 | 7.39910 | 131° | 93km/h | 12221m | 9.7m/s | -56.2°C | 63.0% | 0hPa | 2.9V | 00:00:00 | 01:01:51 | 00:00:00 | |
| DO3MHA-11 | 2026-09-05 11:35:22 | 46.63888 | 7.39668 | 130° | 95km/h | 12163m | 3.5m/s | -55.8°C | 59.8% | 0hPa | 2.9V | 00:00:00 | 01:01:42 | 00:00:00 | |
| DO3MHA-12 | 2026-09-05 11:35:21 | 46.63902 | 7.39643 | 130° | 95km/h | 12158m | 7.2m/s | -55.7°C | 59.2% | 0hPa | 2.9V | 00:00:00 | 01:01:41 | 00:00:00 | |
| DB0UT-7 | 2026-09-05 11:35:16 | 46.63980 | 7.39516 | 134° | 93km/h | 12132m | 6.2m/s | -55.5°C | 58.7% | 0hPa | 2.9V | 00:00:00 | 01:01:36 | 00:00:00 | |
| DO3MHA-11 | 2026-09-05 11:35:12 | 46.64051 | 7.39410 | 134° | 88km/h | 12110m | 5.2m/s | -55.3°C | 60.3% | 0hPa | 2.9V | 00:00:00 | 01:01:32 | 00:00:00 | |
| DO3MHA-12 | 2026-09-05 11:35:11 | 46.64068 | 7.39385 | 133° | 88km/h | 12105m | 3.6m/s | -55.3°C | 59.8% | 0hPa | 2.9V | 00:00:00 | 01:01:31 | 00:00:00 | |
| DO3MHA-11 | 2026-09-05 11:35:02 | 46.64194 | 7.39160 | 129° | 100km/h | 12057m | 4.0m/s | -55.0°C | 53.8% | 0hPa | 2.9V | 00:00:00 | 01:01:22 | 00:00:00 | |
| DB0ND-19 | 2026-09-05 11:34:59 | 46.64319 | 7.38972 | 137° | 97km/h | 12016m | 7.6m/s | 0°C | -1.0% | -1.0hPa | 2.9V | 00:00:00 | 00:00:00 | 00:00:00 | |
| DO3MHA-11 | 2026-09-05 11:34:52 | 46.64370 | 7.38899 | 134° | 89km/h | 11999m | 5.6m/s | -54.5°C | 52.9% | 0hPa | 2.9V | 00:00:00 | 01:01:12 | 00:00:00 | |
| DO3MHA-12 | 2026-09-05 11:34:51 | 46.64386 | 7.38875 | 134° | 89km/h | 11994m | 3.8m/s | -54.5°C | 52.6% | 0hPa | 2.9V | 00:00:00 | 01:01:11 | 08:30:00 | |
| DB0UT-7 | 2026-09-05 11:34:46 | 46.64460 | 7.38758 | 130° | 95km/h | 11964m | 4.2m/s | 0°C | 0% | 0hPa | 2.7V | 00:00:00 | 00:00:00 | 00:00:00 | |
| DO3MHA-11 | 2026-09-05 11:34:42 | 46.64520 | 7.38652 | 130° | 99km/h | 11940m | 8.2m/s | -54.1°C | 52.2% | 0hPa | 2.7V | 00:00:00 | 01:01:02 | 08:30:00 | |
| DO3MHA-12 | 2026-09-05 11:34:41 | 46.64536 | 7.38625 | 131° | 97km/h | 11933m | 6.8m/s | -54.0°C | 51.8% | 0hPa | 2.7V | 00:00:00 | 01:01:01 | 00:00:00 | |
| DO3MHA-11 | 2026-09-05 11:34:32 | 46.64696 | 7.38400 | 140° | 91km/h | 11880m | 7.5m/s | -53.6°C | 51.5% | 0hPa | 2.7V | 00:00:00 | 01:00:52 | 00:00:00 | |
| DO3MHA-12 | 2026-09-05 11:34:31 | 46.64714 | 7.38379 | 140° | 91km/h | 11873m | 5.6m/s | -53.5°C | 51.2% | 0hPa | 2.7V | 00:00:00 | 01:00:51 | 00:00:00 | |
| DB0ND-19 | 2026-09-05 11:34:29 | 46.64762 | 7.38312 | 134° | 88km/h | 11857m | 4.2m/s | 0°C | -1.0% | -1.0hPa | 2.7V | 00:00:00 | 00:00:00 | 00:00:00 | |
| DO3MHA-11 | 2026-09-05 11:34:22 | 46.64861 | 7.38164 | 138° | 91km/h | 11821m | 7.2m/s | -53.2°C | 52.1% | 0hPa | 2.7V | 00:00:00 | 01:00:42 | 00:00:00 | |
| DO3MHA-12 | 2026-09-05 11:34:21 | 46.64879 | 7.38140 | 139° | 91km/h | 11815m | 6.3m/s | -53.2°C | 51.5% | 0hPa | 2.7V | 00:00:00 | 01:00:41 | 00:00:00 | |
| DB0UT-7 | 2026-09-05 11:34:16 | 46.64970 | 7.38030 | 139° | 93km/h | 11787m | 6.6m/s | -52.9°C | 50.9% | 0hPa | 2.7V | 00:00:00 | 01:00:36 | 00:00:00 | |
| DO3MHA-11 | 2026-09-05 11:34:12 | 46.65029 | 7.37938 | 131° | 95km/h | 11767m | 4.1m/s | -52.7°C | 50.0% | 0hPa | 2.9V | 00:00:00 | 01:00:32 | 00:00:00 | |
| DO3MHA-12 | 2026-09-05 11:34:11 | 46.65045 | 7.37912 | 132° | 93km/h | 11761m | 7.7m/s | -52.7°C | 49.9% | 0hPa | 2.9V | 00:00:00 | 01:00:31 | 00:00:00 | |
| DO3MHA-11 | 2026-09-05 11:34:02 | 46.65196 | 7.37693 | 138° | 93km/h | 11712m | 7.2m/s | -52.3°C | 48.2% | 0hPa | 2.9V | 00:00:00 | 01:00:22 | 00:00:00 | |
| DO3MHA-12 | 2026-09-05 11:34:01 | 46.65211 | 7.37673 | 137° | 95km/h | 11706m | 4.0m/s | -52.2°C | 48.1% | 0hPa | 2.9V | 00:00:00 | 01:00:21 | 00:00:00 | |
| DO3MHA-11 | 2026-09-05 11:33:52 | 46.65357 | 7.37439 | 133° | 89km/h | 11655m | 9.6m/s | -51.8°C | 43.9% | 0hPa | 2.9V | 00:00:00 | 01:00:12 | 00:00:00 | |
| DO3MHA-12 | 2026-09-05 11:33:51 | 46.65374 | 7.37412 | 133° | 89km/h | 11647m | 5.6m/s | -51.7°C | 43.6% | 0hPa | 2.9V | 00:00:00 | 01:00:11 | 00:00:00 | |
| DB0UT-7 | 2026-09-05 11:33:46 | 46.65456 | 7.37294 | 138° | 86km/h | 11617m | 6.7m/s | -51.4°C | 44.0% | 0hPa | 2.7V | 00:00:00 | 00:00:00 | 00:00:00 | |
| DO3MHA-11 | 2026-09-05 11:33:42 | 46.65517 | 7.37207 | 133° | 88km/h | 11595m | 7.3m/s | -51.2°C | 44.7% | 0hPa | 2.7V | 00:00:00 | 01:00:02 | 00:00:00 | |
| DO3MHA-12 | 2026-09-05 11:33:41 | 46.65532 | 7.37183 | 134° | 88km/h | 11588m | 6.6m/s | -51.2°C | 44.5% | 0hPa | 2.9V | 00:00:00 | 01:00:01 | 00:00:00 | |
| DO3MHA-11 | 2026-09-05 11:33:32 | 46.65663 | 7.36967 | 135° | 89km/h | 11540m | 4.8m/s | -50.7°C | 41.6% | 0hPa | 2.9V | 00:00:00 | 00:59:52 | 00:00:00 | |
| DO3MHA-12 | 2026-09-05 11:33:31 | 46.65680 | 7.36943 | 138° | 89km/h | 11536m | 4.3m/s | -50.7°C | 41.2% | 0hPa | 2.9V | 00:00:00 | 00:59:51 | 00:00:00 | |
| DO3MHA-11 | 2026-09-05 11:33:22 | 46.65832 | 7.36748 | 134° | 86km/h | 11489m | 4.4m/s | -50.3°C | 41.7% | 0hPa | 2.9V | 00:00:00 | 00:59:42 | 00:00:00 | |
| DO3MHA-12 | 2026-09-05 11:33:21 | 46.65845 | 7.36727 | 132° | 88km/h | 11484m | 5.5m/s | -50.3°C | 41.2% | 0hPa | 2.9V | 00:00:00 | 00:59:41 | 08:30:00 | |
| DB0UT-7 | 2026-09-05 11:33:16 | 46.65921 | 7.36620 | 142° | 91km/h | 11455m | 8.4m/s | -50.0°C | 40.0% | 0hPa | 2.7V | 00:00:00 | 00:59:36 | 00:00:00 | |
| DO3MHA-11 | 2026-09-05 11:33:12 | 46.65993 | 7.36533 | 138° | 95km/h | 11432m | 4.6m/s | -49.8°C | 40.0% | 0hPa | 2.7V | 00:00:00 | 00:59:32 | 08:30:00 | |
| DO3MHA-12 | 2026-09-05 11:33:11 | 46.66011 | 7.36509 | 137° | 95km/h | 11426m | 7.6m/s | 0°C | 0% | 0hPa | 2.9V | 00:00:00 | 00:59:31 | 00:00:00 | |
| DO3MHA-11 | 2026-09-05 11:33:02 | 46.66154 | 7.36275 | 139° | 89km/h | 11379m | 4.0m/s | -49.2°C | 38.0% | 0hPa | 2.9V | 00:00:00 | 00:59:22 | 00:00:00 | |
| DO3MHA-12 | 2026-09-05 11:33:01 | 46.66172 | 7.36252 | 140° | 88km/h | 11375m | 5.7m/s | 0°C | 0% | 0hPa | 2.9V | 00:00:00 | 00:59:21 | 00:00:00 | |
| DO3MHA-11 | 2026-09-05 11:32:52 | 46.66308 | 7.36037 | 128° | 86km/h | 11324m | 5.4m/s | -48.8°C | 38.8% | 0hPa | 2.9V | 00:00:00 | 00:59:12 | 00:00:00 | |
| DO3MHA-12 | 2026-09-05 11:32:51 | 46.66321 | 7.36012 | 127° | 86km/h | 11319m | 5.6m/s | 0°C | 0% | 0hPa | 2.9V | 00:00:00 | 00:59:11 | 00:00:00 | |
| DB0UT-7 | 2026-09-05 11:32:46 | 46.66395 | 7.35897 | 139° | 88km/h | 11296m | 6.9m/s | -48.6°C | 41.2% | 0hPa | 2.9V | 00:00:00 | 00:00:00 | 00:00:00 | |
| DO3MHA-11 | 2026-09-05 11:32:42 | 46.66457 | 7.35811 | 134° | 86km/h | 11275m | 6.0m/s | -48.5°C | 41.0% | 0hPa | 2.7V | 00:00:00 | 00:59:02 | 00:00:00 | |
| DO3MHA-12 | 2026-09-05 11:32:41 | 46.66470 | 7.35790 | 133° | 91km/h | 11271m | 3.7m/s | 0°C | 0% | 0hPa | 2.7V | 00:00:00 | 00:59:01 | 00:00:00 | |
| DO3MHA-11 | 2026-09-05 11:32:32 | 46.66606 | 7.35580 | 136° | 91km/h | 11220m | 7.3m/s | -48.1°C | 43.0% | 0hPa | 2.7V | 00:00:00 | 00:58:52 | 00:00:00 | |
| DO3MHA-11 | 2026-09-05 11:32:22 | 46.66761 | 7.35332 | 139° | 91km/h | 11165m | 4.9m/s | -47.6°C | 40.3% | 0hPa | 2.7V | 00:00:00 | 00:58:42 | 00:00:00 | |
| DB0UT-7 | 2026-09-05 11:32:16 | 46.66860 | 7.35197 | 132° | 93km/h | 11133m | 3.1m/s | -47.2°C | 41.7% | 0hPa | 2.7V | 00:00:00 | 00:58:36 | 00:00:00 | |
| DO3MHA-11 | 2026-09-05 11:32:12 | 46.66923 | 7.35092 | 132° | 91km/h | 11112m | 7.7m/s | -47.1°C | 40.8% | 0hPa | 2.7V | 00:00:00 | 00:58:32 | 00:00:00 | |
| DO3MHA-12 | 2026-09-05 11:32:05 | 46.67027 | 7.34918 | 130° | 95km/h | 11071m | 5.0m/s | 0°C | 0% | 0hPa | 2.9V | 00:00:00 | 00:58:25 | 00:00:00 | |
| DO3MHA-11 | 2026-09-05 11:32:02 | 46.67069 | 7.34835 | 125° | 91km/h | 11054m | 5.0m/s | -46.6°C | 42.0% | 0hPa | 2.9V | 00:00:00 | 00:58:22 | 00:00:00 | |
| DO3MHA-11 | 2026-09-05 11:31:52 | 46.67220 | 7.34579 | 135° | 95km/h | 11000m | 6.8m/s | -46.2°C | 43.9% | 0hPa | 2.9V | 00:00:00 | 00:58:12 | 00:00:00 | |
| DB0UT-7 | 2026-09-05 11:31:46 | 46.67319 | 7.34421 | 127° | 91km/h | 10966m | 7.1m/s | -46.0°C | 46.2% | 0hPa | 2.9V | 00:00:00 | 00:00:00 | 00:00:00 | |
| DO3MHA-11 | 2026-09-05 11:31:42 | 46.67373 | 7.34313 | 128° | 86km/h | 10944m | 3.0m/s | -45.8°C | 47.6% | 0hPa | 2.9V | 00:00:00 | 00:58:02 | 08:30:00 | |
| DO3MHA-11 | 2026-09-05 11:31:32 | 46.67514 | 7.34071 | 135° | 89km/h | 10891m | 4.6m/s | -45.4°C | 50.1% | 0hPa | 2.9V | 00:00:00 | 00:57:52 | 00:00:00 | |
| DO3MHA-11 | 2026-09-05 11:31:22 | 46.67658 | 7.33814 | 127° | 93km/h | 10834m | 3.9m/s | -45.0°C | 48.0% | 0hPa | 2.9V | 00:00:00 | 00:57:42 | 00:00:00 | |
| DO3MHA-12 | 2026-09-05 11:31:18 | 46.67724 | 7.33694 | 133° | 93km/h | 10812m | 3.6m/s | 0°C | 0% | 0hPa | 2.9V | 00:00:00 | 00:57:38 | 00:00:00 | |
| DB0UT-7 | 2026-09-05 11:31:16 | 46.67755 | 7.33645 | 131° | 91km/h | 10802m | 4.3m/s | -44.7°C | 48.2% | 0hPa | 2.9V | 00:00:00 | 00:57:36 | 08:30:00 | |
| DH7VM-15 | 2026-09-05 11:31:15 | 46.67755 | 7.33645 | 131° | 84km/h | 10802m | 4.3m/s | 0°C | 0% | 0hPa | 2.9V | 00:00:00 | 00:00:00 | 00:00:00 | |
| DO3MHA-11 | 2026-09-05 11:31:12 | 46.67805 | 7.33540 | 122° | 100km/h | 10782m | 6.0m/s | -44.5°C | 46.4% | 0hPa | 2.9V | 00:00:00 | 00:57:32 | 00:00:00 | |
| DO3MHA-12 | 2026-09-05 11:31:08 | 46.67862 | 7.33414 | 128° | 97km/h | 10759m | 6.0m/s | 0°C | 0% | 0hPa | 2.9V | 00:00:00 | 00:57:28 | 00:00:00 | |
| DO3MHA-11 | 2026-09-05 11:31:02 | 46.67959 | 7.33248 | 130° | 86km/h | 10727m | 4.9m/s | -44.1°C | 47.4% | 0hPa | 2.9V | 00:00:00 | 00:57:22 | 00:00:00 | |
| DB0ND-19 | 2026-09-05 11:30:51 | 46.68109 | 7.32934 | 126° | 91km/h | 10663m | 7.7m/s | -43.6°C | -1.0% | -1.0hPa | 2.9V | 00:00:00 | 00:00:00 | 00:00:00 | |
| DO3MHA-12 | 2026-09-05 11:30:48 | 46.68136 | 7.32881 | 126° | 88km/h | 10652m | 3.0m/s | 0°C | 0% | 0hPa | 2.9V | 00:00:00 | 00:57:08 | 00:00:00 | |
| DB0UT-7 | 2026-09-05 11:30:46 | 46.68160 | 7.32827 | 123° | 93km/h | 10641m | 4.8m/s | -43.3°C | 50.0% | 0hPa | 2.9V | 00:00:00 | 00:00:00 | 00:00:00 | |
| DO3MHA-11 | 2026-09-05 11:30:42 | 46.68212 | 7.32712 | 124° | 97km/h | 10619m | 5.8m/s | 0°C | 0% | 0hPa | 2.9V | 00:00:00 | 00:57:02 | 00:00:00 | |
| DO3MHA-11 | 2026-09-05 11:30:32 | 46.68348 | 7.32418 | 126° | 88km/h | 10566m | 6.6m/s | 0°C | 0% | 0hPa | 2.9V | 00:00:00 | 00:56:52 | 00:00:00 | |
| DO3MHA-11 | 2026-09-05 11:30:22 | 46.68487 | 7.32167 | 122° | 95km/h | 10510m | 4.1m/s | 0°C | 0% | 0hPa | 2.9V | 00:00:00 | 00:56:42 | 00:00:00 | |
| DB0UT-7 | 2026-09-05 11:30:18 | 46.68568 | 7.31994 | 128° | 93km/h | 10476m | 4.1m/s | -41.8°C | 46.6% | 0hPa | 2.9V | 00:00:00 | 00:56:36 | 00:00:00 | |
| DO3MHA-11 | 2026-09-05 11:30:12 | 46.68631 | 7.31882 | 132° | 91km/h | 10452m | 5.9m/s | 0°C | 0% | 0hPa | 2.9V | 00:00:00 | 00:56:32 | 00:00:00 | |
| DB0UT-7 | 2026-09-05 11:29:46 | 46.69014 | 7.31184 | 132° | 95km/h | 10326m | 4.8m/s | -40.4°C | 41.2% | 0hPa | 2.9V | 00:00:00 | 00:00:00 | 00:00:00 | |
| DB0UT-7 | 2026-09-05 11:29:16 | 46.69460 | 7.30365 | 130° | 95km/h | 10177m | 6.1m/s | -38.9°C | 36.8% | 0hPa | 2.9V | 00:00:00 | 00:55:36 | 00:00:00 | |
| DB0UT-7 | 2026-09-05 11:28:46 | 46.69916 | 7.29558 | 126° | 99km/h | 10015m | 6.7m/s | -37.5°C | 33.8% | 0hPa | 2.9V | 00:00:00 | 00:00:00 | 00:00:00 | |
| DB0ND-19 | 2026-09-05 11:28:16 | 46.70406 | 7.28681 | 124° | 97km/h | 9844m | 7.3m/s | -35.9°C | 25.2% | -1.0hPa | 2.9V | 00:00:00 | 00:00:00 | 00:00:00 | |
| DB0UT-7 | 2026-09-05 11:27:46 | 46.70839 | 7.27832 | 126° | 99km/h | 9681m | 6.7m/s | -34.4°C | 26.4% | 0hPa | 2.9V | 00:00:00 | 00:00:00 | 00:00:00 | |
| DB0ND-19 | 2026-09-05 11:27:45 | 46.71282 | 7.27043 | 131° | 102km/h | 9519m | 7.6m/s | -33.0°C | 20.3% | -1.0hPa | 2.9V | 00:00:00 | 00:00:00 | 00:00:00 | |
| DB0UT-7 | 2026-09-05 11:27:16 | 46.71317 | 7.26985 | 132° | 97km/h | 9507m | 7.1m/s | -32.8°C | 22.8% | 0hPa | 2.9V | 00:00:00 | 00:53:36 | 00:00:00 | |
| DB0ND-19 | 2026-09-05 11:27:14 | 46.71462 | 7.26684 | 126° | 95km/h | 9447m | 4.0m/s | -32.3°C | 19.3% | -1.0hPa | 2.9V | 00:00:00 | 00:00:00 | 00:00:00 | |
| DB0UT-7 | 2026-09-05 11:26:46 | 46.71740 | 7.26117 | 123° | 97km/h | 9332m | 4.1m/s | -31.2°C | 21.9% | 0hPa | 2.9V | 00:00:00 | 00:00:00 | 08:30:00 | |
| DB0ND-19 | 2026-09-05 11:26:42 | 46.71790 | 7.26001 | 122° | 97km/h | 9310m | 4.8m/s | -31.1°C | 19.3% | -1.0hPa | 2.9V | 00:00:00 | 00:00:00 | 00:00:00 | |
| DB0UT-7 | 2026-09-05 11:26:16 | 46.72150 | 7.25234 | 118° | 95km/h | 9151m | 9.2m/s | -29.8°C | 24.5% | 0hPa | 2.9V | 00:00:00 | 00:52:36 | 00:00:00 | |
| DB0ND-19 | 2026-09-05 11:26:11 | 46.72199 | 7.25087 | 112° | 89km/h | 9117m | 5.0m/s | 0°C | -1.0% | -1.0hPa | 2.9V | 00:00:00 | 00:00:00 | 00:00:00 | |
| DB0UT-7 | 2026-09-05 11:25:46 | 46.72497 | 7.24317 | 122° | 97km/h | 8962m | 5.2m/s | -28.2°C | 25.6% | 0hPa | 2.9V | 00:00:00 | 00:00:00 | 00:00:00 | |
| DB0UT-7 | 2026-09-05 11:25:16 | 46.72875 | 7.23415 | 119° | 99km/h | 8775m | 5.0m/s | -26.5°C | 24.5% | 0hPa | 2.9V | 00:00:00 | 00:51:36 | 00:00:00 | |
| DB0UT-7 | 2026-09-05 11:24:46 | 46.73266 | 7.22497 | 122° | 93km/h | 8591m | 5.7m/s | -24.8°C | 23.3% | 0hPa | 2.9V | 00:00:00 | 00:00:00 | 00:00:00 | |
| DB0UT-7 | 2026-09-05 11:24:16 | 46.73660 | 7.21634 | 124° | 91km/h | 8408m | 5.2m/s | -23.7°C | 30.7% | 0hPa | 2.9V | 00:00:00 | 00:50:36 | 00:00:00 | |
| DB0ND-19 | 2026-09-05 11:24:07 | 46.74066 | 7.20871 | 124° | 89km/h | 8231m | 5.3m/s | -22.7°C | 33.0% | -1.0hPa | 2.9V | 00:00:00 | 00:00:00 | 00:00:00 | |
| DB0UT-7 | 2026-09-05 11:23:46 | 46.74079 | 7.20844 | 128° | 86km/h | 8225m | 5.1m/s | -22.6°C | 35.0% | 0hPa | 2.9V | 00:00:00 | 00:00:00 | 00:00:00 | |
| DB0ND-19 | 2026-09-05 11:23:36 | 46.74219 | 7.20590 | 124° | 78km/h | 8162m | 5.8m/s | -22.3°C | 33.2% | -1.0hPa | 3.0V | 00:00:00 | 00:00:00 | 00:00:00 | |
| DB0UT-7 | 2026-09-05 11:23:16 | 46.74471 | 7.20097 | 120° | 86km/h | 8046m | 6.1m/s | -21.4°C | 35.7% | 0hPa | 3.0V | 00:00:00 | 00:49:36 | 00:00:00 | |
| DB0ND-19 | 2026-09-05 11:23:05 | 46.74603 | 7.19810 | 128° | 77km/h | 7974m | 5.5m/s | -21.1°C | 37.8% | -1.0hPa | 3.0V | 00:00:00 | 00:00:00 | 00:00:00 | |
| DB0UT-7 | 2026-09-05 11:22:46 | 46.74827 | 7.19302 | 126° | 84km/h | 7864m | 6.4m/s | -20.7°C | 51.6% | 0hPa | 3.0V | 00:00:00 | 00:00:00 | 00:00:00 | |
| DB0ND-19 | 2026-09-05 11:22:34 | 46.74964 | 7.18972 | 122° | 80km/h | 7781m | 6.0m/s | -20.5°C | 58.9% | -1.0hPa | 3.0V | 00:00:00 | 00:00:00 | 00:00:00 | |
| DB0UT-7 | 2026-09-05 11:22:16 | 46.75131 | 7.18497 | 112° | 89km/h | 7677m | 5.6m/s | -19.7°C | 62.3% | 0hPa | 3.0V | 00:00:00 | 00:48:36 | 08:30:00 | |
| DB0UT-7 | 2026-09-05 11:21:46 | 46.75448 | 7.17625 | 110° | 89km/h | 7495m | 5.2m/s | -18.2°C | 60.6% | 0hPa | 3.0V | 00:00:00 | 00:00:00 | 00:00:00 | |
| DB0UT-7 | 2026-09-05 11:21:16 | 46.75717 | 7.16716 | 120° | 84km/h | 7316m | 6.9m/s | -16.8°C | 56.0% | 0hPa | 3.0V | 00:00:00 | 00:47:36 | 00:00:00 | |
| DB0ND-19 | 2026-09-05 11:21:01 | 46.76038 | 7.15828 | 117° | 95km/h | 7120m | 6.2m/s | -15.3°C | 54.1% | -1.0hPa | 3.0V | 00:00:00 | 00:00:00 | 00:00:00 | |
| DB0UT-7 | 2026-09-05 11:20:46 | 46.76015 | 7.15890 | 118° | 89km/h | 7132m | 3.9m/s | -15.3°C | 56.1% | 0hPa | 3.0V | 00:00:00 | 00:00:00 | 00:00:00 | |
| DB0ND-19 | 2026-09-05 11:20:30 | 46.76175 | 7.15405 | 114° | 89km/h | 7040m | 5.4m/s | -14.8°C | 55.9% | -1.0hPa | 3.0V | 00:00:00 | 00:00:00 | 00:00:00 | |
| DB0UT-7 | 2026-09-05 11:20:16 | 46.76321 | 7.14998 | 124° | 89km/h | 6956m | 6.0m/s | -14.3°C | 60.6% | 0hPa | 3.0V | 00:00:00 | 00:46:36 | 00:00:00 | |
| DB0ND-19 | 2026-09-05 11:19:59 | 46.76502 | 7.14515 | 114° | 80km/h | 6854m | 5.1m/s | -13.8°C | 61.1% | -1.0hPa | 3.0V | 00:00:00 | 00:00:00 | 00:00:00 | |
| DB0UT-7 | 2026-09-05 11:19:46 | 46.76636 | 7.14118 | 119° | 89km/h | 6779m | 4.2m/s | -13.1°C | 61.9% | 0hPa | 3.0V | 00:00:00 | 00:00:00 | 00:00:00 | |
| DB0ND-19 | 2026-09-05 11:19:28 | 46.76831 | 7.13610 | 123° | 93km/h | 6676m | 6.7m/s | -12.2°C | 56.9% | -1.0hPa | 3.0V | 00:00:00 | 00:00:00 | 00:00:00 | |
| DB0UT-7 | 2026-09-05 11:19:16 | 46.76950 | 7.13252 | 120° | 93km/h | 6608m | 4.3m/s | -11.6°C | 57.7% | 0hPa | 3.0V | 00:00:00 | 00:45:36 | 00:00:00 | |
| DB0UT-7 | 2026-09-05 11:18:46 | 46.77268 | 7.12344 | 117° | 89km/h | 6445m | 7.9m/s | -10.7°C | 66.7% | 0hPa | 3.0V | 00:00:00 | 00:00:00 | 00:00:00 | |
| DB0ND-19 | 2026-09-05 11:18:26 | 46.77477 | 7.11772 | 123° | 84km/h | 6328m | 5.5m/s | -10.1°C | 62.3% | -1.0hPa | 3.0V | 00:00:00 | 00:00:00 | 00:00:00 | |
| DB0UT-7 | 2026-09-05 11:18:16 | 46.77592 | 7.11486 | 118° | 84km/h | 6273m | 7.7m/s | -9.7°C | 54.2% | 0hPa | 3.0V | 00:00:00 | 00:44:36 | 00:00:00 | |
| DB0ND-19 | 2026-09-05 11:17:55 | 46.77797 | 7.10907 | 112° | 91km/h | 6169m | 4.0m/s | -9.1°C | 42.4% | -1.0hPa | 3.0V | 00:00:00 | 00:00:00 | 00:00:00 | |
| DB0UT-7 | 2026-09-05 11:17:46 | 46.77888 | 7.10662 | 122° | 84km/h | 6117m | 5.3m/s | -9.2°C | 45.8% | 0hPa | 3.0V | 00:00:00 | 00:00:00 | 08:30:00 | |
| DB0ND-19 | 2026-09-05 11:17:25 | 46.78111 | 7.10065 | 115° | 91km/h | 6008m | 3.7m/s | -8.7°C | 34.3% | -1.0hPa | 3.0V | 00:00:00 | 00:00:00 | 00:00:00 | |
| DB0UT-7 | 2026-09-05 11:17:16 | 46.78194 | 7.09848 | 116° | 84km/h | 5964m | 5.9m/s | -8.6°C | 33.1% | 0hPa | 3.0V | 00:00:00 | 00:43:36 | 00:00:00 | |
| DB0ND-19 | 2026-09-05 11:16:53 | 46.78355 | 7.09183 | 111° | 82km/h | 5841m | 6.8m/s | 0°C | -1.0% | -1.0hPa | 3.0V | 00:00:00 | 00:00:00 | 00:00:00 | |
| DB0UT-7 | 2026-09-05 11:16:46 | 46.78412 | 7.08981 | 118° | 80km/h | 5805m | 5.1m/s | -8.1°C | 2.2% | 0hPa | 3.0V | 00:00:00 | 00:00:00 | 00:00:00 | |
| DB0ND-19 | 2026-09-05 11:16:22 | 46.78597 | 7.08309 | 104° | 84km/h | 5713m | 4.3m/s | 0°C | -1.0% | -1.0hPa | 3.0V | 00:00:00 | 00:00:00 | 00:00:00 | |
| DB0UT-7 | 2026-09-05 11:16:16 | 46.78635 | 7.08162 | 113° | 78km/h | 5691m | 6.0m/s | -7.6°C | 10.2% | 0hPa | 3.0V | 00:00:00 | 00:42:36 | 00:00:00 | |
| DB0UT-7 | 2026-09-05 11:15:46 | 46.78877 | 7.07366 | 118° | 84km/h | 5523m | 3.4m/s | -6.7°C | 17.5% | 0hPa | 3.0V | 00:00:00 | 00:00:00 | 00:00:00 | |
| DB0ND-19 | 2026-09-05 11:15:20 | 46.79135 | 7.06618 | 116° | 75km/h | 5396m | 3.6m/s | 0°C | -1.0% | -1.0hPa | 3.0V | 00:00:00 | 00:00:00 | 00:00:00 | |
| DB0UT-7 | 2026-09-05 11:15:16 | 46.79161 | 7.06542 | 118° | 78km/h | 5386m | 2.5m/s | -5.8°C | 5.4% | 0hPa | 3.0V | 00:00:00 | 00:41:36 | 00:00:00 | |
| DB0UT-7 | 2026-09-05 11:14:46 | 46.79385 | 7.05742 | 110° | 77km/h | 5245m | 4.5m/s | -4.9°C | 3.9% | 0hPa | 3.0V | 00:00:00 | 00:00:00 | 00:00:00 | |
| DB0UT-7 | 2026-09-05 11:14:16 | 46.79629 | 7.04966 | 114° | 68km/h | 5080m | 4.3m/s | -4.0°C | 1.7% | 0hPa | 0V | 00:00:00 | 00:40:36 | 00:00:00 | |
| DB0UT-7 | 2026-09-05 11:13:46 | 46.79869 | 7.04298 | 117° | 71km/h | 4901m | 4.7m/s | 0°C | 0% | 0hPa | 0V | 00:00:00 | 00:00:00 | 00:00:00 | |
| DB0UT-7 | 2026-09-05 11:13:16 | 46.80139 | 7.03614 | 120° | 69km/h | 4746m | 7.1m/s | 0°C | 0% | 0hPa | 0V | 00:00:00 | 00:39:36 | 00:00:00 |